<?xml version="1.0" encoding="UTF-8" standalone="no" ?>
<gpx xmlns="http://www.topografix.com/GPX/1/1" xmlns:xsi="http://www.w3.org/2001/XMLSchema-instance" xsi:schemaLocation="http://www.topografix.com/GPX/1/1 http://www.topografix.com/GPX/1/1/gpx.xsd" version="1.1" creator="VisuGPX - https://www.visugpx.com">
  <metadata>
    <name>Burnhaupt le Bas</name>
    <desc><![CDATA[boucle]]></desc>
  </metadata>
  <trk>
    <name><![CDATA[Burnhaupt le Bas]]></name>
    <desc><![CDATA[boucle]]></desc>
    <trkseg>
      <trkpt lat="47.733" lon="7.14491">
        <ele>304</ele>
        <time>2021-02-26T09:50:46Z</time>
      </trkpt>
      <trkpt lat="47.733" lon="7.14491">
        <ele>304</ele>
        <time>2021-02-26T09:50:46Z</time>
      </trkpt>
      <trkpt lat="47.733" lon="7.14491">
        <ele>304</ele>
        <time>2021-02-26T09:50:46Z</time>
      </trkpt>
      <trkpt lat="47.73316" lon="7.14482">
        <ele>303</ele>
        <time>2021-02-26T09:50:46Z</time>
      </trkpt>
      <trkpt lat="47.73317" lon="7.14465">
        <ele>304</ele>
        <time>2021-02-26T09:50:46Z</time>
      </trkpt>
      <trkpt lat="47.73317" lon="7.14454">
        <ele>304</ele>
        <time>2021-02-26T09:50:46Z</time>
      </trkpt>
      <trkpt lat="47.73318" lon="7.14441">
        <ele>305</ele>
        <time>2021-02-26T09:50:46Z</time>
      </trkpt>
      <trkpt lat="47.73319" lon="7.14429">
        <ele>305</ele>
        <time>2021-02-26T09:50:46Z</time>
      </trkpt>
      <trkpt lat="47.7332" lon="7.14417">
        <ele>305</ele>
        <time>2021-02-26T09:50:46Z</time>
      </trkpt>
      <trkpt lat="47.7332" lon="7.14404">
        <ele>306</ele>
        <time>2021-02-26T09:50:46Z</time>
      </trkpt>
      <trkpt lat="47.73321" lon="7.14393">
        <ele>306</ele>
        <time>2021-02-26T09:50:46Z</time>
      </trkpt>
      <trkpt lat="47.73322" lon="7.14381">
        <ele>306</ele>
        <time>2021-02-26T09:50:46Z</time>
      </trkpt>
      <trkpt lat="47.73322" lon="7.1437">
        <ele>306</ele>
        <time>2021-02-26T09:50:46Z</time>
      </trkpt>
      <trkpt lat="47.73323" lon="7.14359">
        <ele>307</ele>
        <time>2021-02-26T09:50:46Z</time>
      </trkpt>
      <trkpt lat="47.73323" lon="7.14348">
        <ele>307</ele>
        <time>2021-02-26T09:50:46Z</time>
      </trkpt>
      <trkpt lat="47.73322" lon="7.14338">
        <ele>307</ele>
        <time>2021-02-26T09:50:46Z</time>
      </trkpt>
      <trkpt lat="47.73322" lon="7.14328">
        <ele>307</ele>
        <time>2021-02-26T09:50:46Z</time>
      </trkpt>
      <trkpt lat="47.73322" lon="7.14318">
        <ele>307</ele>
        <time>2021-02-26T09:50:46Z</time>
      </trkpt>
      <trkpt lat="47.73322" lon="7.14307">
        <ele>307</ele>
        <time>2021-02-26T09:50:46Z</time>
      </trkpt>
      <trkpt lat="47.73321" lon="7.14297">
        <ele>308</ele>
        <time>2021-02-26T09:50:46Z</time>
      </trkpt>
      <trkpt lat="47.73321" lon="7.14288">
        <ele>308</ele>
        <time>2021-02-26T09:50:46Z</time>
      </trkpt>
      <trkpt lat="47.73322" lon="7.14278">
        <ele>308</ele>
        <time>2021-02-26T09:50:46Z</time>
      </trkpt>
      <trkpt lat="47.73322" lon="7.14268">
        <ele>308</ele>
        <time>2021-02-26T09:50:46Z</time>
      </trkpt>
      <trkpt lat="47.73322" lon="7.14257">
        <ele>308</ele>
        <time>2021-02-26T09:50:46Z</time>
      </trkpt>
      <trkpt lat="47.7332" lon="7.14246">
        <ele>308</ele>
        <time>2021-02-26T09:50:46Z</time>
      </trkpt>
      <trkpt lat="47.7332" lon="7.14234">
        <ele>309</ele>
        <time>2021-02-26T09:50:46Z</time>
      </trkpt>
      <trkpt lat="47.73321" lon="7.14222">
        <ele>309</ele>
        <time>2021-02-26T09:50:46Z</time>
      </trkpt>
      <trkpt lat="47.73326" lon="7.14212">
        <ele>309</ele>
        <time>2021-02-26T09:50:46Z</time>
      </trkpt>
      <trkpt lat="47.73333" lon="7.14205">
        <ele>309</ele>
        <time>2021-02-26T09:50:46Z</time>
      </trkpt>
      <trkpt lat="47.7334" lon="7.14198">
        <ele>309</ele>
        <time>2021-02-26T09:50:46Z</time>
      </trkpt>
      <trkpt lat="47.73347" lon="7.14191">
        <ele>309</ele>
        <time>2021-02-26T09:50:46Z</time>
      </trkpt>
      <trkpt lat="47.73357" lon="7.14183">
        <ele>309</ele>
        <time>2021-02-26T09:50:46Z</time>
      </trkpt>
      <trkpt lat="47.73365" lon="7.14176">
        <ele>309</ele>
        <time>2021-02-26T09:50:46Z</time>
      </trkpt>
      <trkpt lat="47.73373" lon="7.14168">
        <ele>309</ele>
        <time>2021-02-26T09:50:46Z</time>
      </trkpt>
      <trkpt lat="47.73381" lon="7.14161">
        <ele>309</ele>
        <time>2021-02-26T09:50:46Z</time>
      </trkpt>
      <trkpt lat="47.73389" lon="7.14152">
        <ele>309</ele>
        <time>2021-02-26T09:50:46Z</time>
      </trkpt>
      <trkpt lat="47.73397" lon="7.14144">
        <ele>309</ele>
        <time>2021-02-26T09:50:46Z</time>
      </trkpt>
      <trkpt lat="47.73405" lon="7.14136">
        <ele>309</ele>
        <time>2021-02-26T09:50:46Z</time>
      </trkpt>
      <trkpt lat="47.73413" lon="7.14127">
        <ele>309</ele>
        <time>2021-02-26T09:50:46Z</time>
      </trkpt>
      <trkpt lat="47.73421" lon="7.14119">
        <ele>309</ele>
        <time>2021-02-26T09:50:46Z</time>
      </trkpt>
      <trkpt lat="47.73429" lon="7.14111">
        <ele>309</ele>
        <time>2021-02-26T09:50:46Z</time>
      </trkpt>
      <trkpt lat="47.73436" lon="7.14104">
        <ele>309</ele>
        <time>2021-02-26T09:50:46Z</time>
      </trkpt>
      <trkpt lat="47.73445" lon="7.14096">
        <ele>309</ele>
        <time>2021-02-26T09:50:46Z</time>
      </trkpt>
      <trkpt lat="47.73454" lon="7.14089">
        <ele>309</ele>
        <time>2021-02-26T09:50:46Z</time>
      </trkpt>
      <trkpt lat="47.73463" lon="7.14084">
        <ele>309</ele>
        <time>2021-02-26T09:50:46Z</time>
      </trkpt>
      <trkpt lat="47.73472" lon="7.14079">
        <ele>309</ele>
        <time>2021-02-26T09:50:46Z</time>
      </trkpt>
      <trkpt lat="47.73481" lon="7.14074">
        <ele>309</ele>
        <time>2021-02-26T09:50:46Z</time>
      </trkpt>
      <trkpt lat="47.73491" lon="7.14069">
        <ele>309</ele>
        <time>2021-02-26T09:50:46Z</time>
      </trkpt>
      <trkpt lat="47.735" lon="7.14064">
        <ele>308</ele>
        <time>2021-02-26T09:50:46Z</time>
      </trkpt>
      <trkpt lat="47.7351" lon="7.14058">
        <ele>308</ele>
        <time>2021-02-26T09:50:46Z</time>
      </trkpt>
      <trkpt lat="47.73518" lon="7.14053">
        <ele>308</ele>
        <time>2021-02-26T09:50:46Z</time>
      </trkpt>
      <trkpt lat="47.73528" lon="7.14045">
        <ele>308</ele>
        <time>2021-02-26T09:50:46Z</time>
      </trkpt>
      <trkpt lat="47.73536" lon="7.14035">
        <ele>308</ele>
        <time>2021-02-26T09:50:46Z</time>
      </trkpt>
      <trkpt lat="47.73545" lon="7.14025">
        <ele>307</ele>
        <time>2021-02-26T09:50:46Z</time>
      </trkpt>
      <trkpt lat="47.73554" lon="7.14012">
        <ele>308</ele>
        <time>2021-02-26T09:50:46Z</time>
      </trkpt>
      <trkpt lat="47.73561" lon="7.13999">
        <ele>308</ele>
        <time>2021-02-26T09:50:46Z</time>
      </trkpt>
      <trkpt lat="47.73569" lon="7.13984">
        <ele>308</ele>
        <time>2021-02-26T09:50:46Z</time>
      </trkpt>
      <trkpt lat="47.73576" lon="7.13969">
        <ele>308</ele>
        <time>2021-02-26T09:50:46Z</time>
      </trkpt>
      <trkpt lat="47.73584" lon="7.13954">
        <ele>308</ele>
        <time>2021-02-26T09:50:46Z</time>
      </trkpt>
      <trkpt lat="47.73592" lon="7.13939">
        <ele>308</ele>
        <time>2021-02-26T09:50:46Z</time>
      </trkpt>
      <trkpt lat="47.736" lon="7.13924">
        <ele>308</ele>
        <time>2021-02-26T09:50:46Z</time>
      </trkpt>
      <trkpt lat="47.73609" lon="7.13909">
        <ele>308</ele>
        <time>2021-02-26T09:50:46Z</time>
      </trkpt>
      <trkpt lat="47.73618" lon="7.13896">
        <ele>307</ele>
        <time>2021-02-26T09:50:46Z</time>
      </trkpt>
      <trkpt lat="47.7363" lon="7.13885">
        <ele>306</ele>
        <time>2021-02-26T09:50:46Z</time>
      </trkpt>
      <trkpt lat="47.73644" lon="7.13877">
        <ele>305</ele>
        <time>2021-02-26T09:50:46Z</time>
      </trkpt>
      <trkpt lat="47.73658" lon="7.13869">
        <ele>304</ele>
        <time>2021-02-26T09:50:46Z</time>
      </trkpt>
      <trkpt lat="47.73672" lon="7.13864">
        <ele>304</ele>
        <time>2021-02-26T09:50:46Z</time>
      </trkpt>
      <trkpt lat="47.73684" lon="7.13858">
        <ele>303</ele>
        <time>2021-02-26T09:50:46Z</time>
      </trkpt>
      <trkpt lat="47.73697" lon="7.13854">
        <ele>303</ele>
        <time>2021-02-26T09:50:46Z</time>
      </trkpt>
      <trkpt lat="47.73709" lon="7.13847">
        <ele>303</ele>
        <time>2021-02-26T09:50:46Z</time>
      </trkpt>
      <trkpt lat="47.73721" lon="7.13836">
        <ele>303</ele>
        <time>2021-02-26T09:50:46Z</time>
      </trkpt>
      <trkpt lat="47.73731" lon="7.13825">
        <ele>303</ele>
        <time>2021-02-26T09:50:46Z</time>
      </trkpt>
      <trkpt lat="47.73741" lon="7.13811">
        <ele>303</ele>
        <time>2021-02-26T09:50:46Z</time>
      </trkpt>
      <trkpt lat="47.73751" lon="7.13796">
        <ele>303</ele>
        <time>2021-02-26T09:50:46Z</time>
      </trkpt>
      <trkpt lat="47.73762" lon="7.13783">
        <ele>304</ele>
        <time>2021-02-26T09:50:46Z</time>
      </trkpt>
      <trkpt lat="47.73774" lon="7.13771">
        <ele>304</ele>
        <time>2021-02-26T09:50:46Z</time>
      </trkpt>
      <trkpt lat="47.73783" lon="7.13759">
        <ele>304</ele>
        <time>2021-02-26T09:50:46Z</time>
      </trkpt>
      <trkpt lat="47.73794" lon="7.13746">
        <ele>304</ele>
        <time>2021-02-26T09:50:46Z</time>
      </trkpt>
      <trkpt lat="47.73804" lon="7.13733">
        <ele>304</ele>
        <time>2021-02-26T09:50:46Z</time>
      </trkpt>
      <trkpt lat="47.73814" lon="7.13719">
        <ele>304</ele>
        <time>2021-02-26T09:50:46Z</time>
      </trkpt>
      <trkpt lat="47.73823" lon="7.13705">
        <ele>304</ele>
        <time>2021-02-26T09:50:46Z</time>
      </trkpt>
      <trkpt lat="47.73833" lon="7.13692">
        <ele>304</ele>
        <time>2021-02-26T09:50:46Z</time>
      </trkpt>
      <trkpt lat="47.73843" lon="7.13679">
        <ele>304</ele>
        <time>2021-02-26T09:50:46Z</time>
      </trkpt>
      <trkpt lat="47.73853" lon="7.13666">
        <ele>304</ele>
        <time>2021-02-26T09:50:46Z</time>
      </trkpt>
      <trkpt lat="47.73863" lon="7.13654">
        <ele>304</ele>
        <time>2021-02-26T09:50:46Z</time>
      </trkpt>
      <trkpt lat="47.73872" lon="7.1364">
        <ele>304</ele>
        <time>2021-02-26T09:50:46Z</time>
      </trkpt>
      <trkpt lat="47.73881" lon="7.13628">
        <ele>304</ele>
        <time>2021-02-26T09:50:46Z</time>
      </trkpt>
      <trkpt lat="47.7389" lon="7.13616">
        <ele>304</ele>
        <time>2021-02-26T09:50:46Z</time>
      </trkpt>
      <trkpt lat="47.73899" lon="7.13604">
        <ele>304</ele>
        <time>2021-02-26T09:50:46Z</time>
      </trkpt>
      <trkpt lat="47.73907" lon="7.13591">
        <ele>304</ele>
        <time>2021-02-26T09:50:46Z</time>
      </trkpt>
      <trkpt lat="47.73916" lon="7.13578">
        <ele>304</ele>
        <time>2021-02-26T09:50:46Z</time>
      </trkpt>
      <trkpt lat="47.73925" lon="7.13566">
        <ele>304</ele>
        <time>2021-02-26T09:50:46Z</time>
      </trkpt>
      <trkpt lat="47.73934" lon="7.13553">
        <ele>304</ele>
        <time>2021-02-26T09:50:46Z</time>
      </trkpt>
      <trkpt lat="47.73943" lon="7.13541">
        <ele>303</ele>
        <time>2021-02-26T09:50:46Z</time>
      </trkpt>
      <trkpt lat="47.73952" lon="7.13527">
        <ele>303</ele>
        <time>2021-02-26T09:50:46Z</time>
      </trkpt>
      <trkpt lat="47.7396" lon="7.13515">
        <ele>304</ele>
        <time>2021-02-26T09:50:46Z</time>
      </trkpt>
      <trkpt lat="47.73969" lon="7.13502">
        <ele>304</ele>
        <time>2021-02-26T09:50:46Z</time>
      </trkpt>
      <trkpt lat="47.73977" lon="7.13489">
        <ele>304</ele>
        <time>2021-02-26T09:50:46Z</time>
      </trkpt>
      <trkpt lat="47.73985" lon="7.13476">
        <ele>304</ele>
        <time>2021-02-26T09:50:46Z</time>
      </trkpt>
      <trkpt lat="47.73993" lon="7.13464">
        <ele>304</ele>
        <time>2021-02-26T09:50:46Z</time>
      </trkpt>
      <trkpt lat="47.74001" lon="7.13452">
        <ele>304</ele>
        <time>2021-02-26T09:50:46Z</time>
      </trkpt>
      <trkpt lat="47.74008" lon="7.13439">
        <ele>304</ele>
        <time>2021-02-26T09:50:46Z</time>
      </trkpt>
      <trkpt lat="47.74015" lon="7.13426">
        <ele>304</ele>
        <time>2021-02-26T09:50:46Z</time>
      </trkpt>
      <trkpt lat="47.74022" lon="7.13413">
        <ele>304</ele>
        <time>2021-02-26T09:50:46Z</time>
      </trkpt>
      <trkpt lat="47.7403" lon="7.13401">
        <ele>304</ele>
        <time>2021-02-26T09:50:46Z</time>
      </trkpt>
      <trkpt lat="47.74037" lon="7.1339">
        <ele>304</ele>
        <time>2021-02-26T09:50:46Z</time>
      </trkpt>
      <trkpt lat="47.74044" lon="7.13378">
        <ele>304</ele>
        <time>2021-02-26T09:50:46Z</time>
      </trkpt>
      <trkpt lat="47.74051" lon="7.13366">
        <ele>305</ele>
        <time>2021-02-26T09:50:46Z</time>
      </trkpt>
      <trkpt lat="47.74058" lon="7.13354">
        <ele>305</ele>
        <time>2021-02-26T09:50:46Z</time>
      </trkpt>
      <trkpt lat="47.74065" lon="7.13343">
        <ele>305</ele>
        <time>2021-02-26T09:50:46Z</time>
      </trkpt>
      <trkpt lat="47.74073" lon="7.13334">
        <ele>305</ele>
        <time>2021-02-26T09:50:46Z</time>
      </trkpt>
      <trkpt lat="47.74081" lon="7.13324">
        <ele>305</ele>
        <time>2021-02-26T09:50:46Z</time>
      </trkpt>
      <trkpt lat="47.7409" lon="7.13316">
        <ele>305</ele>
        <time>2021-02-26T09:50:46Z</time>
      </trkpt>
      <trkpt lat="47.74099" lon="7.13309">
        <ele>306</ele>
        <time>2021-02-26T09:50:46Z</time>
      </trkpt>
      <trkpt lat="47.74106" lon="7.13302">
        <ele>306</ele>
        <time>2021-02-26T09:50:46Z</time>
      </trkpt>
      <trkpt lat="47.74112" lon="7.13292">
        <ele>306</ele>
        <time>2021-02-26T09:50:46Z</time>
      </trkpt>
      <trkpt lat="47.74115" lon="7.13279">
        <ele>306</ele>
        <time>2021-02-26T09:50:46Z</time>
      </trkpt>
      <trkpt lat="47.74118" lon="7.13265">
        <ele>306</ele>
        <time>2021-02-26T09:50:46Z</time>
      </trkpt>
      <trkpt lat="47.7412" lon="7.13251">
        <ele>307</ele>
        <time>2021-02-26T09:50:46Z</time>
      </trkpt>
      <trkpt lat="47.7412" lon="7.13237">
        <ele>307</ele>
        <time>2021-02-26T09:50:46Z</time>
      </trkpt>
      <trkpt lat="47.7412" lon="7.13223">
        <ele>307</ele>
        <time>2021-02-26T09:50:46Z</time>
      </trkpt>
      <trkpt lat="47.74118" lon="7.13208">
        <ele>307</ele>
        <time>2021-02-26T09:50:46Z</time>
      </trkpt>
      <trkpt lat="47.74115" lon="7.13193">
        <ele>307</ele>
        <time>2021-02-26T09:50:46Z</time>
      </trkpt>
      <trkpt lat="47.74112" lon="7.13177">
        <ele>307</ele>
        <time>2021-02-26T09:50:46Z</time>
      </trkpt>
      <trkpt lat="47.7411" lon="7.13161">
        <ele>308</ele>
        <time>2021-02-26T09:50:46Z</time>
      </trkpt>
      <trkpt lat="47.74109" lon="7.13145">
        <ele>308</ele>
        <time>2021-02-26T09:50:46Z</time>
      </trkpt>
      <trkpt lat="47.74107" lon="7.13129">
        <ele>309</ele>
        <time>2021-02-26T09:50:46Z</time>
      </trkpt>
      <trkpt lat="47.74105" lon="7.13111">
        <ele>309</ele>
        <time>2021-02-26T09:50:46Z</time>
      </trkpt>
      <trkpt lat="47.74105" lon="7.13094">
        <ele>310</ele>
        <time>2021-02-26T09:50:46Z</time>
      </trkpt>
      <trkpt lat="47.74104" lon="7.13078">
        <ele>311</ele>
        <time>2021-02-26T09:50:46Z</time>
      </trkpt>
      <trkpt lat="47.74104" lon="7.13062">
        <ele>311</ele>
        <time>2021-02-26T09:50:46Z</time>
      </trkpt>
      <trkpt lat="47.74106" lon="7.13046">
        <ele>312</ele>
        <time>2021-02-26T09:50:46Z</time>
      </trkpt>
      <trkpt lat="47.74109" lon="7.1303">
        <ele>313</ele>
        <time>2021-02-26T09:50:46Z</time>
      </trkpt>
      <trkpt lat="47.7411" lon="7.13013">
        <ele>314</ele>
        <time>2021-02-26T09:50:46Z</time>
      </trkpt>
      <trkpt lat="47.74111" lon="7.12997">
        <ele>315</ele>
        <time>2021-02-26T09:50:46Z</time>
      </trkpt>
      <trkpt lat="47.7411" lon="7.1298">
        <ele>315</ele>
        <time>2021-02-26T09:50:46Z</time>
      </trkpt>
      <trkpt lat="47.7411" lon="7.12963">
        <ele>315</ele>
        <time>2021-02-26T09:50:46Z</time>
      </trkpt>
      <trkpt lat="47.74109" lon="7.12946">
        <ele>316</ele>
        <time>2021-02-26T09:50:46Z</time>
      </trkpt>
      <trkpt lat="47.74109" lon="7.12929">
        <ele>316</ele>
        <time>2021-02-26T09:50:46Z</time>
      </trkpt>
      <trkpt lat="47.74109" lon="7.12913">
        <ele>316</ele>
        <time>2021-02-26T09:50:46Z</time>
      </trkpt>
      <trkpt lat="47.74108" lon="7.12897">
        <ele>317</ele>
        <time>2021-02-26T09:50:46Z</time>
      </trkpt>
      <trkpt lat="47.74108" lon="7.12881">
        <ele>318</ele>
        <time>2021-02-26T09:50:46Z</time>
      </trkpt>
      <trkpt lat="47.74109" lon="7.12864">
        <ele>318</ele>
        <time>2021-02-26T09:50:46Z</time>
      </trkpt>
      <trkpt lat="47.74109" lon="7.12848">
        <ele>319</ele>
        <time>2021-02-26T09:50:46Z</time>
      </trkpt>
      <trkpt lat="47.74109" lon="7.12831">
        <ele>319</ele>
        <time>2021-02-26T09:50:46Z</time>
      </trkpt>
      <trkpt lat="47.74111" lon="7.12816">
        <ele>319</ele>
        <time>2021-02-26T09:50:46Z</time>
      </trkpt>
      <trkpt lat="47.74112" lon="7.128">
        <ele>319</ele>
        <time>2021-02-26T09:50:46Z</time>
      </trkpt>
      <trkpt lat="47.74113" lon="7.12785">
        <ele>320</ele>
        <time>2021-02-26T09:50:46Z</time>
      </trkpt>
      <trkpt lat="47.74113" lon="7.1277">
        <ele>320</ele>
        <time>2021-02-26T09:50:46Z</time>
      </trkpt>
      <trkpt lat="47.74116" lon="7.12756">
        <ele>320</ele>
        <time>2021-02-26T09:50:46Z</time>
      </trkpt>
      <trkpt lat="47.74117" lon="7.12741">
        <ele>320</ele>
        <time>2021-02-26T09:50:46Z</time>
      </trkpt>
      <trkpt lat="47.74117" lon="7.12726">
        <ele>319</ele>
        <time>2021-02-26T09:50:46Z</time>
      </trkpt>
      <trkpt lat="47.74121" lon="7.1271">
        <ele>318</ele>
        <time>2021-02-26T09:50:46Z</time>
      </trkpt>
      <trkpt lat="47.74124" lon="7.12696">
        <ele>317</ele>
        <time>2021-02-26T09:50:46Z</time>
      </trkpt>
      <trkpt lat="47.74126" lon="7.12681">
        <ele>316</ele>
        <time>2021-02-26T09:50:46Z</time>
      </trkpt>
      <trkpt lat="47.7413" lon="7.12664">
        <ele>316</ele>
        <time>2021-02-26T09:50:46Z</time>
      </trkpt>
      <trkpt lat="47.74133" lon="7.12649">
        <ele>315</ele>
        <time>2021-02-26T09:50:46Z</time>
      </trkpt>
      <trkpt lat="47.74135" lon="7.12633">
        <ele>315</ele>
        <time>2021-02-26T09:50:46Z</time>
      </trkpt>
      <trkpt lat="47.74139" lon="7.12617">
        <ele>315</ele>
        <time>2021-02-26T09:50:46Z</time>
      </trkpt>
      <trkpt lat="47.74142" lon="7.12601">
        <ele>314</ele>
        <time>2021-02-26T09:50:46Z</time>
      </trkpt>
      <trkpt lat="47.74144" lon="7.12586">
        <ele>314</ele>
        <time>2021-02-26T09:50:46Z</time>
      </trkpt>
      <trkpt lat="47.74147" lon="7.12571">
        <ele>315</ele>
        <time>2021-02-26T09:50:46Z</time>
      </trkpt>
      <trkpt lat="47.74149" lon="7.12556">
        <ele>315</ele>
        <time>2021-02-26T09:50:46Z</time>
      </trkpt>
      <trkpt lat="47.74152" lon="7.12541">
        <ele>316</ele>
        <time>2021-02-26T09:50:46Z</time>
      </trkpt>
      <trkpt lat="47.74156" lon="7.12526">
        <ele>316</ele>
        <time>2021-02-26T09:50:46Z</time>
      </trkpt>
      <trkpt lat="47.74159" lon="7.12511">
        <ele>316</ele>
        <time>2021-02-26T09:50:46Z</time>
      </trkpt>
      <trkpt lat="47.74162" lon="7.12495">
        <ele>316</ele>
        <time>2021-02-26T09:50:46Z</time>
      </trkpt>
      <trkpt lat="47.74164" lon="7.1248">
        <ele>316</ele>
        <time>2021-02-26T09:50:46Z</time>
      </trkpt>
      <trkpt lat="47.74168" lon="7.12466">
        <ele>316</ele>
        <time>2021-02-26T09:50:46Z</time>
      </trkpt>
      <trkpt lat="47.74172" lon="7.12451">
        <ele>317</ele>
        <time>2021-02-26T09:50:46Z</time>
      </trkpt>
      <trkpt lat="47.74175" lon="7.12434">
        <ele>317</ele>
        <time>2021-02-26T09:50:46Z</time>
      </trkpt>
      <trkpt lat="47.74177" lon="7.12418">
        <ele>317</ele>
        <time>2021-02-26T09:50:46Z</time>
      </trkpt>
      <trkpt lat="47.7418" lon="7.12404">
        <ele>317</ele>
        <time>2021-02-26T09:50:46Z</time>
      </trkpt>
      <trkpt lat="47.74183" lon="7.12388">
        <ele>317</ele>
        <time>2021-02-26T09:50:46Z</time>
      </trkpt>
      <trkpt lat="47.74186" lon="7.12373">
        <ele>318</ele>
        <time>2021-02-26T09:50:46Z</time>
      </trkpt>
      <trkpt lat="47.7419" lon="7.12358">
        <ele>318</ele>
        <time>2021-02-26T09:50:46Z</time>
      </trkpt>
      <trkpt lat="47.74194" lon="7.12343">
        <ele>318</ele>
        <time>2021-02-26T09:50:46Z</time>
      </trkpt>
      <trkpt lat="47.74197" lon="7.12328">
        <ele>318</ele>
        <time>2021-02-26T09:50:46Z</time>
      </trkpt>
      <trkpt lat="47.74201" lon="7.12312">
        <ele>318</ele>
        <time>2021-02-26T09:50:46Z</time>
      </trkpt>
      <trkpt lat="47.74203" lon="7.12296">
        <ele>318</ele>
        <time>2021-02-26T09:50:46Z</time>
      </trkpt>
      <trkpt lat="47.74206" lon="7.12279">
        <ele>318</ele>
        <time>2021-02-26T09:50:46Z</time>
      </trkpt>
      <trkpt lat="47.7421" lon="7.12264">
        <ele>318</ele>
        <time>2021-02-26T09:50:46Z</time>
      </trkpt>
      <trkpt lat="47.74212" lon="7.12249">
        <ele>318</ele>
        <time>2021-02-26T09:50:46Z</time>
      </trkpt>
      <trkpt lat="47.74216" lon="7.12234">
        <ele>318</ele>
        <time>2021-02-26T09:50:46Z</time>
      </trkpt>
      <trkpt lat="47.74219" lon="7.12219">
        <ele>318</ele>
        <time>2021-02-26T09:50:46Z</time>
      </trkpt>
      <trkpt lat="47.74223" lon="7.12204">
        <ele>318</ele>
        <time>2021-02-26T09:50:46Z</time>
      </trkpt>
      <trkpt lat="47.74226" lon="7.12189">
        <ele>318</ele>
        <time>2021-02-26T09:50:46Z</time>
      </trkpt>
      <trkpt lat="47.7423" lon="7.12174">
        <ele>318</ele>
        <time>2021-02-26T09:50:46Z</time>
      </trkpt>
      <trkpt lat="47.74234" lon="7.1216">
        <ele>318</ele>
        <time>2021-02-26T09:50:46Z</time>
      </trkpt>
      <trkpt lat="47.74236" lon="7.12147">
        <ele>318</ele>
        <time>2021-02-26T09:50:46Z</time>
      </trkpt>
      <trkpt lat="47.7424" lon="7.12133">
        <ele>317</ele>
        <time>2021-02-26T09:50:46Z</time>
      </trkpt>
      <trkpt lat="47.74242" lon="7.12117">
        <ele>317</ele>
        <time>2021-02-26T09:50:46Z</time>
      </trkpt>
      <trkpt lat="47.74245" lon="7.121">
        <ele>317</ele>
        <time>2021-02-26T09:50:46Z</time>
      </trkpt>
      <trkpt lat="47.74249" lon="7.12085">
        <ele>317</ele>
        <time>2021-02-26T09:50:46Z</time>
      </trkpt>
      <trkpt lat="47.74252" lon="7.12068">
        <ele>317</ele>
        <time>2021-02-26T09:50:46Z</time>
      </trkpt>
      <trkpt lat="47.74255" lon="7.12051">
        <ele>317</ele>
        <time>2021-02-26T09:50:46Z</time>
      </trkpt>
      <trkpt lat="47.74258" lon="7.12036">
        <ele>317</ele>
        <time>2021-02-26T09:50:46Z</time>
      </trkpt>
      <trkpt lat="47.74261" lon="7.12021">
        <ele>317</ele>
        <time>2021-02-26T09:50:46Z</time>
      </trkpt>
      <trkpt lat="47.74265" lon="7.12006">
        <ele>317</ele>
        <time>2021-02-26T09:50:46Z</time>
      </trkpt>
      <trkpt lat="47.74268" lon="7.11992">
        <ele>317</ele>
        <time>2021-02-26T09:50:46Z</time>
      </trkpt>
      <trkpt lat="47.74271" lon="7.11978">
        <ele>317</ele>
        <time>2021-02-26T09:50:46Z</time>
      </trkpt>
      <trkpt lat="47.74274" lon="7.11964">
        <ele>318</ele>
        <time>2021-02-26T09:50:46Z</time>
      </trkpt>
      <trkpt lat="47.74277" lon="7.11948">
        <ele>318</ele>
        <time>2021-02-26T09:50:46Z</time>
      </trkpt>
      <trkpt lat="47.74281" lon="7.11934">
        <ele>318</ele>
        <time>2021-02-26T09:50:46Z</time>
      </trkpt>
      <trkpt lat="47.74284" lon="7.11919">
        <ele>318</ele>
        <time>2021-02-26T09:50:46Z</time>
      </trkpt>
      <trkpt lat="47.74288" lon="7.11906">
        <ele>319</ele>
        <time>2021-02-26T09:50:46Z</time>
      </trkpt>
      <trkpt lat="47.7429" lon="7.1189">
        <ele>319</ele>
        <time>2021-02-26T09:50:46Z</time>
      </trkpt>
      <trkpt lat="47.74293" lon="7.11875">
        <ele>320</ele>
        <time>2021-02-26T09:50:46Z</time>
      </trkpt>
      <trkpt lat="47.74297" lon="7.11859">
        <ele>320</ele>
        <time>2021-02-26T09:50:46Z</time>
      </trkpt>
      <trkpt lat="47.743" lon="7.11844">
        <ele>321</ele>
        <time>2021-02-26T09:50:46Z</time>
      </trkpt>
      <trkpt lat="47.74303" lon="7.1183">
        <ele>321</ele>
        <time>2021-02-26T09:50:46Z</time>
      </trkpt>
      <trkpt lat="47.74307" lon="7.11815">
        <ele>321</ele>
        <time>2021-02-26T09:50:46Z</time>
      </trkpt>
      <trkpt lat="47.7431" lon="7.11802">
        <ele>322</ele>
        <time>2021-02-26T09:50:46Z</time>
      </trkpt>
      <trkpt lat="47.74313" lon="7.11786">
        <ele>322</ele>
        <time>2021-02-26T09:50:46Z</time>
      </trkpt>
      <trkpt lat="47.74315" lon="7.11771">
        <ele>323</ele>
        <time>2021-02-26T09:50:46Z</time>
      </trkpt>
      <trkpt lat="47.74318" lon="7.11756">
        <ele>323</ele>
        <time>2021-02-26T09:50:46Z</time>
      </trkpt>
      <trkpt lat="47.74322" lon="7.1174">
        <ele>323</ele>
        <time>2021-02-26T09:50:46Z</time>
      </trkpt>
      <trkpt lat="47.74325" lon="7.11725">
        <ele>323</ele>
        <time>2021-02-26T09:50:46Z</time>
      </trkpt>
      <trkpt lat="47.74329" lon="7.11708">
        <ele>323</ele>
        <time>2021-02-26T09:50:46Z</time>
      </trkpt>
      <trkpt lat="47.74331" lon="7.11693">
        <ele>323</ele>
        <time>2021-02-26T09:50:46Z</time>
      </trkpt>
      <trkpt lat="47.74335" lon="7.11676">
        <ele>323</ele>
        <time>2021-02-26T09:50:46Z</time>
      </trkpt>
      <trkpt lat="47.74338" lon="7.1166">
        <ele>323</ele>
        <time>2021-02-26T09:50:46Z</time>
      </trkpt>
      <trkpt lat="47.74341" lon="7.11645">
        <ele>322</ele>
        <time>2021-02-26T09:50:46Z</time>
      </trkpt>
      <trkpt lat="47.74345" lon="7.1163">
        <ele>322</ele>
        <time>2021-02-26T09:50:46Z</time>
      </trkpt>
      <trkpt lat="47.74348" lon="7.11613">
        <ele>321</ele>
        <time>2021-02-26T09:50:46Z</time>
      </trkpt>
      <trkpt lat="47.74352" lon="7.11597">
        <ele>321</ele>
        <time>2021-02-26T09:50:46Z</time>
      </trkpt>
      <trkpt lat="47.74354" lon="7.11583">
        <ele>321</ele>
        <time>2021-02-26T09:50:46Z</time>
      </trkpt>
      <trkpt lat="47.74357" lon="7.11567">
        <ele>321</ele>
        <time>2021-02-26T09:50:46Z</time>
      </trkpt>
      <trkpt lat="47.7436" lon="7.11551">
        <ele>320</ele>
        <time>2021-02-26T09:50:46Z</time>
      </trkpt>
      <trkpt lat="47.74364" lon="7.11535">
        <ele>320</ele>
        <time>2021-02-26T09:50:46Z</time>
      </trkpt>
      <trkpt lat="47.74368" lon="7.1152">
        <ele>320</ele>
        <time>2021-02-26T09:50:46Z</time>
      </trkpt>
      <trkpt lat="47.7437" lon="7.11506">
        <ele>320</ele>
        <time>2021-02-26T09:50:46Z</time>
      </trkpt>
      <trkpt lat="47.74374" lon="7.1149">
        <ele>320</ele>
        <time>2021-02-26T09:50:46Z</time>
      </trkpt>
      <trkpt lat="47.74376" lon="7.11476">
        <ele>320</ele>
        <time>2021-02-26T09:50:46Z</time>
      </trkpt>
      <trkpt lat="47.7438" lon="7.1146">
        <ele>320</ele>
        <time>2021-02-26T09:50:46Z</time>
      </trkpt>
      <trkpt lat="47.74383" lon="7.11446">
        <ele>320</ele>
        <time>2021-02-26T09:50:46Z</time>
      </trkpt>
      <trkpt lat="47.74385" lon="7.11431">
        <ele>320</ele>
        <time>2021-02-26T09:50:46Z</time>
      </trkpt>
      <trkpt lat="47.74389" lon="7.11416">
        <ele>320</ele>
        <time>2021-02-26T09:50:46Z</time>
      </trkpt>
      <trkpt lat="47.74392" lon="7.114">
        <ele>321</ele>
        <time>2021-02-26T09:50:46Z</time>
      </trkpt>
      <trkpt lat="47.74395" lon="7.11385">
        <ele>321</ele>
        <time>2021-02-26T09:50:46Z</time>
      </trkpt>
      <trkpt lat="47.744" lon="7.1137">
        <ele>322</ele>
        <time>2021-02-26T09:50:46Z</time>
      </trkpt>
      <trkpt lat="47.74403" lon="7.11353">
        <ele>322</ele>
        <time>2021-02-26T09:50:46Z</time>
      </trkpt>
      <trkpt lat="47.74407" lon="7.11338">
        <ele>322</ele>
        <time>2021-02-26T09:50:46Z</time>
      </trkpt>
      <trkpt lat="47.7441" lon="7.11323">
        <ele>323</ele>
        <time>2021-02-26T09:50:46Z</time>
      </trkpt>
      <trkpt lat="47.74413" lon="7.11307">
        <ele>324</ele>
        <time>2021-02-26T09:50:46Z</time>
      </trkpt>
      <trkpt lat="47.74416" lon="7.11292">
        <ele>324</ele>
        <time>2021-02-26T09:50:46Z</time>
      </trkpt>
      <trkpt lat="47.74419" lon="7.11276">
        <ele>325</ele>
        <time>2021-02-26T09:50:46Z</time>
      </trkpt>
      <trkpt lat="47.74422" lon="7.11261">
        <ele>325</ele>
        <time>2021-02-26T09:50:46Z</time>
      </trkpt>
      <trkpt lat="47.74425" lon="7.11246">
        <ele>326</ele>
        <time>2021-02-26T09:50:46Z</time>
      </trkpt>
      <trkpt lat="47.74429" lon="7.1123">
        <ele>326</ele>
        <time>2021-02-26T09:50:46Z</time>
      </trkpt>
      <trkpt lat="47.74432" lon="7.11214">
        <ele>326</ele>
        <time>2021-02-26T09:50:46Z</time>
      </trkpt>
      <trkpt lat="47.74435" lon="7.112">
        <ele>326</ele>
        <time>2021-02-26T09:50:46Z</time>
      </trkpt>
      <trkpt lat="47.74439" lon="7.11184">
        <ele>326</ele>
        <time>2021-02-26T09:50:46Z</time>
      </trkpt>
      <trkpt lat="47.74443" lon="7.11169">
        <ele>327</ele>
        <time>2021-02-26T09:50:46Z</time>
      </trkpt>
      <trkpt lat="47.74446" lon="7.11154">
        <ele>327</ele>
        <time>2021-02-26T09:50:46Z</time>
      </trkpt>
      <trkpt lat="47.74448" lon="7.11138">
        <ele>326</ele>
        <time>2021-02-26T09:50:46Z</time>
      </trkpt>
      <trkpt lat="47.74451" lon="7.11123">
        <ele>326</ele>
        <time>2021-02-26T09:50:46Z</time>
      </trkpt>
      <trkpt lat="47.74453" lon="7.11109">
        <ele>326</ele>
        <time>2021-02-26T09:50:46Z</time>
      </trkpt>
      <trkpt lat="47.74456" lon="7.11094">
        <ele>326</ele>
        <time>2021-02-26T09:50:46Z</time>
      </trkpt>
      <trkpt lat="47.7446" lon="7.11079">
        <ele>325</ele>
        <time>2021-02-26T09:50:46Z</time>
      </trkpt>
      <trkpt lat="47.74463" lon="7.11065">
        <ele>325</ele>
        <time>2021-02-26T09:50:46Z</time>
      </trkpt>
      <trkpt lat="47.74465" lon="7.11051">
        <ele>324</ele>
        <time>2021-02-26T09:50:46Z</time>
      </trkpt>
      <trkpt lat="47.74469" lon="7.11035">
        <ele>323</ele>
        <time>2021-02-26T09:50:46Z</time>
      </trkpt>
      <trkpt lat="47.74472" lon="7.1102">
        <ele>323</ele>
        <time>2021-02-26T09:50:46Z</time>
      </trkpt>
      <trkpt lat="47.74475" lon="7.11006">
        <ele>322</ele>
        <time>2021-02-26T09:50:46Z</time>
      </trkpt>
      <trkpt lat="47.74478" lon="7.1099">
        <ele>321</ele>
        <time>2021-02-26T09:50:46Z</time>
      </trkpt>
      <trkpt lat="47.74482" lon="7.10975">
        <ele>321</ele>
        <time>2021-02-26T09:50:46Z</time>
      </trkpt>
      <trkpt lat="47.74485" lon="7.10959">
        <ele>321</ele>
        <time>2021-02-26T09:50:46Z</time>
      </trkpt>
      <trkpt lat="47.74488" lon="7.10944">
        <ele>321</ele>
        <time>2021-02-26T09:50:46Z</time>
      </trkpt>
      <trkpt lat="47.74492" lon="7.10928">
        <ele>320</ele>
        <time>2021-02-26T09:50:46Z</time>
      </trkpt>
      <trkpt lat="47.74495" lon="7.10913">
        <ele>320</ele>
        <time>2021-02-26T09:50:46Z</time>
      </trkpt>
      <trkpt lat="47.74498" lon="7.10897">
        <ele>321</ele>
        <time>2021-02-26T09:50:46Z</time>
      </trkpt>
      <trkpt lat="47.74501" lon="7.1088">
        <ele>321</ele>
        <time>2021-02-26T09:50:46Z</time>
      </trkpt>
      <trkpt lat="47.74505" lon="7.10863">
        <ele>322</ele>
        <time>2021-02-26T09:50:46Z</time>
      </trkpt>
      <trkpt lat="47.74508" lon="7.10847">
        <ele>322</ele>
        <time>2021-02-26T09:50:46Z</time>
      </trkpt>
      <trkpt lat="47.74512" lon="7.10831">
        <ele>323</ele>
        <time>2021-02-26T09:50:46Z</time>
      </trkpt>
      <trkpt lat="47.74516" lon="7.10815">
        <ele>322</ele>
        <time>2021-02-26T09:50:46Z</time>
      </trkpt>
      <trkpt lat="47.7452" lon="7.10797">
        <ele>322</ele>
        <time>2021-02-26T09:50:46Z</time>
      </trkpt>
      <trkpt lat="47.74524" lon="7.1078">
        <ele>322</ele>
        <time>2021-02-26T09:50:46Z</time>
      </trkpt>
      <trkpt lat="47.74526" lon="7.10764">
        <ele>322</ele>
        <time>2021-02-26T09:50:46Z</time>
      </trkpt>
      <trkpt lat="47.7453" lon="7.10747">
        <ele>322</ele>
        <time>2021-02-26T09:50:46Z</time>
      </trkpt>
      <trkpt lat="47.74533" lon="7.1073">
        <ele>322</ele>
        <time>2021-02-26T09:50:46Z</time>
      </trkpt>
      <trkpt lat="47.74537" lon="7.10714">
        <ele>322</ele>
        <time>2021-02-26T09:50:46Z</time>
      </trkpt>
      <trkpt lat="47.7454" lon="7.10698">
        <ele>321</ele>
        <time>2021-02-26T09:50:46Z</time>
      </trkpt>
      <trkpt lat="47.74544" lon="7.10682">
        <ele>322</ele>
        <time>2021-02-26T09:50:46Z</time>
      </trkpt>
      <trkpt lat="47.74546" lon="7.10666">
        <ele>322</ele>
        <time>2021-02-26T09:50:46Z</time>
      </trkpt>
      <trkpt lat="47.74549" lon="7.1065">
        <ele>322</ele>
        <time>2021-02-26T09:50:46Z</time>
      </trkpt>
      <trkpt lat="47.74553" lon="7.10634">
        <ele>322</ele>
        <time>2021-02-26T09:50:46Z</time>
      </trkpt>
      <trkpt lat="47.74556" lon="7.10618">
        <ele>322</ele>
        <time>2021-02-26T09:50:46Z</time>
      </trkpt>
      <trkpt lat="47.74559" lon="7.10602">
        <ele>322</ele>
        <time>2021-02-26T09:50:46Z</time>
      </trkpt>
      <trkpt lat="47.74563" lon="7.10586">
        <ele>322</ele>
        <time>2021-02-26T09:50:46Z</time>
      </trkpt>
      <trkpt lat="47.74567" lon="7.1057">
        <ele>321</ele>
        <time>2021-02-26T09:50:46Z</time>
      </trkpt>
      <trkpt lat="47.7457" lon="7.10554">
        <ele>321</ele>
        <time>2021-02-26T09:50:46Z</time>
      </trkpt>
      <trkpt lat="47.74574" lon="7.10538">
        <ele>321</ele>
        <time>2021-02-26T09:50:46Z</time>
      </trkpt>
      <trkpt lat="47.74577" lon="7.10522">
        <ele>321</ele>
        <time>2021-02-26T09:50:46Z</time>
      </trkpt>
      <trkpt lat="47.7458" lon="7.10506">
        <ele>321</ele>
        <time>2021-02-26T09:50:46Z</time>
      </trkpt>
      <trkpt lat="47.74583" lon="7.1049">
        <ele>321</ele>
        <time>2021-02-26T09:50:46Z</time>
      </trkpt>
      <trkpt lat="47.74587" lon="7.10473">
        <ele>321</ele>
        <time>2021-02-26T09:50:46Z</time>
      </trkpt>
      <trkpt lat="47.7459" lon="7.10457">
        <ele>321</ele>
        <time>2021-02-26T09:50:46Z</time>
      </trkpt>
      <trkpt lat="47.74593" lon="7.10441">
        <ele>321</ele>
        <time>2021-02-26T09:50:46Z</time>
      </trkpt>
      <trkpt lat="47.74597" lon="7.10426">
        <ele>322</ele>
        <time>2021-02-26T09:50:46Z</time>
      </trkpt>
      <trkpt lat="47.74601" lon="7.10409">
        <ele>322</ele>
        <time>2021-02-26T09:50:46Z</time>
      </trkpt>
      <trkpt lat="47.74604" lon="7.10393">
        <ele>322</ele>
        <time>2021-02-26T09:50:46Z</time>
      </trkpt>
      <trkpt lat="47.74607" lon="7.10376">
        <ele>322</ele>
        <time>2021-02-26T09:50:46Z</time>
      </trkpt>
      <trkpt lat="47.74611" lon="7.10361">
        <ele>322</ele>
        <time>2021-02-26T09:50:46Z</time>
      </trkpt>
      <trkpt lat="47.74615" lon="7.10344">
        <ele>322</ele>
        <time>2021-02-26T09:50:46Z</time>
      </trkpt>
      <trkpt lat="47.74618" lon="7.10328">
        <ele>322</ele>
        <time>2021-02-26T09:50:46Z</time>
      </trkpt>
      <trkpt lat="47.74621" lon="7.10311">
        <ele>322</ele>
        <time>2021-02-26T09:50:46Z</time>
      </trkpt>
      <trkpt lat="47.74624" lon="7.10295">
        <ele>323</ele>
        <time>2021-02-26T09:50:46Z</time>
      </trkpt>
      <trkpt lat="47.74628" lon="7.10279">
        <ele>323</ele>
        <time>2021-02-26T09:50:46Z</time>
      </trkpt>
      <trkpt lat="47.74631" lon="7.10263">
        <ele>323</ele>
        <time>2021-02-26T09:50:46Z</time>
      </trkpt>
      <trkpt lat="47.74634" lon="7.10248">
        <ele>324</ele>
        <time>2021-02-26T09:50:46Z</time>
      </trkpt>
      <trkpt lat="47.74638" lon="7.10232">
        <ele>324</ele>
        <time>2021-02-26T09:50:46Z</time>
      </trkpt>
      <trkpt lat="47.74641" lon="7.10217">
        <ele>324</ele>
        <time>2021-02-26T09:50:46Z</time>
      </trkpt>
      <trkpt lat="47.74645" lon="7.10201">
        <ele>324</ele>
        <time>2021-02-26T09:50:46Z</time>
      </trkpt>
      <trkpt lat="47.74648" lon="7.10185">
        <ele>324</ele>
        <time>2021-02-26T09:50:46Z</time>
      </trkpt>
      <trkpt lat="47.74651" lon="7.10168">
        <ele>324</ele>
        <time>2021-02-26T09:50:46Z</time>
      </trkpt>
      <trkpt lat="47.74655" lon="7.10152">
        <ele>325</ele>
        <time>2021-02-26T09:50:46Z</time>
      </trkpt>
      <trkpt lat="47.74658" lon="7.10135">
        <ele>325</ele>
        <time>2021-02-26T09:50:46Z</time>
      </trkpt>
      <trkpt lat="47.74661" lon="7.10119">
        <ele>325</ele>
        <time>2021-02-26T09:50:46Z</time>
      </trkpt>
      <trkpt lat="47.74664" lon="7.10104">
        <ele>326</ele>
        <time>2021-02-26T09:50:46Z</time>
      </trkpt>
      <trkpt lat="47.74668" lon="7.10088">
        <ele>326</ele>
        <time>2021-02-26T09:50:46Z</time>
      </trkpt>
      <trkpt lat="47.74671" lon="7.10072">
        <ele>326</ele>
        <time>2021-02-26T09:50:46Z</time>
      </trkpt>
      <trkpt lat="47.74675" lon="7.10056">
        <ele>326</ele>
        <time>2021-02-26T09:50:46Z</time>
      </trkpt>
      <trkpt lat="47.74678" lon="7.10041">
        <ele>326</ele>
        <time>2021-02-26T09:50:46Z</time>
      </trkpt>
      <trkpt lat="47.74681" lon="7.10025">
        <ele>326</ele>
        <time>2021-02-26T09:50:46Z</time>
      </trkpt>
      <trkpt lat="47.74683" lon="7.10009">
        <ele>326</ele>
        <time>2021-02-26T09:50:46Z</time>
      </trkpt>
      <trkpt lat="47.74687" lon="7.09993">
        <ele>326</ele>
        <time>2021-02-26T09:50:46Z</time>
      </trkpt>
      <trkpt lat="47.74689" lon="7.09978">
        <ele>326</ele>
        <time>2021-02-26T09:50:46Z</time>
      </trkpt>
      <trkpt lat="47.74693" lon="7.09962">
        <ele>326</ele>
        <time>2021-02-26T09:50:46Z</time>
      </trkpt>
      <trkpt lat="47.74696" lon="7.09946">
        <ele>326</ele>
        <time>2021-02-26T09:50:46Z</time>
      </trkpt>
      <trkpt lat="47.74699" lon="7.0993">
        <ele>326</ele>
        <time>2021-02-26T09:50:46Z</time>
      </trkpt>
      <trkpt lat="47.74703" lon="7.09915">
        <ele>326</ele>
        <time>2021-02-26T09:50:46Z</time>
      </trkpt>
      <trkpt lat="47.74706" lon="7.09899">
        <ele>326</ele>
        <time>2021-02-26T09:50:46Z</time>
      </trkpt>
      <trkpt lat="47.74709" lon="7.09884">
        <ele>326</ele>
        <time>2021-02-26T09:50:46Z</time>
      </trkpt>
      <trkpt lat="47.74713" lon="7.09868">
        <ele>326</ele>
        <time>2021-02-26T09:50:46Z</time>
      </trkpt>
      <trkpt lat="47.74716" lon="7.09853">
        <ele>326</ele>
        <time>2021-02-26T09:50:46Z</time>
      </trkpt>
      <trkpt lat="47.74719" lon="7.09838">
        <ele>326</ele>
        <time>2021-02-26T09:50:46Z</time>
      </trkpt>
      <trkpt lat="47.74722" lon="7.09822">
        <ele>326</ele>
        <time>2021-02-26T09:50:46Z</time>
      </trkpt>
      <trkpt lat="47.74725" lon="7.09807">
        <ele>326</ele>
        <time>2021-02-26T09:50:46Z</time>
      </trkpt>
      <trkpt lat="47.74728" lon="7.09793">
        <ele>326</ele>
        <time>2021-02-26T09:50:46Z</time>
      </trkpt>
      <trkpt lat="47.74731" lon="7.09778">
        <ele>326</ele>
        <time>2021-02-26T09:50:46Z</time>
      </trkpt>
      <trkpt lat="47.74735" lon="7.09763">
        <ele>326</ele>
        <time>2021-02-26T09:50:46Z</time>
      </trkpt>
      <trkpt lat="47.74738" lon="7.09749">
        <ele>326</ele>
        <time>2021-02-26T09:50:46Z</time>
      </trkpt>
      <trkpt lat="47.74742" lon="7.09734">
        <ele>327</ele>
        <time>2021-02-26T09:50:46Z</time>
      </trkpt>
      <trkpt lat="47.74746" lon="7.09719">
        <ele>327</ele>
        <time>2021-02-26T09:50:46Z</time>
      </trkpt>
      <trkpt lat="47.74749" lon="7.09703">
        <ele>327</ele>
        <time>2021-02-26T09:50:46Z</time>
      </trkpt>
      <trkpt lat="47.74752" lon="7.09688">
        <ele>327</ele>
        <time>2021-02-26T09:50:46Z</time>
      </trkpt>
      <trkpt lat="47.74755" lon="7.09673">
        <ele>328</ele>
        <time>2021-02-26T09:50:46Z</time>
      </trkpt>
      <trkpt lat="47.74757" lon="7.09658">
        <ele>328</ele>
        <time>2021-02-26T09:50:46Z</time>
      </trkpt>
      <trkpt lat="47.7476" lon="7.09642">
        <ele>328</ele>
        <time>2021-02-26T09:50:46Z</time>
      </trkpt>
      <trkpt lat="47.74763" lon="7.09627">
        <ele>329</ele>
        <time>2021-02-26T09:50:46Z</time>
      </trkpt>
      <trkpt lat="47.74767" lon="7.09613">
        <ele>329</ele>
        <time>2021-02-26T09:50:46Z</time>
      </trkpt>
      <trkpt lat="47.7477" lon="7.09598">
        <ele>329</ele>
        <time>2021-02-26T09:50:46Z</time>
      </trkpt>
      <trkpt lat="47.74773" lon="7.09582">
        <ele>329</ele>
        <time>2021-02-26T09:50:46Z</time>
      </trkpt>
      <trkpt lat="47.74777" lon="7.09567">
        <ele>329</ele>
        <time>2021-02-26T09:50:46Z</time>
      </trkpt>
      <trkpt lat="47.7478" lon="7.09552">
        <ele>329</ele>
        <time>2021-02-26T09:50:46Z</time>
      </trkpt>
      <trkpt lat="47.74784" lon="7.09536">
        <ele>330</ele>
        <time>2021-02-26T09:50:46Z</time>
      </trkpt>
      <trkpt lat="47.74787" lon="7.09521">
        <ele>330</ele>
        <time>2021-02-26T09:50:46Z</time>
      </trkpt>
      <trkpt lat="47.7479" lon="7.09506">
        <ele>330</ele>
        <time>2021-02-26T09:50:46Z</time>
      </trkpt>
      <trkpt lat="47.74794" lon="7.09491">
        <ele>330</ele>
        <time>2021-02-26T09:50:46Z</time>
      </trkpt>
      <trkpt lat="47.74796" lon="7.09476">
        <ele>330</ele>
        <time>2021-02-26T09:50:46Z</time>
      </trkpt>
      <trkpt lat="47.74799" lon="7.09461">
        <ele>330</ele>
        <time>2021-02-26T09:50:46Z</time>
      </trkpt>
      <trkpt lat="47.74802" lon="7.09446">
        <ele>331</ele>
        <time>2021-02-26T09:50:46Z</time>
      </trkpt>
      <trkpt lat="47.74805" lon="7.09431">
        <ele>331</ele>
        <time>2021-02-26T09:50:46Z</time>
      </trkpt>
      <trkpt lat="47.74808" lon="7.09415">
        <ele>331</ele>
        <time>2021-02-26T09:50:46Z</time>
      </trkpt>
      <trkpt lat="47.74811" lon="7.094">
        <ele>331</ele>
        <time>2021-02-26T09:50:46Z</time>
      </trkpt>
      <trkpt lat="47.74814" lon="7.09385">
        <ele>331</ele>
        <time>2021-02-26T09:50:46Z</time>
      </trkpt>
      <trkpt lat="47.74817" lon="7.09369">
        <ele>332</ele>
        <time>2021-02-26T09:50:46Z</time>
      </trkpt>
      <trkpt lat="47.7482" lon="7.09353">
        <ele>332</ele>
        <time>2021-02-26T09:50:46Z</time>
      </trkpt>
      <trkpt lat="47.74824" lon="7.09338">
        <ele>332</ele>
        <time>2021-02-26T09:50:46Z</time>
      </trkpt>
      <trkpt lat="47.74827" lon="7.09323">
        <ele>332</ele>
        <time>2021-02-26T09:50:46Z</time>
      </trkpt>
      <trkpt lat="47.7483" lon="7.09307">
        <ele>332</ele>
        <time>2021-02-26T09:50:46Z</time>
      </trkpt>
      <trkpt lat="47.74833" lon="7.09291">
        <ele>331</ele>
        <time>2021-02-26T09:50:46Z</time>
      </trkpt>
      <trkpt lat="47.74836" lon="7.09275">
        <ele>331</ele>
        <time>2021-02-26T09:50:46Z</time>
      </trkpt>
      <trkpt lat="47.74839" lon="7.09259">
        <ele>331</ele>
        <time>2021-02-26T09:50:46Z</time>
      </trkpt>
      <trkpt lat="47.74841" lon="7.09244">
        <ele>331</ele>
        <time>2021-02-26T09:50:46Z</time>
      </trkpt>
      <trkpt lat="47.74844" lon="7.09228">
        <ele>331</ele>
        <time>2021-02-26T09:50:46Z</time>
      </trkpt>
      <trkpt lat="47.74846" lon="7.09214">
        <ele>331</ele>
        <time>2021-02-26T09:50:46Z</time>
      </trkpt>
      <trkpt lat="47.74848" lon="7.09199">
        <ele>331</ele>
        <time>2021-02-26T09:50:46Z</time>
      </trkpt>
      <trkpt lat="47.7485" lon="7.09185">
        <ele>332</ele>
        <time>2021-02-26T09:50:46Z</time>
      </trkpt>
      <trkpt lat="47.74853" lon="7.09169">
        <ele>332</ele>
        <time>2021-02-26T09:50:46Z</time>
      </trkpt>
      <trkpt lat="47.74857" lon="7.09153">
        <ele>332</ele>
        <time>2021-02-26T09:50:46Z</time>
      </trkpt>
      <trkpt lat="47.74861" lon="7.09138">
        <ele>332</ele>
        <time>2021-02-26T09:50:46Z</time>
      </trkpt>
      <trkpt lat="47.74865" lon="7.09123">
        <ele>332</ele>
        <time>2021-02-26T09:50:46Z</time>
      </trkpt>
      <trkpt lat="47.7487" lon="7.09108">
        <ele>333</ele>
        <time>2021-02-26T09:50:46Z</time>
      </trkpt>
      <trkpt lat="47.74874" lon="7.09092">
        <ele>333</ele>
        <time>2021-02-26T09:50:46Z</time>
      </trkpt>
      <trkpt lat="47.74878" lon="7.09075">
        <ele>333</ele>
        <time>2021-02-26T09:50:46Z</time>
      </trkpt>
      <trkpt lat="47.74882" lon="7.09059">
        <ele>333</ele>
        <time>2021-02-26T09:50:46Z</time>
      </trkpt>
      <trkpt lat="47.74886" lon="7.09042">
        <ele>333</ele>
        <time>2021-02-26T09:50:46Z</time>
      </trkpt>
      <trkpt lat="47.74889" lon="7.09025">
        <ele>334</ele>
        <time>2021-02-26T09:50:46Z</time>
      </trkpt>
      <trkpt lat="47.74892" lon="7.09009">
        <ele>334</ele>
        <time>2021-02-26T09:50:46Z</time>
      </trkpt>
      <trkpt lat="47.74896" lon="7.08993">
        <ele>334</ele>
        <time>2021-02-26T09:50:46Z</time>
      </trkpt>
      <trkpt lat="47.74899" lon="7.08977">
        <ele>334</ele>
        <time>2021-02-26T09:50:46Z</time>
      </trkpt>
      <trkpt lat="47.74903" lon="7.08961">
        <ele>334</ele>
        <time>2021-02-26T09:50:46Z</time>
      </trkpt>
      <trkpt lat="47.74906" lon="7.08945">
        <ele>333</ele>
        <time>2021-02-26T09:50:46Z</time>
      </trkpt>
      <trkpt lat="47.7491" lon="7.08929">
        <ele>333</ele>
        <time>2021-02-26T09:50:46Z</time>
      </trkpt>
      <trkpt lat="47.74913" lon="7.08913">
        <ele>333</ele>
        <time>2021-02-26T09:50:46Z</time>
      </trkpt>
      <trkpt lat="47.74917" lon="7.08898">
        <ele>333</ele>
        <time>2021-02-26T09:50:46Z</time>
      </trkpt>
      <trkpt lat="47.7492" lon="7.08882">
        <ele>334</ele>
        <time>2021-02-26T09:50:46Z</time>
      </trkpt>
      <trkpt lat="47.74923" lon="7.08867">
        <ele>334</ele>
        <time>2021-02-26T09:50:46Z</time>
      </trkpt>
      <trkpt lat="47.74926" lon="7.08851">
        <ele>334</ele>
        <time>2021-02-26T09:50:46Z</time>
      </trkpt>
      <trkpt lat="47.7493" lon="7.08836">
        <ele>335</ele>
        <time>2021-02-26T09:50:46Z</time>
      </trkpt>
      <trkpt lat="47.74933" lon="7.0882">
        <ele>335</ele>
        <time>2021-02-26T09:50:46Z</time>
      </trkpt>
      <trkpt lat="47.74936" lon="7.08804">
        <ele>335</ele>
        <time>2021-02-26T09:50:46Z</time>
      </trkpt>
      <trkpt lat="47.74939" lon="7.08789">
        <ele>336</ele>
        <time>2021-02-26T09:50:46Z</time>
      </trkpt>
      <trkpt lat="47.74942" lon="7.08773">
        <ele>336</ele>
        <time>2021-02-26T09:50:46Z</time>
      </trkpt>
      <trkpt lat="47.74945" lon="7.08759">
        <ele>336</ele>
        <time>2021-02-26T09:50:46Z</time>
      </trkpt>
      <trkpt lat="47.74949" lon="7.08743">
        <ele>337</ele>
        <time>2021-02-26T09:50:46Z</time>
      </trkpt>
      <trkpt lat="47.74952" lon="7.08728">
        <ele>337</ele>
        <time>2021-02-26T09:50:46Z</time>
      </trkpt>
      <trkpt lat="47.74956" lon="7.08712">
        <ele>337</ele>
        <time>2021-02-26T09:50:46Z</time>
      </trkpt>
      <trkpt lat="47.74959" lon="7.08697">
        <ele>337</ele>
        <time>2021-02-26T09:50:46Z</time>
      </trkpt>
      <trkpt lat="47.74963" lon="7.08681">
        <ele>337</ele>
        <time>2021-02-26T09:50:46Z</time>
      </trkpt>
      <trkpt lat="47.74966" lon="7.08665">
        <ele>337</ele>
        <time>2021-02-26T09:50:46Z</time>
      </trkpt>
      <trkpt lat="47.74969" lon="7.0865">
        <ele>337</ele>
        <time>2021-02-26T09:50:46Z</time>
      </trkpt>
      <trkpt lat="47.74972" lon="7.08636">
        <ele>337</ele>
        <time>2021-02-26T09:50:46Z</time>
      </trkpt>
      <trkpt lat="47.74975" lon="7.08621">
        <ele>337</ele>
        <time>2021-02-26T09:50:46Z</time>
      </trkpt>
      <trkpt lat="47.74977" lon="7.08605">
        <ele>338</ele>
        <time>2021-02-26T09:50:46Z</time>
      </trkpt>
      <trkpt lat="47.74981" lon="7.0859">
        <ele>338</ele>
        <time>2021-02-26T09:50:46Z</time>
      </trkpt>
      <trkpt lat="47.74984" lon="7.08575">
        <ele>338</ele>
        <time>2021-02-26T09:50:46Z</time>
      </trkpt>
      <trkpt lat="47.74987" lon="7.08561">
        <ele>337</ele>
        <time>2021-02-26T09:50:46Z</time>
      </trkpt>
      <trkpt lat="47.74991" lon="7.08546">
        <ele>337</ele>
        <time>2021-02-26T09:50:46Z</time>
      </trkpt>
      <trkpt lat="47.74994" lon="7.08531">
        <ele>336</ele>
        <time>2021-02-26T09:50:46Z</time>
      </trkpt>
      <trkpt lat="47.74996" lon="7.08517">
        <ele>336</ele>
        <time>2021-02-26T09:50:46Z</time>
      </trkpt>
      <trkpt lat="47.74999" lon="7.08501">
        <ele>335</ele>
        <time>2021-02-26T09:50:46Z</time>
      </trkpt>
      <trkpt lat="47.75002" lon="7.08487">
        <ele>335</ele>
        <time>2021-02-26T09:50:46Z</time>
      </trkpt>
      <trkpt lat="47.75006" lon="7.08473">
        <ele>336</ele>
        <time>2021-02-26T09:50:46Z</time>
      </trkpt>
      <trkpt lat="47.75009" lon="7.08458">
        <ele>336</ele>
        <time>2021-02-26T09:50:46Z</time>
      </trkpt>
      <trkpt lat="47.75011" lon="7.08443">
        <ele>336</ele>
        <time>2021-02-26T09:50:46Z</time>
      </trkpt>
      <trkpt lat="47.75014" lon="7.08429">
        <ele>337</ele>
        <time>2021-02-26T09:50:46Z</time>
      </trkpt>
      <trkpt lat="47.75017" lon="7.08414">
        <ele>337</ele>
        <time>2021-02-26T09:50:46Z</time>
      </trkpt>
      <trkpt lat="47.7502" lon="7.08399">
        <ele>338</ele>
        <time>2021-02-26T09:50:46Z</time>
      </trkpt>
      <trkpt lat="47.75023" lon="7.08384">
        <ele>339</ele>
        <time>2021-02-26T09:50:46Z</time>
      </trkpt>
      <trkpt lat="47.75027" lon="7.08368">
        <ele>340</ele>
        <time>2021-02-26T09:50:46Z</time>
      </trkpt>
      <trkpt lat="47.7503" lon="7.08354">
        <ele>341</ele>
        <time>2021-02-26T09:50:46Z</time>
      </trkpt>
      <trkpt lat="47.75034" lon="7.0834">
        <ele>341</ele>
        <time>2021-02-26T09:50:46Z</time>
      </trkpt>
      <trkpt lat="47.75037" lon="7.08326">
        <ele>342</ele>
        <time>2021-02-26T09:50:46Z</time>
      </trkpt>
      <trkpt lat="47.7504" lon="7.08311">
        <ele>342</ele>
        <time>2021-02-26T09:50:46Z</time>
      </trkpt>
      <trkpt lat="47.75043" lon="7.08296">
        <ele>342</ele>
        <time>2021-02-26T09:50:46Z</time>
      </trkpt>
      <trkpt lat="47.75047" lon="7.08281">
        <ele>342</ele>
        <time>2021-02-26T09:50:46Z</time>
      </trkpt>
      <trkpt lat="47.7505" lon="7.08266">
        <ele>342</ele>
        <time>2021-02-26T09:50:46Z</time>
      </trkpt>
      <trkpt lat="47.75054" lon="7.08251">
        <ele>342</ele>
        <time>2021-02-26T09:50:46Z</time>
      </trkpt>
      <trkpt lat="47.75057" lon="7.08235">
        <ele>342</ele>
        <time>2021-02-26T09:50:46Z</time>
      </trkpt>
      <trkpt lat="47.7506" lon="7.08221">
        <ele>342</ele>
        <time>2021-02-26T09:50:46Z</time>
      </trkpt>
      <trkpt lat="47.75063" lon="7.08207">
        <ele>342</ele>
        <time>2021-02-26T09:50:46Z</time>
      </trkpt>
      <trkpt lat="47.75066" lon="7.08192">
        <ele>342</ele>
        <time>2021-02-26T09:50:46Z</time>
      </trkpt>
      <trkpt lat="47.75069" lon="7.08178">
        <ele>342</ele>
        <time>2021-02-26T09:50:46Z</time>
      </trkpt>
      <trkpt lat="47.75072" lon="7.08163">
        <ele>342</ele>
        <time>2021-02-26T09:50:46Z</time>
      </trkpt>
      <trkpt lat="47.75074" lon="7.08149">
        <ele>342</ele>
        <time>2021-02-26T09:50:46Z</time>
      </trkpt>
      <trkpt lat="47.75078" lon="7.08134">
        <ele>342</ele>
        <time>2021-02-26T09:50:46Z</time>
      </trkpt>
      <trkpt lat="47.7508" lon="7.0812">
        <ele>343</ele>
        <time>2021-02-26T09:50:46Z</time>
      </trkpt>
      <trkpt lat="47.75082" lon="7.08106">
        <ele>343</ele>
        <time>2021-02-26T09:50:46Z</time>
      </trkpt>
      <trkpt lat="47.75086" lon="7.08091">
        <ele>343</ele>
        <time>2021-02-26T09:50:46Z</time>
      </trkpt>
      <trkpt lat="47.75089" lon="7.08077">
        <ele>344</ele>
        <time>2021-02-26T09:50:46Z</time>
      </trkpt>
      <trkpt lat="47.75092" lon="7.08062">
        <ele>343</ele>
        <time>2021-02-26T09:50:46Z</time>
      </trkpt>
      <trkpt lat="47.75095" lon="7.08047">
        <ele>343</ele>
        <time>2021-02-26T09:50:46Z</time>
      </trkpt>
      <trkpt lat="47.75098" lon="7.08033">
        <ele>342</ele>
        <time>2021-02-26T09:50:46Z</time>
      </trkpt>
      <trkpt lat="47.751" lon="7.08018">
        <ele>342</ele>
        <time>2021-02-26T09:50:46Z</time>
      </trkpt>
      <trkpt lat="47.75103" lon="7.08003">
        <ele>341</ele>
        <time>2021-02-26T09:50:46Z</time>
      </trkpt>
      <trkpt lat="47.75106" lon="7.0799">
        <ele>341</ele>
        <time>2021-02-26T09:50:46Z</time>
      </trkpt>
      <trkpt lat="47.75109" lon="7.07975">
        <ele>342</ele>
        <time>2021-02-26T09:50:46Z</time>
      </trkpt>
      <trkpt lat="47.75112" lon="7.0796">
        <ele>342</ele>
        <time>2021-02-26T09:50:46Z</time>
      </trkpt>
      <trkpt lat="47.75114" lon="7.07946">
        <ele>342</ele>
        <time>2021-02-26T09:50:46Z</time>
      </trkpt>
      <trkpt lat="47.75117" lon="7.07932">
        <ele>342</ele>
        <time>2021-02-26T09:50:46Z</time>
      </trkpt>
      <trkpt lat="47.75119" lon="7.07918">
        <ele>342</ele>
        <time>2021-02-26T09:50:46Z</time>
      </trkpt>
      <trkpt lat="47.75122" lon="7.07904">
        <ele>342</ele>
        <time>2021-02-26T09:50:46Z</time>
      </trkpt>
      <trkpt lat="47.75124" lon="7.07889">
        <ele>342</ele>
        <time>2021-02-26T09:50:46Z</time>
      </trkpt>
      <trkpt lat="47.75126" lon="7.07875">
        <ele>342</ele>
        <time>2021-02-26T09:50:46Z</time>
      </trkpt>
      <trkpt lat="47.75127" lon="7.0786">
        <ele>343</ele>
        <time>2021-02-26T09:50:46Z</time>
      </trkpt>
      <trkpt lat="47.7513" lon="7.07846">
        <ele>343</ele>
        <time>2021-02-26T09:50:46Z</time>
      </trkpt>
      <trkpt lat="47.75132" lon="7.07831">
        <ele>343</ele>
        <time>2021-02-26T09:50:46Z</time>
      </trkpt>
      <trkpt lat="47.75133" lon="7.07816">
        <ele>343</ele>
        <time>2021-02-26T09:50:46Z</time>
      </trkpt>
      <trkpt lat="47.75135" lon="7.078">
        <ele>343</ele>
        <time>2021-02-26T09:50:46Z</time>
      </trkpt>
      <trkpt lat="47.75138" lon="7.07785">
        <ele>343</ele>
        <time>2021-02-26T09:50:46Z</time>
      </trkpt>
      <trkpt lat="47.7514" lon="7.0777">
        <ele>343</ele>
        <time>2021-02-26T09:50:46Z</time>
      </trkpt>
      <trkpt lat="47.75142" lon="7.07755">
        <ele>343</ele>
        <time>2021-02-26T09:50:46Z</time>
      </trkpt>
      <trkpt lat="47.75143" lon="7.0774">
        <ele>343</ele>
        <time>2021-02-26T09:50:46Z</time>
      </trkpt>
      <trkpt lat="47.75145" lon="7.07725">
        <ele>344</ele>
        <time>2021-02-26T09:50:46Z</time>
      </trkpt>
      <trkpt lat="47.75146" lon="7.07709">
        <ele>344</ele>
        <time>2021-02-26T09:50:46Z</time>
      </trkpt>
      <trkpt lat="47.75148" lon="7.07694">
        <ele>345</ele>
        <time>2021-02-26T09:50:46Z</time>
      </trkpt>
      <trkpt lat="47.75149" lon="7.07679">
        <ele>345</ele>
        <time>2021-02-26T09:50:46Z</time>
      </trkpt>
      <trkpt lat="47.7515" lon="7.07663">
        <ele>345</ele>
        <time>2021-02-26T09:50:46Z</time>
      </trkpt>
      <trkpt lat="47.75152" lon="7.07649">
        <ele>345</ele>
        <time>2021-02-26T09:50:46Z</time>
      </trkpt>
      <trkpt lat="47.75154" lon="7.07634">
        <ele>345</ele>
        <time>2021-02-26T09:50:46Z</time>
      </trkpt>
      <trkpt lat="47.75155" lon="7.07619">
        <ele>346</ele>
        <time>2021-02-26T09:50:46Z</time>
      </trkpt>
      <trkpt lat="47.75156" lon="7.07604">
        <ele>346</ele>
        <time>2021-02-26T09:50:46Z</time>
      </trkpt>
      <trkpt lat="47.75157" lon="7.0759">
        <ele>346</ele>
        <time>2021-02-26T09:50:46Z</time>
      </trkpt>
      <trkpt lat="47.75157" lon="7.07575">
        <ele>346</ele>
        <time>2021-02-26T09:50:46Z</time>
      </trkpt>
      <trkpt lat="47.75159" lon="7.07561">
        <ele>346</ele>
        <time>2021-02-26T09:50:46Z</time>
      </trkpt>
      <trkpt lat="47.7516" lon="7.07546">
        <ele>346</ele>
        <time>2021-02-26T09:50:46Z</time>
      </trkpt>
      <trkpt lat="47.7516" lon="7.07532">
        <ele>347</ele>
        <time>2021-02-26T09:50:46Z</time>
      </trkpt>
      <trkpt lat="47.75161" lon="7.07517">
        <ele>347</ele>
        <time>2021-02-26T09:50:46Z</time>
      </trkpt>
      <trkpt lat="47.75163" lon="7.07503">
        <ele>347</ele>
        <time>2021-02-26T09:50:46Z</time>
      </trkpt>
      <trkpt lat="47.75164" lon="7.07489">
        <ele>347</ele>
        <time>2021-02-26T09:50:46Z</time>
      </trkpt>
      <trkpt lat="47.75166" lon="7.07474">
        <ele>348</ele>
        <time>2021-02-26T09:50:46Z</time>
      </trkpt>
      <trkpt lat="47.75166" lon="7.0746">
        <ele>348</ele>
        <time>2021-02-26T09:50:46Z</time>
      </trkpt>
      <trkpt lat="47.75166" lon="7.07444">
        <ele>348</ele>
        <time>2021-02-26T09:50:46Z</time>
      </trkpt>
      <trkpt lat="47.75167" lon="7.0743">
        <ele>349</ele>
        <time>2021-02-26T09:50:46Z</time>
      </trkpt>
      <trkpt lat="47.75168" lon="7.07415">
        <ele>349</ele>
        <time>2021-02-26T09:50:46Z</time>
      </trkpt>
      <trkpt lat="47.75168" lon="7.07401">
        <ele>349</ele>
        <time>2021-02-26T09:50:46Z</time>
      </trkpt>
      <trkpt lat="47.75168" lon="7.07386">
        <ele>349</ele>
        <time>2021-02-26T09:50:46Z</time>
      </trkpt>
      <trkpt lat="47.75169" lon="7.07371">
        <ele>349</ele>
        <time>2021-02-26T09:50:46Z</time>
      </trkpt>
      <trkpt lat="47.75168" lon="7.07356">
        <ele>350</ele>
        <time>2021-02-26T09:50:46Z</time>
      </trkpt>
      <trkpt lat="47.75169" lon="7.0734">
        <ele>350</ele>
        <time>2021-02-26T09:50:46Z</time>
      </trkpt>
      <trkpt lat="47.7517" lon="7.07325">
        <ele>350</ele>
        <time>2021-02-26T09:50:46Z</time>
      </trkpt>
      <trkpt lat="47.7517" lon="7.0731">
        <ele>350</ele>
        <time>2021-02-26T09:50:46Z</time>
      </trkpt>
      <trkpt lat="47.7517" lon="7.07295">
        <ele>349</ele>
        <time>2021-02-26T09:50:46Z</time>
      </trkpt>
      <trkpt lat="47.7517" lon="7.0728">
        <ele>349</ele>
        <time>2021-02-26T09:50:46Z</time>
      </trkpt>
      <trkpt lat="47.7517" lon="7.07265">
        <ele>349</ele>
        <time>2021-02-26T09:50:46Z</time>
      </trkpt>
      <trkpt lat="47.75171" lon="7.0725">
        <ele>349</ele>
        <time>2021-02-26T09:50:46Z</time>
      </trkpt>
      <trkpt lat="47.75171" lon="7.07234">
        <ele>349</ele>
        <time>2021-02-26T09:50:46Z</time>
      </trkpt>
      <trkpt lat="47.75171" lon="7.07219">
        <ele>348</ele>
        <time>2021-02-26T09:50:46Z</time>
      </trkpt>
      <trkpt lat="47.75171" lon="7.07203">
        <ele>348</ele>
        <time>2021-02-26T09:50:46Z</time>
      </trkpt>
      <trkpt lat="47.75171" lon="7.07188">
        <ele>348</ele>
        <time>2021-02-26T09:50:46Z</time>
      </trkpt>
      <trkpt lat="47.75171" lon="7.07173">
        <ele>348</ele>
        <time>2021-02-26T09:50:46Z</time>
      </trkpt>
      <trkpt lat="47.75172" lon="7.07157">
        <ele>348</ele>
        <time>2021-02-26T09:50:46Z</time>
      </trkpt>
      <trkpt lat="47.75172" lon="7.07142">
        <ele>348</ele>
        <time>2021-02-26T09:50:46Z</time>
      </trkpt>
      <trkpt lat="47.75172" lon="7.07126">
        <ele>348</ele>
        <time>2021-02-26T09:50:46Z</time>
      </trkpt>
      <trkpt lat="47.75173" lon="7.07111">
        <ele>348</ele>
        <time>2021-02-26T09:50:46Z</time>
      </trkpt>
      <trkpt lat="47.75173" lon="7.07095">
        <ele>349</ele>
        <time>2021-02-26T09:50:46Z</time>
      </trkpt>
      <trkpt lat="47.75173" lon="7.07079">
        <ele>349</ele>
        <time>2021-02-26T09:50:46Z</time>
      </trkpt>
      <trkpt lat="47.75174" lon="7.07063">
        <ele>349</ele>
        <time>2021-02-26T09:50:46Z</time>
      </trkpt>
      <trkpt lat="47.75174" lon="7.07047">
        <ele>350</ele>
        <time>2021-02-26T09:50:46Z</time>
      </trkpt>
      <trkpt lat="47.75174" lon="7.07031">
        <ele>350</ele>
        <time>2021-02-26T09:50:46Z</time>
      </trkpt>
      <trkpt lat="47.75174" lon="7.07015">
        <ele>350</ele>
        <time>2021-02-26T09:50:46Z</time>
      </trkpt>
      <trkpt lat="47.75175" lon="7.06999">
        <ele>351</ele>
        <time>2021-02-26T09:50:46Z</time>
      </trkpt>
      <trkpt lat="47.75175" lon="7.06983">
        <ele>351</ele>
        <time>2021-02-26T09:50:46Z</time>
      </trkpt>
      <trkpt lat="47.75175" lon="7.06967">
        <ele>351</ele>
        <time>2021-02-26T09:50:46Z</time>
      </trkpt>
      <trkpt lat="47.75175" lon="7.06951">
        <ele>351</ele>
        <time>2021-02-26T09:50:46Z</time>
      </trkpt>
      <trkpt lat="47.75175" lon="7.06935">
        <ele>351</ele>
        <time>2021-02-26T09:50:46Z</time>
      </trkpt>
      <trkpt lat="47.75175" lon="7.06919">
        <ele>351</ele>
        <time>2021-02-26T09:50:46Z</time>
      </trkpt>
      <trkpt lat="47.75175" lon="7.06903">
        <ele>351</ele>
        <time>2021-02-26T09:50:46Z</time>
      </trkpt>
      <trkpt lat="47.75175" lon="7.06886">
        <ele>351</ele>
        <time>2021-02-26T09:50:46Z</time>
      </trkpt>
      <trkpt lat="47.75175" lon="7.0687">
        <ele>351</ele>
        <time>2021-02-26T09:50:46Z</time>
      </trkpt>
      <trkpt lat="47.75176" lon="7.06854">
        <ele>351</ele>
        <time>2021-02-26T09:50:46Z</time>
      </trkpt>
      <trkpt lat="47.75177" lon="7.06838">
        <ele>351</ele>
        <time>2021-02-26T09:50:46Z</time>
      </trkpt>
      <trkpt lat="47.75177" lon="7.06821">
        <ele>351</ele>
        <time>2021-02-26T09:50:46Z</time>
      </trkpt>
      <trkpt lat="47.75178" lon="7.06805">
        <ele>351</ele>
        <time>2021-02-26T09:50:46Z</time>
      </trkpt>
      <trkpt lat="47.75178" lon="7.06788">
        <ele>351</ele>
        <time>2021-02-26T09:50:46Z</time>
      </trkpt>
      <trkpt lat="47.75177" lon="7.0677">
        <ele>351</ele>
        <time>2021-02-26T09:50:46Z</time>
      </trkpt>
      <trkpt lat="47.75178" lon="7.06753">
        <ele>351</ele>
        <time>2021-02-26T09:50:46Z</time>
      </trkpt>
      <trkpt lat="47.75178" lon="7.06736">
        <ele>351</ele>
        <time>2021-02-26T09:50:46Z</time>
      </trkpt>
      <trkpt lat="47.75179" lon="7.06718">
        <ele>351</ele>
        <time>2021-02-26T09:50:46Z</time>
      </trkpt>
      <trkpt lat="47.75179" lon="7.06702">
        <ele>351</ele>
        <time>2021-02-26T09:50:46Z</time>
      </trkpt>
      <trkpt lat="47.75179" lon="7.06685">
        <ele>351</ele>
        <time>2021-02-26T09:50:46Z</time>
      </trkpt>
      <trkpt lat="47.75179" lon="7.06669">
        <ele>351</ele>
        <time>2021-02-26T09:50:46Z</time>
      </trkpt>
      <trkpt lat="47.75179" lon="7.06653">
        <ele>351</ele>
        <time>2021-02-26T09:50:46Z</time>
      </trkpt>
      <trkpt lat="47.7518" lon="7.06637">
        <ele>351</ele>
        <time>2021-02-26T09:50:46Z</time>
      </trkpt>
      <trkpt lat="47.7518" lon="7.06621">
        <ele>351</ele>
        <time>2021-02-26T09:50:46Z</time>
      </trkpt>
      <trkpt lat="47.7518" lon="7.06606">
        <ele>351</ele>
        <time>2021-02-26T09:50:46Z</time>
      </trkpt>
      <trkpt lat="47.7518" lon="7.0659">
        <ele>351</ele>
        <time>2021-02-26T09:50:46Z</time>
      </trkpt>
      <trkpt lat="47.7518" lon="7.06575">
        <ele>351</ele>
        <time>2021-02-26T09:50:46Z</time>
      </trkpt>
      <trkpt lat="47.75181" lon="7.06559">
        <ele>351</ele>
        <time>2021-02-26T09:50:46Z</time>
      </trkpt>
      <trkpt lat="47.75181" lon="7.06544">
        <ele>351</ele>
        <time>2021-02-26T09:50:46Z</time>
      </trkpt>
      <trkpt lat="47.75181" lon="7.06529">
        <ele>351</ele>
        <time>2021-02-26T09:50:46Z</time>
      </trkpt>
      <trkpt lat="47.75181" lon="7.06513">
        <ele>352</ele>
        <time>2021-02-26T09:50:46Z</time>
      </trkpt>
      <trkpt lat="47.75182" lon="7.06497">
        <ele>352</ele>
        <time>2021-02-26T09:50:46Z</time>
      </trkpt>
      <trkpt lat="47.75182" lon="7.06482">
        <ele>352</ele>
        <time>2021-02-26T09:50:46Z</time>
      </trkpt>
      <trkpt lat="47.75183" lon="7.06466">
        <ele>352</ele>
        <time>2021-02-26T09:50:46Z</time>
      </trkpt>
      <trkpt lat="47.75183" lon="7.06451">
        <ele>352</ele>
        <time>2021-02-26T09:50:46Z</time>
      </trkpt>
      <trkpt lat="47.75183" lon="7.06436">
        <ele>353</ele>
        <time>2021-02-26T09:50:46Z</time>
      </trkpt>
      <trkpt lat="47.75184" lon="7.06421">
        <ele>353</ele>
        <time>2021-02-26T09:50:46Z</time>
      </trkpt>
      <trkpt lat="47.75184" lon="7.06405">
        <ele>353</ele>
        <time>2021-02-26T09:50:46Z</time>
      </trkpt>
      <trkpt lat="47.75184" lon="7.0639">
        <ele>353</ele>
        <time>2021-02-26T09:50:46Z</time>
      </trkpt>
      <trkpt lat="47.75185" lon="7.06375">
        <ele>354</ele>
        <time>2021-02-26T09:50:46Z</time>
      </trkpt>
      <trkpt lat="47.75185" lon="7.0636">
        <ele>354</ele>
        <time>2021-02-26T09:50:46Z</time>
      </trkpt>
      <trkpt lat="47.75185" lon="7.06346">
        <ele>354</ele>
        <time>2021-02-26T09:50:46Z</time>
      </trkpt>
      <trkpt lat="47.75186" lon="7.06331">
        <ele>355</ele>
        <time>2021-02-26T09:50:46Z</time>
      </trkpt>
      <trkpt lat="47.75185" lon="7.06317">
        <ele>355</ele>
        <time>2021-02-26T09:50:46Z</time>
      </trkpt>
      <trkpt lat="47.75185" lon="7.06303">
        <ele>355</ele>
        <time>2021-02-26T09:50:46Z</time>
      </trkpt>
      <trkpt lat="47.75185" lon="7.06288">
        <ele>355</ele>
        <time>2021-02-26T09:50:46Z</time>
      </trkpt>
      <trkpt lat="47.75186" lon="7.06273">
        <ele>355</ele>
        <time>2021-02-26T09:50:46Z</time>
      </trkpt>
      <trkpt lat="47.75186" lon="7.06258">
        <ele>355</ele>
        <time>2021-02-26T09:50:46Z</time>
      </trkpt>
      <trkpt lat="47.75186" lon="7.06244">
        <ele>355</ele>
        <time>2021-02-26T09:50:46Z</time>
      </trkpt>
      <trkpt lat="47.75186" lon="7.06229">
        <ele>356</ele>
        <time>2021-02-26T09:50:46Z</time>
      </trkpt>
      <trkpt lat="47.75187" lon="7.06215">
        <ele>356</ele>
        <time>2021-02-26T09:50:46Z</time>
      </trkpt>
      <trkpt lat="47.75187" lon="7.062">
        <ele>357</ele>
        <time>2021-02-26T09:50:46Z</time>
      </trkpt>
      <trkpt lat="47.75187" lon="7.06185">
        <ele>357</ele>
        <time>2021-02-26T09:50:46Z</time>
      </trkpt>
      <trkpt lat="47.75187" lon="7.06171">
        <ele>357</ele>
        <time>2021-02-26T09:50:46Z</time>
      </trkpt>
      <trkpt lat="47.75188" lon="7.06157">
        <ele>358</ele>
        <time>2021-02-26T09:50:46Z</time>
      </trkpt>
      <trkpt lat="47.75189" lon="7.06143">
        <ele>358</ele>
        <time>2021-02-26T09:50:46Z</time>
      </trkpt>
      <trkpt lat="47.7519" lon="7.06129">
        <ele>358</ele>
        <time>2021-02-26T09:50:46Z</time>
      </trkpt>
      <trkpt lat="47.75191" lon="7.06116">
        <ele>358</ele>
        <time>2021-02-26T09:50:46Z</time>
      </trkpt>
      <trkpt lat="47.75192" lon="7.06101">
        <ele>358</ele>
        <time>2021-02-26T09:50:46Z</time>
      </trkpt>
      <trkpt lat="47.75193" lon="7.06087">
        <ele>358</ele>
        <time>2021-02-26T09:50:46Z</time>
      </trkpt>
      <trkpt lat="47.75195" lon="7.06073">
        <ele>358</ele>
        <time>2021-02-26T09:50:46Z</time>
      </trkpt>
      <trkpt lat="47.75197" lon="7.06059">
        <ele>358</ele>
        <time>2021-02-26T09:50:46Z</time>
      </trkpt>
      <trkpt lat="47.752" lon="7.06046">
        <ele>358</ele>
        <time>2021-02-26T09:50:46Z</time>
      </trkpt>
      <trkpt lat="47.75202" lon="7.0603">
        <ele>358</ele>
        <time>2021-02-26T09:50:46Z</time>
      </trkpt>
      <trkpt lat="47.75203" lon="7.06015">
        <ele>358</ele>
        <time>2021-02-26T09:50:46Z</time>
      </trkpt>
      <trkpt lat="47.75206" lon="7.06">
        <ele>358</ele>
        <time>2021-02-26T09:50:46Z</time>
      </trkpt>
      <trkpt lat="47.75208" lon="7.05986">
        <ele>358</ele>
        <time>2021-02-26T09:50:46Z</time>
      </trkpt>
      <trkpt lat="47.75211" lon="7.05971">
        <ele>358</ele>
        <time>2021-02-26T09:50:46Z</time>
      </trkpt>
      <trkpt lat="47.75214" lon="7.05955">
        <ele>358</ele>
        <time>2021-02-26T09:50:46Z</time>
      </trkpt>
      <trkpt lat="47.75216" lon="7.0594">
        <ele>359</ele>
        <time>2021-02-26T09:50:46Z</time>
      </trkpt>
      <trkpt lat="47.75218" lon="7.05925">
        <ele>359</ele>
        <time>2021-02-26T09:50:46Z</time>
      </trkpt>
      <trkpt lat="47.7522" lon="7.05909">
        <ele>359</ele>
        <time>2021-02-26T09:50:46Z</time>
      </trkpt>
      <trkpt lat="47.75223" lon="7.05894">
        <ele>359</ele>
        <time>2021-02-26T09:50:46Z</time>
      </trkpt>
      <trkpt lat="47.75224" lon="7.05878">
        <ele>359</ele>
        <time>2021-02-26T09:50:46Z</time>
      </trkpt>
      <trkpt lat="47.75226" lon="7.05863">
        <ele>360</ele>
        <time>2021-02-26T09:50:46Z</time>
      </trkpt>
      <trkpt lat="47.75228" lon="7.05847">
        <ele>360</ele>
        <time>2021-02-26T09:50:46Z</time>
      </trkpt>
      <trkpt lat="47.7523" lon="7.05832">
        <ele>360</ele>
        <time>2021-02-26T09:50:46Z</time>
      </trkpt>
      <trkpt lat="47.75231" lon="7.05817">
        <ele>360</ele>
        <time>2021-02-26T09:50:46Z</time>
      </trkpt>
      <trkpt lat="47.75233" lon="7.05802">
        <ele>360</ele>
        <time>2021-02-26T09:50:46Z</time>
      </trkpt>
      <trkpt lat="47.75235" lon="7.05786">
        <ele>360</ele>
        <time>2021-02-26T09:50:46Z</time>
      </trkpt>
      <trkpt lat="47.75237" lon="7.05771">
        <ele>361</ele>
        <time>2021-02-26T09:50:46Z</time>
      </trkpt>
      <trkpt lat="47.7524" lon="7.05756">
        <ele>361</ele>
        <time>2021-02-26T09:50:46Z</time>
      </trkpt>
      <trkpt lat="47.75243" lon="7.05742">
        <ele>361</ele>
        <time>2021-02-26T09:50:46Z</time>
      </trkpt>
      <trkpt lat="47.75246" lon="7.05727">
        <ele>361</ele>
        <time>2021-02-26T09:50:46Z</time>
      </trkpt>
      <trkpt lat="47.7525" lon="7.05713">
        <ele>361</ele>
        <time>2021-02-26T09:50:46Z</time>
      </trkpt>
      <trkpt lat="47.75251" lon="7.05698">
        <ele>362</ele>
        <time>2021-02-26T09:50:46Z</time>
      </trkpt>
      <trkpt lat="47.75254" lon="7.05684">
        <ele>362</ele>
        <time>2021-02-26T09:50:46Z</time>
      </trkpt>
      <trkpt lat="47.75257" lon="7.05674">
        <ele>362</ele>
        <time>2021-02-26T09:50:46Z</time>
      </trkpt>
      <trkpt lat="47.75264" lon="7.0567">
        <ele>362</ele>
        <time>2021-02-26T09:50:46Z</time>
      </trkpt>
      <trkpt lat="47.75271" lon="7.05673">
        <ele>362</ele>
        <time>2021-02-26T09:50:46Z</time>
      </trkpt>
      <trkpt lat="47.75279" lon="7.05677">
        <ele>361</ele>
        <time>2021-02-26T09:50:46Z</time>
      </trkpt>
      <trkpt lat="47.75288" lon="7.05681">
        <ele>361</ele>
        <time>2021-02-26T09:50:46Z</time>
      </trkpt>
      <trkpt lat="47.75299" lon="7.05684">
        <ele>361</ele>
        <time>2021-02-26T09:50:46Z</time>
      </trkpt>
      <trkpt lat="47.75308" lon="7.05687">
        <ele>361</ele>
        <time>2021-02-26T09:50:46Z</time>
      </trkpt>
      <trkpt lat="47.75319" lon="7.0569">
        <ele>361</ele>
        <time>2021-02-26T09:50:46Z</time>
      </trkpt>
      <trkpt lat="47.7533" lon="7.05696">
        <ele>360</ele>
        <time>2021-02-26T09:50:46Z</time>
      </trkpt>
      <trkpt lat="47.75341" lon="7.05702">
        <ele>360</ele>
        <time>2021-02-26T09:50:46Z</time>
      </trkpt>
      <trkpt lat="47.75353" lon="7.05709">
        <ele>359</ele>
        <time>2021-02-26T09:50:46Z</time>
      </trkpt>
      <trkpt lat="47.75365" lon="7.05716">
        <ele>359</ele>
        <time>2021-02-26T09:50:46Z</time>
      </trkpt>
      <trkpt lat="47.75377" lon="7.05723">
        <ele>358</ele>
        <time>2021-02-26T09:50:46Z</time>
      </trkpt>
      <trkpt lat="47.75389" lon="7.05731">
        <ele>357</ele>
        <time>2021-02-26T09:50:46Z</time>
      </trkpt>
      <trkpt lat="47.75402" lon="7.05739">
        <ele>357</ele>
        <time>2021-02-26T09:50:46Z</time>
      </trkpt>
      <trkpt lat="47.75414" lon="7.05747">
        <ele>356</ele>
        <time>2021-02-26T09:50:46Z</time>
      </trkpt>
      <trkpt lat="47.75427" lon="7.05755">
        <ele>356</ele>
        <time>2021-02-26T09:50:46Z</time>
      </trkpt>
      <trkpt lat="47.75441" lon="7.05764">
        <ele>356</ele>
        <time>2021-02-26T09:50:46Z</time>
      </trkpt>
      <trkpt lat="47.75454" lon="7.05769">
        <ele>356</ele>
        <time>2021-02-26T09:50:46Z</time>
      </trkpt>
      <trkpt lat="47.75468" lon="7.05768">
        <ele>356</ele>
        <time>2021-02-26T09:50:46Z</time>
      </trkpt>
      <trkpt lat="47.75481" lon="7.05761">
        <ele>356</ele>
        <time>2021-02-26T09:50:46Z</time>
      </trkpt>
      <trkpt lat="47.7549" lon="7.0575">
        <ele>356</ele>
        <time>2021-02-26T09:50:46Z</time>
      </trkpt>
      <trkpt lat="47.75498" lon="7.05734">
        <ele>356</ele>
        <time>2021-02-26T09:50:46Z</time>
      </trkpt>
      <trkpt lat="47.75507" lon="7.0572">
        <ele>356</ele>
        <time>2021-02-26T09:50:46Z</time>
      </trkpt>
      <trkpt lat="47.75515" lon="7.05706">
        <ele>356</ele>
        <time>2021-02-26T09:50:46Z</time>
      </trkpt>
      <trkpt lat="47.75523" lon="7.05693">
        <ele>357</ele>
        <time>2021-02-26T09:50:46Z</time>
      </trkpt>
      <trkpt lat="47.75532" lon="7.05683">
        <ele>357</ele>
        <time>2021-02-26T09:50:46Z</time>
      </trkpt>
      <trkpt lat="47.75542" lon="7.05675">
        <ele>357</ele>
        <time>2021-02-26T09:50:46Z</time>
      </trkpt>
      <trkpt lat="47.75553" lon="7.05672">
        <ele>357</ele>
        <time>2021-02-26T09:50:46Z</time>
      </trkpt>
      <trkpt lat="47.75564" lon="7.0567">
        <ele>358</ele>
        <time>2021-02-26T09:50:46Z</time>
      </trkpt>
      <trkpt lat="47.75573" lon="7.05668">
        <ele>358</ele>
        <time>2021-02-26T09:50:46Z</time>
      </trkpt>
      <trkpt lat="47.75582" lon="7.05671">
        <ele>358</ele>
        <time>2021-02-26T09:50:46Z</time>
      </trkpt>
      <trkpt lat="47.75584" lon="7.05681">
        <ele>358</ele>
        <time>2021-02-26T09:50:46Z</time>
      </trkpt>
      <trkpt lat="47.75583" lon="7.05696">
        <ele>358</ele>
        <time>2021-02-26T09:50:46Z</time>
      </trkpt>
      <trkpt lat="47.75584" lon="7.05712">
        <ele>359</ele>
        <time>2021-02-26T09:50:46Z</time>
      </trkpt>
      <trkpt lat="47.75585" lon="7.0573">
        <ele>359</ele>
        <time>2021-02-26T09:50:46Z</time>
      </trkpt>
      <trkpt lat="47.75586" lon="7.05749">
        <ele>359</ele>
        <time>2021-02-26T09:50:46Z</time>
      </trkpt>
      <trkpt lat="47.75586" lon="7.05767">
        <ele>359</ele>
        <time>2021-02-26T09:50:46Z</time>
      </trkpt>
      <trkpt lat="47.75587" lon="7.05786">
        <ele>359</ele>
        <time>2021-02-26T09:50:46Z</time>
      </trkpt>
      <trkpt lat="47.75589" lon="7.05804">
        <ele>358</ele>
        <time>2021-02-26T09:50:46Z</time>
      </trkpt>
      <trkpt lat="47.75589" lon="7.05824">
        <ele>358</ele>
        <time>2021-02-26T09:50:46Z</time>
      </trkpt>
      <trkpt lat="47.7559" lon="7.05844">
        <ele>358</ele>
        <time>2021-02-26T09:50:46Z</time>
      </trkpt>
      <trkpt lat="47.75591" lon="7.05863">
        <ele>358</ele>
        <time>2021-02-26T09:50:46Z</time>
      </trkpt>
      <trkpt lat="47.75591" lon="7.05882">
        <ele>358</ele>
        <time>2021-02-26T09:50:46Z</time>
      </trkpt>
      <trkpt lat="47.75591" lon="7.05902">
        <ele>358</ele>
        <time>2021-02-26T09:50:46Z</time>
      </trkpt>
      <trkpt lat="47.75592" lon="7.05922">
        <ele>358</ele>
        <time>2021-02-26T09:50:46Z</time>
      </trkpt>
      <trkpt lat="47.75592" lon="7.05941">
        <ele>357</ele>
        <time>2021-02-26T09:50:46Z</time>
      </trkpt>
      <trkpt lat="47.75591" lon="7.05961">
        <ele>356</ele>
        <time>2021-02-26T09:50:46Z</time>
      </trkpt>
      <trkpt lat="47.75592" lon="7.05981">
        <ele>355</ele>
        <time>2021-02-26T09:50:46Z</time>
      </trkpt>
      <trkpt lat="47.75594" lon="7.06002">
        <ele>355</ele>
        <time>2021-02-26T09:50:46Z</time>
      </trkpt>
      <trkpt lat="47.75594" lon="7.06021">
        <ele>354</ele>
        <time>2021-02-26T09:50:46Z</time>
      </trkpt>
      <trkpt lat="47.75594" lon="7.06042">
        <ele>353</ele>
        <time>2021-02-26T09:50:46Z</time>
      </trkpt>
      <trkpt lat="47.75595" lon="7.06061">
        <ele>352</ele>
        <time>2021-02-26T09:50:46Z</time>
      </trkpt>
      <trkpt lat="47.75596" lon="7.06081">
        <ele>352</ele>
        <time>2021-02-26T09:50:46Z</time>
      </trkpt>
      <trkpt lat="47.75597" lon="7.06102">
        <ele>352</ele>
        <time>2021-02-26T09:50:46Z</time>
      </trkpt>
      <trkpt lat="47.75597" lon="7.06123">
        <ele>352</ele>
        <time>2021-02-26T09:50:46Z</time>
      </trkpt>
      <trkpt lat="47.75598" lon="7.06143">
        <ele>352</ele>
        <time>2021-02-26T09:50:46Z</time>
      </trkpt>
      <trkpt lat="47.75598" lon="7.06164">
        <ele>352</ele>
        <time>2021-02-26T09:50:46Z</time>
      </trkpt>
      <trkpt lat="47.75597" lon="7.06184">
        <ele>352</ele>
        <time>2021-02-26T09:50:46Z</time>
      </trkpt>
      <trkpt lat="47.75597" lon="7.06204">
        <ele>352</ele>
        <time>2021-02-26T09:50:46Z</time>
      </trkpt>
      <trkpt lat="47.75598" lon="7.06225">
        <ele>353</ele>
        <time>2021-02-26T09:50:46Z</time>
      </trkpt>
      <trkpt lat="47.75597" lon="7.06246">
        <ele>353</ele>
        <time>2021-02-26T09:50:46Z</time>
      </trkpt>
      <trkpt lat="47.75597" lon="7.06266">
        <ele>353</ele>
        <time>2021-02-26T09:50:46Z</time>
      </trkpt>
      <trkpt lat="47.75598" lon="7.06286">
        <ele>352</ele>
        <time>2021-02-26T09:50:46Z</time>
      </trkpt>
      <trkpt lat="47.756" lon="7.06305">
        <ele>352</ele>
        <time>2021-02-26T09:50:46Z</time>
      </trkpt>
      <trkpt lat="47.756" lon="7.06326">
        <ele>351</ele>
        <time>2021-02-26T09:50:46Z</time>
      </trkpt>
      <trkpt lat="47.75599" lon="7.06346">
        <ele>351</ele>
        <time>2021-02-26T09:50:46Z</time>
      </trkpt>
      <trkpt lat="47.75599" lon="7.06366">
        <ele>351</ele>
        <time>2021-02-26T09:50:46Z</time>
      </trkpt>
      <trkpt lat="47.756" lon="7.06386">
        <ele>350</ele>
        <time>2021-02-26T09:50:46Z</time>
      </trkpt>
      <trkpt lat="47.75601" lon="7.06406">
        <ele>350</ele>
        <time>2021-02-26T09:50:46Z</time>
      </trkpt>
      <trkpt lat="47.75602" lon="7.06425">
        <ele>350</ele>
        <time>2021-02-26T09:50:46Z</time>
      </trkpt>
      <trkpt lat="47.75603" lon="7.06444">
        <ele>350</ele>
        <time>2021-02-26T09:50:46Z</time>
      </trkpt>
      <trkpt lat="47.75602" lon="7.06463">
        <ele>349</ele>
        <time>2021-02-26T09:50:46Z</time>
      </trkpt>
      <trkpt lat="47.75607" lon="7.0648">
        <ele>349</ele>
        <time>2021-02-26T09:50:46Z</time>
      </trkpt>
      <trkpt lat="47.75618" lon="7.06488">
        <ele>349</ele>
        <time>2021-02-26T09:50:46Z</time>
      </trkpt>
      <trkpt lat="47.75631" lon="7.06488">
        <ele>350</ele>
        <time>2021-02-26T09:50:46Z</time>
      </trkpt>
      <trkpt lat="47.75644" lon="7.06486">
        <ele>350</ele>
        <time>2021-02-26T09:50:46Z</time>
      </trkpt>
      <trkpt lat="47.75657" lon="7.06485">
        <ele>350</ele>
        <time>2021-02-26T09:50:46Z</time>
      </trkpt>
      <trkpt lat="47.7567" lon="7.06487">
        <ele>351</ele>
        <time>2021-02-26T09:50:46Z</time>
      </trkpt>
      <trkpt lat="47.75683" lon="7.06489">
        <ele>350</ele>
        <time>2021-02-26T09:50:46Z</time>
      </trkpt>
      <trkpt lat="47.75697" lon="7.06491">
        <ele>350</ele>
        <time>2021-02-26T09:50:46Z</time>
      </trkpt>
      <trkpt lat="47.7571" lon="7.06493">
        <ele>350</ele>
        <time>2021-02-26T09:50:46Z</time>
      </trkpt>
      <trkpt lat="47.75724" lon="7.06496">
        <ele>349</ele>
        <time>2021-02-26T09:50:46Z</time>
      </trkpt>
      <trkpt lat="47.75739" lon="7.06498">
        <ele>349</ele>
        <time>2021-02-26T09:50:46Z</time>
      </trkpt>
      <trkpt lat="47.75752" lon="7.065">
        <ele>349</ele>
        <time>2021-02-26T09:50:46Z</time>
      </trkpt>
      <trkpt lat="47.75766" lon="7.06502">
        <ele>349</ele>
        <time>2021-02-26T09:50:46Z</time>
      </trkpt>
      <trkpt lat="47.75781" lon="7.06503">
        <ele>348</ele>
        <time>2021-02-26T09:50:46Z</time>
      </trkpt>
      <trkpt lat="47.75795" lon="7.06505">
        <ele>348</ele>
        <time>2021-02-26T09:50:46Z</time>
      </trkpt>
      <trkpt lat="47.75809" lon="7.06507">
        <ele>347</ele>
        <time>2021-02-26T09:50:46Z</time>
      </trkpt>
      <trkpt lat="47.75823" lon="7.06511">
        <ele>347</ele>
        <time>2021-02-26T09:50:46Z</time>
      </trkpt>
      <trkpt lat="47.75837" lon="7.06513">
        <ele>347</ele>
        <time>2021-02-26T09:50:46Z</time>
      </trkpt>
      <trkpt lat="47.75851" lon="7.06516">
        <ele>346</ele>
        <time>2021-02-26T09:50:46Z</time>
      </trkpt>
      <trkpt lat="47.75865" lon="7.06519">
        <ele>346</ele>
        <time>2021-02-26T09:50:46Z</time>
      </trkpt>
      <trkpt lat="47.75878" lon="7.06521">
        <ele>346</ele>
        <time>2021-02-26T09:50:46Z</time>
      </trkpt>
      <trkpt lat="47.75892" lon="7.06524">
        <ele>345</ele>
        <time>2021-02-26T09:50:46Z</time>
      </trkpt>
      <trkpt lat="47.75905" lon="7.06527">
        <ele>345</ele>
        <time>2021-02-26T09:50:46Z</time>
      </trkpt>
      <trkpt lat="47.75918" lon="7.06529">
        <ele>345</ele>
        <time>2021-02-26T09:50:46Z</time>
      </trkpt>
      <trkpt lat="47.75931" lon="7.06531">
        <ele>345</ele>
        <time>2021-02-26T09:50:46Z</time>
      </trkpt>
      <trkpt lat="47.75944" lon="7.06534">
        <ele>346</ele>
        <time>2021-02-26T09:50:46Z</time>
      </trkpt>
      <trkpt lat="47.75957" lon="7.06536">
        <ele>346</ele>
        <time>2021-02-26T09:50:46Z</time>
      </trkpt>
      <trkpt lat="47.7597" lon="7.06539">
        <ele>347</ele>
        <time>2021-02-26T09:50:46Z</time>
      </trkpt>
      <trkpt lat="47.75983" lon="7.06541">
        <ele>347</ele>
        <time>2021-02-26T09:50:46Z</time>
      </trkpt>
      <trkpt lat="47.75995" lon="7.06545">
        <ele>348</ele>
        <time>2021-02-26T09:50:46Z</time>
      </trkpt>
      <trkpt lat="47.76008" lon="7.06548">
        <ele>348</ele>
        <time>2021-02-26T09:50:46Z</time>
      </trkpt>
      <trkpt lat="47.7602" lon="7.06549">
        <ele>350</ele>
        <time>2021-02-26T09:50:46Z</time>
      </trkpt>
      <trkpt lat="47.76033" lon="7.0655">
        <ele>351</ele>
        <time>2021-02-26T09:50:46Z</time>
      </trkpt>
      <trkpt lat="47.76044" lon="7.0655">
        <ele>352</ele>
        <time>2021-02-26T09:50:46Z</time>
      </trkpt>
      <trkpt lat="47.76056" lon="7.06551">
        <ele>353</ele>
        <time>2021-02-26T09:50:46Z</time>
      </trkpt>
      <trkpt lat="47.76067" lon="7.06549">
        <ele>354</ele>
        <time>2021-02-26T09:50:46Z</time>
      </trkpt>
      <trkpt lat="47.76079" lon="7.06547">
        <ele>356</ele>
        <time>2021-02-26T09:50:46Z</time>
      </trkpt>
      <trkpt lat="47.76091" lon="7.06545">
        <ele>356</ele>
        <time>2021-02-26T09:50:46Z</time>
      </trkpt>
      <trkpt lat="47.76102" lon="7.06542">
        <ele>357</ele>
        <time>2021-02-26T09:50:46Z</time>
      </trkpt>
      <trkpt lat="47.76113" lon="7.06539">
        <ele>357</ele>
        <time>2021-02-26T09:50:46Z</time>
      </trkpt>
      <trkpt lat="47.76124" lon="7.06536">
        <ele>358</ele>
        <time>2021-02-26T09:50:46Z</time>
      </trkpt>
      <trkpt lat="47.76136" lon="7.06532">
        <ele>359</ele>
        <time>2021-02-26T09:50:46Z</time>
      </trkpt>
      <trkpt lat="47.76147" lon="7.06528">
        <ele>359</ele>
        <time>2021-02-26T09:50:46Z</time>
      </trkpt>
      <trkpt lat="47.76158" lon="7.06523">
        <ele>360</ele>
        <time>2021-02-26T09:50:46Z</time>
      </trkpt>
      <trkpt lat="47.76169" lon="7.0652">
        <ele>361</ele>
        <time>2021-02-26T09:50:46Z</time>
      </trkpt>
      <trkpt lat="47.7618" lon="7.06516">
        <ele>361</ele>
        <time>2021-02-26T09:50:46Z</time>
      </trkpt>
      <trkpt lat="47.76191" lon="7.06512">
        <ele>361</ele>
        <time>2021-02-26T09:50:46Z</time>
      </trkpt>
      <trkpt lat="47.76202" lon="7.06508">
        <ele>361</ele>
        <time>2021-02-26T09:50:46Z</time>
      </trkpt>
      <trkpt lat="47.76214" lon="7.06505">
        <ele>361</ele>
        <time>2021-02-26T09:50:46Z</time>
      </trkpt>
      <trkpt lat="47.76226" lon="7.06501">
        <ele>360</ele>
        <time>2021-02-26T09:50:46Z</time>
      </trkpt>
      <trkpt lat="47.76237" lon="7.06498">
        <ele>360</ele>
        <time>2021-02-26T09:50:46Z</time>
      </trkpt>
      <trkpt lat="47.7625" lon="7.06495">
        <ele>360</ele>
        <time>2021-02-26T09:50:46Z</time>
      </trkpt>
      <trkpt lat="47.76263" lon="7.06492">
        <ele>361</ele>
        <time>2021-02-26T09:50:46Z</time>
      </trkpt>
      <trkpt lat="47.76275" lon="7.06491">
        <ele>361</ele>
        <time>2021-02-26T09:50:46Z</time>
      </trkpt>
      <trkpt lat="47.76287" lon="7.0649">
        <ele>361</ele>
        <time>2021-02-26T09:50:46Z</time>
      </trkpt>
      <trkpt lat="47.76299" lon="7.0649">
        <ele>361</ele>
        <time>2021-02-26T09:50:46Z</time>
      </trkpt>
      <trkpt lat="47.76311" lon="7.06492">
        <ele>360</ele>
        <time>2021-02-26T09:50:46Z</time>
      </trkpt>
      <trkpt lat="47.76323" lon="7.06495">
        <ele>359</ele>
        <time>2021-02-26T09:50:46Z</time>
      </trkpt>
      <trkpt lat="47.76334" lon="7.06498">
        <ele>358</ele>
        <time>2021-02-26T09:50:46Z</time>
      </trkpt>
      <trkpt lat="47.76345" lon="7.06503">
        <ele>358</ele>
        <time>2021-02-26T09:50:46Z</time>
      </trkpt>
      <trkpt lat="47.76357" lon="7.06508">
        <ele>358</ele>
        <time>2021-02-26T09:50:46Z</time>
      </trkpt>
      <trkpt lat="47.76368" lon="7.06513">
        <ele>358</ele>
        <time>2021-02-26T09:50:46Z</time>
      </trkpt>
      <trkpt lat="47.76379" lon="7.06518">
        <ele>358</ele>
        <time>2021-02-26T09:50:46Z</time>
      </trkpt>
      <trkpt lat="47.7639" lon="7.06523">
        <ele>358</ele>
        <time>2021-02-26T09:50:46Z</time>
      </trkpt>
      <trkpt lat="47.76401" lon="7.06528">
        <ele>358</ele>
        <time>2021-02-26T09:50:46Z</time>
      </trkpt>
      <trkpt lat="47.76413" lon="7.06532">
        <ele>358</ele>
        <time>2021-02-26T09:50:46Z</time>
      </trkpt>
      <trkpt lat="47.76424" lon="7.06534">
        <ele>358</ele>
        <time>2021-02-26T09:50:46Z</time>
      </trkpt>
      <trkpt lat="47.76436" lon="7.06538">
        <ele>358</ele>
        <time>2021-02-26T09:50:46Z</time>
      </trkpt>
      <trkpt lat="47.76447" lon="7.0654">
        <ele>358</ele>
        <time>2021-02-26T09:50:46Z</time>
      </trkpt>
      <trkpt lat="47.76458" lon="7.0654">
        <ele>359</ele>
        <time>2021-02-26T09:50:46Z</time>
      </trkpt>
      <trkpt lat="47.76469" lon="7.0654">
        <ele>359</ele>
        <time>2021-02-26T09:50:46Z</time>
      </trkpt>
      <trkpt lat="47.7648" lon="7.06538">
        <ele>359</ele>
        <time>2021-02-26T09:50:46Z</time>
      </trkpt>
      <trkpt lat="47.76491" lon="7.06536">
        <ele>359</ele>
        <time>2021-02-26T09:50:46Z</time>
      </trkpt>
      <trkpt lat="47.76503" lon="7.06534">
        <ele>360</ele>
        <time>2021-02-26T09:50:46Z</time>
      </trkpt>
      <trkpt lat="47.76514" lon="7.06532">
        <ele>360</ele>
        <time>2021-02-26T09:50:46Z</time>
      </trkpt>
      <trkpt lat="47.76524" lon="7.06529">
        <ele>360</ele>
        <time>2021-02-26T09:50:46Z</time>
      </trkpt>
      <trkpt lat="47.76536" lon="7.06525">
        <ele>360</ele>
        <time>2021-02-26T09:50:46Z</time>
      </trkpt>
      <trkpt lat="47.76547" lon="7.06522">
        <ele>360</ele>
        <time>2021-02-26T09:50:46Z</time>
      </trkpt>
      <trkpt lat="47.76559" lon="7.06518">
        <ele>360</ele>
        <time>2021-02-26T09:50:46Z</time>
      </trkpt>
      <trkpt lat="47.76571" lon="7.06513">
        <ele>360</ele>
        <time>2021-02-26T09:50:46Z</time>
      </trkpt>
      <trkpt lat="47.76582" lon="7.06509">
        <ele>360</ele>
        <time>2021-02-26T09:50:46Z</time>
      </trkpt>
      <trkpt lat="47.76593" lon="7.06504">
        <ele>359</ele>
        <time>2021-02-26T09:50:46Z</time>
      </trkpt>
      <trkpt lat="47.76605" lon="7.06499">
        <ele>359</ele>
        <time>2021-02-26T09:50:46Z</time>
      </trkpt>
      <trkpt lat="47.76617" lon="7.06495">
        <ele>359</ele>
        <time>2021-02-26T09:50:46Z</time>
      </trkpt>
      <trkpt lat="47.76628" lon="7.06491">
        <ele>359</ele>
        <time>2021-02-26T09:50:46Z</time>
      </trkpt>
      <trkpt lat="47.7664" lon="7.06486">
        <ele>359</ele>
        <time>2021-02-26T09:50:46Z</time>
      </trkpt>
      <trkpt lat="47.76651" lon="7.06481">
        <ele>359</ele>
        <time>2021-02-26T09:50:46Z</time>
      </trkpt>
      <trkpt lat="47.76662" lon="7.06477">
        <ele>359</ele>
        <time>2021-02-26T09:50:46Z</time>
      </trkpt>
      <trkpt lat="47.76672" lon="7.06472">
        <ele>360</ele>
        <time>2021-02-26T09:50:46Z</time>
      </trkpt>
      <trkpt lat="47.76683" lon="7.06468">
        <ele>361</ele>
        <time>2021-02-26T09:50:46Z</time>
      </trkpt>
      <trkpt lat="47.76693" lon="7.06462">
        <ele>361</ele>
        <time>2021-02-26T09:50:46Z</time>
      </trkpt>
      <trkpt lat="47.76704" lon="7.06455">
        <ele>362</ele>
        <time>2021-02-26T09:50:46Z</time>
      </trkpt>
      <trkpt lat="47.76714" lon="7.06449">
        <ele>362</ele>
        <time>2021-02-26T09:50:46Z</time>
      </trkpt>
      <trkpt lat="47.76723" lon="7.0644">
        <ele>362</ele>
        <time>2021-02-26T09:50:46Z</time>
      </trkpt>
      <trkpt lat="47.76731" lon="7.06431">
        <ele>362</ele>
        <time>2021-02-26T09:50:46Z</time>
      </trkpt>
      <trkpt lat="47.76741" lon="7.06423">
        <ele>362</ele>
        <time>2021-02-26T09:50:46Z</time>
      </trkpt>
      <trkpt lat="47.76751" lon="7.06414">
        <ele>362</ele>
        <time>2021-02-26T09:50:46Z</time>
      </trkpt>
      <trkpt lat="47.7676" lon="7.06406">
        <ele>362</ele>
        <time>2021-02-26T09:50:46Z</time>
      </trkpt>
      <trkpt lat="47.7677" lon="7.06398">
        <ele>363</ele>
        <time>2021-02-26T09:50:46Z</time>
      </trkpt>
      <trkpt lat="47.76779" lon="7.0639">
        <ele>363</ele>
        <time>2021-02-26T09:50:46Z</time>
      </trkpt>
      <trkpt lat="47.76788" lon="7.06383">
        <ele>363</ele>
        <time>2021-02-26T09:50:46Z</time>
      </trkpt>
      <trkpt lat="47.76798" lon="7.06375">
        <ele>363</ele>
        <time>2021-02-26T09:50:46Z</time>
      </trkpt>
      <trkpt lat="47.76808" lon="7.06366">
        <ele>363</ele>
        <time>2021-02-26T09:50:46Z</time>
      </trkpt>
      <trkpt lat="47.76817" lon="7.06357">
        <ele>363</ele>
        <time>2021-02-26T09:50:46Z</time>
      </trkpt>
      <trkpt lat="47.76826" lon="7.06347">
        <ele>363</ele>
        <time>2021-02-26T09:50:46Z</time>
      </trkpt>
      <trkpt lat="47.76834" lon="7.06337">
        <ele>363</ele>
        <time>2021-02-26T09:50:46Z</time>
      </trkpt>
      <trkpt lat="47.76842" lon="7.06328">
        <ele>363</ele>
        <time>2021-02-26T09:50:46Z</time>
      </trkpt>
      <trkpt lat="47.76851" lon="7.06318">
        <ele>364</ele>
        <time>2021-02-26T09:50:46Z</time>
      </trkpt>
      <trkpt lat="47.76859" lon="7.06308">
        <ele>364</ele>
        <time>2021-02-26T09:50:46Z</time>
      </trkpt>
      <trkpt lat="47.76867" lon="7.06299">
        <ele>365</ele>
        <time>2021-02-26T09:50:46Z</time>
      </trkpt>
      <trkpt lat="47.76875" lon="7.06289">
        <ele>365</ele>
        <time>2021-02-26T09:50:46Z</time>
      </trkpt>
      <trkpt lat="47.76883" lon="7.06281">
        <ele>365</ele>
        <time>2021-02-26T09:50:46Z</time>
      </trkpt>
      <trkpt lat="47.76891" lon="7.06272">
        <ele>365</ele>
        <time>2021-02-26T09:50:46Z</time>
      </trkpt>
      <trkpt lat="47.76897" lon="7.06262">
        <ele>365</ele>
        <time>2021-02-26T09:50:46Z</time>
      </trkpt>
      <trkpt lat="47.76903" lon="7.06252">
        <ele>365</ele>
        <time>2021-02-26T09:50:46Z</time>
      </trkpt>
      <trkpt lat="47.76909" lon="7.06242">
        <ele>365</ele>
        <time>2021-02-26T09:50:46Z</time>
      </trkpt>
      <trkpt lat="47.76916" lon="7.06231">
        <ele>365</ele>
        <time>2021-02-26T09:50:46Z</time>
      </trkpt>
      <trkpt lat="47.76923" lon="7.0622">
        <ele>366</ele>
        <time>2021-02-26T09:50:46Z</time>
      </trkpt>
      <trkpt lat="47.76931" lon="7.0621">
        <ele>366</ele>
        <time>2021-02-26T09:50:46Z</time>
      </trkpt>
      <trkpt lat="47.76939" lon="7.06201">
        <ele>367</ele>
        <time>2021-02-26T09:50:46Z</time>
      </trkpt>
      <trkpt lat="47.76947" lon="7.06192">
        <ele>367</ele>
        <time>2021-02-26T09:50:46Z</time>
      </trkpt>
      <trkpt lat="47.76955" lon="7.06184">
        <ele>367</ele>
        <time>2021-02-26T09:50:46Z</time>
      </trkpt>
      <trkpt lat="47.76963" lon="7.06176">
        <ele>367</ele>
        <time>2021-02-26T09:50:46Z</time>
      </trkpt>
      <trkpt lat="47.76971" lon="7.06168">
        <ele>367</ele>
        <time>2021-02-26T09:50:46Z</time>
      </trkpt>
      <trkpt lat="47.7698" lon="7.06161">
        <ele>367</ele>
        <time>2021-02-26T09:50:46Z</time>
      </trkpt>
      <trkpt lat="47.76988" lon="7.06152">
        <ele>367</ele>
        <time>2021-02-26T09:50:46Z</time>
      </trkpt>
      <trkpt lat="47.76995" lon="7.06145">
        <ele>368</ele>
        <time>2021-02-26T09:50:46Z</time>
      </trkpt>
      <trkpt lat="47.77003" lon="7.06138">
        <ele>368</ele>
        <time>2021-02-26T09:50:46Z</time>
      </trkpt>
      <trkpt lat="47.77011" lon="7.06131">
        <ele>368</ele>
        <time>2021-02-26T09:50:46Z</time>
      </trkpt>
      <trkpt lat="47.77018" lon="7.06123">
        <ele>368</ele>
        <time>2021-02-26T09:50:46Z</time>
      </trkpt>
      <trkpt lat="47.77027" lon="7.06116">
        <ele>368</ele>
        <time>2021-02-26T09:50:46Z</time>
      </trkpt>
      <trkpt lat="47.77036" lon="7.0611">
        <ele>369</ele>
        <time>2021-02-26T09:50:46Z</time>
      </trkpt>
      <trkpt lat="47.77044" lon="7.06103">
        <ele>369</ele>
        <time>2021-02-26T09:50:46Z</time>
      </trkpt>
      <trkpt lat="47.77053" lon="7.06098">
        <ele>369</ele>
        <time>2021-02-26T09:50:46Z</time>
      </trkpt>
      <trkpt lat="47.77062" lon="7.06092">
        <ele>369</ele>
        <time>2021-02-26T09:50:46Z</time>
      </trkpt>
      <trkpt lat="47.77072" lon="7.06087">
        <ele>369</ele>
        <time>2021-02-26T09:50:46Z</time>
      </trkpt>
      <trkpt lat="47.77082" lon="7.06081">
        <ele>369</ele>
        <time>2021-02-26T09:50:46Z</time>
      </trkpt>
      <trkpt lat="47.77091" lon="7.06075">
        <ele>369</ele>
        <time>2021-02-26T09:50:46Z</time>
      </trkpt>
      <trkpt lat="47.771" lon="7.06069">
        <ele>370</ele>
        <time>2021-02-26T09:50:46Z</time>
      </trkpt>
      <trkpt lat="47.7711" lon="7.06063">
        <ele>370</ele>
        <time>2021-02-26T09:50:46Z</time>
      </trkpt>
      <trkpt lat="47.77119" lon="7.06058">
        <ele>370</ele>
        <time>2021-02-26T09:50:46Z</time>
      </trkpt>
      <trkpt lat="47.77128" lon="7.06054">
        <ele>371</ele>
        <time>2021-02-26T09:50:46Z</time>
      </trkpt>
      <trkpt lat="47.77139" lon="7.06051">
        <ele>371</ele>
        <time>2021-02-26T09:50:46Z</time>
      </trkpt>
      <trkpt lat="47.77148" lon="7.06047">
        <ele>371</ele>
        <time>2021-02-26T09:50:46Z</time>
      </trkpt>
      <trkpt lat="47.77158" lon="7.06042">
        <ele>371</ele>
        <time>2021-02-26T09:50:46Z</time>
      </trkpt>
      <trkpt lat="47.77168" lon="7.06038">
        <ele>372</ele>
        <time>2021-02-26T09:50:46Z</time>
      </trkpt>
      <trkpt lat="47.77177" lon="7.06035">
        <ele>372</ele>
        <time>2021-02-26T09:50:46Z</time>
      </trkpt>
      <trkpt lat="47.77185" lon="7.0603">
        <ele>372</ele>
        <time>2021-02-26T09:50:46Z</time>
      </trkpt>
      <trkpt lat="47.77194" lon="7.06023">
        <ele>372</ele>
        <time>2021-02-26T09:50:46Z</time>
      </trkpt>
      <trkpt lat="47.77202" lon="7.06015">
        <ele>372</ele>
        <time>2021-02-26T09:50:46Z</time>
      </trkpt>
      <trkpt lat="47.7721" lon="7.06007">
        <ele>372</ele>
        <time>2021-02-26T09:50:46Z</time>
      </trkpt>
      <trkpt lat="47.77218" lon="7.06">
        <ele>372</ele>
        <time>2021-02-26T09:50:46Z</time>
      </trkpt>
      <trkpt lat="47.77225" lon="7.05993">
        <ele>373</ele>
        <time>2021-02-26T09:50:46Z</time>
      </trkpt>
      <trkpt lat="47.77233" lon="7.05986">
        <ele>373</ele>
        <time>2021-02-26T09:50:46Z</time>
      </trkpt>
      <trkpt lat="47.77241" lon="7.05981">
        <ele>374</ele>
        <time>2021-02-26T09:50:46Z</time>
      </trkpt>
      <trkpt lat="47.7725" lon="7.05977">
        <ele>374</ele>
        <time>2021-02-26T09:50:46Z</time>
      </trkpt>
      <trkpt lat="47.77258" lon="7.05975">
        <ele>374</ele>
        <time>2021-02-26T09:50:46Z</time>
      </trkpt>
      <trkpt lat="47.77264" lon="7.05981">
        <ele>374</ele>
        <time>2021-02-26T09:50:46Z</time>
      </trkpt>
      <trkpt lat="47.77264" lon="7.0599">
        <ele>374</ele>
        <time>2021-02-26T09:50:46Z</time>
      </trkpt>
      <trkpt lat="47.77264" lon="7.0599">
        <ele>374</ele>
        <time>2021-02-26T09:50:46Z</time>
      </trkpt>
      <trkpt lat="47.77258" lon="7.05984">
        <ele>374</ele>
        <time>2021-02-26T09:50:46Z</time>
      </trkpt>
      <trkpt lat="47.77262" lon="7.05973">
        <ele>374</ele>
        <time>2021-02-26T09:50:46Z</time>
      </trkpt>
      <trkpt lat="47.77269" lon="7.05966">
        <ele>375</ele>
        <time>2021-02-26T09:50:46Z</time>
      </trkpt>
      <trkpt lat="47.77278" lon="7.05962">
        <ele>375</ele>
        <time>2021-02-26T09:50:46Z</time>
      </trkpt>
      <trkpt lat="47.77287" lon="7.05959">
        <ele>376</ele>
        <time>2021-02-26T09:50:46Z</time>
      </trkpt>
      <trkpt lat="47.77299" lon="7.05959">
        <ele>376</ele>
        <time>2021-02-26T09:50:46Z</time>
      </trkpt>
      <trkpt lat="47.77308" lon="7.05959">
        <ele>376</ele>
        <time>2021-02-26T09:50:46Z</time>
      </trkpt>
      <trkpt lat="47.77318" lon="7.05958">
        <ele>377</ele>
        <time>2021-02-26T09:50:46Z</time>
      </trkpt>
      <trkpt lat="47.77327" lon="7.05957">
        <ele>377</ele>
        <time>2021-02-26T09:50:46Z</time>
      </trkpt>
      <trkpt lat="47.77337" lon="7.05954">
        <ele>377</ele>
        <time>2021-02-26T09:50:46Z</time>
      </trkpt>
      <trkpt lat="47.77346" lon="7.0595">
        <ele>377</ele>
        <time>2021-02-26T09:50:46Z</time>
      </trkpt>
      <trkpt lat="47.77355" lon="7.05944">
        <ele>377</ele>
        <time>2021-02-26T09:50:46Z</time>
      </trkpt>
      <trkpt lat="47.77364" lon="7.05939">
        <ele>378</ele>
        <time>2021-02-26T09:50:46Z</time>
      </trkpt>
      <trkpt lat="47.77373" lon="7.05934">
        <ele>378</ele>
        <time>2021-02-26T09:50:46Z</time>
      </trkpt>
      <trkpt lat="47.77382" lon="7.05928">
        <ele>378</ele>
        <time>2021-02-26T09:50:46Z</time>
      </trkpt>
      <trkpt lat="47.77391" lon="7.05923">
        <ele>378</ele>
        <time>2021-02-26T09:50:46Z</time>
      </trkpt>
      <trkpt lat="47.77401" lon="7.05918">
        <ele>379</ele>
        <time>2021-02-26T09:50:46Z</time>
      </trkpt>
      <trkpt lat="47.7741" lon="7.05915">
        <ele>379</ele>
        <time>2021-02-26T09:50:46Z</time>
      </trkpt>
      <trkpt lat="47.7742" lon="7.05911">
        <ele>379</ele>
        <time>2021-02-26T09:50:46Z</time>
      </trkpt>
      <trkpt lat="47.7743" lon="7.05906">
        <ele>380</ele>
        <time>2021-02-26T09:50:46Z</time>
      </trkpt>
      <trkpt lat="47.77439" lon="7.05902">
        <ele>380</ele>
        <time>2021-02-26T09:50:46Z</time>
      </trkpt>
      <trkpt lat="47.77449" lon="7.05898">
        <ele>380</ele>
        <time>2021-02-26T09:50:46Z</time>
      </trkpt>
      <trkpt lat="47.77458" lon="7.05893">
        <ele>380</ele>
        <time>2021-02-26T09:50:46Z</time>
      </trkpt>
      <trkpt lat="47.77467" lon="7.05889">
        <ele>380</ele>
        <time>2021-02-26T09:50:46Z</time>
      </trkpt>
      <trkpt lat="47.77476" lon="7.05885">
        <ele>380</ele>
        <time>2021-02-26T09:50:46Z</time>
      </trkpt>
      <trkpt lat="47.77484" lon="7.05881">
        <ele>380</ele>
        <time>2021-02-26T09:50:46Z</time>
      </trkpt>
      <trkpt lat="47.77493" lon="7.05877">
        <ele>380</ele>
        <time>2021-02-26T09:50:46Z</time>
      </trkpt>
      <trkpt lat="47.77502" lon="7.05873">
        <ele>381</ele>
        <time>2021-02-26T09:50:46Z</time>
      </trkpt>
      <trkpt lat="47.77511" lon="7.05871">
        <ele>381</ele>
        <time>2021-02-26T09:50:46Z</time>
      </trkpt>
      <trkpt lat="47.77521" lon="7.0587">
        <ele>381</ele>
        <time>2021-02-26T09:50:46Z</time>
      </trkpt>
      <trkpt lat="47.77531" lon="7.05869">
        <ele>381</ele>
        <time>2021-02-26T09:50:46Z</time>
      </trkpt>
      <trkpt lat="47.77541" lon="7.05868">
        <ele>381</ele>
        <time>2021-02-26T09:50:46Z</time>
      </trkpt>
      <trkpt lat="47.7755" lon="7.05865">
        <ele>381</ele>
        <time>2021-02-26T09:50:46Z</time>
      </trkpt>
      <trkpt lat="47.77559" lon="7.05859">
        <ele>381</ele>
        <time>2021-02-26T09:50:46Z</time>
      </trkpt>
      <trkpt lat="47.77566" lon="7.0585">
        <ele>381</ele>
        <time>2021-02-26T09:50:46Z</time>
      </trkpt>
      <trkpt lat="47.77574" lon="7.0584">
        <ele>380</ele>
        <time>2021-02-26T09:50:46Z</time>
      </trkpt>
      <trkpt lat="47.77581" lon="7.05831">
        <ele>380</ele>
        <time>2021-02-26T09:50:46Z</time>
      </trkpt>
      <trkpt lat="47.77588" lon="7.05821">
        <ele>381</ele>
        <time>2021-02-26T09:50:46Z</time>
      </trkpt>
      <trkpt lat="47.77594" lon="7.0581">
        <ele>382</ele>
        <time>2021-02-26T09:50:46Z</time>
      </trkpt>
      <trkpt lat="47.77601" lon="7.05802">
        <ele>382</ele>
        <time>2021-02-26T09:50:46Z</time>
      </trkpt>
      <trkpt lat="47.77608" lon="7.05792">
        <ele>383</ele>
        <time>2021-02-26T09:50:46Z</time>
      </trkpt>
      <trkpt lat="47.77616" lon="7.05785">
        <ele>384</ele>
        <time>2021-02-26T09:50:46Z</time>
      </trkpt>
      <trkpt lat="47.77625" lon="7.05779">
        <ele>384</ele>
        <time>2021-02-26T09:50:46Z</time>
      </trkpt>
      <trkpt lat="47.77633" lon="7.05771">
        <ele>384</ele>
        <time>2021-02-26T09:50:46Z</time>
      </trkpt>
      <trkpt lat="47.7764" lon="7.05763">
        <ele>384</ele>
        <time>2021-02-26T09:50:46Z</time>
      </trkpt>
      <trkpt lat="47.77646" lon="7.05753">
        <ele>384</ele>
        <time>2021-02-26T09:50:46Z</time>
      </trkpt>
      <trkpt lat="47.77652" lon="7.05742">
        <ele>384</ele>
        <time>2021-02-26T09:50:46Z</time>
      </trkpt>
      <trkpt lat="47.77657" lon="7.05732">
        <ele>385</ele>
        <time>2021-02-26T09:50:46Z</time>
      </trkpt>
      <trkpt lat="47.77662" lon="7.05721">
        <ele>385</ele>
        <time>2021-02-26T09:50:46Z</time>
      </trkpt>
      <trkpt lat="47.77668" lon="7.05713">
        <ele>385</ele>
        <time>2021-02-26T09:50:46Z</time>
      </trkpt>
      <trkpt lat="47.77676" lon="7.05711">
        <ele>385</ele>
        <time>2021-02-26T09:50:46Z</time>
      </trkpt>
      <trkpt lat="47.77685" lon="7.05713">
        <ele>386</ele>
        <time>2021-02-26T09:50:46Z</time>
      </trkpt>
      <trkpt lat="47.77692" lon="7.05713">
        <ele>386</ele>
        <time>2021-02-26T09:50:46Z</time>
      </trkpt>
      <trkpt lat="47.777" lon="7.05716">
        <ele>386</ele>
        <time>2021-02-26T09:50:46Z</time>
      </trkpt>
      <trkpt lat="47.77706" lon="7.0572">
        <ele>387</ele>
        <time>2021-02-26T09:50:46Z</time>
      </trkpt>
      <trkpt lat="47.77712" lon="7.05724">
        <ele>387</ele>
        <time>2021-02-26T09:50:46Z</time>
      </trkpt>
      <trkpt lat="47.77718" lon="7.05728">
        <ele>387</ele>
        <time>2021-02-26T09:50:46Z</time>
      </trkpt>
      <trkpt lat="47.77724" lon="7.05732">
        <ele>388</ele>
        <time>2021-02-26T09:50:46Z</time>
      </trkpt>
      <trkpt lat="47.77731" lon="7.05736">
        <ele>388</ele>
        <time>2021-02-26T09:50:46Z</time>
      </trkpt>
      <trkpt lat="47.77737" lon="7.05738">
        <ele>388</ele>
        <time>2021-02-26T09:50:46Z</time>
      </trkpt>
      <trkpt lat="47.77743" lon="7.0574">
        <ele>389</ele>
        <time>2021-02-26T09:50:46Z</time>
      </trkpt>
      <trkpt lat="47.77749" lon="7.05741">
        <ele>389</ele>
        <time>2021-02-26T09:50:46Z</time>
      </trkpt>
      <trkpt lat="47.77755" lon="7.05743">
        <ele>389</ele>
        <time>2021-02-26T09:50:46Z</time>
      </trkpt>
      <trkpt lat="47.77761" lon="7.05744">
        <ele>390</ele>
        <time>2021-02-26T09:50:46Z</time>
      </trkpt>
      <trkpt lat="47.77768" lon="7.05745">
        <ele>390</ele>
        <time>2021-02-26T09:50:46Z</time>
      </trkpt>
      <trkpt lat="47.77774" lon="7.05745">
        <ele>391</ele>
        <time>2021-02-26T09:50:46Z</time>
      </trkpt>
      <trkpt lat="47.77781" lon="7.05744">
        <ele>391</ele>
        <time>2021-02-26T09:50:46Z</time>
      </trkpt>
      <trkpt lat="47.77787" lon="7.05743">
        <ele>392</ele>
        <time>2021-02-26T09:50:46Z</time>
      </trkpt>
      <trkpt lat="47.77793" lon="7.05742">
        <ele>392</ele>
        <time>2021-02-26T09:50:46Z</time>
      </trkpt>
      <trkpt lat="47.77793" lon="7.05742">
        <ele>392</ele>
        <time>2021-02-26T09:50:46Z</time>
      </trkpt>
      <trkpt lat="47.77803" lon="7.05738">
        <ele>393</ele>
        <time>2021-02-26T09:50:46Z</time>
      </trkpt>
      <trkpt lat="47.77803" lon="7.05738">
        <ele>393</ele>
        <time>2021-02-26T09:50:46Z</time>
      </trkpt>
      <trkpt lat="47.77813" lon="7.05735">
        <ele>394</ele>
        <time>2021-02-26T09:50:46Z</time>
      </trkpt>
      <trkpt lat="47.77813" lon="7.05735">
        <ele>394</ele>
        <time>2021-02-26T09:50:46Z</time>
      </trkpt>
      <trkpt lat="47.77822" lon="7.05732">
        <ele>395</ele>
        <time>2021-02-26T09:50:46Z</time>
      </trkpt>
      <trkpt lat="47.77822" lon="7.05732">
        <ele>395</ele>
        <time>2021-02-26T09:50:46Z</time>
      </trkpt>
      <trkpt lat="47.77831" lon="7.05731">
        <ele>396</ele>
        <time>2021-02-26T09:50:46Z</time>
      </trkpt>
      <trkpt lat="47.77831" lon="7.05731">
        <ele>396</ele>
        <time>2021-02-26T09:50:46Z</time>
      </trkpt>
      <trkpt lat="47.77839" lon="7.05731">
        <ele>397</ele>
        <time>2021-02-26T09:50:46Z</time>
      </trkpt>
      <trkpt lat="47.77839" lon="7.05731">
        <ele>397</ele>
        <time>2021-02-26T09:50:46Z</time>
      </trkpt>
      <trkpt lat="47.77848" lon="7.05735">
        <ele>398</ele>
        <time>2021-02-26T09:50:46Z</time>
      </trkpt>
      <trkpt lat="47.77848" lon="7.05735">
        <ele>398</ele>
        <time>2021-02-26T09:50:46Z</time>
      </trkpt>
      <trkpt lat="47.77856" lon="7.05739">
        <ele>399</ele>
        <time>2021-02-26T09:50:46Z</time>
      </trkpt>
      <trkpt lat="47.77856" lon="7.05739">
        <ele>399</ele>
        <time>2021-02-26T09:50:46Z</time>
      </trkpt>
      <trkpt lat="47.77865" lon="7.05742">
        <ele>400</ele>
        <time>2021-02-26T09:50:46Z</time>
      </trkpt>
      <trkpt lat="47.77865" lon="7.05742">
        <ele>400</ele>
        <time>2021-02-26T09:50:46Z</time>
      </trkpt>
      <trkpt lat="47.77875" lon="7.05745">
        <ele>401</ele>
        <time>2021-02-26T09:50:46Z</time>
      </trkpt>
      <trkpt lat="47.77887" lon="7.05749">
        <ele>401</ele>
        <time>2021-02-26T09:50:46Z</time>
      </trkpt>
      <trkpt lat="47.77892" lon="7.05751">
        <ele>402</ele>
        <time>2021-02-26T09:50:46Z</time>
      </trkpt>
      <trkpt lat="47.77898" lon="7.05751">
        <ele>403</ele>
        <time>2021-02-26T09:50:46Z</time>
      </trkpt>
      <trkpt lat="47.77905" lon="7.05753">
        <ele>403</ele>
        <time>2021-02-26T09:50:46Z</time>
      </trkpt>
      <trkpt lat="47.77911" lon="7.05755">
        <ele>404</ele>
        <time>2021-02-26T09:50:46Z</time>
      </trkpt>
      <trkpt lat="47.77917" lon="7.05757">
        <ele>405</ele>
        <time>2021-02-26T09:50:46Z</time>
      </trkpt>
      <trkpt lat="47.77923" lon="7.05758">
        <ele>406</ele>
        <time>2021-02-26T09:50:46Z</time>
      </trkpt>
      <trkpt lat="47.7793" lon="7.05758">
        <ele>406</ele>
        <time>2021-02-26T09:50:46Z</time>
      </trkpt>
      <trkpt lat="47.77936" lon="7.05761">
        <ele>407</ele>
        <time>2021-02-26T09:50:46Z</time>
      </trkpt>
      <trkpt lat="47.77943" lon="7.05762">
        <ele>408</ele>
        <time>2021-02-26T09:50:46Z</time>
      </trkpt>
      <trkpt lat="47.7795" lon="7.05764">
        <ele>408</ele>
        <time>2021-02-26T09:50:46Z</time>
      </trkpt>
      <trkpt lat="47.77956" lon="7.05766">
        <ele>409</ele>
        <time>2021-02-26T09:50:46Z</time>
      </trkpt>
      <trkpt lat="47.77962" lon="7.05769">
        <ele>410</ele>
        <time>2021-02-26T09:50:46Z</time>
      </trkpt>
      <trkpt lat="47.77969" lon="7.05772">
        <ele>411</ele>
        <time>2021-02-26T09:50:46Z</time>
      </trkpt>
      <trkpt lat="47.77976" lon="7.05775">
        <ele>412</ele>
        <time>2021-02-26T09:50:46Z</time>
      </trkpt>
      <trkpt lat="47.77983" lon="7.05778">
        <ele>412</ele>
        <time>2021-02-26T09:50:46Z</time>
      </trkpt>
      <trkpt lat="47.7799" lon="7.0578">
        <ele>413</ele>
        <time>2021-02-26T09:50:46Z</time>
      </trkpt>
      <trkpt lat="47.77997" lon="7.05782">
        <ele>414</ele>
        <time>2021-02-26T09:50:46Z</time>
      </trkpt>
      <trkpt lat="47.78004" lon="7.05782">
        <ele>415</ele>
        <time>2021-02-26T09:50:46Z</time>
      </trkpt>
      <trkpt lat="47.78011" lon="7.05783">
        <ele>415</ele>
        <time>2021-02-26T09:50:46Z</time>
      </trkpt>
      <trkpt lat="47.78018" lon="7.05784">
        <ele>416</ele>
        <time>2021-02-26T09:50:46Z</time>
      </trkpt>
      <trkpt lat="47.78025" lon="7.05784">
        <ele>417</ele>
        <time>2021-02-26T09:50:46Z</time>
      </trkpt>
      <trkpt lat="47.78032" lon="7.05784">
        <ele>417</ele>
        <time>2021-02-26T09:50:46Z</time>
      </trkpt>
      <trkpt lat="47.78039" lon="7.05785">
        <ele>418</ele>
        <time>2021-02-26T09:50:46Z</time>
      </trkpt>
      <trkpt lat="47.78046" lon="7.05785">
        <ele>418</ele>
        <time>2021-02-26T09:50:46Z</time>
      </trkpt>
      <trkpt lat="47.78052" lon="7.05785">
        <ele>419</ele>
        <time>2021-02-26T09:50:46Z</time>
      </trkpt>
      <trkpt lat="47.78059" lon="7.05786">
        <ele>420</ele>
        <time>2021-02-26T09:50:46Z</time>
      </trkpt>
      <trkpt lat="47.78065" lon="7.05786">
        <ele>420</ele>
        <time>2021-02-26T09:50:46Z</time>
      </trkpt>
      <trkpt lat="47.78071" lon="7.05786">
        <ele>421</ele>
        <time>2021-02-26T09:50:46Z</time>
      </trkpt>
      <trkpt lat="47.78077" lon="7.05786">
        <ele>421</ele>
        <time>2021-02-26T09:50:46Z</time>
      </trkpt>
      <trkpt lat="47.78083" lon="7.05785">
        <ele>422</ele>
        <time>2021-02-26T09:50:46Z</time>
      </trkpt>
      <trkpt lat="47.7809" lon="7.05785">
        <ele>422</ele>
        <time>2021-02-26T09:50:46Z</time>
      </trkpt>
      <trkpt lat="47.78096" lon="7.05785">
        <ele>422</ele>
        <time>2021-02-26T09:50:46Z</time>
      </trkpt>
      <trkpt lat="47.78102" lon="7.05786">
        <ele>422</ele>
        <time>2021-02-26T09:50:46Z</time>
      </trkpt>
      <trkpt lat="47.78108" lon="7.05785">
        <ele>422</ele>
        <time>2021-02-26T09:50:46Z</time>
      </trkpt>
      <trkpt lat="47.78114" lon="7.05785">
        <ele>422</ele>
        <time>2021-02-26T09:50:46Z</time>
      </trkpt>
      <trkpt lat="47.7812" lon="7.05784">
        <ele>422</ele>
        <time>2021-02-26T09:50:46Z</time>
      </trkpt>
      <trkpt lat="47.78127" lon="7.05784">
        <ele>422</ele>
        <time>2021-02-26T09:50:46Z</time>
      </trkpt>
      <trkpt lat="47.78132" lon="7.05783">
        <ele>422</ele>
        <time>2021-02-26T09:50:46Z</time>
      </trkpt>
      <trkpt lat="47.78138" lon="7.05782">
        <ele>422</ele>
        <time>2021-02-26T09:50:46Z</time>
      </trkpt>
      <trkpt lat="47.78144" lon="7.05781">
        <ele>422</ele>
        <time>2021-02-26T09:50:46Z</time>
      </trkpt>
      <trkpt lat="47.78149" lon="7.05778">
        <ele>422</ele>
        <time>2021-02-26T09:50:46Z</time>
      </trkpt>
      <trkpt lat="47.78154" lon="7.05776">
        <ele>422</ele>
        <time>2021-02-26T09:50:46Z</time>
      </trkpt>
      <trkpt lat="47.7816" lon="7.05774">
        <ele>421</ele>
        <time>2021-02-26T09:50:46Z</time>
      </trkpt>
      <trkpt lat="47.78165" lon="7.0577">
        <ele>421</ele>
        <time>2021-02-26T09:50:46Z</time>
      </trkpt>
      <trkpt lat="47.78171" lon="7.05767">
        <ele>421</ele>
        <time>2021-02-26T09:50:46Z</time>
      </trkpt>
      <trkpt lat="47.78176" lon="7.05765">
        <ele>421</ele>
        <time>2021-02-26T09:50:46Z</time>
      </trkpt>
      <trkpt lat="47.78181" lon="7.05762">
        <ele>421</ele>
        <time>2021-02-26T09:50:46Z</time>
      </trkpt>
      <trkpt lat="47.78187" lon="7.05759">
        <ele>420</ele>
        <time>2021-02-26T09:50:46Z</time>
      </trkpt>
      <trkpt lat="47.78192" lon="7.05755">
        <ele>420</ele>
        <time>2021-02-26T09:50:46Z</time>
      </trkpt>
      <trkpt lat="47.78197" lon="7.05752">
        <ele>420</ele>
        <time>2021-02-26T09:50:46Z</time>
      </trkpt>
      <trkpt lat="47.78203" lon="7.0575">
        <ele>420</ele>
        <time>2021-02-26T09:50:46Z</time>
      </trkpt>
      <trkpt lat="47.78209" lon="7.05748">
        <ele>420</ele>
        <time>2021-02-26T09:50:46Z</time>
      </trkpt>
      <trkpt lat="47.78214" lon="7.05747">
        <ele>421</ele>
        <time>2021-02-26T09:50:46Z</time>
      </trkpt>
      <trkpt lat="47.7822" lon="7.05746">
        <ele>421</ele>
        <time>2021-02-26T09:50:46Z</time>
      </trkpt>
      <trkpt lat="47.78226" lon="7.05745">
        <ele>421</ele>
        <time>2021-02-26T09:50:46Z</time>
      </trkpt>
      <trkpt lat="47.78231" lon="7.05745">
        <ele>421</ele>
        <time>2021-02-26T09:50:46Z</time>
      </trkpt>
      <trkpt lat="47.78237" lon="7.05745">
        <ele>422</ele>
        <time>2021-02-26T09:50:46Z</time>
      </trkpt>
      <trkpt lat="47.78237" lon="7.05745">
        <ele>422</ele>
        <time>2021-02-26T09:50:46Z</time>
      </trkpt>
      <trkpt lat="47.78249" lon="7.05747">
        <ele>422</ele>
        <time>2021-02-26T09:50:46Z</time>
      </trkpt>
      <trkpt lat="47.78255" lon="7.05748">
        <ele>422</ele>
        <time>2021-02-26T09:50:46Z</time>
      </trkpt>
      <trkpt lat="47.78261" lon="7.0575">
        <ele>423</ele>
        <time>2021-02-26T09:50:46Z</time>
      </trkpt>
      <trkpt lat="47.78268" lon="7.05753">
        <ele>424</ele>
        <time>2021-02-26T09:50:46Z</time>
      </trkpt>
      <trkpt lat="47.78274" lon="7.05755">
        <ele>424</ele>
        <time>2021-02-26T09:50:46Z</time>
      </trkpt>
      <trkpt lat="47.7828" lon="7.05758">
        <ele>425</ele>
        <time>2021-02-26T09:50:46Z</time>
      </trkpt>
      <trkpt lat="47.78286" lon="7.05762">
        <ele>426</ele>
        <time>2021-02-26T09:50:46Z</time>
      </trkpt>
      <trkpt lat="47.78291" lon="7.05767">
        <ele>427</ele>
        <time>2021-02-26T09:50:46Z</time>
      </trkpt>
      <trkpt lat="47.78297" lon="7.05771">
        <ele>428</ele>
        <time>2021-02-26T09:50:46Z</time>
      </trkpt>
      <trkpt lat="47.78303" lon="7.05776">
        <ele>428</ele>
        <time>2021-02-26T09:50:46Z</time>
      </trkpt>
      <trkpt lat="47.78309" lon="7.05781">
        <ele>429</ele>
        <time>2021-02-26T09:50:46Z</time>
      </trkpt>
      <trkpt lat="47.78315" lon="7.05786">
        <ele>430</ele>
        <time>2021-02-26T09:50:46Z</time>
      </trkpt>
      <trkpt lat="47.7832" lon="7.05791">
        <ele>430</ele>
        <time>2021-02-26T09:50:46Z</time>
      </trkpt>
      <trkpt lat="47.78326" lon="7.05796">
        <ele>431</ele>
        <time>2021-02-26T09:50:46Z</time>
      </trkpt>
      <trkpt lat="47.78331" lon="7.05802">
        <ele>431</ele>
        <time>2021-02-26T09:50:46Z</time>
      </trkpt>
      <trkpt lat="47.78337" lon="7.05807">
        <ele>432</ele>
        <time>2021-02-26T09:50:46Z</time>
      </trkpt>
      <trkpt lat="47.78343" lon="7.05811">
        <ele>432</ele>
        <time>2021-02-26T09:50:46Z</time>
      </trkpt>
      <trkpt lat="47.78349" lon="7.05815">
        <ele>433</ele>
        <time>2021-02-26T09:50:46Z</time>
      </trkpt>
      <trkpt lat="47.78355" lon="7.05817">
        <ele>433</ele>
        <time>2021-02-26T09:50:46Z</time>
      </trkpt>
      <trkpt lat="47.78362" lon="7.05818">
        <ele>433</ele>
        <time>2021-02-26T09:50:46Z</time>
      </trkpt>
      <trkpt lat="47.78369" lon="7.05818">
        <ele>433</ele>
        <time>2021-02-26T09:50:46Z</time>
      </trkpt>
      <trkpt lat="47.78376" lon="7.05817">
        <ele>434</ele>
        <time>2021-02-26T09:50:46Z</time>
      </trkpt>
      <trkpt lat="47.78382" lon="7.05817">
        <ele>434</ele>
        <time>2021-02-26T09:50:46Z</time>
      </trkpt>
      <trkpt lat="47.78382" lon="7.05817">
        <ele>434</ele>
        <time>2021-02-26T09:50:46Z</time>
      </trkpt>
      <trkpt lat="47.78392" lon="7.05816">
        <ele>434</ele>
        <time>2021-02-26T09:50:46Z</time>
      </trkpt>
      <trkpt lat="47.78398" lon="7.05815">
        <ele>434</ele>
        <time>2021-02-26T09:50:46Z</time>
      </trkpt>
      <trkpt lat="47.78404" lon="7.05815">
        <ele>434</ele>
        <time>2021-02-26T09:50:46Z</time>
      </trkpt>
      <trkpt lat="47.7841" lon="7.05815">
        <ele>435</ele>
        <time>2021-02-26T09:50:46Z</time>
      </trkpt>
      <trkpt lat="47.78416" lon="7.05814">
        <ele>435</ele>
        <time>2021-02-26T09:50:46Z</time>
      </trkpt>
      <trkpt lat="47.78422" lon="7.05813">
        <ele>435</ele>
        <time>2021-02-26T09:50:46Z</time>
      </trkpt>
      <trkpt lat="47.78428" lon="7.05811">
        <ele>436</ele>
        <time>2021-02-26T09:50:46Z</time>
      </trkpt>
      <trkpt lat="47.78434" lon="7.05808">
        <ele>437</ele>
        <time>2021-02-26T09:50:46Z</time>
      </trkpt>
      <trkpt lat="47.78439" lon="7.05803">
        <ele>438</ele>
        <time>2021-02-26T09:50:46Z</time>
      </trkpt>
      <trkpt lat="47.78445" lon="7.05799">
        <ele>439</ele>
        <time>2021-02-26T09:50:46Z</time>
      </trkpt>
      <trkpt lat="47.7845" lon="7.05794">
        <ele>439</ele>
        <time>2021-02-26T09:50:46Z</time>
      </trkpt>
      <trkpt lat="47.78455" lon="7.05789">
        <ele>440</ele>
        <time>2021-02-26T09:50:46Z</time>
      </trkpt>
      <trkpt lat="47.7846" lon="7.05784">
        <ele>440</ele>
        <time>2021-02-26T09:50:46Z</time>
      </trkpt>
      <trkpt lat="47.78465" lon="7.05779">
        <ele>441</ele>
        <time>2021-02-26T09:50:46Z</time>
      </trkpt>
      <trkpt lat="47.78469" lon="7.05775">
        <ele>441</ele>
        <time>2021-02-26T09:50:46Z</time>
      </trkpt>
      <trkpt lat="47.78469" lon="7.05775">
        <ele>441</ele>
        <time>2021-02-26T09:50:46Z</time>
      </trkpt>
      <trkpt lat="47.78477" lon="7.05766">
        <ele>442</ele>
        <time>2021-02-26T09:50:46Z</time>
      </trkpt>
      <trkpt lat="47.78477" lon="7.05766">
        <ele>442</ele>
        <time>2021-02-26T09:50:46Z</time>
      </trkpt>
      <trkpt lat="47.78485" lon="7.0576">
        <ele>442</ele>
        <time>2021-02-26T09:50:46Z</time>
      </trkpt>
      <trkpt lat="47.78485" lon="7.0576">
        <ele>442</ele>
        <time>2021-02-26T09:50:46Z</time>
      </trkpt>
      <trkpt lat="47.78491" lon="7.05755">
        <ele>443</ele>
        <time>2021-02-26T09:50:46Z</time>
      </trkpt>
      <trkpt lat="47.78491" lon="7.05755">
        <ele>443</ele>
        <time>2021-02-26T09:50:46Z</time>
      </trkpt>
      <trkpt lat="47.78499" lon="7.05751">
        <ele>443</ele>
        <time>2021-02-26T09:50:46Z</time>
      </trkpt>
      <trkpt lat="47.78508" lon="7.05746">
        <ele>446</ele>
        <time>2021-02-26T09:50:46Z</time>
      </trkpt>
      <trkpt lat="47.78519" lon="7.05745">
        <ele>450</ele>
        <time>2021-02-26T09:50:46Z</time>
      </trkpt>
      <trkpt lat="47.78527" lon="7.05756">
        <ele>451</ele>
        <time>2021-02-26T09:50:46Z</time>
      </trkpt>
      <trkpt lat="47.78529" lon="7.05765">
        <ele>452</ele>
        <time>2021-02-26T09:50:46Z</time>
      </trkpt>
      <trkpt lat="47.78525" lon="7.0578">
        <ele>451</ele>
        <time>2021-02-26T09:50:46Z</time>
      </trkpt>
      <trkpt lat="47.78522" lon="7.05786">
        <ele>450</ele>
        <time>2021-02-26T09:50:46Z</time>
      </trkpt>
      <trkpt lat="47.78519" lon="7.05793">
        <ele>449</ele>
        <time>2021-02-26T09:50:46Z</time>
      </trkpt>
      <trkpt lat="47.78516" lon="7.058">
        <ele>448</ele>
        <time>2021-02-26T09:50:46Z</time>
      </trkpt>
      <trkpt lat="47.78514" lon="7.05806">
        <ele>447</ele>
        <time>2021-02-26T09:50:46Z</time>
      </trkpt>
      <trkpt lat="47.78511" lon="7.05813">
        <ele>447</ele>
        <time>2021-02-26T09:50:46Z</time>
      </trkpt>
      <trkpt lat="47.78507" lon="7.05826">
        <ele>445</ele>
        <time>2021-02-26T09:50:46Z</time>
      </trkpt>
      <trkpt lat="47.78507" lon="7.05826">
        <ele>445</ele>
        <time>2021-02-26T09:50:46Z</time>
      </trkpt>
      <trkpt lat="47.78503" lon="7.05837">
        <ele>444</ele>
        <time>2021-02-26T09:50:46Z</time>
      </trkpt>
      <trkpt lat="47.78503" lon="7.05837">
        <ele>444</ele>
        <time>2021-02-26T09:50:46Z</time>
      </trkpt>
      <trkpt lat="47.785" lon="7.05848">
        <ele>444</ele>
        <time>2021-02-26T09:50:46Z</time>
      </trkpt>
      <trkpt lat="47.785" lon="7.05848">
        <ele>444</ele>
        <time>2021-02-26T09:50:46Z</time>
      </trkpt>
      <trkpt lat="47.78498" lon="7.05861">
        <ele>444</ele>
        <time>2021-02-26T09:50:46Z</time>
      </trkpt>
      <trkpt lat="47.78498" lon="7.05861">
        <ele>444</ele>
        <time>2021-02-26T09:50:46Z</time>
      </trkpt>
      <trkpt lat="47.78498" lon="7.05876">
        <ele>445</ele>
        <time>2021-02-26T09:50:46Z</time>
      </trkpt>
      <trkpt lat="47.78498" lon="7.05876">
        <ele>445</ele>
        <time>2021-02-26T09:50:46Z</time>
      </trkpt>
      <trkpt lat="47.78499" lon="7.0589">
        <ele>446</ele>
        <time>2021-02-26T09:50:46Z</time>
      </trkpt>
      <trkpt lat="47.78499" lon="7.0589">
        <ele>446</ele>
        <time>2021-02-26T09:50:46Z</time>
      </trkpt>
      <trkpt lat="47.785" lon="7.05904">
        <ele>446</ele>
        <time>2021-02-26T09:50:46Z</time>
      </trkpt>
      <trkpt lat="47.785" lon="7.05904">
        <ele>446</ele>
        <time>2021-02-26T09:50:46Z</time>
      </trkpt>
      <trkpt lat="47.78502" lon="7.05916">
        <ele>448</ele>
        <time>2021-02-26T09:50:46Z</time>
      </trkpt>
      <trkpt lat="47.78502" lon="7.05916">
        <ele>448</ele>
        <time>2021-02-26T09:50:46Z</time>
      </trkpt>
      <trkpt lat="47.78504" lon="7.05927">
        <ele>449</ele>
        <time>2021-02-26T09:50:46Z</time>
      </trkpt>
      <trkpt lat="47.78504" lon="7.05927">
        <ele>449</ele>
        <time>2021-02-26T09:50:46Z</time>
      </trkpt>
      <trkpt lat="47.78509" lon="7.05936">
        <ele>451</ele>
        <time>2021-02-26T09:50:46Z</time>
      </trkpt>
      <trkpt lat="47.78509" lon="7.05936">
        <ele>451</ele>
        <time>2021-02-26T09:50:46Z</time>
      </trkpt>
      <trkpt lat="47.78513" lon="7.05945">
        <ele>453</ele>
        <time>2021-02-26T09:50:46Z</time>
      </trkpt>
      <trkpt lat="47.78513" lon="7.05945">
        <ele>453</ele>
        <time>2021-02-26T09:50:46Z</time>
      </trkpt>
      <trkpt lat="47.78516" lon="7.05957">
        <ele>455</ele>
        <time>2021-02-26T09:50:46Z</time>
      </trkpt>
      <trkpt lat="47.78516" lon="7.05957">
        <ele>455</ele>
        <time>2021-02-26T09:50:46Z</time>
      </trkpt>
      <trkpt lat="47.78519" lon="7.05968">
        <ele>457</ele>
        <time>2021-02-26T09:50:46Z</time>
      </trkpt>
      <trkpt lat="47.78519" lon="7.05968">
        <ele>457</ele>
        <time>2021-02-26T09:50:46Z</time>
      </trkpt>
      <trkpt lat="47.78521" lon="7.0598">
        <ele>459</ele>
        <time>2021-02-26T09:50:46Z</time>
      </trkpt>
      <trkpt lat="47.78521" lon="7.0598">
        <ele>459</ele>
        <time>2021-02-26T09:50:46Z</time>
      </trkpt>
      <trkpt lat="47.78521" lon="7.05993">
        <ele>460</ele>
        <time>2021-02-26T09:50:46Z</time>
      </trkpt>
      <trkpt lat="47.78518" lon="7.06006">
        <ele>460</ele>
        <time>2021-02-26T09:50:46Z</time>
      </trkpt>
      <trkpt lat="47.78511" lon="7.06017">
        <ele>459</ele>
        <time>2021-02-26T09:50:46Z</time>
      </trkpt>
      <trkpt lat="47.78504" lon="7.06027">
        <ele>458</ele>
        <time>2021-02-26T09:50:46Z</time>
      </trkpt>
      <trkpt lat="47.78504" lon="7.06041">
        <ele>459</ele>
        <time>2021-02-26T09:50:46Z</time>
      </trkpt>
      <trkpt lat="47.78509" lon="7.06053">
        <ele>461</ele>
        <time>2021-02-26T09:50:46Z</time>
      </trkpt>
      <trkpt lat="47.78518" lon="7.06048">
        <ele>463</ele>
        <time>2021-02-26T09:50:46Z</time>
      </trkpt>
      <trkpt lat="47.78524" lon="7.06037">
        <ele>464</ele>
        <time>2021-02-26T09:50:46Z</time>
      </trkpt>
      <trkpt lat="47.78529" lon="7.06025">
        <ele>464</ele>
        <time>2021-02-26T09:50:46Z</time>
      </trkpt>
      <trkpt lat="47.78531" lon="7.0601">
        <ele>464</ele>
        <time>2021-02-26T09:50:46Z</time>
      </trkpt>
      <trkpt lat="47.78536" lon="7.06">
        <ele>465</ele>
        <time>2021-02-26T09:50:46Z</time>
      </trkpt>
      <trkpt lat="47.78536" lon="7.06">
        <ele>465</ele>
        <time>2021-02-26T09:50:46Z</time>
      </trkpt>
      <trkpt lat="47.78538" lon="7.05987">
        <ele>464</ele>
        <time>2021-02-26T09:50:46Z</time>
      </trkpt>
      <trkpt lat="47.78538" lon="7.05987">
        <ele>464</ele>
        <time>2021-02-26T09:50:46Z</time>
      </trkpt>
      <trkpt lat="47.78544" lon="7.05976">
        <ele>465</ele>
        <time>2021-02-26T09:50:46Z</time>
      </trkpt>
      <trkpt lat="47.78544" lon="7.05976">
        <ele>465</ele>
        <time>2021-02-26T09:50:46Z</time>
      </trkpt>
      <trkpt lat="47.78545" lon="7.05962">
        <ele>465</ele>
        <time>2021-02-26T09:50:46Z</time>
      </trkpt>
      <trkpt lat="47.78548" lon="7.05948">
        <ele>464</ele>
        <time>2021-02-26T09:50:46Z</time>
      </trkpt>
      <trkpt lat="47.78548" lon="7.05933">
        <ele>463</ele>
        <time>2021-02-26T09:50:46Z</time>
      </trkpt>
      <trkpt lat="47.78547" lon="7.05926">
        <ele>463</ele>
        <time>2021-02-26T09:50:46Z</time>
      </trkpt>
      <trkpt lat="47.78547" lon="7.0592">
        <ele>462</ele>
        <time>2021-02-26T09:50:46Z</time>
      </trkpt>
      <trkpt lat="47.78547" lon="7.05913">
        <ele>461</ele>
        <time>2021-02-26T09:50:46Z</time>
      </trkpt>
      <trkpt lat="47.78548" lon="7.05906">
        <ele>462</ele>
        <time>2021-02-26T09:50:46Z</time>
      </trkpt>
      <trkpt lat="47.7855" lon="7.059">
        <ele>462</ele>
        <time>2021-02-26T09:50:46Z</time>
      </trkpt>
      <trkpt lat="47.78558" lon="7.05891">
        <ele>464</ele>
        <time>2021-02-26T09:50:46Z</time>
      </trkpt>
      <trkpt lat="47.78558" lon="7.05891">
        <ele>464</ele>
        <time>2021-02-26T09:50:46Z</time>
      </trkpt>
      <trkpt lat="47.78568" lon="7.05895">
        <ele>467</ele>
        <time>2021-02-26T09:50:46Z</time>
      </trkpt>
      <trkpt lat="47.78574" lon="7.05908">
        <ele>470</ele>
        <time>2021-02-26T09:50:46Z</time>
      </trkpt>
      <trkpt lat="47.78574" lon="7.05924">
        <ele>471</ele>
        <time>2021-02-26T09:50:46Z</time>
      </trkpt>
      <trkpt lat="47.78571" lon="7.05939">
        <ele>471</ele>
        <time>2021-02-26T09:50:46Z</time>
      </trkpt>
      <trkpt lat="47.7857" lon="7.05954">
        <ele>472</ele>
        <time>2021-02-26T09:50:46Z</time>
      </trkpt>
      <trkpt lat="47.78571" lon="7.05969">
        <ele>473</ele>
        <time>2021-02-26T09:50:46Z</time>
      </trkpt>
      <trkpt lat="47.78574" lon="7.05983">
        <ele>475</ele>
        <time>2021-02-26T09:50:46Z</time>
      </trkpt>
      <trkpt lat="47.78576" lon="7.05997">
        <ele>477</ele>
        <time>2021-02-26T09:50:46Z</time>
      </trkpt>
      <trkpt lat="47.78581" lon="7.06009">
        <ele>478</ele>
        <time>2021-02-26T09:50:46Z</time>
      </trkpt>
      <trkpt lat="47.78581" lon="7.06009">
        <ele>478</ele>
        <time>2021-02-26T09:50:46Z</time>
      </trkpt>
      <trkpt lat="47.78581" lon="7.06022">
        <ele>478</ele>
        <time>2021-02-26T09:50:46Z</time>
      </trkpt>
      <trkpt lat="47.78581" lon="7.06022">
        <ele>478</ele>
        <time>2021-02-26T09:50:46Z</time>
      </trkpt>
      <trkpt lat="47.78585" lon="7.06033">
        <ele>480</ele>
        <time>2021-02-26T09:50:46Z</time>
      </trkpt>
      <trkpt lat="47.78585" lon="7.06033">
        <ele>480</ele>
        <time>2021-02-26T09:50:46Z</time>
      </trkpt>
      <trkpt lat="47.78586" lon="7.06045">
        <ele>480</ele>
        <time>2021-02-26T09:50:46Z</time>
      </trkpt>
      <trkpt lat="47.78586" lon="7.06045">
        <ele>480</ele>
        <time>2021-02-26T09:50:46Z</time>
      </trkpt>
      <trkpt lat="47.78589" lon="7.06057">
        <ele>481</ele>
        <time>2021-02-26T09:50:46Z</time>
      </trkpt>
      <trkpt lat="47.78589" lon="7.06057">
        <ele>481</ele>
        <time>2021-02-26T09:50:46Z</time>
      </trkpt>
      <trkpt lat="47.78593" lon="7.0607">
        <ele>483</ele>
        <time>2021-02-26T09:50:46Z</time>
      </trkpt>
      <trkpt lat="47.78593" lon="7.0607">
        <ele>483</ele>
        <time>2021-02-26T09:50:46Z</time>
      </trkpt>
      <trkpt lat="47.78593" lon="7.06083">
        <ele>483</ele>
        <time>2021-02-26T09:50:46Z</time>
      </trkpt>
      <trkpt lat="47.78593" lon="7.06083">
        <ele>483</ele>
        <time>2021-02-26T09:50:46Z</time>
      </trkpt>
      <trkpt lat="47.78595" lon="7.06097">
        <ele>484</ele>
        <time>2021-02-26T09:50:46Z</time>
      </trkpt>
      <trkpt lat="47.78595" lon="7.06097">
        <ele>484</ele>
        <time>2021-02-26T09:50:46Z</time>
      </trkpt>
      <trkpt lat="47.78596" lon="7.0611">
        <ele>484</ele>
        <time>2021-02-26T09:50:46Z</time>
      </trkpt>
      <trkpt lat="47.78596" lon="7.0611">
        <ele>484</ele>
        <time>2021-02-26T09:50:46Z</time>
      </trkpt>
      <trkpt lat="47.78598" lon="7.06121">
        <ele>485</ele>
        <time>2021-02-26T09:50:46Z</time>
      </trkpt>
      <trkpt lat="47.78598" lon="7.06121">
        <ele>485</ele>
        <time>2021-02-26T09:50:46Z</time>
      </trkpt>
      <trkpt lat="47.78599" lon="7.06132">
        <ele>485</ele>
        <time>2021-02-26T09:50:46Z</time>
      </trkpt>
      <trkpt lat="47.78599" lon="7.06132">
        <ele>485</ele>
        <time>2021-02-26T09:50:46Z</time>
      </trkpt>
      <trkpt lat="47.78602" lon="7.06144">
        <ele>486</ele>
        <time>2021-02-26T09:50:46Z</time>
      </trkpt>
      <trkpt lat="47.78601" lon="7.06157">
        <ele>486</ele>
        <time>2021-02-26T09:50:46Z</time>
      </trkpt>
      <trkpt lat="47.78605" lon="7.0617">
        <ele>487</ele>
        <time>2021-02-26T09:50:46Z</time>
      </trkpt>
      <trkpt lat="47.78605" lon="7.06183">
        <ele>488</ele>
        <time>2021-02-26T09:50:46Z</time>
      </trkpt>
      <trkpt lat="47.78608" lon="7.06196">
        <ele>489</ele>
        <time>2021-02-26T09:50:46Z</time>
      </trkpt>
      <trkpt lat="47.78608" lon="7.06212">
        <ele>490</ele>
        <time>2021-02-26T09:50:46Z</time>
      </trkpt>
      <trkpt lat="47.78609" lon="7.06227">
        <ele>490</ele>
        <time>2021-02-26T09:50:46Z</time>
      </trkpt>
      <trkpt lat="47.78613" lon="7.06242">
        <ele>492</ele>
        <time>2021-02-26T09:50:46Z</time>
      </trkpt>
      <trkpt lat="47.78612" lon="7.06257">
        <ele>492</ele>
        <time>2021-02-26T09:50:46Z</time>
      </trkpt>
      <trkpt lat="47.78613" lon="7.06271">
        <ele>492</ele>
        <time>2021-02-26T09:50:46Z</time>
      </trkpt>
      <trkpt lat="47.78614" lon="7.06277">
        <ele>492</ele>
        <time>2021-02-26T09:50:46Z</time>
      </trkpt>
      <trkpt lat="47.78615" lon="7.06284">
        <ele>492</ele>
        <time>2021-02-26T09:50:46Z</time>
      </trkpt>
      <trkpt lat="47.78616" lon="7.0629">
        <ele>493</ele>
        <time>2021-02-26T09:50:46Z</time>
      </trkpt>
      <trkpt lat="47.78616" lon="7.06297">
        <ele>492</ele>
        <time>2021-02-26T09:50:46Z</time>
      </trkpt>
      <trkpt lat="47.78616" lon="7.06304">
        <ele>492</ele>
        <time>2021-02-26T09:50:46Z</time>
      </trkpt>
      <trkpt lat="47.78618" lon="7.06316">
        <ele>493</ele>
        <time>2021-02-26T09:50:46Z</time>
      </trkpt>
      <trkpt lat="47.78618" lon="7.06316">
        <ele>493</ele>
        <time>2021-02-26T09:50:46Z</time>
      </trkpt>
      <trkpt lat="47.78616" lon="7.0633">
        <ele>492</ele>
        <time>2021-02-26T09:50:46Z</time>
      </trkpt>
      <trkpt lat="47.78616" lon="7.0633">
        <ele>492</ele>
        <time>2021-02-26T09:50:46Z</time>
      </trkpt>
      <trkpt lat="47.78617" lon="7.06344">
        <ele>492</ele>
        <time>2021-02-26T09:50:46Z</time>
      </trkpt>
      <trkpt lat="47.78617" lon="7.06344">
        <ele>492</ele>
        <time>2021-02-26T09:50:46Z</time>
      </trkpt>
      <trkpt lat="47.78618" lon="7.06358">
        <ele>492</ele>
        <time>2021-02-26T09:50:46Z</time>
      </trkpt>
      <trkpt lat="47.78621" lon="7.06372">
        <ele>492</ele>
        <time>2021-02-26T09:50:46Z</time>
      </trkpt>
      <trkpt lat="47.78623" lon="7.06387">
        <ele>492</ele>
        <time>2021-02-26T09:50:46Z</time>
      </trkpt>
      <trkpt lat="47.78626" lon="7.06402">
        <ele>492</ele>
        <time>2021-02-26T09:50:46Z</time>
      </trkpt>
      <trkpt lat="47.7863" lon="7.06416">
        <ele>492</ele>
        <time>2021-02-26T09:50:46Z</time>
      </trkpt>
      <trkpt lat="47.78635" lon="7.06429">
        <ele>493</ele>
        <time>2021-02-26T09:50:46Z</time>
      </trkpt>
      <trkpt lat="47.7864" lon="7.06443">
        <ele>493</ele>
        <time>2021-02-26T09:50:46Z</time>
      </trkpt>
      <trkpt lat="47.78646" lon="7.06455">
        <ele>493</ele>
        <time>2021-02-26T09:50:46Z</time>
      </trkpt>
      <trkpt lat="47.78652" lon="7.06467">
        <ele>494</ele>
        <time>2021-02-26T09:50:46Z</time>
      </trkpt>
      <trkpt lat="47.78659" lon="7.06478">
        <ele>493</ele>
        <time>2021-02-26T09:50:46Z</time>
      </trkpt>
      <trkpt lat="47.78666" lon="7.06489">
        <ele>493</ele>
        <time>2021-02-26T09:50:46Z</time>
      </trkpt>
      <trkpt lat="47.78674" lon="7.065">
        <ele>494</ele>
        <time>2021-02-26T09:50:46Z</time>
      </trkpt>
      <trkpt lat="47.78681" lon="7.06512">
        <ele>496</ele>
        <time>2021-02-26T09:50:46Z</time>
      </trkpt>
      <trkpt lat="47.78688" lon="7.06523">
        <ele>497</ele>
        <time>2021-02-26T09:50:46Z</time>
      </trkpt>
      <trkpt lat="47.78696" lon="7.06535">
        <ele>498</ele>
        <time>2021-02-26T09:50:46Z</time>
      </trkpt>
      <trkpt lat="47.78704" lon="7.06546">
        <ele>498</ele>
        <time>2021-02-26T09:50:46Z</time>
      </trkpt>
      <trkpt lat="47.78712" lon="7.06556">
        <ele>498</ele>
        <time>2021-02-26T09:50:46Z</time>
      </trkpt>
      <trkpt lat="47.7872" lon="7.06564">
        <ele>499</ele>
        <time>2021-02-26T09:50:46Z</time>
      </trkpt>
      <trkpt lat="47.7873" lon="7.06575">
        <ele>498</ele>
        <time>2021-02-26T09:50:46Z</time>
      </trkpt>
      <trkpt lat="47.78736" lon="7.06584">
        <ele>498</ele>
        <time>2021-02-26T09:50:46Z</time>
      </trkpt>
      <trkpt lat="47.78743" lon="7.06593">
        <ele>497</ele>
        <time>2021-02-26T09:50:46Z</time>
      </trkpt>
      <trkpt lat="47.78753" lon="7.06603">
        <ele>497</ele>
        <time>2021-02-26T09:50:46Z</time>
      </trkpt>
      <trkpt lat="47.78762" lon="7.06613">
        <ele>498</ele>
        <time>2021-02-26T09:50:46Z</time>
      </trkpt>
      <trkpt lat="47.7877" lon="7.06625">
        <ele>498</ele>
        <time>2021-02-26T09:50:46Z</time>
      </trkpt>
      <trkpt lat="47.78778" lon="7.06638">
        <ele>498</ele>
        <time>2021-02-26T09:50:46Z</time>
      </trkpt>
      <trkpt lat="47.78786" lon="7.0665">
        <ele>498</ele>
        <time>2021-02-26T09:50:46Z</time>
      </trkpt>
      <trkpt lat="47.78793" lon="7.06663">
        <ele>497</ele>
        <time>2021-02-26T09:50:46Z</time>
      </trkpt>
      <trkpt lat="47.78801" lon="7.06676">
        <ele>497</ele>
        <time>2021-02-26T09:50:46Z</time>
      </trkpt>
      <trkpt lat="47.78808" lon="7.06687">
        <ele>497</ele>
        <time>2021-02-26T09:50:46Z</time>
      </trkpt>
      <trkpt lat="47.78815" lon="7.06699">
        <ele>496</ele>
        <time>2021-02-26T09:50:46Z</time>
      </trkpt>
      <trkpt lat="47.78821" lon="7.06709">
        <ele>496</ele>
        <time>2021-02-26T09:50:46Z</time>
      </trkpt>
      <trkpt lat="47.78828" lon="7.06716">
        <ele>497</ele>
        <time>2021-02-26T09:50:46Z</time>
      </trkpt>
      <trkpt lat="47.78835" lon="7.06724">
        <ele>497</ele>
        <time>2021-02-26T09:50:46Z</time>
      </trkpt>
      <trkpt lat="47.7884" lon="7.06731">
        <ele>497</ele>
        <time>2021-02-26T09:50:46Z</time>
      </trkpt>
      <trkpt lat="47.78847" lon="7.06738">
        <ele>497</ele>
        <time>2021-02-26T09:50:46Z</time>
      </trkpt>
      <trkpt lat="47.78852" lon="7.06745">
        <ele>497</ele>
        <time>2021-02-26T09:50:46Z</time>
      </trkpt>
      <trkpt lat="47.78857" lon="7.06752">
        <ele>497</ele>
        <time>2021-02-26T09:50:46Z</time>
      </trkpt>
      <trkpt lat="47.78862" lon="7.06759">
        <ele>497</ele>
        <time>2021-02-26T09:50:46Z</time>
      </trkpt>
      <trkpt lat="47.78867" lon="7.06767">
        <ele>497</ele>
        <time>2021-02-26T09:50:46Z</time>
      </trkpt>
      <trkpt lat="47.7887" lon="7.06775">
        <ele>497</ele>
        <time>2021-02-26T09:50:46Z</time>
      </trkpt>
      <trkpt lat="47.78875" lon="7.06782">
        <ele>497</ele>
        <time>2021-02-26T09:50:46Z</time>
      </trkpt>
      <trkpt lat="47.78879" lon="7.06788">
        <ele>497</ele>
        <time>2021-02-26T09:50:46Z</time>
      </trkpt>
      <trkpt lat="47.78882" lon="7.06796">
        <ele>497</ele>
        <time>2021-02-26T09:50:46Z</time>
      </trkpt>
      <trkpt lat="47.78882" lon="7.06796">
        <ele>497</ele>
        <time>2021-02-26T09:50:46Z</time>
      </trkpt>
      <trkpt lat="47.78889" lon="7.06808">
        <ele>496</ele>
        <time>2021-02-26T09:50:46Z</time>
      </trkpt>
      <trkpt lat="47.78889" lon="7.06808">
        <ele>496</ele>
        <time>2021-02-26T09:50:46Z</time>
      </trkpt>
      <trkpt lat="47.78896" lon="7.06818">
        <ele>496</ele>
        <time>2021-02-26T09:50:46Z</time>
      </trkpt>
      <trkpt lat="47.78896" lon="7.06818">
        <ele>496</ele>
        <time>2021-02-26T09:50:46Z</time>
      </trkpt>
      <trkpt lat="47.78904" lon="7.06826">
        <ele>496</ele>
        <time>2021-02-26T09:50:46Z</time>
      </trkpt>
      <trkpt lat="47.78904" lon="7.06826">
        <ele>496</ele>
        <time>2021-02-26T09:50:46Z</time>
      </trkpt>
      <trkpt lat="47.78919" lon="7.06833">
        <ele>496</ele>
        <time>2021-02-26T09:50:46Z</time>
      </trkpt>
      <trkpt lat="47.7893" lon="7.06843">
        <ele>495</ele>
        <time>2021-02-26T09:50:46Z</time>
      </trkpt>
      <trkpt lat="47.78942" lon="7.06853">
        <ele>494</ele>
        <time>2021-02-26T09:50:46Z</time>
      </trkpt>
      <trkpt lat="47.78956" lon="7.06865">
        <ele>494</ele>
        <time>2021-02-26T09:50:46Z</time>
      </trkpt>
      <trkpt lat="47.78971" lon="7.06876">
        <ele>494</ele>
        <time>2021-02-26T09:50:46Z</time>
      </trkpt>
      <trkpt lat="47.78983" lon="7.06888">
        <ele>493</ele>
        <time>2021-02-26T09:50:46Z</time>
      </trkpt>
      <trkpt lat="47.7899" lon="7.06905">
        <ele>493</ele>
        <time>2021-02-26T09:50:46Z</time>
      </trkpt>
      <trkpt lat="47.7899" lon="7.06923">
        <ele>493</ele>
        <time>2021-02-26T09:50:46Z</time>
      </trkpt>
      <trkpt lat="47.78989" lon="7.06938">
        <ele>494</ele>
        <time>2021-02-26T09:50:46Z</time>
      </trkpt>
      <trkpt lat="47.78987" lon="7.06951">
        <ele>494</ele>
        <time>2021-02-26T09:50:46Z</time>
      </trkpt>
      <trkpt lat="47.78984" lon="7.06962">
        <ele>495</ele>
        <time>2021-02-26T09:50:46Z</time>
      </trkpt>
      <trkpt lat="47.78979" lon="7.0697">
        <ele>495</ele>
        <time>2021-02-26T09:50:46Z</time>
      </trkpt>
      <trkpt lat="47.78973" lon="7.06976">
        <ele>494</ele>
        <time>2021-02-26T09:50:46Z</time>
      </trkpt>
      <trkpt lat="47.78966" lon="7.06979">
        <ele>493</ele>
        <time>2021-02-26T09:50:46Z</time>
      </trkpt>
      <trkpt lat="47.7896" lon="7.06983">
        <ele>492</ele>
        <time>2021-02-26T09:50:46Z</time>
      </trkpt>
      <trkpt lat="47.78954" lon="7.06988">
        <ele>491</ele>
        <time>2021-02-26T09:50:46Z</time>
      </trkpt>
      <trkpt lat="47.78949" lon="7.06996">
        <ele>490</ele>
        <time>2021-02-26T09:50:46Z</time>
      </trkpt>
      <trkpt lat="47.78945" lon="7.07006">
        <ele>490</ele>
        <time>2021-02-26T09:50:46Z</time>
      </trkpt>
      <trkpt lat="47.78942" lon="7.07017">
        <ele>490</ele>
        <time>2021-02-26T09:50:46Z</time>
      </trkpt>
      <trkpt lat="47.78939" lon="7.07028">
        <ele>490</ele>
        <time>2021-02-26T09:50:46Z</time>
      </trkpt>
      <trkpt lat="47.78938" lon="7.0704">
        <ele>490</ele>
        <time>2021-02-26T09:50:46Z</time>
      </trkpt>
      <trkpt lat="47.78936" lon="7.07053">
        <ele>490</ele>
        <time>2021-02-26T09:50:46Z</time>
      </trkpt>
      <trkpt lat="47.78936" lon="7.07065">
        <ele>490</ele>
        <time>2021-02-26T09:50:46Z</time>
      </trkpt>
      <trkpt lat="47.78935" lon="7.07078">
        <ele>490</ele>
        <time>2021-02-26T09:50:46Z</time>
      </trkpt>
      <trkpt lat="47.78936" lon="7.0709">
        <ele>491</ele>
        <time>2021-02-26T09:50:46Z</time>
      </trkpt>
      <trkpt lat="47.78936" lon="7.07103">
        <ele>491</ele>
        <time>2021-02-26T09:50:46Z</time>
      </trkpt>
      <trkpt lat="47.78936" lon="7.07116">
        <ele>491</ele>
        <time>2021-02-26T09:50:46Z</time>
      </trkpt>
      <trkpt lat="47.78936" lon="7.07128">
        <ele>491</ele>
        <time>2021-02-26T09:50:46Z</time>
      </trkpt>
      <trkpt lat="47.78937" lon="7.07141">
        <ele>491</ele>
        <time>2021-02-26T09:50:46Z</time>
      </trkpt>
      <trkpt lat="47.78938" lon="7.07154">
        <ele>491</ele>
        <time>2021-02-26T09:50:46Z</time>
      </trkpt>
      <trkpt lat="47.78939" lon="7.07167">
        <ele>492</ele>
        <time>2021-02-26T09:50:46Z</time>
      </trkpt>
      <trkpt lat="47.78939" lon="7.0718">
        <ele>492</ele>
        <time>2021-02-26T09:50:46Z</time>
      </trkpt>
      <trkpt lat="47.78939" lon="7.07192">
        <ele>492</ele>
        <time>2021-02-26T09:50:46Z</time>
      </trkpt>
      <trkpt lat="47.7894" lon="7.07204">
        <ele>492</ele>
        <time>2021-02-26T09:50:46Z</time>
      </trkpt>
      <trkpt lat="47.7894" lon="7.07216">
        <ele>492</ele>
        <time>2021-02-26T09:50:46Z</time>
      </trkpt>
      <trkpt lat="47.78941" lon="7.07228">
        <ele>492</ele>
        <time>2021-02-26T09:50:46Z</time>
      </trkpt>
      <trkpt lat="47.78941" lon="7.07239">
        <ele>492</ele>
        <time>2021-02-26T09:50:46Z</time>
      </trkpt>
      <trkpt lat="47.78943" lon="7.07251">
        <ele>493</ele>
        <time>2021-02-26T09:50:46Z</time>
      </trkpt>
      <trkpt lat="47.78944" lon="7.07263">
        <ele>493</ele>
        <time>2021-02-26T09:50:46Z</time>
      </trkpt>
      <trkpt lat="47.78945" lon="7.07275">
        <ele>493</ele>
        <time>2021-02-26T09:50:46Z</time>
      </trkpt>
      <trkpt lat="47.78947" lon="7.07286">
        <ele>493</ele>
        <time>2021-02-26T09:50:46Z</time>
      </trkpt>
      <trkpt lat="47.78949" lon="7.07298">
        <ele>493</ele>
        <time>2021-02-26T09:50:46Z</time>
      </trkpt>
      <trkpt lat="47.78951" lon="7.0731">
        <ele>493</ele>
        <time>2021-02-26T09:50:46Z</time>
      </trkpt>
      <trkpt lat="47.78954" lon="7.07322">
        <ele>493</ele>
        <time>2021-02-26T09:50:46Z</time>
      </trkpt>
      <trkpt lat="47.78957" lon="7.07334">
        <ele>493</ele>
        <time>2021-02-26T09:50:46Z</time>
      </trkpt>
      <trkpt lat="47.78959" lon="7.07345">
        <ele>494</ele>
        <time>2021-02-26T09:50:46Z</time>
      </trkpt>
      <trkpt lat="47.78962" lon="7.07355">
        <ele>494</ele>
        <time>2021-02-26T09:50:46Z</time>
      </trkpt>
      <trkpt lat="47.78967" lon="7.07364">
        <ele>494</ele>
        <time>2021-02-26T09:50:46Z</time>
      </trkpt>
      <trkpt lat="47.78973" lon="7.0737">
        <ele>494</ele>
        <time>2021-02-26T09:50:46Z</time>
      </trkpt>
      <trkpt lat="47.78982" lon="7.07375">
        <ele>495</ele>
        <time>2021-02-26T09:50:46Z</time>
      </trkpt>
      <trkpt lat="47.78992" lon="7.07367">
        <ele>495</ele>
        <time>2021-02-26T09:50:46Z</time>
      </trkpt>
      <trkpt lat="47.79" lon="7.07357">
        <ele>496</ele>
        <time>2021-02-26T09:50:46Z</time>
      </trkpt>
      <trkpt lat="47.79008" lon="7.07343">
        <ele>496</ele>
        <time>2021-02-26T09:50:46Z</time>
      </trkpt>
      <trkpt lat="47.79015" lon="7.07329">
        <ele>497</ele>
        <time>2021-02-26T09:50:46Z</time>
      </trkpt>
      <trkpt lat="47.79023" lon="7.07315">
        <ele>498</ele>
        <time>2021-02-26T09:50:46Z</time>
      </trkpt>
      <trkpt lat="47.79036" lon="7.07306">
        <ele>499</ele>
        <time>2021-02-26T09:50:46Z</time>
      </trkpt>
      <trkpt lat="47.7905" lon="7.07306">
        <ele>500</ele>
        <time>2021-02-26T09:50:46Z</time>
      </trkpt>
      <trkpt lat="47.79063" lon="7.07316">
        <ele>499</ele>
        <time>2021-02-26T09:50:46Z</time>
      </trkpt>
      <trkpt lat="47.79074" lon="7.07332">
        <ele>497</ele>
        <time>2021-02-26T09:50:46Z</time>
      </trkpt>
      <trkpt lat="47.79084" lon="7.07347">
        <ele>495</ele>
        <time>2021-02-26T09:50:46Z</time>
      </trkpt>
      <trkpt lat="47.79095" lon="7.07361">
        <ele>495</ele>
        <time>2021-02-26T09:50:46Z</time>
      </trkpt>
      <trkpt lat="47.79106" lon="7.07375">
        <ele>495</ele>
        <time>2021-02-26T09:50:46Z</time>
      </trkpt>
      <trkpt lat="47.79117" lon="7.07392">
        <ele>494</ele>
        <time>2021-02-26T09:50:46Z</time>
      </trkpt>
      <trkpt lat="47.79129" lon="7.07408">
        <ele>494</ele>
        <time>2021-02-26T09:50:46Z</time>
      </trkpt>
      <trkpt lat="47.7914" lon="7.07427">
        <ele>493</ele>
        <time>2021-02-26T09:50:46Z</time>
      </trkpt>
      <trkpt lat="47.79152" lon="7.07444">
        <ele>492</ele>
        <time>2021-02-26T09:50:46Z</time>
      </trkpt>
      <trkpt lat="47.79164" lon="7.07461">
        <ele>492</ele>
        <time>2021-02-26T09:50:46Z</time>
      </trkpt>
      <trkpt lat="47.79177" lon="7.07477">
        <ele>491</ele>
        <time>2021-02-26T09:50:46Z</time>
      </trkpt>
      <trkpt lat="47.79191" lon="7.0749">
        <ele>491</ele>
        <time>2021-02-26T09:50:46Z</time>
      </trkpt>
      <trkpt lat="47.79207" lon="7.07498">
        <ele>491</ele>
        <time>2021-02-26T09:50:46Z</time>
      </trkpt>
      <trkpt lat="47.79225" lon="7.07505">
        <ele>492</ele>
        <time>2021-02-26T09:50:46Z</time>
      </trkpt>
      <trkpt lat="47.79243" lon="7.07512">
        <ele>493</ele>
        <time>2021-02-26T09:50:46Z</time>
      </trkpt>
      <trkpt lat="47.7926" lon="7.07522">
        <ele>493</ele>
        <time>2021-02-26T09:50:46Z</time>
      </trkpt>
      <trkpt lat="47.79277" lon="7.07536">
        <ele>491</ele>
        <time>2021-02-26T09:50:46Z</time>
      </trkpt>
      <trkpt lat="47.79295" lon="7.07546">
        <ele>490</ele>
        <time>2021-02-26T09:50:46Z</time>
      </trkpt>
      <trkpt lat="47.79315" lon="7.07549">
        <ele>491</ele>
        <time>2021-02-26T09:50:46Z</time>
      </trkpt>
      <trkpt lat="47.79334" lon="7.07547">
        <ele>493</ele>
        <time>2021-02-26T09:50:46Z</time>
      </trkpt>
      <trkpt lat="47.79354" lon="7.07544">
        <ele>491</ele>
        <time>2021-02-26T09:50:46Z</time>
      </trkpt>
      <trkpt lat="47.79375" lon="7.07539">
        <ele>489</ele>
        <time>2021-02-26T09:50:46Z</time>
      </trkpt>
      <trkpt lat="47.79396" lon="7.07532">
        <ele>487</ele>
        <time>2021-02-26T09:50:46Z</time>
      </trkpt>
      <trkpt lat="47.79418" lon="7.07523">
        <ele>485</ele>
        <time>2021-02-26T09:50:46Z</time>
      </trkpt>
      <trkpt lat="47.7944" lon="7.07511">
        <ele>484</ele>
        <time>2021-02-26T09:50:46Z</time>
      </trkpt>
      <trkpt lat="47.79461" lon="7.07498">
        <ele>482</ele>
        <time>2021-02-26T09:50:46Z</time>
      </trkpt>
      <trkpt lat="47.79481" lon="7.07484">
        <ele>482</ele>
        <time>2021-02-26T09:50:46Z</time>
      </trkpt>
      <trkpt lat="47.79499" lon="7.07472">
        <ele>481</ele>
        <time>2021-02-26T09:50:46Z</time>
      </trkpt>
      <trkpt lat="47.79515" lon="7.0746">
        <ele>482</ele>
        <time>2021-02-26T09:50:46Z</time>
      </trkpt>
      <trkpt lat="47.7953" lon="7.07452">
        <ele>483</ele>
        <time>2021-02-26T09:50:46Z</time>
      </trkpt>
      <trkpt lat="47.79546" lon="7.07456">
        <ele>481</ele>
        <time>2021-02-26T09:50:46Z</time>
      </trkpt>
      <trkpt lat="47.79556" lon="7.07474">
        <ele>480</ele>
        <time>2021-02-26T09:50:46Z</time>
      </trkpt>
      <trkpt lat="47.79554" lon="7.07497">
        <ele>479</ele>
        <time>2021-02-26T09:50:46Z</time>
      </trkpt>
      <trkpt lat="47.79544" lon="7.07511">
        <ele>479</ele>
        <time>2021-02-26T09:50:46Z</time>
      </trkpt>
      <trkpt lat="47.79534" lon="7.07522">
        <ele>479</ele>
        <time>2021-02-26T09:50:46Z</time>
      </trkpt>
      <trkpt lat="47.79525" lon="7.07534">
        <ele>479</ele>
        <time>2021-02-26T09:50:46Z</time>
      </trkpt>
      <trkpt lat="47.79515" lon="7.07545">
        <ele>479</ele>
        <time>2021-02-26T09:50:46Z</time>
      </trkpt>
      <trkpt lat="47.79507" lon="7.07557">
        <ele>477</ele>
        <time>2021-02-26T09:50:46Z</time>
      </trkpt>
      <trkpt lat="47.79498" lon="7.07567">
        <ele>476</ele>
        <time>2021-02-26T09:50:46Z</time>
      </trkpt>
      <trkpt lat="47.7949" lon="7.07577">
        <ele>476</ele>
        <time>2021-02-26T09:50:46Z</time>
      </trkpt>
      <trkpt lat="47.79482" lon="7.07587">
        <ele>476</ele>
        <time>2021-02-26T09:50:46Z</time>
      </trkpt>
      <trkpt lat="47.79474" lon="7.07595">
        <ele>476</ele>
        <time>2021-02-26T09:50:46Z</time>
      </trkpt>
      <trkpt lat="47.79469" lon="7.07604">
        <ele>476</ele>
        <time>2021-02-26T09:50:46Z</time>
      </trkpt>
      <trkpt lat="47.79463" lon="7.07613">
        <ele>476</ele>
        <time>2021-02-26T09:50:46Z</time>
      </trkpt>
      <trkpt lat="47.79458" lon="7.07622">
        <ele>476</ele>
        <time>2021-02-26T09:50:46Z</time>
      </trkpt>
      <trkpt lat="47.79454" lon="7.0763">
        <ele>475</ele>
        <time>2021-02-26T09:50:46Z</time>
      </trkpt>
      <trkpt lat="47.79451" lon="7.07639">
        <ele>475</ele>
        <time>2021-02-26T09:50:46Z</time>
      </trkpt>
      <trkpt lat="47.79448" lon="7.07649">
        <ele>474</ele>
        <time>2021-02-26T09:50:46Z</time>
      </trkpt>
      <trkpt lat="47.79445" lon="7.07658">
        <ele>473</ele>
        <time>2021-02-26T09:50:46Z</time>
      </trkpt>
      <trkpt lat="47.79442" lon="7.07667">
        <ele>472</ele>
        <time>2021-02-26T09:50:46Z</time>
      </trkpt>
      <trkpt lat="47.79439" lon="7.07675">
        <ele>471</ele>
        <time>2021-02-26T09:50:46Z</time>
      </trkpt>
      <trkpt lat="47.79437" lon="7.07685">
        <ele>471</ele>
        <time>2021-02-26T09:50:46Z</time>
      </trkpt>
      <trkpt lat="47.79436" lon="7.07695">
        <ele>472</ele>
        <time>2021-02-26T09:50:46Z</time>
      </trkpt>
      <trkpt lat="47.79435" lon="7.07705">
        <ele>472</ele>
        <time>2021-02-26T09:50:46Z</time>
      </trkpt>
      <trkpt lat="47.79433" lon="7.07715">
        <ele>472</ele>
        <time>2021-02-26T09:50:46Z</time>
      </trkpt>
      <trkpt lat="47.79432" lon="7.07726">
        <ele>473</ele>
        <time>2021-02-26T09:50:46Z</time>
      </trkpt>
      <trkpt lat="47.79432" lon="7.07736">
        <ele>474</ele>
        <time>2021-02-26T09:50:46Z</time>
      </trkpt>
      <trkpt lat="47.79433" lon="7.07746">
        <ele>475</ele>
        <time>2021-02-26T09:50:46Z</time>
      </trkpt>
      <trkpt lat="47.79434" lon="7.07755">
        <ele>475</ele>
        <time>2021-02-26T09:50:46Z</time>
      </trkpt>
      <trkpt lat="47.79436" lon="7.07764">
        <ele>476</ele>
        <time>2021-02-26T09:50:46Z</time>
      </trkpt>
      <trkpt lat="47.79438" lon="7.07773">
        <ele>476</ele>
        <time>2021-02-26T09:50:46Z</time>
      </trkpt>
      <trkpt lat="47.7944" lon="7.07781">
        <ele>477</ele>
        <time>2021-02-26T09:50:46Z</time>
      </trkpt>
      <trkpt lat="47.79441" lon="7.0779">
        <ele>477</ele>
        <time>2021-02-26T09:50:46Z</time>
      </trkpt>
      <trkpt lat="47.79443" lon="7.07799">
        <ele>478</ele>
        <time>2021-02-26T09:50:46Z</time>
      </trkpt>
      <trkpt lat="47.79445" lon="7.07807">
        <ele>478</ele>
        <time>2021-02-26T09:50:46Z</time>
      </trkpt>
      <trkpt lat="47.79446" lon="7.07816">
        <ele>478</ele>
        <time>2021-02-26T09:50:46Z</time>
      </trkpt>
      <trkpt lat="47.79446" lon="7.07816">
        <ele>478</ele>
        <time>2021-02-26T09:50:46Z</time>
      </trkpt>
      <trkpt lat="47.79449" lon="7.07832">
        <ele>479</ele>
        <time>2021-02-26T09:50:46Z</time>
      </trkpt>
      <trkpt lat="47.79449" lon="7.07832">
        <ele>479</ele>
        <time>2021-02-26T09:50:46Z</time>
      </trkpt>
      <trkpt lat="47.79454" lon="7.07849">
        <ele>480</ele>
        <time>2021-02-26T09:50:46Z</time>
      </trkpt>
      <trkpt lat="47.79456" lon="7.07857">
        <ele>480</ele>
        <time>2021-02-26T09:50:46Z</time>
      </trkpt>
      <trkpt lat="47.79458" lon="7.07865">
        <ele>481</ele>
        <time>2021-02-26T09:50:46Z</time>
      </trkpt>
      <trkpt lat="47.79461" lon="7.07873">
        <ele>481</ele>
        <time>2021-02-26T09:50:46Z</time>
      </trkpt>
      <trkpt lat="47.79463" lon="7.07881">
        <ele>481</ele>
        <time>2021-02-26T09:50:46Z</time>
      </trkpt>
      <trkpt lat="47.79466" lon="7.0789">
        <ele>481</ele>
        <time>2021-02-26T09:50:46Z</time>
      </trkpt>
      <trkpt lat="47.79469" lon="7.07898">
        <ele>482</ele>
        <time>2021-02-26T09:50:46Z</time>
      </trkpt>
      <trkpt lat="47.7947" lon="7.07907">
        <ele>482</ele>
        <time>2021-02-26T09:50:46Z</time>
      </trkpt>
      <trkpt lat="47.79472" lon="7.07916">
        <ele>482</ele>
        <time>2021-02-26T09:50:46Z</time>
      </trkpt>
      <trkpt lat="47.79474" lon="7.07926">
        <ele>482</ele>
        <time>2021-02-26T09:50:46Z</time>
      </trkpt>
      <trkpt lat="47.79477" lon="7.07934">
        <ele>482</ele>
        <time>2021-02-26T09:50:46Z</time>
      </trkpt>
      <trkpt lat="47.79481" lon="7.07945">
        <ele>483</ele>
        <time>2021-02-26T09:50:46Z</time>
      </trkpt>
      <trkpt lat="47.79484" lon="7.07957">
        <ele>483</ele>
        <time>2021-02-26T09:50:46Z</time>
      </trkpt>
      <trkpt lat="47.79488" lon="7.07974">
        <ele>483</ele>
        <time>2021-02-26T09:50:46Z</time>
      </trkpt>
      <trkpt lat="47.79491" lon="7.07988">
        <ele>483</ele>
        <time>2021-02-26T09:50:46Z</time>
      </trkpt>
      <trkpt lat="47.79492" lon="7.08004">
        <ele>482</ele>
        <time>2021-02-26T09:50:46Z</time>
      </trkpt>
      <trkpt lat="47.79494" lon="7.08021">
        <ele>482</ele>
        <time>2021-02-26T09:50:46Z</time>
      </trkpt>
      <trkpt lat="47.79495" lon="7.08038">
        <ele>481</ele>
        <time>2021-02-26T09:50:46Z</time>
      </trkpt>
      <trkpt lat="47.79494" lon="7.08056">
        <ele>480</ele>
        <time>2021-02-26T09:50:46Z</time>
      </trkpt>
      <trkpt lat="47.79493" lon="7.08074">
        <ele>479</ele>
        <time>2021-02-26T09:50:46Z</time>
      </trkpt>
      <trkpt lat="47.79492" lon="7.08092">
        <ele>478</ele>
        <time>2021-02-26T09:50:46Z</time>
      </trkpt>
      <trkpt lat="47.79492" lon="7.08109">
        <ele>478</ele>
        <time>2021-02-26T09:50:46Z</time>
      </trkpt>
      <trkpt lat="47.79491" lon="7.08127">
        <ele>477</ele>
        <time>2021-02-26T09:50:46Z</time>
      </trkpt>
      <trkpt lat="47.79492" lon="7.08144">
        <ele>477</ele>
        <time>2021-02-26T09:50:46Z</time>
      </trkpt>
      <trkpt lat="47.79494" lon="7.08161">
        <ele>477</ele>
        <time>2021-02-26T09:50:46Z</time>
      </trkpt>
      <trkpt lat="47.79496" lon="7.08178">
        <ele>477</ele>
        <time>2021-02-26T09:50:46Z</time>
      </trkpt>
      <trkpt lat="47.79499" lon="7.08196">
        <ele>477</ele>
        <time>2021-02-26T09:50:46Z</time>
      </trkpt>
      <trkpt lat="47.79503" lon="7.08213">
        <ele>477</ele>
        <time>2021-02-26T09:50:46Z</time>
      </trkpt>
      <trkpt lat="47.79509" lon="7.0823">
        <ele>477</ele>
        <time>2021-02-26T09:50:46Z</time>
      </trkpt>
      <trkpt lat="47.79514" lon="7.08248">
        <ele>477</ele>
        <time>2021-02-26T09:50:46Z</time>
      </trkpt>
      <trkpt lat="47.79521" lon="7.08267">
        <ele>477</ele>
        <time>2021-02-26T09:50:46Z</time>
      </trkpt>
      <trkpt lat="47.79527" lon="7.08287">
        <ele>477</ele>
        <time>2021-02-26T09:50:46Z</time>
      </trkpt>
      <trkpt lat="47.79531" lon="7.08311">
        <ele>476</ele>
        <time>2021-02-26T09:50:46Z</time>
      </trkpt>
      <trkpt lat="47.79531" lon="7.08338">
        <ele>475</ele>
        <time>2021-02-26T09:50:46Z</time>
      </trkpt>
      <trkpt lat="47.79531" lon="7.08365">
        <ele>472</ele>
        <time>2021-02-26T09:50:46Z</time>
      </trkpt>
      <trkpt lat="47.79527" lon="7.08393">
        <ele>471</ele>
        <time>2021-02-26T09:50:46Z</time>
      </trkpt>
      <trkpt lat="47.79516" lon="7.08421">
        <ele>470</ele>
        <time>2021-02-26T09:50:46Z</time>
      </trkpt>
      <trkpt lat="47.79502" lon="7.08446">
        <ele>470</ele>
        <time>2021-02-26T09:50:46Z</time>
      </trkpt>
      <trkpt lat="47.79485" lon="7.0847">
        <ele>469</ele>
        <time>2021-02-26T09:50:46Z</time>
      </trkpt>
      <trkpt lat="47.79475" lon="7.08482">
        <ele>468</ele>
        <time>2021-02-26T09:50:46Z</time>
      </trkpt>
      <trkpt lat="47.79474" lon="7.085">
        <ele>466</ele>
        <time>2021-02-26T09:50:46Z</time>
      </trkpt>
      <trkpt lat="47.79482" lon="7.08514">
        <ele>465</ele>
        <time>2021-02-26T09:50:46Z</time>
      </trkpt>
      <trkpt lat="47.79493" lon="7.08506">
        <ele>465</ele>
        <time>2021-02-26T09:50:46Z</time>
      </trkpt>
      <trkpt lat="47.79506" lon="7.08497">
        <ele>464</ele>
        <time>2021-02-26T09:50:46Z</time>
      </trkpt>
      <trkpt lat="47.79519" lon="7.08486">
        <ele>464</ele>
        <time>2021-02-26T09:50:46Z</time>
      </trkpt>
      <trkpt lat="47.79531" lon="7.08471">
        <ele>463</ele>
        <time>2021-02-26T09:50:46Z</time>
      </trkpt>
      <trkpt lat="47.79542" lon="7.08453">
        <ele>463</ele>
        <time>2021-02-26T09:50:46Z</time>
      </trkpt>
      <trkpt lat="47.79552" lon="7.08432">
        <ele>464</ele>
        <time>2021-02-26T09:50:46Z</time>
      </trkpt>
      <trkpt lat="47.79559" lon="7.08412">
        <ele>464</ele>
        <time>2021-02-26T09:50:46Z</time>
      </trkpt>
      <trkpt lat="47.79567" lon="7.08396">
        <ele>465</ele>
        <time>2021-02-26T09:50:46Z</time>
      </trkpt>
      <trkpt lat="47.7958" lon="7.08396">
        <ele>463</ele>
        <time>2021-02-26T09:50:46Z</time>
      </trkpt>
      <trkpt lat="47.79591" lon="7.08409">
        <ele>462</ele>
        <time>2021-02-26T09:50:46Z</time>
      </trkpt>
      <trkpt lat="47.79599" lon="7.08427">
        <ele>461</ele>
        <time>2021-02-26T09:50:46Z</time>
      </trkpt>
      <trkpt lat="47.79609" lon="7.08446">
        <ele>459</ele>
        <time>2021-02-26T09:50:46Z</time>
      </trkpt>
      <trkpt lat="47.79618" lon="7.08467">
        <ele>456</ele>
        <time>2021-02-26T09:50:46Z</time>
      </trkpt>
      <trkpt lat="47.79628" lon="7.08491">
        <ele>452</ele>
        <time>2021-02-26T09:50:46Z</time>
      </trkpt>
      <trkpt lat="47.79641" lon="7.0851">
        <ele>448</ele>
        <time>2021-02-26T09:50:46Z</time>
      </trkpt>
      <trkpt lat="47.79657" lon="7.08523">
        <ele>445</ele>
        <time>2021-02-26T09:50:46Z</time>
      </trkpt>
      <trkpt lat="47.79673" lon="7.08527">
        <ele>443</ele>
        <time>2021-02-26T09:50:46Z</time>
      </trkpt>
      <trkpt lat="47.79692" lon="7.0852">
        <ele>443</ele>
        <time>2021-02-26T09:50:46Z</time>
      </trkpt>
      <trkpt lat="47.79707" lon="7.08503">
        <ele>444</ele>
        <time>2021-02-26T09:50:46Z</time>
      </trkpt>
      <trkpt lat="47.79722" lon="7.08485">
        <ele>447</ele>
        <time>2021-02-26T09:50:46Z</time>
      </trkpt>
      <trkpt lat="47.79738" lon="7.08474">
        <ele>448</ele>
        <time>2021-02-26T09:50:46Z</time>
      </trkpt>
      <trkpt lat="47.79754" lon="7.08469">
        <ele>448</ele>
        <time>2021-02-26T09:50:46Z</time>
      </trkpt>
      <trkpt lat="47.7977" lon="7.08476">
        <ele>448</ele>
        <time>2021-02-26T09:50:46Z</time>
      </trkpt>
      <trkpt lat="47.79781" lon="7.08496">
        <ele>446</ele>
        <time>2021-02-26T09:50:46Z</time>
      </trkpt>
      <trkpt lat="47.79779" lon="7.08522">
        <ele>444</ele>
        <time>2021-02-26T09:50:46Z</time>
      </trkpt>
      <trkpt lat="47.79774" lon="7.08545">
        <ele>442</ele>
        <time>2021-02-26T09:50:46Z</time>
      </trkpt>
      <trkpt lat="47.79768" lon="7.08569">
        <ele>439</ele>
        <time>2021-02-26T09:50:46Z</time>
      </trkpt>
      <trkpt lat="47.79762" lon="7.08595">
        <ele>437</ele>
        <time>2021-02-26T09:50:46Z</time>
      </trkpt>
      <trkpt lat="47.79756" lon="7.08621">
        <ele>435</ele>
        <time>2021-02-26T09:50:46Z</time>
      </trkpt>
      <trkpt lat="47.7975" lon="7.08648">
        <ele>433</ele>
        <time>2021-02-26T09:50:46Z</time>
      </trkpt>
      <trkpt lat="47.79744" lon="7.08675">
        <ele>432</ele>
        <time>2021-02-26T09:50:46Z</time>
      </trkpt>
      <trkpt lat="47.79739" lon="7.08701">
        <ele>432</ele>
        <time>2021-02-26T09:50:46Z</time>
      </trkpt>
      <trkpt lat="47.79732" lon="7.08729">
        <ele>431</ele>
        <time>2021-02-26T09:50:46Z</time>
      </trkpt>
      <trkpt lat="47.79725" lon="7.08756">
        <ele>430</ele>
        <time>2021-02-26T09:50:46Z</time>
      </trkpt>
      <trkpt lat="47.79719" lon="7.08785">
        <ele>429</ele>
        <time>2021-02-26T09:50:46Z</time>
      </trkpt>
      <trkpt lat="47.79713" lon="7.08814">
        <ele>428</ele>
        <time>2021-02-26T09:50:46Z</time>
      </trkpt>
      <trkpt lat="47.79705" lon="7.08842">
        <ele>426</ele>
        <time>2021-02-26T09:50:46Z</time>
      </trkpt>
      <trkpt lat="47.79697" lon="7.0887">
        <ele>425</ele>
        <time>2021-02-26T09:50:46Z</time>
      </trkpt>
      <trkpt lat="47.79688" lon="7.08897">
        <ele>424</ele>
        <time>2021-02-26T09:50:46Z</time>
      </trkpt>
      <trkpt lat="47.7968" lon="7.08925">
        <ele>423</ele>
        <time>2021-02-26T09:50:46Z</time>
      </trkpt>
      <trkpt lat="47.79678" lon="7.08955">
        <ele>422</ele>
        <time>2021-02-26T09:50:46Z</time>
      </trkpt>
      <trkpt lat="47.79679" lon="7.08982">
        <ele>421</ele>
        <time>2021-02-26T09:50:46Z</time>
      </trkpt>
      <trkpt lat="47.79678" lon="7.09007">
        <ele>420</ele>
        <time>2021-02-26T09:50:46Z</time>
      </trkpt>
      <trkpt lat="47.79667" lon="7.09021">
        <ele>418</ele>
        <time>2021-02-26T09:50:46Z</time>
      </trkpt>
      <trkpt lat="47.79655" lon="7.09014">
        <ele>416</ele>
        <time>2021-02-26T09:50:46Z</time>
      </trkpt>
      <trkpt lat="47.79651" lon="7.08994">
        <ele>416</ele>
        <time>2021-02-26T09:50:46Z</time>
      </trkpt>
      <trkpt lat="47.7965" lon="7.08975">
        <ele>416</ele>
        <time>2021-02-26T09:50:46Z</time>
      </trkpt>
      <trkpt lat="47.7965" lon="7.08955">
        <ele>417</ele>
        <time>2021-02-26T09:50:46Z</time>
      </trkpt>
      <trkpt lat="47.7965" lon="7.08933">
        <ele>417</ele>
        <time>2021-02-26T09:50:46Z</time>
      </trkpt>
      <trkpt lat="47.79651" lon="7.08912">
        <ele>418</ele>
        <time>2021-02-26T09:50:46Z</time>
      </trkpt>
      <trkpt lat="47.79648" lon="7.08891">
        <ele>418</ele>
        <time>2021-02-26T09:50:46Z</time>
      </trkpt>
      <trkpt lat="47.79638" lon="7.08877">
        <ele>417</ele>
        <time>2021-02-26T09:50:46Z</time>
      </trkpt>
      <trkpt lat="47.79623" lon="7.08914">
        <ele>414</ele>
        <time>2021-02-26T09:50:46Z</time>
      </trkpt>
      <trkpt lat="47.79613" lon="7.08932">
        <ele>412</ele>
        <time>2021-02-26T09:50:46Z</time>
      </trkpt>
      <trkpt lat="47.79606" lon="7.08954">
        <ele>410</ele>
        <time>2021-02-26T09:50:46Z</time>
      </trkpt>
      <trkpt lat="47.79598" lon="7.08976">
        <ele>407</ele>
        <time>2021-02-26T09:50:46Z</time>
      </trkpt>
      <trkpt lat="47.79589" lon="7.09">
        <ele>404</ele>
        <time>2021-02-26T09:50:46Z</time>
      </trkpt>
      <trkpt lat="47.79578" lon="7.09023">
        <ele>402</ele>
        <time>2021-02-26T09:50:46Z</time>
      </trkpt>
      <trkpt lat="47.79569" lon="7.09048">
        <ele>401</ele>
        <time>2021-02-26T09:50:46Z</time>
      </trkpt>
      <trkpt lat="47.7956" lon="7.09073">
        <ele>400</ele>
        <time>2021-02-26T09:50:46Z</time>
      </trkpt>
      <trkpt lat="47.79552" lon="7.091">
        <ele>398</ele>
        <time>2021-02-26T09:50:46Z</time>
      </trkpt>
      <trkpt lat="47.79545" lon="7.09126">
        <ele>396</ele>
        <time>2021-02-26T09:50:46Z</time>
      </trkpt>
      <trkpt lat="47.79541" lon="7.09154">
        <ele>394</ele>
        <time>2021-02-26T09:50:46Z</time>
      </trkpt>
      <trkpt lat="47.79537" lon="7.09182">
        <ele>392</ele>
        <time>2021-02-26T09:50:46Z</time>
      </trkpt>
      <trkpt lat="47.79534" lon="7.09213">
        <ele>389</ele>
        <time>2021-02-26T09:50:46Z</time>
      </trkpt>
      <trkpt lat="47.7953" lon="7.09244">
        <ele>386</ele>
        <time>2021-02-26T09:50:46Z</time>
      </trkpt>
      <trkpt lat="47.79527" lon="7.09275">
        <ele>385</ele>
        <time>2021-02-26T09:50:46Z</time>
      </trkpt>
      <trkpt lat="47.7952" lon="7.09307">
        <ele>383</ele>
        <time>2021-02-26T09:50:46Z</time>
      </trkpt>
      <trkpt lat="47.79514" lon="7.09338">
        <ele>382</ele>
        <time>2021-02-26T09:50:46Z</time>
      </trkpt>
      <trkpt lat="47.79507" lon="7.0937">
        <ele>380</ele>
        <time>2021-02-26T09:50:46Z</time>
      </trkpt>
      <trkpt lat="47.79501" lon="7.09402">
        <ele>379</ele>
        <time>2021-02-26T09:50:46Z</time>
      </trkpt>
      <trkpt lat="47.79493" lon="7.09434">
        <ele>379</ele>
        <time>2021-02-26T09:50:46Z</time>
      </trkpt>
      <trkpt lat="47.79484" lon="7.09465">
        <ele>378</ele>
        <time>2021-02-26T09:50:46Z</time>
      </trkpt>
      <trkpt lat="47.79471" lon="7.09493">
        <ele>377</ele>
        <time>2021-02-26T09:50:46Z</time>
      </trkpt>
      <trkpt lat="47.79454" lon="7.09516">
        <ele>376</ele>
        <time>2021-02-26T09:50:46Z</time>
      </trkpt>
      <trkpt lat="47.79435" lon="7.09533">
        <ele>374</ele>
        <time>2021-02-26T09:50:46Z</time>
      </trkpt>
      <trkpt lat="47.79416" lon="7.09548">
        <ele>373</ele>
        <time>2021-02-26T09:50:46Z</time>
      </trkpt>
      <trkpt lat="47.79398" lon="7.09566">
        <ele>372</ele>
        <time>2021-02-26T09:50:46Z</time>
      </trkpt>
      <trkpt lat="47.79384" lon="7.09593">
        <ele>371</ele>
        <time>2021-02-26T09:50:46Z</time>
      </trkpt>
      <trkpt lat="47.79371" lon="7.09621">
        <ele>370</ele>
        <time>2021-02-26T09:50:46Z</time>
      </trkpt>
      <trkpt lat="47.79359" lon="7.09651">
        <ele>369</ele>
        <time>2021-02-26T09:50:46Z</time>
      </trkpt>
      <trkpt lat="47.79349" lon="7.09681">
        <ele>368</ele>
        <time>2021-02-26T09:50:46Z</time>
      </trkpt>
      <trkpt lat="47.79341" lon="7.09712">
        <ele>367</ele>
        <time>2021-02-26T09:50:46Z</time>
      </trkpt>
      <trkpt lat="47.79334" lon="7.09744">
        <ele>365</ele>
        <time>2021-02-26T09:50:46Z</time>
      </trkpt>
      <trkpt lat="47.79328" lon="7.09776">
        <ele>365</ele>
        <time>2021-02-26T09:50:46Z</time>
      </trkpt>
      <trkpt lat="47.79321" lon="7.09807">
        <ele>365</ele>
        <time>2021-02-26T09:50:46Z</time>
      </trkpt>
      <trkpt lat="47.79315" lon="7.09838">
        <ele>365</ele>
        <time>2021-02-26T09:50:46Z</time>
      </trkpt>
      <trkpt lat="47.79309" lon="7.09868">
        <ele>364</ele>
        <time>2021-02-26T09:50:46Z</time>
      </trkpt>
      <trkpt lat="47.79305" lon="7.09898">
        <ele>364</ele>
        <time>2021-02-26T09:50:46Z</time>
      </trkpt>
      <trkpt lat="47.79304" lon="7.09927">
        <ele>363</ele>
        <time>2021-02-26T09:50:46Z</time>
      </trkpt>
      <trkpt lat="47.79303" lon="7.09955">
        <ele>362</ele>
        <time>2021-02-26T09:50:46Z</time>
      </trkpt>
      <trkpt lat="47.79303" lon="7.09981">
        <ele>361</ele>
        <time>2021-02-26T09:50:46Z</time>
      </trkpt>
      <trkpt lat="47.79303" lon="7.10006">
        <ele>360</ele>
        <time>2021-02-26T09:50:46Z</time>
      </trkpt>
      <trkpt lat="47.79305" lon="7.10031">
        <ele>361</ele>
        <time>2021-02-26T09:50:46Z</time>
      </trkpt>
      <trkpt lat="47.79309" lon="7.10054">
        <ele>361</ele>
        <time>2021-02-26T09:50:46Z</time>
      </trkpt>
      <trkpt lat="47.79309" lon="7.10078">
        <ele>361</ele>
        <time>2021-02-26T09:50:46Z</time>
      </trkpt>
      <trkpt lat="47.79305" lon="7.10102">
        <ele>360</ele>
        <time>2021-02-26T09:50:46Z</time>
      </trkpt>
      <trkpt lat="47.79301" lon="7.10126">
        <ele>360</ele>
        <time>2021-02-26T09:50:46Z</time>
      </trkpt>
      <trkpt lat="47.79296" lon="7.10149">
        <ele>359</ele>
        <time>2021-02-26T09:50:46Z</time>
      </trkpt>
      <trkpt lat="47.79291" lon="7.10174">
        <ele>358</ele>
        <time>2021-02-26T09:50:46Z</time>
      </trkpt>
      <trkpt lat="47.79289" lon="7.10199">
        <ele>358</ele>
        <time>2021-02-26T09:50:46Z</time>
      </trkpt>
      <trkpt lat="47.79287" lon="7.10224">
        <ele>357</ele>
        <time>2021-02-26T09:50:46Z</time>
      </trkpt>
      <trkpt lat="47.79284" lon="7.10248">
        <ele>357</ele>
        <time>2021-02-26T09:50:46Z</time>
      </trkpt>
      <trkpt lat="47.79282" lon="7.10272">
        <ele>356</ele>
        <time>2021-02-26T09:50:46Z</time>
      </trkpt>
      <trkpt lat="47.7928" lon="7.10295">
        <ele>355</ele>
        <time>2021-02-26T09:50:46Z</time>
      </trkpt>
      <trkpt lat="47.79279" lon="7.10319">
        <ele>354</ele>
        <time>2021-02-26T09:50:46Z</time>
      </trkpt>
      <trkpt lat="47.79277" lon="7.10342">
        <ele>353</ele>
        <time>2021-02-26T09:50:46Z</time>
      </trkpt>
      <trkpt lat="47.79277" lon="7.10365">
        <ele>353</ele>
        <time>2021-02-26T09:50:46Z</time>
      </trkpt>
      <trkpt lat="47.79277" lon="7.10389">
        <ele>353</ele>
        <time>2021-02-26T09:50:46Z</time>
      </trkpt>
      <trkpt lat="47.79277" lon="7.10413">
        <ele>352</ele>
        <time>2021-02-26T09:50:46Z</time>
      </trkpt>
      <trkpt lat="47.79276" lon="7.10437">
        <ele>352</ele>
        <time>2021-02-26T09:50:46Z</time>
      </trkpt>
      <trkpt lat="47.79277" lon="7.1046">
        <ele>352</ele>
        <time>2021-02-26T09:50:46Z</time>
      </trkpt>
      <trkpt lat="47.79277" lon="7.10484">
        <ele>352</ele>
        <time>2021-02-26T09:50:46Z</time>
      </trkpt>
      <trkpt lat="47.79278" lon="7.10507">
        <ele>352</ele>
        <time>2021-02-26T09:50:46Z</time>
      </trkpt>
      <trkpt lat="47.79277" lon="7.1053">
        <ele>351</ele>
        <time>2021-02-26T09:50:46Z</time>
      </trkpt>
      <trkpt lat="47.79276" lon="7.10554">
        <ele>351</ele>
        <time>2021-02-26T09:50:46Z</time>
      </trkpt>
      <trkpt lat="47.79274" lon="7.10577">
        <ele>350</ele>
        <time>2021-02-26T09:50:46Z</time>
      </trkpt>
      <trkpt lat="47.79271" lon="7.10598">
        <ele>350</ele>
        <time>2021-02-26T09:50:46Z</time>
      </trkpt>
      <trkpt lat="47.79268" lon="7.10619">
        <ele>349</ele>
        <time>2021-02-26T09:50:46Z</time>
      </trkpt>
      <trkpt lat="47.79264" lon="7.1064">
        <ele>349</ele>
        <time>2021-02-26T09:50:46Z</time>
      </trkpt>
      <trkpt lat="47.79258" lon="7.10656">
        <ele>349</ele>
        <time>2021-02-26T09:50:46Z</time>
      </trkpt>
      <trkpt lat="47.79246" lon="7.10662">
        <ele>348</ele>
        <time>2021-02-26T09:50:46Z</time>
      </trkpt>
      <trkpt lat="47.79234" lon="7.10655">
        <ele>347</ele>
        <time>2021-02-26T09:50:46Z</time>
      </trkpt>
      <trkpt lat="47.79222" lon="7.10643">
        <ele>347</ele>
        <time>2021-02-26T09:50:46Z</time>
      </trkpt>
      <trkpt lat="47.7921" lon="7.10631">
        <ele>347</ele>
        <time>2021-02-26T09:50:46Z</time>
      </trkpt>
      <trkpt lat="47.79197" lon="7.10618">
        <ele>347</ele>
        <time>2021-02-26T09:50:46Z</time>
      </trkpt>
      <trkpt lat="47.79183" lon="7.10606">
        <ele>347</ele>
        <time>2021-02-26T09:50:46Z</time>
      </trkpt>
      <trkpt lat="47.79169" lon="7.10597">
        <ele>347</ele>
        <time>2021-02-26T09:50:46Z</time>
      </trkpt>
      <trkpt lat="47.79155" lon="7.10593">
        <ele>348</ele>
        <time>2021-02-26T09:50:46Z</time>
      </trkpt>
      <trkpt lat="47.79142" lon="7.10589">
        <ele>350</ele>
        <time>2021-02-26T09:50:46Z</time>
      </trkpt>
      <trkpt lat="47.7913" lon="7.10588">
        <ele>351</ele>
        <time>2021-02-26T09:50:46Z</time>
      </trkpt>
      <trkpt lat="47.79119" lon="7.10588">
        <ele>352</ele>
        <time>2021-02-26T09:50:46Z</time>
      </trkpt>
      <trkpt lat="47.79108" lon="7.10589">
        <ele>353</ele>
        <time>2021-02-26T09:50:46Z</time>
      </trkpt>
      <trkpt lat="47.79098" lon="7.10589">
        <ele>354</ele>
        <time>2021-02-26T09:50:46Z</time>
      </trkpt>
      <trkpt lat="47.79089" lon="7.10591">
        <ele>355</ele>
        <time>2021-02-26T09:50:46Z</time>
      </trkpt>
      <trkpt lat="47.79081" lon="7.10592">
        <ele>355</ele>
        <time>2021-02-26T09:50:46Z</time>
      </trkpt>
      <trkpt lat="47.79074" lon="7.10593">
        <ele>355</ele>
        <time>2021-02-26T09:50:46Z</time>
      </trkpt>
      <trkpt lat="47.79067" lon="7.10595">
        <ele>355</ele>
        <time>2021-02-26T09:50:46Z</time>
      </trkpt>
      <trkpt lat="47.7906" lon="7.10595">
        <ele>355</ele>
        <time>2021-02-26T09:50:46Z</time>
      </trkpt>
      <trkpt lat="47.79053" lon="7.10596">
        <ele>355</ele>
        <time>2021-02-26T09:50:46Z</time>
      </trkpt>
      <trkpt lat="47.79046" lon="7.10597">
        <ele>355</ele>
        <time>2021-02-26T09:50:46Z</time>
      </trkpt>
      <trkpt lat="47.79039" lon="7.10599">
        <ele>355</ele>
        <time>2021-02-26T09:50:46Z</time>
      </trkpt>
      <trkpt lat="47.79033" lon="7.106">
        <ele>355</ele>
        <time>2021-02-26T09:50:46Z</time>
      </trkpt>
      <trkpt lat="47.79026" lon="7.10601">
        <ele>356</ele>
        <time>2021-02-26T09:50:46Z</time>
      </trkpt>
      <trkpt lat="47.79018" lon="7.10601">
        <ele>356</ele>
        <time>2021-02-26T09:50:46Z</time>
      </trkpt>
      <trkpt lat="47.79012" lon="7.10602">
        <ele>356</ele>
        <time>2021-02-26T09:50:46Z</time>
      </trkpt>
      <trkpt lat="47.79005" lon="7.10604">
        <ele>356</ele>
        <time>2021-02-26T09:50:46Z</time>
      </trkpt>
      <trkpt lat="47.78997" lon="7.10605">
        <ele>356</ele>
        <time>2021-02-26T09:50:46Z</time>
      </trkpt>
      <trkpt lat="47.7899" lon="7.10606">
        <ele>356</ele>
        <time>2021-02-26T09:50:46Z</time>
      </trkpt>
      <trkpt lat="47.78983" lon="7.10606">
        <ele>355</ele>
        <time>2021-02-26T09:50:46Z</time>
      </trkpt>
      <trkpt lat="47.78971" lon="7.10604">
        <ele>355</ele>
        <time>2021-02-26T09:50:46Z</time>
      </trkpt>
      <trkpt lat="47.78962" lon="7.10599">
        <ele>355</ele>
        <time>2021-02-26T09:50:46Z</time>
      </trkpt>
      <trkpt lat="47.78952" lon="7.10594">
        <ele>355</ele>
        <time>2021-02-26T09:50:46Z</time>
      </trkpt>
      <trkpt lat="47.78942" lon="7.10585">
        <ele>355</ele>
        <time>2021-02-26T09:50:46Z</time>
      </trkpt>
      <trkpt lat="47.78932" lon="7.10577">
        <ele>355</ele>
        <time>2021-02-26T09:50:46Z</time>
      </trkpt>
      <trkpt lat="47.78922" lon="7.10567">
        <ele>355</ele>
        <time>2021-02-26T09:50:46Z</time>
      </trkpt>
      <trkpt lat="47.7891" lon="7.1056">
        <ele>354</ele>
        <time>2021-02-26T09:50:46Z</time>
      </trkpt>
      <trkpt lat="47.78898" lon="7.10552">
        <ele>353</ele>
        <time>2021-02-26T09:50:46Z</time>
      </trkpt>
      <trkpt lat="47.78885" lon="7.10545">
        <ele>352</ele>
        <time>2021-02-26T09:50:46Z</time>
      </trkpt>
      <trkpt lat="47.78871" lon="7.10539">
        <ele>350</ele>
        <time>2021-02-26T09:50:46Z</time>
      </trkpt>
      <trkpt lat="47.78857" lon="7.10532">
        <ele>349</ele>
        <time>2021-02-26T09:50:46Z</time>
      </trkpt>
      <trkpt lat="47.78841" lon="7.10525">
        <ele>348</ele>
        <time>2021-02-26T09:50:46Z</time>
      </trkpt>
      <trkpt lat="47.78825" lon="7.10517">
        <ele>347</ele>
        <time>2021-02-26T09:50:46Z</time>
      </trkpt>
      <trkpt lat="47.78808" lon="7.10508">
        <ele>346</ele>
        <time>2021-02-26T09:50:46Z</time>
      </trkpt>
      <trkpt lat="47.78792" lon="7.10499">
        <ele>345</ele>
        <time>2021-02-26T09:50:46Z</time>
      </trkpt>
      <trkpt lat="47.78777" lon="7.10491">
        <ele>344</ele>
        <time>2021-02-26T09:50:46Z</time>
      </trkpt>
      <trkpt lat="47.78762" lon="7.10488">
        <ele>343</ele>
        <time>2021-02-26T09:50:46Z</time>
      </trkpt>
      <trkpt lat="47.78749" lon="7.10491">
        <ele>341</ele>
        <time>2021-02-26T09:50:46Z</time>
      </trkpt>
      <trkpt lat="47.78738" lon="7.10491">
        <ele>341</ele>
        <time>2021-02-26T09:50:46Z</time>
      </trkpt>
      <trkpt lat="47.78728" lon="7.10482">
        <ele>341</ele>
        <time>2021-02-26T09:50:46Z</time>
      </trkpt>
      <trkpt lat="47.78717" lon="7.10471">
        <ele>341</ele>
        <time>2021-02-26T09:50:46Z</time>
      </trkpt>
      <trkpt lat="47.78705" lon="7.10464">
        <ele>341</ele>
        <time>2021-02-26T09:50:46Z</time>
      </trkpt>
      <trkpt lat="47.78692" lon="7.10457">
        <ele>340</ele>
        <time>2021-02-26T09:50:46Z</time>
      </trkpt>
      <trkpt lat="47.78679" lon="7.10452">
        <ele>340</ele>
        <time>2021-02-26T09:50:46Z</time>
      </trkpt>
      <trkpt lat="47.78666" lon="7.10448">
        <ele>339</ele>
        <time>2021-02-26T09:50:46Z</time>
      </trkpt>
      <trkpt lat="47.78653" lon="7.10443">
        <ele>340</ele>
        <time>2021-02-26T09:50:46Z</time>
      </trkpt>
      <trkpt lat="47.7864" lon="7.10437">
        <ele>340</ele>
        <time>2021-02-26T09:50:46Z</time>
      </trkpt>
      <trkpt lat="47.78629" lon="7.10431">
        <ele>341</ele>
        <time>2021-02-26T09:50:46Z</time>
      </trkpt>
      <trkpt lat="47.78618" lon="7.10423">
        <ele>342</ele>
        <time>2021-02-26T09:50:46Z</time>
      </trkpt>
      <trkpt lat="47.78608" lon="7.10415">
        <ele>342</ele>
        <time>2021-02-26T09:50:46Z</time>
      </trkpt>
      <trkpt lat="47.78598" lon="7.10407">
        <ele>343</ele>
        <time>2021-02-26T09:50:46Z</time>
      </trkpt>
      <trkpt lat="47.7859" lon="7.10399">
        <ele>343</ele>
        <time>2021-02-26T09:50:46Z</time>
      </trkpt>
      <trkpt lat="47.78581" lon="7.10391">
        <ele>344</ele>
        <time>2021-02-26T09:50:46Z</time>
      </trkpt>
      <trkpt lat="47.78574" lon="7.10385">
        <ele>344</ele>
        <time>2021-02-26T09:50:46Z</time>
      </trkpt>
      <trkpt lat="47.78567" lon="7.10378">
        <ele>344</ele>
        <time>2021-02-26T09:50:46Z</time>
      </trkpt>
      <trkpt lat="47.7856" lon="7.10372">
        <ele>344</ele>
        <time>2021-02-26T09:50:46Z</time>
      </trkpt>
      <trkpt lat="47.78553" lon="7.10366">
        <ele>345</ele>
        <time>2021-02-26T09:50:46Z</time>
      </trkpt>
      <trkpt lat="47.78546" lon="7.1036">
        <ele>345</ele>
        <time>2021-02-26T09:50:46Z</time>
      </trkpt>
      <trkpt lat="47.78539" lon="7.10354">
        <ele>345</ele>
        <time>2021-02-26T09:50:46Z</time>
      </trkpt>
      <trkpt lat="47.78531" lon="7.10348">
        <ele>345</ele>
        <time>2021-02-26T09:50:46Z</time>
      </trkpt>
      <trkpt lat="47.78524" lon="7.10341">
        <ele>345</ele>
        <time>2021-02-26T09:50:46Z</time>
      </trkpt>
      <trkpt lat="47.78517" lon="7.10332">
        <ele>345</ele>
        <time>2021-02-26T09:50:46Z</time>
      </trkpt>
      <trkpt lat="47.7851" lon="7.10323">
        <ele>346</ele>
        <time>2021-02-26T09:50:46Z</time>
      </trkpt>
      <trkpt lat="47.78502" lon="7.10315">
        <ele>346</ele>
        <time>2021-02-26T09:50:46Z</time>
      </trkpt>
      <trkpt lat="47.78496" lon="7.10306">
        <ele>346</ele>
        <time>2021-02-26T09:50:46Z</time>
      </trkpt>
      <trkpt lat="47.78489" lon="7.10297">
        <ele>347</ele>
        <time>2021-02-26T09:50:46Z</time>
      </trkpt>
      <trkpt lat="47.78482" lon="7.10288">
        <ele>347</ele>
        <time>2021-02-26T09:50:46Z</time>
      </trkpt>
      <trkpt lat="47.78475" lon="7.10278">
        <ele>347</ele>
        <time>2021-02-26T09:50:46Z</time>
      </trkpt>
      <trkpt lat="47.78469" lon="7.10268">
        <ele>347</ele>
        <time>2021-02-26T09:50:46Z</time>
      </trkpt>
      <trkpt lat="47.78463" lon="7.10259">
        <ele>347</ele>
        <time>2021-02-26T09:50:46Z</time>
      </trkpt>
      <trkpt lat="47.78456" lon="7.10248">
        <ele>347</ele>
        <time>2021-02-26T09:50:46Z</time>
      </trkpt>
      <trkpt lat="47.7845" lon="7.10238">
        <ele>348</ele>
        <time>2021-02-26T09:50:46Z</time>
      </trkpt>
      <trkpt lat="47.78443" lon="7.10228">
        <ele>348</ele>
        <time>2021-02-26T09:50:46Z</time>
      </trkpt>
      <trkpt lat="47.78437" lon="7.10218">
        <ele>348</ele>
        <time>2021-02-26T09:50:46Z</time>
      </trkpt>
      <trkpt lat="47.7843" lon="7.10208">
        <ele>348</ele>
        <time>2021-02-26T09:50:46Z</time>
      </trkpt>
      <trkpt lat="47.78423" lon="7.10197">
        <ele>348</ele>
        <time>2021-02-26T09:50:46Z</time>
      </trkpt>
      <trkpt lat="47.78417" lon="7.10187">
        <ele>348</ele>
        <time>2021-02-26T09:50:46Z</time>
      </trkpt>
      <trkpt lat="47.7841" lon="7.10176">
        <ele>349</ele>
        <time>2021-02-26T09:50:46Z</time>
      </trkpt>
      <trkpt lat="47.78404" lon="7.10166">
        <ele>349</ele>
        <time>2021-02-26T09:50:46Z</time>
      </trkpt>
      <trkpt lat="47.78398" lon="7.10154">
        <ele>349</ele>
        <time>2021-02-26T09:50:46Z</time>
      </trkpt>
      <trkpt lat="47.78392" lon="7.10144">
        <ele>349</ele>
        <time>2021-02-26T09:50:46Z</time>
      </trkpt>
      <trkpt lat="47.78386" lon="7.10133">
        <ele>349</ele>
        <time>2021-02-26T09:50:46Z</time>
      </trkpt>
      <trkpt lat="47.78379" lon="7.10122">
        <ele>349</ele>
        <time>2021-02-26T09:50:46Z</time>
      </trkpt>
      <trkpt lat="47.78372" lon="7.10111">
        <ele>349</ele>
        <time>2021-02-26T09:50:46Z</time>
      </trkpt>
      <trkpt lat="47.78366" lon="7.101">
        <ele>349</ele>
        <time>2021-02-26T09:50:46Z</time>
      </trkpt>
      <trkpt lat="47.78359" lon="7.10088">
        <ele>349</ele>
        <time>2021-02-26T09:50:46Z</time>
      </trkpt>
      <trkpt lat="47.78352" lon="7.10078">
        <ele>349</ele>
        <time>2021-02-26T09:50:46Z</time>
      </trkpt>
      <trkpt lat="47.78346" lon="7.10067">
        <ele>349</ele>
        <time>2021-02-26T09:50:46Z</time>
      </trkpt>
      <trkpt lat="47.78339" lon="7.10057">
        <ele>349</ele>
        <time>2021-02-26T09:50:46Z</time>
      </trkpt>
      <trkpt lat="47.78333" lon="7.10045">
        <ele>349</ele>
        <time>2021-02-26T09:50:46Z</time>
      </trkpt>
      <trkpt lat="47.78326" lon="7.10034">
        <ele>349</ele>
        <time>2021-02-26T09:50:46Z</time>
      </trkpt>
      <trkpt lat="47.78319" lon="7.10022">
        <ele>349</ele>
        <time>2021-02-26T09:50:46Z</time>
      </trkpt>
      <trkpt lat="47.78312" lon="7.10011">
        <ele>349</ele>
        <time>2021-02-26T09:50:46Z</time>
      </trkpt>
      <trkpt lat="47.78305" lon="7.09999">
        <ele>349</ele>
        <time>2021-02-26T09:50:46Z</time>
      </trkpt>
      <trkpt lat="47.78298" lon="7.09986">
        <ele>349</ele>
        <time>2021-02-26T09:50:46Z</time>
      </trkpt>
      <trkpt lat="47.78292" lon="7.09975">
        <ele>349</ele>
        <time>2021-02-26T09:50:46Z</time>
      </trkpt>
      <trkpt lat="47.78285" lon="7.09964">
        <ele>350</ele>
        <time>2021-02-26T09:50:46Z</time>
      </trkpt>
      <trkpt lat="47.78278" lon="7.09954">
        <ele>350</ele>
        <time>2021-02-26T09:50:46Z</time>
      </trkpt>
      <trkpt lat="47.78271" lon="7.09944">
        <ele>350</ele>
        <time>2021-02-26T09:50:46Z</time>
      </trkpt>
      <trkpt lat="47.78264" lon="7.09934">
        <ele>350</ele>
        <time>2021-02-26T09:50:46Z</time>
      </trkpt>
      <trkpt lat="47.78257" lon="7.09926">
        <ele>351</ele>
        <time>2021-02-26T09:50:46Z</time>
      </trkpt>
      <trkpt lat="47.78249" lon="7.0992">
        <ele>351</ele>
        <time>2021-02-26T09:50:46Z</time>
      </trkpt>
      <trkpt lat="47.7824" lon="7.09915">
        <ele>352</ele>
        <time>2021-02-26T09:50:46Z</time>
      </trkpt>
      <trkpt lat="47.78232" lon="7.0991">
        <ele>352</ele>
        <time>2021-02-26T09:50:46Z</time>
      </trkpt>
      <trkpt lat="47.78223" lon="7.09905">
        <ele>353</ele>
        <time>2021-02-26T09:50:46Z</time>
      </trkpt>
      <trkpt lat="47.78215" lon="7.09901">
        <ele>353</ele>
        <time>2021-02-26T09:50:46Z</time>
      </trkpt>
      <trkpt lat="47.78207" lon="7.09896">
        <ele>354</ele>
        <time>2021-02-26T09:50:46Z</time>
      </trkpt>
      <trkpt lat="47.78199" lon="7.09892">
        <ele>354</ele>
        <time>2021-02-26T09:50:46Z</time>
      </trkpt>
      <trkpt lat="47.78192" lon="7.09887">
        <ele>354</ele>
        <time>2021-02-26T09:50:46Z</time>
      </trkpt>
      <trkpt lat="47.78184" lon="7.09883">
        <ele>355</ele>
        <time>2021-02-26T09:50:46Z</time>
      </trkpt>
      <trkpt lat="47.78176" lon="7.09879">
        <ele>355</ele>
        <time>2021-02-26T09:50:46Z</time>
      </trkpt>
      <trkpt lat="47.7817" lon="7.09875">
        <ele>356</ele>
        <time>2021-02-26T09:50:46Z</time>
      </trkpt>
      <trkpt lat="47.78163" lon="7.09871">
        <ele>356</ele>
        <time>2021-02-26T09:50:46Z</time>
      </trkpt>
      <trkpt lat="47.78156" lon="7.09866">
        <ele>357</ele>
        <time>2021-02-26T09:50:46Z</time>
      </trkpt>
      <trkpt lat="47.7815" lon="7.09861">
        <ele>357</ele>
        <time>2021-02-26T09:50:46Z</time>
      </trkpt>
      <trkpt lat="47.78144" lon="7.09857">
        <ele>357</ele>
        <time>2021-02-26T09:50:46Z</time>
      </trkpt>
      <trkpt lat="47.78137" lon="7.09853">
        <ele>358</ele>
        <time>2021-02-26T09:50:46Z</time>
      </trkpt>
      <trkpt lat="47.78131" lon="7.09848">
        <ele>358</ele>
        <time>2021-02-26T09:50:46Z</time>
      </trkpt>
      <trkpt lat="47.78125" lon="7.09843">
        <ele>358</ele>
        <time>2021-02-26T09:50:46Z</time>
      </trkpt>
      <trkpt lat="47.78119" lon="7.09839">
        <ele>359</ele>
        <time>2021-02-26T09:50:46Z</time>
      </trkpt>
      <trkpt lat="47.78113" lon="7.09833">
        <ele>359</ele>
        <time>2021-02-26T09:50:46Z</time>
      </trkpt>
      <trkpt lat="47.78107" lon="7.09827">
        <ele>359</ele>
        <time>2021-02-26T09:50:46Z</time>
      </trkpt>
      <trkpt lat="47.78101" lon="7.0982">
        <ele>360</ele>
        <time>2021-02-26T09:50:46Z</time>
      </trkpt>
      <trkpt lat="47.78096" lon="7.09813">
        <ele>360</ele>
        <time>2021-02-26T09:50:46Z</time>
      </trkpt>
      <trkpt lat="47.78091" lon="7.09805">
        <ele>360</ele>
        <time>2021-02-26T09:50:46Z</time>
      </trkpt>
      <trkpt lat="47.78087" lon="7.09797">
        <ele>361</ele>
        <time>2021-02-26T09:50:46Z</time>
      </trkpt>
      <trkpt lat="47.78083" lon="7.09788">
        <ele>361</ele>
        <time>2021-02-26T09:50:46Z</time>
      </trkpt>
      <trkpt lat="47.78083" lon="7.09788">
        <ele>361</ele>
        <time>2021-02-26T09:50:46Z</time>
      </trkpt>
      <trkpt lat="47.78075" lon="7.09776">
        <ele>361</ele>
        <time>2021-02-26T09:50:46Z</time>
      </trkpt>
      <trkpt lat="47.7807" lon="7.0977">
        <ele>361</ele>
        <time>2021-02-26T09:50:46Z</time>
      </trkpt>
      <trkpt lat="47.78064" lon="7.09766">
        <ele>361</ele>
        <time>2021-02-26T09:50:46Z</time>
      </trkpt>
      <trkpt lat="47.78057" lon="7.09763">
        <ele>360</ele>
        <time>2021-02-26T09:50:46Z</time>
      </trkpt>
      <trkpt lat="47.78049" lon="7.0976">
        <ele>360</ele>
        <time>2021-02-26T09:50:46Z</time>
      </trkpt>
      <trkpt lat="47.7804" lon="7.09758">
        <ele>360</ele>
        <time>2021-02-26T09:50:46Z</time>
      </trkpt>
      <trkpt lat="47.7803" lon="7.09755">
        <ele>359</ele>
        <time>2021-02-26T09:50:46Z</time>
      </trkpt>
      <trkpt lat="47.78019" lon="7.09751">
        <ele>359</ele>
        <time>2021-02-26T09:50:46Z</time>
      </trkpt>
      <trkpt lat="47.78008" lon="7.09747">
        <ele>358</ele>
        <time>2021-02-26T09:50:46Z</time>
      </trkpt>
      <trkpt lat="47.77996" lon="7.09742">
        <ele>358</ele>
        <time>2021-02-26T09:50:46Z</time>
      </trkpt>
      <trkpt lat="47.77984" lon="7.09734">
        <ele>358</ele>
        <time>2021-02-26T09:50:46Z</time>
      </trkpt>
      <trkpt lat="47.77971" lon="7.09727">
        <ele>357</ele>
        <time>2021-02-26T09:50:46Z</time>
      </trkpt>
      <trkpt lat="47.77958" lon="7.09719">
        <ele>356</ele>
        <time>2021-02-26T09:50:46Z</time>
      </trkpt>
      <trkpt lat="47.77944" lon="7.0971">
        <ele>355</ele>
        <time>2021-02-26T09:50:46Z</time>
      </trkpt>
      <trkpt lat="47.7793" lon="7.097">
        <ele>355</ele>
        <time>2021-02-26T09:50:46Z</time>
      </trkpt>
      <trkpt lat="47.77915" lon="7.09691">
        <ele>354</ele>
        <time>2021-02-26T09:50:46Z</time>
      </trkpt>
      <trkpt lat="47.77902" lon="7.09684">
        <ele>354</ele>
        <time>2021-02-26T09:50:46Z</time>
      </trkpt>
      <trkpt lat="47.77889" lon="7.09677">
        <ele>354</ele>
        <time>2021-02-26T09:50:46Z</time>
      </trkpt>
      <trkpt lat="47.77877" lon="7.09669">
        <ele>354</ele>
        <time>2021-02-26T09:50:46Z</time>
      </trkpt>
      <trkpt lat="47.77866" lon="7.09662">
        <ele>353</ele>
        <time>2021-02-26T09:50:46Z</time>
      </trkpt>
      <trkpt lat="47.77855" lon="7.09655">
        <ele>353</ele>
        <time>2021-02-26T09:50:46Z</time>
      </trkpt>
      <trkpt lat="47.77843" lon="7.09647">
        <ele>353</ele>
        <time>2021-02-26T09:50:46Z</time>
      </trkpt>
      <trkpt lat="47.77832" lon="7.09641">
        <ele>353</ele>
        <time>2021-02-26T09:50:46Z</time>
      </trkpt>
      <trkpt lat="47.7782" lon="7.09638">
        <ele>354</ele>
        <time>2021-02-26T09:50:46Z</time>
      </trkpt>
      <trkpt lat="47.77809" lon="7.09637">
        <ele>354</ele>
        <time>2021-02-26T09:50:46Z</time>
      </trkpt>
      <trkpt lat="47.77797" lon="7.09639">
        <ele>354</ele>
        <time>2021-02-26T09:50:46Z</time>
      </trkpt>
      <trkpt lat="47.77785" lon="7.09644">
        <ele>354</ele>
        <time>2021-02-26T09:50:46Z</time>
      </trkpt>
      <trkpt lat="47.77774" lon="7.09648">
        <ele>354</ele>
        <time>2021-02-26T09:50:46Z</time>
      </trkpt>
      <trkpt lat="47.77763" lon="7.09654">
        <ele>354</ele>
        <time>2021-02-26T09:50:46Z</time>
      </trkpt>
      <trkpt lat="47.77752" lon="7.09658">
        <ele>354</ele>
        <time>2021-02-26T09:50:46Z</time>
      </trkpt>
      <trkpt lat="47.7774" lon="7.0966">
        <ele>354</ele>
        <time>2021-02-26T09:50:46Z</time>
      </trkpt>
      <trkpt lat="47.77727" lon="7.0966">
        <ele>355</ele>
        <time>2021-02-26T09:50:46Z</time>
      </trkpt>
      <trkpt lat="47.77716" lon="7.09658">
        <ele>355</ele>
        <time>2021-02-26T09:50:46Z</time>
      </trkpt>
      <trkpt lat="47.77705" lon="7.09654">
        <ele>356</ele>
        <time>2021-02-26T09:50:46Z</time>
      </trkpt>
      <trkpt lat="47.77696" lon="7.09645">
        <ele>356</ele>
        <time>2021-02-26T09:50:46Z</time>
      </trkpt>
      <trkpt lat="47.77687" lon="7.09638">
        <ele>356</ele>
        <time>2021-02-26T09:50:46Z</time>
      </trkpt>
      <trkpt lat="47.77679" lon="7.09629">
        <ele>357</ele>
        <time>2021-02-26T09:50:46Z</time>
      </trkpt>
      <trkpt lat="47.7767" lon="7.09622">
        <ele>357</ele>
        <time>2021-02-26T09:50:46Z</time>
      </trkpt>
      <trkpt lat="47.77662" lon="7.09614">
        <ele>357</ele>
        <time>2021-02-26T09:50:46Z</time>
      </trkpt>
      <trkpt lat="47.77654" lon="7.09607">
        <ele>357</ele>
        <time>2021-02-26T09:50:46Z</time>
      </trkpt>
      <trkpt lat="47.77645" lon="7.09601">
        <ele>358</ele>
        <time>2021-02-26T09:50:46Z</time>
      </trkpt>
      <trkpt lat="47.77637" lon="7.09594">
        <ele>358</ele>
        <time>2021-02-26T09:50:46Z</time>
      </trkpt>
      <trkpt lat="47.77629" lon="7.09587">
        <ele>358</ele>
        <time>2021-02-26T09:50:46Z</time>
      </trkpt>
      <trkpt lat="47.77622" lon="7.0958">
        <ele>358</ele>
        <time>2021-02-26T09:50:46Z</time>
      </trkpt>
      <trkpt lat="47.77615" lon="7.09574">
        <ele>358</ele>
        <time>2021-02-26T09:50:46Z</time>
      </trkpt>
      <trkpt lat="47.77607" lon="7.09567">
        <ele>359</ele>
        <time>2021-02-26T09:50:46Z</time>
      </trkpt>
      <trkpt lat="47.776" lon="7.09561">
        <ele>359</ele>
        <time>2021-02-26T09:50:46Z</time>
      </trkpt>
      <trkpt lat="47.77594" lon="7.09554">
        <ele>359</ele>
        <time>2021-02-26T09:50:46Z</time>
      </trkpt>
      <trkpt lat="47.77588" lon="7.09547">
        <ele>360</ele>
        <time>2021-02-26T09:50:46Z</time>
      </trkpt>
      <trkpt lat="47.77581" lon="7.09541">
        <ele>360</ele>
        <time>2021-02-26T09:50:46Z</time>
      </trkpt>
      <trkpt lat="47.77576" lon="7.09535">
        <ele>361</ele>
        <time>2021-02-26T09:50:46Z</time>
      </trkpt>
      <trkpt lat="47.7757" lon="7.09528">
        <ele>361</ele>
        <time>2021-02-26T09:50:46Z</time>
      </trkpt>
      <trkpt lat="47.77565" lon="7.09522">
        <ele>361</ele>
        <time>2021-02-26T09:50:46Z</time>
      </trkpt>
      <trkpt lat="47.7756" lon="7.09516">
        <ele>362</ele>
        <time>2021-02-26T09:50:46Z</time>
      </trkpt>
      <trkpt lat="47.77555" lon="7.0951">
        <ele>362</ele>
        <time>2021-02-26T09:50:46Z</time>
      </trkpt>
      <trkpt lat="47.77551" lon="7.09504">
        <ele>363</ele>
        <time>2021-02-26T09:50:46Z</time>
      </trkpt>
      <trkpt lat="47.77546" lon="7.09498">
        <ele>363</ele>
        <time>2021-02-26T09:50:46Z</time>
      </trkpt>
      <trkpt lat="47.77541" lon="7.09491">
        <ele>364</ele>
        <time>2021-02-26T09:50:46Z</time>
      </trkpt>
      <trkpt lat="47.77536" lon="7.09485">
        <ele>364</ele>
        <time>2021-02-26T09:50:46Z</time>
      </trkpt>
      <trkpt lat="47.77531" lon="7.09479">
        <ele>365</ele>
        <time>2021-02-26T09:50:46Z</time>
      </trkpt>
      <trkpt lat="47.77527" lon="7.09473">
        <ele>365</ele>
        <time>2021-02-26T09:50:46Z</time>
      </trkpt>
      <trkpt lat="47.77523" lon="7.09466">
        <ele>366</ele>
        <time>2021-02-26T09:50:46Z</time>
      </trkpt>
      <trkpt lat="47.77518" lon="7.0946">
        <ele>366</ele>
        <time>2021-02-26T09:50:46Z</time>
      </trkpt>
      <trkpt lat="47.77514" lon="7.09454">
        <ele>367</ele>
        <time>2021-02-26T09:50:46Z</time>
      </trkpt>
      <trkpt lat="47.77514" lon="7.09454">
        <ele>367</ele>
        <time>2021-02-26T09:50:46Z</time>
      </trkpt>
      <trkpt lat="47.77505" lon="7.09443">
        <ele>368</ele>
        <time>2021-02-26T09:50:46Z</time>
      </trkpt>
      <trkpt lat="47.77505" lon="7.09443">
        <ele>368</ele>
        <time>2021-02-26T09:50:46Z</time>
      </trkpt>
      <trkpt lat="47.77501" lon="7.09438">
        <ele>368</ele>
        <time>2021-02-26T09:50:46Z</time>
      </trkpt>
      <trkpt lat="47.77496" lon="7.09432">
        <ele>369</ele>
        <time>2021-02-26T09:50:46Z</time>
      </trkpt>
      <trkpt lat="47.77492" lon="7.09426">
        <ele>369</ele>
        <time>2021-02-26T09:50:46Z</time>
      </trkpt>
      <trkpt lat="47.77488" lon="7.09421">
        <ele>369</ele>
        <time>2021-02-26T09:50:46Z</time>
      </trkpt>
      <trkpt lat="47.77483" lon="7.09416">
        <ele>370</ele>
        <time>2021-02-26T09:50:46Z</time>
      </trkpt>
      <trkpt lat="47.77474" lon="7.09407">
        <ele>370</ele>
        <time>2021-02-26T09:50:46Z</time>
      </trkpt>
      <trkpt lat="47.77474" lon="7.09407">
        <ele>370</ele>
        <time>2021-02-26T09:50:46Z</time>
      </trkpt>
      <trkpt lat="47.77465" lon="7.09397">
        <ele>371</ele>
        <time>2021-02-26T09:50:46Z</time>
      </trkpt>
      <trkpt lat="47.77465" lon="7.09397">
        <ele>371</ele>
        <time>2021-02-26T09:50:46Z</time>
      </trkpt>
      <trkpt lat="47.77455" lon="7.09387">
        <ele>372</ele>
        <time>2021-02-26T09:50:46Z</time>
      </trkpt>
      <trkpt lat="47.77455" lon="7.09387">
        <ele>372</ele>
        <time>2021-02-26T09:50:46Z</time>
      </trkpt>
      <trkpt lat="47.77446" lon="7.09378">
        <ele>373</ele>
        <time>2021-02-26T09:50:46Z</time>
      </trkpt>
      <trkpt lat="47.77446" lon="7.09378">
        <ele>373</ele>
        <time>2021-02-26T09:50:46Z</time>
      </trkpt>
      <trkpt lat="47.77436" lon="7.0937">
        <ele>374</ele>
        <time>2021-02-26T09:50:46Z</time>
      </trkpt>
      <trkpt lat="47.77436" lon="7.0937">
        <ele>374</ele>
        <time>2021-02-26T09:50:46Z</time>
      </trkpt>
      <trkpt lat="47.77427" lon="7.09362">
        <ele>375</ele>
        <time>2021-02-26T09:50:46Z</time>
      </trkpt>
      <trkpt lat="47.77427" lon="7.09362">
        <ele>375</ele>
        <time>2021-02-26T09:50:46Z</time>
      </trkpt>
      <trkpt lat="47.77417" lon="7.09356">
        <ele>376</ele>
        <time>2021-02-26T09:50:46Z</time>
      </trkpt>
      <trkpt lat="47.77417" lon="7.09356">
        <ele>376</ele>
        <time>2021-02-26T09:50:46Z</time>
      </trkpt>
      <trkpt lat="47.77408" lon="7.09347">
        <ele>377</ele>
        <time>2021-02-26T09:50:46Z</time>
      </trkpt>
      <trkpt lat="47.77408" lon="7.09347">
        <ele>377</ele>
        <time>2021-02-26T09:50:46Z</time>
      </trkpt>
      <trkpt lat="47.77399" lon="7.0934">
        <ele>378</ele>
        <time>2021-02-26T09:50:46Z</time>
      </trkpt>
      <trkpt lat="47.77399" lon="7.0934">
        <ele>378</ele>
        <time>2021-02-26T09:50:46Z</time>
      </trkpt>
      <trkpt lat="47.77391" lon="7.09334">
        <ele>379</ele>
        <time>2021-02-26T09:50:46Z</time>
      </trkpt>
      <trkpt lat="47.77391" lon="7.09334">
        <ele>379</ele>
        <time>2021-02-26T09:50:46Z</time>
      </trkpt>
      <trkpt lat="47.77383" lon="7.09328">
        <ele>380</ele>
        <time>2021-02-26T09:50:46Z</time>
      </trkpt>
      <trkpt lat="47.77383" lon="7.09328">
        <ele>380</ele>
        <time>2021-02-26T09:50:46Z</time>
      </trkpt>
      <trkpt lat="47.77374" lon="7.09323">
        <ele>381</ele>
        <time>2021-02-26T09:50:46Z</time>
      </trkpt>
      <trkpt lat="47.77374" lon="7.09323">
        <ele>381</ele>
        <time>2021-02-26T09:50:46Z</time>
      </trkpt>
      <trkpt lat="47.77366" lon="7.0932">
        <ele>382</ele>
        <time>2021-02-26T09:50:46Z</time>
      </trkpt>
      <trkpt lat="47.77366" lon="7.0932">
        <ele>382</ele>
        <time>2021-02-26T09:50:46Z</time>
      </trkpt>
      <trkpt lat="47.77357" lon="7.09318">
        <ele>383</ele>
        <time>2021-02-26T09:50:46Z</time>
      </trkpt>
      <trkpt lat="47.77357" lon="7.09318">
        <ele>383</ele>
        <time>2021-02-26T09:50:46Z</time>
      </trkpt>
      <trkpt lat="47.77348" lon="7.0932">
        <ele>384</ele>
        <time>2021-02-26T09:50:46Z</time>
      </trkpt>
      <trkpt lat="47.77348" lon="7.0932">
        <ele>384</ele>
        <time>2021-02-26T09:50:46Z</time>
      </trkpt>
      <trkpt lat="47.77339" lon="7.09323">
        <ele>385</ele>
        <time>2021-02-26T09:50:46Z</time>
      </trkpt>
      <trkpt lat="47.77329" lon="7.09328">
        <ele>385</ele>
        <time>2021-02-26T09:50:46Z</time>
      </trkpt>
      <trkpt lat="47.7732" lon="7.09333">
        <ele>386</ele>
        <time>2021-02-26T09:50:46Z</time>
      </trkpt>
      <trkpt lat="47.77309" lon="7.09338">
        <ele>387</ele>
        <time>2021-02-26T09:50:46Z</time>
      </trkpt>
      <trkpt lat="47.77299" lon="7.09344">
        <ele>387</ele>
        <time>2021-02-26T09:50:46Z</time>
      </trkpt>
      <trkpt lat="47.77289" lon="7.0935">
        <ele>387</ele>
        <time>2021-02-26T09:50:46Z</time>
      </trkpt>
      <trkpt lat="47.77284" lon="7.09353">
        <ele>388</ele>
        <time>2021-02-26T09:50:46Z</time>
      </trkpt>
      <trkpt lat="47.77274" lon="7.09359">
        <ele>388</ele>
        <time>2021-02-26T09:50:46Z</time>
      </trkpt>
      <trkpt lat="47.77264" lon="7.09365">
        <ele>388</ele>
        <time>2021-02-26T09:50:46Z</time>
      </trkpt>
      <trkpt lat="47.77255" lon="7.09371">
        <ele>389</ele>
        <time>2021-02-26T09:50:46Z</time>
      </trkpt>
      <trkpt lat="47.77255" lon="7.09371">
        <ele>389</ele>
        <time>2021-02-26T09:50:46Z</time>
      </trkpt>
      <trkpt lat="47.77245" lon="7.09376">
        <ele>389</ele>
        <time>2021-02-26T09:50:46Z</time>
      </trkpt>
      <trkpt lat="47.77245" lon="7.09376">
        <ele>389</ele>
        <time>2021-02-26T09:50:46Z</time>
      </trkpt>
      <trkpt lat="47.77236" lon="7.09381">
        <ele>390</ele>
        <time>2021-02-26T09:50:46Z</time>
      </trkpt>
      <trkpt lat="47.77236" lon="7.09381">
        <ele>390</ele>
        <time>2021-02-26T09:50:46Z</time>
      </trkpt>
      <trkpt lat="47.77227" lon="7.09385">
        <ele>390</ele>
        <time>2021-02-26T09:50:46Z</time>
      </trkpt>
      <trkpt lat="47.77227" lon="7.09385">
        <ele>390</ele>
        <time>2021-02-26T09:50:46Z</time>
      </trkpt>
      <trkpt lat="47.77218" lon="7.09387">
        <ele>391</ele>
        <time>2021-02-26T09:50:46Z</time>
      </trkpt>
      <trkpt lat="47.77218" lon="7.09387">
        <ele>391</ele>
        <time>2021-02-26T09:50:46Z</time>
      </trkpt>
      <trkpt lat="47.77208" lon="7.09387">
        <ele>392</ele>
        <time>2021-02-26T09:50:46Z</time>
      </trkpt>
      <trkpt lat="47.77208" lon="7.09387">
        <ele>392</ele>
        <time>2021-02-26T09:50:46Z</time>
      </trkpt>
      <trkpt lat="47.77199" lon="7.09386">
        <ele>393</ele>
        <time>2021-02-26T09:50:46Z</time>
      </trkpt>
      <trkpt lat="47.77199" lon="7.09386">
        <ele>393</ele>
        <time>2021-02-26T09:50:46Z</time>
      </trkpt>
      <trkpt lat="47.77195" lon="7.09384">
        <ele>393</ele>
        <time>2021-02-26T09:50:46Z</time>
      </trkpt>
      <trkpt lat="47.7719" lon="7.09382">
        <ele>394</ele>
        <time>2021-02-26T09:50:46Z</time>
      </trkpt>
      <trkpt lat="47.77185" lon="7.09381">
        <ele>394</ele>
        <time>2021-02-26T09:50:46Z</time>
      </trkpt>
      <trkpt lat="47.77181" lon="7.09379">
        <ele>395</ele>
        <time>2021-02-26T09:50:46Z</time>
      </trkpt>
      <trkpt lat="47.77177" lon="7.09378">
        <ele>395</ele>
        <time>2021-02-26T09:50:46Z</time>
      </trkpt>
      <trkpt lat="47.77167" lon="7.09376">
        <ele>396</ele>
        <time>2021-02-26T09:50:46Z</time>
      </trkpt>
      <trkpt lat="47.77158" lon="7.09376">
        <ele>397</ele>
        <time>2021-02-26T09:50:46Z</time>
      </trkpt>
      <trkpt lat="47.77158" lon="7.09376">
        <ele>397</ele>
        <time>2021-02-26T09:50:46Z</time>
      </trkpt>
      <trkpt lat="47.77148" lon="7.09376">
        <ele>398</ele>
        <time>2021-02-26T09:50:46Z</time>
      </trkpt>
      <trkpt lat="47.77139" lon="7.09376">
        <ele>399</ele>
        <time>2021-02-26T09:50:46Z</time>
      </trkpt>
      <trkpt lat="47.77129" lon="7.09377">
        <ele>400</ele>
        <time>2021-02-26T09:50:46Z</time>
      </trkpt>
      <trkpt lat="47.7712" lon="7.09378">
        <ele>401</ele>
        <time>2021-02-26T09:50:46Z</time>
      </trkpt>
      <trkpt lat="47.7712" lon="7.09378">
        <ele>401</ele>
        <time>2021-02-26T09:50:46Z</time>
      </trkpt>
      <trkpt lat="47.77111" lon="7.09377">
        <ele>402</ele>
        <time>2021-02-26T09:50:46Z</time>
      </trkpt>
      <trkpt lat="47.77111" lon="7.09377">
        <ele>402</ele>
        <time>2021-02-26T09:50:46Z</time>
      </trkpt>
      <trkpt lat="47.77102" lon="7.09377">
        <ele>403</ele>
        <time>2021-02-26T09:50:46Z</time>
      </trkpt>
      <trkpt lat="47.77102" lon="7.09377">
        <ele>403</ele>
        <time>2021-02-26T09:50:46Z</time>
      </trkpt>
      <trkpt lat="47.77093" lon="7.09377">
        <ele>404</ele>
        <time>2021-02-26T09:50:46Z</time>
      </trkpt>
      <trkpt lat="47.77093" lon="7.09377">
        <ele>404</ele>
        <time>2021-02-26T09:50:46Z</time>
      </trkpt>
      <trkpt lat="47.77084" lon="7.09377">
        <ele>405</ele>
        <time>2021-02-26T09:50:46Z</time>
      </trkpt>
      <trkpt lat="47.77084" lon="7.09377">
        <ele>405</ele>
        <time>2021-02-26T09:50:46Z</time>
      </trkpt>
      <trkpt lat="47.77076" lon="7.09376">
        <ele>406</ele>
        <time>2021-02-26T09:50:46Z</time>
      </trkpt>
      <trkpt lat="47.77076" lon="7.09376">
        <ele>406</ele>
        <time>2021-02-26T09:50:46Z</time>
      </trkpt>
      <trkpt lat="47.77068" lon="7.09374">
        <ele>407</ele>
        <time>2021-02-26T09:50:46Z</time>
      </trkpt>
      <trkpt lat="47.77068" lon="7.09374">
        <ele>407</ele>
        <time>2021-02-26T09:50:46Z</time>
      </trkpt>
      <trkpt lat="47.77059" lon="7.09372">
        <ele>408</ele>
        <time>2021-02-26T09:50:46Z</time>
      </trkpt>
      <trkpt lat="47.77059" lon="7.09372">
        <ele>408</ele>
        <time>2021-02-26T09:50:46Z</time>
      </trkpt>
      <trkpt lat="47.77051" lon="7.0937">
        <ele>409</ele>
        <time>2021-02-26T09:50:46Z</time>
      </trkpt>
      <trkpt lat="47.77051" lon="7.0937">
        <ele>409</ele>
        <time>2021-02-26T09:50:46Z</time>
      </trkpt>
      <trkpt lat="47.77042" lon="7.09367">
        <ele>410</ele>
        <time>2021-02-26T09:50:46Z</time>
      </trkpt>
      <trkpt lat="47.77042" lon="7.09367">
        <ele>410</ele>
        <time>2021-02-26T09:50:46Z</time>
      </trkpt>
      <trkpt lat="47.77034" lon="7.09365">
        <ele>411</ele>
        <time>2021-02-26T09:50:46Z</time>
      </trkpt>
      <trkpt lat="47.77034" lon="7.09365">
        <ele>411</ele>
        <time>2021-02-26T09:50:46Z</time>
      </trkpt>
      <trkpt lat="47.77025" lon="7.09363">
        <ele>412</ele>
        <time>2021-02-26T09:50:46Z</time>
      </trkpt>
      <trkpt lat="47.77016" lon="7.09362">
        <ele>413</ele>
        <time>2021-02-26T09:50:46Z</time>
      </trkpt>
      <trkpt lat="47.77007" lon="7.09363">
        <ele>413</ele>
        <time>2021-02-26T09:50:46Z</time>
      </trkpt>
      <trkpt lat="47.77" lon="7.09363">
        <ele>414</ele>
        <time>2021-02-26T09:50:46Z</time>
      </trkpt>
      <trkpt lat="47.76993" lon="7.09362">
        <ele>413</ele>
        <time>2021-02-26T09:50:46Z</time>
      </trkpt>
      <trkpt lat="47.76985" lon="7.0936">
        <ele>413</ele>
        <time>2021-02-26T09:50:46Z</time>
      </trkpt>
      <trkpt lat="47.76976" lon="7.09356">
        <ele>412</ele>
        <time>2021-02-26T09:50:46Z</time>
      </trkpt>
      <trkpt lat="47.76963" lon="7.09352">
        <ele>411</ele>
        <time>2021-02-26T09:50:46Z</time>
      </trkpt>
      <trkpt lat="47.76952" lon="7.09348">
        <ele>410</ele>
        <time>2021-02-26T09:50:46Z</time>
      </trkpt>
      <trkpt lat="47.76939" lon="7.09345">
        <ele>409</ele>
        <time>2021-02-26T09:50:46Z</time>
      </trkpt>
      <trkpt lat="47.76925" lon="7.0934">
        <ele>408</ele>
        <time>2021-02-26T09:50:46Z</time>
      </trkpt>
      <trkpt lat="47.76909" lon="7.09331">
        <ele>406</ele>
        <time>2021-02-26T09:50:46Z</time>
      </trkpt>
      <trkpt lat="47.76894" lon="7.09316">
        <ele>404</ele>
        <time>2021-02-26T09:50:46Z</time>
      </trkpt>
      <trkpt lat="47.76882" lon="7.09297">
        <ele>402</ele>
        <time>2021-02-26T09:50:46Z</time>
      </trkpt>
      <trkpt lat="47.76874" lon="7.09273">
        <ele>402</ele>
        <time>2021-02-26T09:50:46Z</time>
      </trkpt>
      <trkpt lat="47.7687" lon="7.09245">
        <ele>402</ele>
        <time>2021-02-26T09:50:46Z</time>
      </trkpt>
      <trkpt lat="47.76865" lon="7.09215">
        <ele>400</ele>
        <time>2021-02-26T09:50:46Z</time>
      </trkpt>
      <trkpt lat="47.76867" lon="7.09186">
        <ele>400</ele>
        <time>2021-02-26T09:50:46Z</time>
      </trkpt>
      <trkpt lat="47.76869" lon="7.09155">
        <ele>400</ele>
        <time>2021-02-26T09:50:46Z</time>
      </trkpt>
      <trkpt lat="47.76873" lon="7.09125">
        <ele>399</ele>
        <time>2021-02-26T09:50:46Z</time>
      </trkpt>
      <trkpt lat="47.76877" lon="7.09095">
        <ele>399</ele>
        <time>2021-02-26T09:50:46Z</time>
      </trkpt>
      <trkpt lat="47.7688" lon="7.09068">
        <ele>400</ele>
        <time>2021-02-26T09:50:46Z</time>
      </trkpt>
      <trkpt lat="47.76877" lon="7.09043">
        <ele>400</ele>
        <time>2021-02-26T09:50:46Z</time>
      </trkpt>
      <trkpt lat="47.76864" lon="7.09022">
        <ele>400</ele>
        <time>2021-02-26T09:50:46Z</time>
      </trkpt>
      <trkpt lat="47.76844" lon="7.09023">
        <ele>398</ele>
        <time>2021-02-26T09:50:46Z</time>
      </trkpt>
      <trkpt lat="47.76827" lon="7.09026">
        <ele>396</ele>
        <time>2021-02-26T09:50:46Z</time>
      </trkpt>
      <trkpt lat="47.76814" lon="7.09039">
        <ele>395</ele>
        <time>2021-02-26T09:50:46Z</time>
      </trkpt>
      <trkpt lat="47.76803" lon="7.09053">
        <ele>395</ele>
        <time>2021-02-26T09:50:46Z</time>
      </trkpt>
      <trkpt lat="47.76791" lon="7.09067">
        <ele>394</ele>
        <time>2021-02-26T09:50:46Z</time>
      </trkpt>
      <trkpt lat="47.7678" lon="7.09083">
        <ele>393</ele>
        <time>2021-02-26T09:50:46Z</time>
      </trkpt>
      <trkpt lat="47.76771" lon="7.09101">
        <ele>394</ele>
        <time>2021-02-26T09:50:46Z</time>
      </trkpt>
      <trkpt lat="47.76764" lon="7.09121">
        <ele>394</ele>
        <time>2021-02-26T09:50:46Z</time>
      </trkpt>
      <trkpt lat="47.76758" lon="7.09141">
        <ele>394</ele>
        <time>2021-02-26T09:50:46Z</time>
      </trkpt>
      <trkpt lat="47.76751" lon="7.09161">
        <ele>394</ele>
        <time>2021-02-26T09:50:46Z</time>
      </trkpt>
      <trkpt lat="47.76745" lon="7.09181">
        <ele>394</ele>
        <time>2021-02-26T09:50:46Z</time>
      </trkpt>
      <trkpt lat="47.76739" lon="7.09202">
        <ele>394</ele>
        <time>2021-02-26T09:50:46Z</time>
      </trkpt>
      <trkpt lat="47.76733" lon="7.09223">
        <ele>394</ele>
        <time>2021-02-26T09:50:46Z</time>
      </trkpt>
      <trkpt lat="47.76728" lon="7.09244">
        <ele>394</ele>
        <time>2021-02-26T09:50:46Z</time>
      </trkpt>
      <trkpt lat="47.76722" lon="7.09265">
        <ele>394</ele>
        <time>2021-02-26T09:50:46Z</time>
      </trkpt>
      <trkpt lat="47.76716" lon="7.09284">
        <ele>394</ele>
        <time>2021-02-26T09:50:46Z</time>
      </trkpt>
      <trkpt lat="47.7671" lon="7.09302">
        <ele>394</ele>
        <time>2021-02-26T09:50:46Z</time>
      </trkpt>
      <trkpt lat="47.76705" lon="7.09321">
        <ele>394</ele>
        <time>2021-02-26T09:50:46Z</time>
      </trkpt>
      <trkpt lat="47.76699" lon="7.09334">
        <ele>395</ele>
        <time>2021-02-26T09:50:46Z</time>
      </trkpt>
      <trkpt lat="47.76694" lon="7.09346">
        <ele>396</ele>
        <time>2021-02-26T09:50:46Z</time>
      </trkpt>
      <trkpt lat="47.76686" lon="7.09357">
        <ele>397</ele>
        <time>2021-02-26T09:50:46Z</time>
      </trkpt>
      <trkpt lat="47.76678" lon="7.09363">
        <ele>399</ele>
        <time>2021-02-26T09:50:46Z</time>
      </trkpt>
      <trkpt lat="47.76668" lon="7.09367">
        <ele>401</ele>
        <time>2021-02-26T09:50:46Z</time>
      </trkpt>
      <trkpt lat="47.76659" lon="7.09371">
        <ele>401</ele>
        <time>2021-02-26T09:50:46Z</time>
      </trkpt>
      <trkpt lat="47.7665" lon="7.09373">
        <ele>401</ele>
        <time>2021-02-26T09:50:46Z</time>
      </trkpt>
      <trkpt lat="47.76642" lon="7.09375">
        <ele>401</ele>
        <time>2021-02-26T09:50:46Z</time>
      </trkpt>
      <trkpt lat="47.76634" lon="7.09376">
        <ele>402</ele>
        <time>2021-02-26T09:50:46Z</time>
      </trkpt>
      <trkpt lat="47.76625" lon="7.09373">
        <ele>402</ele>
        <time>2021-02-26T09:50:46Z</time>
      </trkpt>
      <trkpt lat="47.76618" lon="7.09369">
        <ele>402</ele>
        <time>2021-02-26T09:50:46Z</time>
      </trkpt>
      <trkpt lat="47.7661" lon="7.09365">
        <ele>402</ele>
        <time>2021-02-26T09:50:46Z</time>
      </trkpt>
      <trkpt lat="47.76602" lon="7.09361">
        <ele>402</ele>
        <time>2021-02-26T09:50:46Z</time>
      </trkpt>
      <trkpt lat="47.76593" lon="7.09358">
        <ele>402</ele>
        <time>2021-02-26T09:50:46Z</time>
      </trkpt>
      <trkpt lat="47.76581" lon="7.09351">
        <ele>402</ele>
        <time>2021-02-26T09:50:46Z</time>
      </trkpt>
      <trkpt lat="47.76567" lon="7.09343">
        <ele>401</ele>
        <time>2021-02-26T09:50:46Z</time>
      </trkpt>
      <trkpt lat="47.76553" lon="7.09337">
        <ele>401</ele>
        <time>2021-02-26T09:50:46Z</time>
      </trkpt>
      <trkpt lat="47.76537" lon="7.09327">
        <ele>400</ele>
        <time>2021-02-26T09:50:46Z</time>
      </trkpt>
      <trkpt lat="47.76521" lon="7.09318">
        <ele>398</ele>
        <time>2021-02-26T09:50:46Z</time>
      </trkpt>
      <trkpt lat="47.76503" lon="7.09308">
        <ele>397</ele>
        <time>2021-02-26T09:50:46Z</time>
      </trkpt>
      <trkpt lat="47.76484" lon="7.09297">
        <ele>394</ele>
        <time>2021-02-26T09:50:46Z</time>
      </trkpt>
      <trkpt lat="47.76463" lon="7.09285">
        <ele>391</ele>
        <time>2021-02-26T09:50:46Z</time>
      </trkpt>
      <trkpt lat="47.76441" lon="7.09274">
        <ele>389</ele>
        <time>2021-02-26T09:50:46Z</time>
      </trkpt>
      <trkpt lat="47.76422" lon="7.09263">
        <ele>387</ele>
        <time>2021-02-26T09:50:46Z</time>
      </trkpt>
      <trkpt lat="47.76402" lon="7.09255">
        <ele>384</ele>
        <time>2021-02-26T09:50:46Z</time>
      </trkpt>
      <trkpt lat="47.76382" lon="7.09245">
        <ele>381</ele>
        <time>2021-02-26T09:50:46Z</time>
      </trkpt>
      <trkpt lat="47.76363" lon="7.09234">
        <ele>378</ele>
        <time>2021-02-26T09:50:46Z</time>
      </trkpt>
      <trkpt lat="47.76345" lon="7.09218">
        <ele>375</ele>
        <time>2021-02-26T09:50:46Z</time>
      </trkpt>
      <trkpt lat="47.76334" lon="7.09192">
        <ele>374</ele>
        <time>2021-02-26T09:50:46Z</time>
      </trkpt>
      <trkpt lat="47.7633" lon="7.0916">
        <ele>373</ele>
        <time>2021-02-26T09:50:46Z</time>
      </trkpt>
      <trkpt lat="47.7633" lon="7.09129">
        <ele>371</ele>
        <time>2021-02-26T09:50:46Z</time>
      </trkpt>
      <trkpt lat="47.76332" lon="7.09097">
        <ele>369</ele>
        <time>2021-02-26T09:50:46Z</time>
      </trkpt>
      <trkpt lat="47.76337" lon="7.09067">
        <ele>368</ele>
        <time>2021-02-26T09:50:46Z</time>
      </trkpt>
      <trkpt lat="47.76342" lon="7.09035">
        <ele>368</ele>
        <time>2021-02-26T09:50:46Z</time>
      </trkpt>
      <trkpt lat="47.76342" lon="7.09006">
        <ele>367</ele>
        <time>2021-02-26T09:50:46Z</time>
      </trkpt>
      <trkpt lat="47.76336" lon="7.0898">
        <ele>366</ele>
        <time>2021-02-26T09:50:46Z</time>
      </trkpt>
      <trkpt lat="47.7632" lon="7.08963">
        <ele>368</ele>
        <time>2021-02-26T09:50:46Z</time>
      </trkpt>
      <trkpt lat="47.76302" lon="7.08953">
        <ele>371</ele>
        <time>2021-02-26T09:50:46Z</time>
      </trkpt>
      <trkpt lat="47.76284" lon="7.08945">
        <ele>375</ele>
        <time>2021-02-26T09:50:46Z</time>
      </trkpt>
      <trkpt lat="47.76266" lon="7.08945">
        <ele>378</ele>
        <time>2021-02-26T09:50:46Z</time>
      </trkpt>
      <trkpt lat="47.76254" lon="7.08963">
        <ele>379</ele>
        <time>2021-02-26T09:50:46Z</time>
      </trkpt>
      <trkpt lat="47.76251" lon="7.08986">
        <ele>377</ele>
        <time>2021-02-26T09:50:46Z</time>
      </trkpt>
      <trkpt lat="47.76248" lon="7.09007">
        <ele>376</ele>
        <time>2021-02-26T09:50:46Z</time>
      </trkpt>
      <trkpt lat="47.76243" lon="7.09027">
        <ele>374</ele>
        <time>2021-02-26T09:50:46Z</time>
      </trkpt>
      <trkpt lat="47.76238" lon="7.09046">
        <ele>373</ele>
        <time>2021-02-26T09:50:46Z</time>
      </trkpt>
      <trkpt lat="47.76228" lon="7.0906">
        <ele>373</ele>
        <time>2021-02-26T09:50:46Z</time>
      </trkpt>
      <trkpt lat="47.76214" lon="7.09061">
        <ele>375</ele>
        <time>2021-02-26T09:50:46Z</time>
      </trkpt>
      <trkpt lat="47.762" lon="7.09058">
        <ele>377</ele>
        <time>2021-02-26T09:50:46Z</time>
      </trkpt>
      <trkpt lat="47.76187" lon="7.09055">
        <ele>379</ele>
        <time>2021-02-26T09:50:46Z</time>
      </trkpt>
      <trkpt lat="47.76174" lon="7.09051">
        <ele>381</ele>
        <time>2021-02-26T09:50:46Z</time>
      </trkpt>
      <trkpt lat="47.76162" lon="7.09049">
        <ele>382</ele>
        <time>2021-02-26T09:50:46Z</time>
      </trkpt>
      <trkpt lat="47.76152" lon="7.09046">
        <ele>384</ele>
        <time>2021-02-26T09:50:46Z</time>
      </trkpt>
      <trkpt lat="47.7614" lon="7.09051">
        <ele>384</ele>
        <time>2021-02-26T09:50:46Z</time>
      </trkpt>
      <trkpt lat="47.7613" lon="7.09059">
        <ele>385</ele>
        <time>2021-02-26T09:50:46Z</time>
      </trkpt>
      <trkpt lat="47.76126" lon="7.09069">
        <ele>384</ele>
        <time>2021-02-26T09:50:46Z</time>
      </trkpt>
      <trkpt lat="47.76121" lon="7.09082">
        <ele>384</ele>
        <time>2021-02-26T09:50:46Z</time>
      </trkpt>
      <trkpt lat="47.76118" lon="7.09094">
        <ele>384</ele>
        <time>2021-02-26T09:50:46Z</time>
      </trkpt>
      <trkpt lat="47.76117" lon="7.09104">
        <ele>384</ele>
        <time>2021-02-26T09:50:46Z</time>
      </trkpt>
      <trkpt lat="47.76115" lon="7.09114">
        <ele>384</ele>
        <time>2021-02-26T09:50:46Z</time>
      </trkpt>
      <trkpt lat="47.76113" lon="7.09125">
        <ele>384</ele>
        <time>2021-02-26T09:50:46Z</time>
      </trkpt>
      <trkpt lat="47.76112" lon="7.09135">
        <ele>384</ele>
        <time>2021-02-26T09:50:46Z</time>
      </trkpt>
      <trkpt lat="47.7611" lon="7.09144">
        <ele>384</ele>
        <time>2021-02-26T09:50:46Z</time>
      </trkpt>
      <trkpt lat="47.76107" lon="7.09153">
        <ele>384</ele>
        <time>2021-02-26T09:50:46Z</time>
      </trkpt>
      <trkpt lat="47.76105" lon="7.09163">
        <ele>384</ele>
        <time>2021-02-26T09:50:46Z</time>
      </trkpt>
      <trkpt lat="47.76103" lon="7.09173">
        <ele>384</ele>
        <time>2021-02-26T09:50:46Z</time>
      </trkpt>
      <trkpt lat="47.76101" lon="7.09182">
        <ele>383</ele>
        <time>2021-02-26T09:50:46Z</time>
      </trkpt>
      <trkpt lat="47.76096" lon="7.09191">
        <ele>384</ele>
        <time>2021-02-26T09:50:46Z</time>
      </trkpt>
      <trkpt lat="47.76089" lon="7.09197">
        <ele>384</ele>
        <time>2021-02-26T09:50:46Z</time>
      </trkpt>
      <trkpt lat="47.76081" lon="7.09198">
        <ele>385</ele>
        <time>2021-02-26T09:50:46Z</time>
      </trkpt>
      <trkpt lat="47.76075" lon="7.09195">
        <ele>384</ele>
        <time>2021-02-26T09:50:46Z</time>
      </trkpt>
      <trkpt lat="47.76075" lon="7.09195">
        <ele>384</ele>
        <time>2021-02-26T09:50:46Z</time>
      </trkpt>
      <trkpt lat="47.76068" lon="7.09191">
        <ele>384</ele>
        <time>2021-02-26T09:50:46Z</time>
      </trkpt>
      <trkpt lat="47.76068" lon="7.09191">
        <ele>384</ele>
        <time>2021-02-26T09:50:46Z</time>
      </trkpt>
      <trkpt lat="47.76067" lon="7.09204">
        <ele>384</ele>
        <time>2021-02-26T09:50:46Z</time>
      </trkpt>
      <trkpt lat="47.76067" lon="7.09223">
        <ele>383</ele>
        <time>2021-02-26T09:50:46Z</time>
      </trkpt>
      <trkpt lat="47.76065" lon="7.09233">
        <ele>383</ele>
        <time>2021-02-26T09:50:46Z</time>
      </trkpt>
      <trkpt lat="47.76062" lon="7.09243">
        <ele>382</ele>
        <time>2021-02-26T09:50:46Z</time>
      </trkpt>
      <trkpt lat="47.76059" lon="7.09254">
        <ele>382</ele>
        <time>2021-02-26T09:50:46Z</time>
      </trkpt>
      <trkpt lat="47.76057" lon="7.09264">
        <ele>382</ele>
        <time>2021-02-26T09:50:46Z</time>
      </trkpt>
      <trkpt lat="47.76053" lon="7.09273">
        <ele>382</ele>
        <time>2021-02-26T09:50:46Z</time>
      </trkpt>
      <trkpt lat="47.7605" lon="7.09283">
        <ele>383</ele>
        <time>2021-02-26T09:50:46Z</time>
      </trkpt>
      <trkpt lat="47.76047" lon="7.09292">
        <ele>383</ele>
        <time>2021-02-26T09:50:46Z</time>
      </trkpt>
      <trkpt lat="47.76045" lon="7.09301">
        <ele>383</ele>
        <time>2021-02-26T09:50:46Z</time>
      </trkpt>
      <trkpt lat="47.76044" lon="7.09311">
        <ele>383</ele>
        <time>2021-02-26T09:50:46Z</time>
      </trkpt>
      <trkpt lat="47.76041" lon="7.0932">
        <ele>384</ele>
        <time>2021-02-26T09:50:46Z</time>
      </trkpt>
      <trkpt lat="47.76038" lon="7.0933">
        <ele>384</ele>
        <time>2021-02-26T09:50:46Z</time>
      </trkpt>
      <trkpt lat="47.76035" lon="7.09339">
        <ele>384</ele>
        <time>2021-02-26T09:50:46Z</time>
      </trkpt>
      <trkpt lat="47.76031" lon="7.09348">
        <ele>384</ele>
        <time>2021-02-26T09:50:46Z</time>
      </trkpt>
      <trkpt lat="47.76027" lon="7.09358">
        <ele>384</ele>
        <time>2021-02-26T09:50:46Z</time>
      </trkpt>
      <trkpt lat="47.76024" lon="7.09367">
        <ele>384</ele>
        <time>2021-02-26T09:50:46Z</time>
      </trkpt>
      <trkpt lat="47.7602" lon="7.09377">
        <ele>384</ele>
        <time>2021-02-26T09:50:46Z</time>
      </trkpt>
      <trkpt lat="47.76018" lon="7.09391">
        <ele>383</ele>
        <time>2021-02-26T09:50:46Z</time>
      </trkpt>
      <trkpt lat="47.76015" lon="7.09407">
        <ele>383</ele>
        <time>2021-02-26T09:50:46Z</time>
      </trkpt>
      <trkpt lat="47.76013" lon="7.09421">
        <ele>383</ele>
        <time>2021-02-26T09:50:46Z</time>
      </trkpt>
      <trkpt lat="47.76009" lon="7.09435">
        <ele>382</ele>
        <time>2021-02-26T09:50:46Z</time>
      </trkpt>
      <trkpt lat="47.76006" lon="7.09451">
        <ele>382</ele>
        <time>2021-02-26T09:50:46Z</time>
      </trkpt>
      <trkpt lat="47.76004" lon="7.09468">
        <ele>382</ele>
        <time>2021-02-26T09:50:46Z</time>
      </trkpt>
      <trkpt lat="47.76001" lon="7.09486">
        <ele>381</ele>
        <time>2021-02-26T09:50:46Z</time>
      </trkpt>
      <trkpt lat="47.75998" lon="7.09506">
        <ele>381</ele>
        <time>2021-02-26T09:50:46Z</time>
      </trkpt>
      <trkpt lat="47.75995" lon="7.09526">
        <ele>381</ele>
        <time>2021-02-26T09:50:46Z</time>
      </trkpt>
      <trkpt lat="47.75993" lon="7.09547">
        <ele>381</ele>
        <time>2021-02-26T09:50:46Z</time>
      </trkpt>
      <trkpt lat="47.7599" lon="7.09567">
        <ele>381</ele>
        <time>2021-02-26T09:50:46Z</time>
      </trkpt>
      <trkpt lat="47.75988" lon="7.09587">
        <ele>381</ele>
        <time>2021-02-26T09:50:46Z</time>
      </trkpt>
      <trkpt lat="47.75984" lon="7.09608">
        <ele>380</ele>
        <time>2021-02-26T09:50:46Z</time>
      </trkpt>
      <trkpt lat="47.75983" lon="7.09629">
        <ele>379</ele>
        <time>2021-02-26T09:50:46Z</time>
      </trkpt>
      <trkpt lat="47.7598" lon="7.09651">
        <ele>377</ele>
        <time>2021-02-26T09:50:46Z</time>
      </trkpt>
      <trkpt lat="47.75977" lon="7.09675">
        <ele>376</ele>
        <time>2021-02-26T09:50:46Z</time>
      </trkpt>
      <trkpt lat="47.7597" lon="7.09698">
        <ele>374</ele>
        <time>2021-02-26T09:50:46Z</time>
      </trkpt>
      <trkpt lat="47.75965" lon="7.09722">
        <ele>373</ele>
        <time>2021-02-26T09:50:46Z</time>
      </trkpt>
      <trkpt lat="47.75958" lon="7.09743">
        <ele>372</ele>
        <time>2021-02-26T09:50:46Z</time>
      </trkpt>
      <trkpt lat="47.75949" lon="7.09763">
        <ele>371</ele>
        <time>2021-02-26T09:50:46Z</time>
      </trkpt>
      <trkpt lat="47.75945" lon="7.09786">
        <ele>370</ele>
        <time>2021-02-26T09:50:46Z</time>
      </trkpt>
      <trkpt lat="47.75937" lon="7.0981">
        <ele>369</ele>
        <time>2021-02-26T09:50:46Z</time>
      </trkpt>
      <trkpt lat="47.75931" lon="7.09832">
        <ele>368</ele>
        <time>2021-02-26T09:50:46Z</time>
      </trkpt>
      <trkpt lat="47.75926" lon="7.09855">
        <ele>367</ele>
        <time>2021-02-26T09:50:46Z</time>
      </trkpt>
      <trkpt lat="47.75924" lon="7.09878">
        <ele>366</ele>
        <time>2021-02-26T09:50:46Z</time>
      </trkpt>
      <trkpt lat="47.75924" lon="7.09902">
        <ele>365</ele>
        <time>2021-02-26T09:50:46Z</time>
      </trkpt>
      <trkpt lat="47.75926" lon="7.09926">
        <ele>365</ele>
        <time>2021-02-26T09:50:46Z</time>
      </trkpt>
      <trkpt lat="47.75927" lon="7.09952">
        <ele>367</ele>
        <time>2021-02-26T09:50:46Z</time>
      </trkpt>
      <trkpt lat="47.7593" lon="7.09978">
        <ele>368</ele>
        <time>2021-02-26T09:50:46Z</time>
      </trkpt>
      <trkpt lat="47.75933" lon="7.10005">
        <ele>370</ele>
        <time>2021-02-26T09:50:46Z</time>
      </trkpt>
      <trkpt lat="47.75934" lon="7.10032">
        <ele>369</ele>
        <time>2021-02-26T09:50:46Z</time>
      </trkpt>
      <trkpt lat="47.75938" lon="7.10059">
        <ele>369</ele>
        <time>2021-02-26T09:50:46Z</time>
      </trkpt>
      <trkpt lat="47.7594" lon="7.10086">
        <ele>369</ele>
        <time>2021-02-26T09:50:46Z</time>
      </trkpt>
      <trkpt lat="47.75943" lon="7.10114">
        <ele>367</ele>
        <time>2021-02-26T09:50:46Z</time>
      </trkpt>
      <trkpt lat="47.75946" lon="7.10143">
        <ele>365</ele>
        <time>2021-02-26T09:50:46Z</time>
      </trkpt>
      <trkpt lat="47.75948" lon="7.10172">
        <ele>364</ele>
        <time>2021-02-26T09:50:46Z</time>
      </trkpt>
      <trkpt lat="47.75947" lon="7.10202">
        <ele>361</ele>
        <time>2021-02-26T09:50:46Z</time>
      </trkpt>
      <trkpt lat="47.75949" lon="7.10232">
        <ele>359</ele>
        <time>2021-02-26T09:50:46Z</time>
      </trkpt>
      <trkpt lat="47.75951" lon="7.10263">
        <ele>356</ele>
        <time>2021-02-26T09:50:46Z</time>
      </trkpt>
      <trkpt lat="47.75954" lon="7.10295">
        <ele>355</ele>
        <time>2021-02-26T09:50:46Z</time>
      </trkpt>
      <trkpt lat="47.75954" lon="7.10327">
        <ele>353</ele>
        <time>2021-02-26T09:50:46Z</time>
      </trkpt>
      <trkpt lat="47.75956" lon="7.10358">
        <ele>353</ele>
        <time>2021-02-26T09:50:46Z</time>
      </trkpt>
      <trkpt lat="47.75958" lon="7.10388">
        <ele>353</ele>
        <time>2021-02-26T09:50:46Z</time>
      </trkpt>
      <trkpt lat="47.7596" lon="7.10418">
        <ele>352</ele>
        <time>2021-02-26T09:50:46Z</time>
      </trkpt>
      <trkpt lat="47.75963" lon="7.10448">
        <ele>351</ele>
        <time>2021-02-26T09:50:46Z</time>
      </trkpt>
      <trkpt lat="47.75964" lon="7.10478">
        <ele>350</ele>
        <time>2021-02-26T09:50:46Z</time>
      </trkpt>
      <trkpt lat="47.75967" lon="7.10508">
        <ele>349</ele>
        <time>2021-02-26T09:50:46Z</time>
      </trkpt>
      <trkpt lat="47.75971" lon="7.10538">
        <ele>349</ele>
        <time>2021-02-26T09:50:46Z</time>
      </trkpt>
      <trkpt lat="47.7598" lon="7.10566">
        <ele>348</ele>
        <time>2021-02-26T09:50:46Z</time>
      </trkpt>
      <trkpt lat="47.75993" lon="7.10591">
        <ele>347</ele>
        <time>2021-02-26T09:50:46Z</time>
      </trkpt>
      <trkpt lat="47.76009" lon="7.10611">
        <ele>346</ele>
        <time>2021-02-26T09:50:46Z</time>
      </trkpt>
      <trkpt lat="47.76028" lon="7.10628">
        <ele>345</ele>
        <time>2021-02-26T09:50:46Z</time>
      </trkpt>
      <trkpt lat="47.76049" lon="7.10645">
        <ele>343</ele>
        <time>2021-02-26T09:50:46Z</time>
      </trkpt>
      <trkpt lat="47.7607" lon="7.10659">
        <ele>342</ele>
        <time>2021-02-26T09:50:46Z</time>
      </trkpt>
      <trkpt lat="47.76092" lon="7.1067">
        <ele>342</ele>
        <time>2021-02-26T09:50:46Z</time>
      </trkpt>
      <trkpt lat="47.76114" lon="7.10676">
        <ele>343</ele>
        <time>2021-02-26T09:50:46Z</time>
      </trkpt>
      <trkpt lat="47.76136" lon="7.10681">
        <ele>344</ele>
        <time>2021-02-26T09:50:46Z</time>
      </trkpt>
      <trkpt lat="47.76156" lon="7.10694">
        <ele>346</ele>
        <time>2021-02-26T09:50:46Z</time>
      </trkpt>
      <trkpt lat="47.7617" lon="7.10712">
        <ele>347</ele>
        <time>2021-02-26T09:50:46Z</time>
      </trkpt>
      <trkpt lat="47.76181" lon="7.10733">
        <ele>349</ele>
        <time>2021-02-26T09:50:46Z</time>
      </trkpt>
      <trkpt lat="47.76191" lon="7.10755">
        <ele>350</ele>
        <time>2021-02-26T09:50:46Z</time>
      </trkpt>
      <trkpt lat="47.76196" lon="7.10775">
        <ele>351</ele>
        <time>2021-02-26T09:50:46Z</time>
      </trkpt>
      <trkpt lat="47.76201" lon="7.10794">
        <ele>351</ele>
        <time>2021-02-26T09:50:46Z</time>
      </trkpt>
      <trkpt lat="47.76205" lon="7.10812">
        <ele>352</ele>
        <time>2021-02-26T09:50:46Z</time>
      </trkpt>
      <trkpt lat="47.7621" lon="7.10827">
        <ele>353</ele>
        <time>2021-02-26T09:50:46Z</time>
      </trkpt>
      <trkpt lat="47.76212" lon="7.1084">
        <ele>353</ele>
        <time>2021-02-26T09:50:46Z</time>
      </trkpt>
      <trkpt lat="47.76215" lon="7.10854">
        <ele>352</ele>
        <time>2021-02-26T09:50:46Z</time>
      </trkpt>
      <trkpt lat="47.76217" lon="7.10865">
        <ele>352</ele>
        <time>2021-02-26T09:50:46Z</time>
      </trkpt>
      <trkpt lat="47.76219" lon="7.10874">
        <ele>352</ele>
        <time>2021-02-26T09:50:46Z</time>
      </trkpt>
      <trkpt lat="47.76218" lon="7.10885">
        <ele>351</ele>
        <time>2021-02-26T09:50:46Z</time>
      </trkpt>
      <trkpt lat="47.76219" lon="7.10896">
        <ele>351</ele>
        <time>2021-02-26T09:50:46Z</time>
      </trkpt>
      <trkpt lat="47.7622" lon="7.10908">
        <ele>350</ele>
        <time>2021-02-26T09:50:46Z</time>
      </trkpt>
      <trkpt lat="47.76221" lon="7.10919">
        <ele>350</ele>
        <time>2021-02-26T09:50:46Z</time>
      </trkpt>
      <trkpt lat="47.76222" lon="7.1093">
        <ele>350</ele>
        <time>2021-02-26T09:50:46Z</time>
      </trkpt>
      <trkpt lat="47.76223" lon="7.10943">
        <ele>349</ele>
        <time>2021-02-26T09:50:46Z</time>
      </trkpt>
      <trkpt lat="47.76223" lon="7.10956">
        <ele>349</ele>
        <time>2021-02-26T09:50:46Z</time>
      </trkpt>
      <trkpt lat="47.76222" lon="7.10969">
        <ele>349</ele>
        <time>2021-02-26T09:50:46Z</time>
      </trkpt>
      <trkpt lat="47.7622" lon="7.10982">
        <ele>348</ele>
        <time>2021-02-26T09:50:46Z</time>
      </trkpt>
      <trkpt lat="47.76215" lon="7.10996">
        <ele>347</ele>
        <time>2021-02-26T09:50:46Z</time>
      </trkpt>
      <trkpt lat="47.76211" lon="7.11011">
        <ele>347</ele>
        <time>2021-02-26T09:50:46Z</time>
      </trkpt>
      <trkpt lat="47.76206" lon="7.11027">
        <ele>346</ele>
        <time>2021-02-26T09:50:46Z</time>
      </trkpt>
      <trkpt lat="47.76201" lon="7.11043">
        <ele>346</ele>
        <time>2021-02-26T09:50:46Z</time>
      </trkpt>
      <trkpt lat="47.76196" lon="7.1106">
        <ele>345</ele>
        <time>2021-02-26T09:50:46Z</time>
      </trkpt>
      <trkpt lat="47.76191" lon="7.11077">
        <ele>345</ele>
        <time>2021-02-26T09:50:46Z</time>
      </trkpt>
      <trkpt lat="47.76185" lon="7.11095">
        <ele>344</ele>
        <time>2021-02-26T09:50:46Z</time>
      </trkpt>
      <trkpt lat="47.7618" lon="7.11112">
        <ele>344</ele>
        <time>2021-02-26T09:50:46Z</time>
      </trkpt>
      <trkpt lat="47.76174" lon="7.1113">
        <ele>344</ele>
        <time>2021-02-26T09:50:46Z</time>
      </trkpt>
      <trkpt lat="47.76168" lon="7.11148">
        <ele>344</ele>
        <time>2021-02-26T09:50:46Z</time>
      </trkpt>
      <trkpt lat="47.76163" lon="7.11166">
        <ele>344</ele>
        <time>2021-02-26T09:50:46Z</time>
      </trkpt>
      <trkpt lat="47.76157" lon="7.11184">
        <ele>344</ele>
        <time>2021-02-26T09:50:46Z</time>
      </trkpt>
      <trkpt lat="47.76153" lon="7.11202">
        <ele>344</ele>
        <time>2021-02-26T09:50:46Z</time>
      </trkpt>
      <trkpt lat="47.76148" lon="7.1122">
        <ele>344</ele>
        <time>2021-02-26T09:50:46Z</time>
      </trkpt>
      <trkpt lat="47.76143" lon="7.11237">
        <ele>344</ele>
        <time>2021-02-26T09:50:46Z</time>
      </trkpt>
      <trkpt lat="47.76137" lon="7.11254">
        <ele>344</ele>
        <time>2021-02-26T09:50:46Z</time>
      </trkpt>
      <trkpt lat="47.76131" lon="7.1127">
        <ele>343</ele>
        <time>2021-02-26T09:50:46Z</time>
      </trkpt>
      <trkpt lat="47.76125" lon="7.11286">
        <ele>343</ele>
        <time>2021-02-26T09:50:46Z</time>
      </trkpt>
      <trkpt lat="47.76118" lon="7.11302">
        <ele>343</ele>
        <time>2021-02-26T09:50:46Z</time>
      </trkpt>
      <trkpt lat="47.76111" lon="7.11316">
        <ele>343</ele>
        <time>2021-02-26T09:50:46Z</time>
      </trkpt>
      <trkpt lat="47.76105" lon="7.11328">
        <ele>342</ele>
        <time>2021-02-26T09:50:46Z</time>
      </trkpt>
      <trkpt lat="47.76099" lon="7.11342">
        <ele>342</ele>
        <time>2021-02-26T09:50:46Z</time>
      </trkpt>
      <trkpt lat="47.76094" lon="7.11357">
        <ele>341</ele>
        <time>2021-02-26T09:50:46Z</time>
      </trkpt>
      <trkpt lat="47.76092" lon="7.11375">
        <ele>341</ele>
        <time>2021-02-26T09:50:46Z</time>
      </trkpt>
      <trkpt lat="47.76092" lon="7.11393">
        <ele>341</ele>
        <time>2021-02-26T09:50:46Z</time>
      </trkpt>
      <trkpt lat="47.76091" lon="7.11409">
        <ele>341</ele>
        <time>2021-02-26T09:50:46Z</time>
      </trkpt>
      <trkpt lat="47.7609" lon="7.11425">
        <ele>341</ele>
        <time>2021-02-26T09:50:46Z</time>
      </trkpt>
      <trkpt lat="47.76087" lon="7.11441">
        <ele>340</ele>
        <time>2021-02-26T09:50:46Z</time>
      </trkpt>
      <trkpt lat="47.76084" lon="7.11459">
        <ele>341</ele>
        <time>2021-02-26T09:50:46Z</time>
      </trkpt>
      <trkpt lat="47.76082" lon="7.11479">
        <ele>341</ele>
        <time>2021-02-26T09:50:46Z</time>
      </trkpt>
      <trkpt lat="47.76088" lon="7.11497">
        <ele>341</ele>
        <time>2021-02-26T09:50:46Z</time>
      </trkpt>
      <trkpt lat="47.76096" lon="7.11512">
        <ele>341</ele>
        <time>2021-02-26T09:50:46Z</time>
      </trkpt>
      <trkpt lat="47.76105" lon="7.11524">
        <ele>342</ele>
        <time>2021-02-26T09:50:46Z</time>
      </trkpt>
      <trkpt lat="47.76113" lon="7.11535">
        <ele>342</ele>
        <time>2021-02-26T09:50:46Z</time>
      </trkpt>
      <trkpt lat="47.76121" lon="7.11545">
        <ele>343</ele>
        <time>2021-02-26T09:50:46Z</time>
      </trkpt>
      <trkpt lat="47.76129" lon="7.11554">
        <ele>343</ele>
        <time>2021-02-26T09:50:46Z</time>
      </trkpt>
      <trkpt lat="47.76137" lon="7.11563">
        <ele>344</ele>
        <time>2021-02-26T09:50:46Z</time>
      </trkpt>
      <trkpt lat="47.76143" lon="7.11572">
        <ele>345</ele>
        <time>2021-02-26T09:50:46Z</time>
      </trkpt>
      <trkpt lat="47.76149" lon="7.11581">
        <ele>345</ele>
        <time>2021-02-26T09:50:46Z</time>
      </trkpt>
      <trkpt lat="47.76155" lon="7.1159">
        <ele>346</ele>
        <time>2021-02-26T09:50:46Z</time>
      </trkpt>
      <trkpt lat="47.76163" lon="7.11599">
        <ele>346</ele>
        <time>2021-02-26T09:50:46Z</time>
      </trkpt>
      <trkpt lat="47.76168" lon="7.11607">
        <ele>347</ele>
        <time>2021-02-26T09:50:46Z</time>
      </trkpt>
      <trkpt lat="47.76174" lon="7.11615">
        <ele>346</ele>
        <time>2021-02-26T09:50:46Z</time>
      </trkpt>
      <trkpt lat="47.76179" lon="7.11623">
        <ele>346</ele>
        <time>2021-02-26T09:50:46Z</time>
      </trkpt>
      <trkpt lat="47.76184" lon="7.11631">
        <ele>346</ele>
        <time>2021-02-26T09:50:46Z</time>
      </trkpt>
      <trkpt lat="47.76189" lon="7.1164">
        <ele>345</ele>
        <time>2021-02-26T09:50:46Z</time>
      </trkpt>
      <trkpt lat="47.76194" lon="7.11649">
        <ele>345</ele>
        <time>2021-02-26T09:50:46Z</time>
      </trkpt>
      <trkpt lat="47.76198" lon="7.11659">
        <ele>345</ele>
        <time>2021-02-26T09:50:46Z</time>
      </trkpt>
      <trkpt lat="47.76202" lon="7.1167">
        <ele>344</ele>
        <time>2021-02-26T09:50:46Z</time>
      </trkpt>
      <trkpt lat="47.76206" lon="7.11684">
        <ele>344</ele>
        <time>2021-02-26T09:50:46Z</time>
      </trkpt>
      <trkpt lat="47.76211" lon="7.11696">
        <ele>344</ele>
        <time>2021-02-26T09:50:46Z</time>
      </trkpt>
      <trkpt lat="47.76215" lon="7.11709">
        <ele>344</ele>
        <time>2021-02-26T09:50:46Z</time>
      </trkpt>
      <trkpt lat="47.76218" lon="7.11721">
        <ele>344</ele>
        <time>2021-02-26T09:50:46Z</time>
      </trkpt>
      <trkpt lat="47.76221" lon="7.11733">
        <ele>344</ele>
        <time>2021-02-26T09:50:46Z</time>
      </trkpt>
      <trkpt lat="47.76225" lon="7.11746">
        <ele>344</ele>
        <time>2021-02-26T09:50:46Z</time>
      </trkpt>
      <trkpt lat="47.76225" lon="7.11761">
        <ele>344</ele>
        <time>2021-02-26T09:50:46Z</time>
      </trkpt>
      <trkpt lat="47.76223" lon="7.11775">
        <ele>343</ele>
        <time>2021-02-26T09:50:46Z</time>
      </trkpt>
      <trkpt lat="47.76221" lon="7.11787">
        <ele>343</ele>
        <time>2021-02-26T09:50:46Z</time>
      </trkpt>
      <trkpt lat="47.76221" lon="7.11787">
        <ele>343</ele>
        <time>2021-02-26T09:50:46Z</time>
      </trkpt>
      <trkpt lat="47.76221" lon="7.11787">
        <ele>343</ele>
        <time>2021-02-26T09:50:46Z</time>
      </trkpt>
      <trkpt lat="47.76221" lon="7.11787">
        <ele>343</ele>
        <time>2021-02-26T09:50:46Z</time>
      </trkpt>
      <trkpt lat="47.76224" lon="7.1178">
        <ele>343</ele>
        <time>2021-02-26T09:50:46Z</time>
      </trkpt>
      <trkpt lat="47.76231" lon="7.11769">
        <ele>344</ele>
        <time>2021-02-26T09:50:46Z</time>
      </trkpt>
      <trkpt lat="47.76237" lon="7.11773">
        <ele>344</ele>
        <time>2021-02-26T09:50:46Z</time>
      </trkpt>
      <trkpt lat="47.76244" lon="7.11783">
        <ele>344</ele>
        <time>2021-02-26T09:50:46Z</time>
      </trkpt>
      <trkpt lat="47.76251" lon="7.11799">
        <ele>344</ele>
        <time>2021-02-26T09:50:46Z</time>
      </trkpt>
      <trkpt lat="47.76259" lon="7.11813">
        <ele>343</ele>
        <time>2021-02-26T09:50:46Z</time>
      </trkpt>
      <trkpt lat="47.7627" lon="7.1183">
        <ele>343</ele>
        <time>2021-02-26T09:50:46Z</time>
      </trkpt>
      <trkpt lat="47.76281" lon="7.11848">
        <ele>342</ele>
        <time>2021-02-26T09:50:46Z</time>
      </trkpt>
      <trkpt lat="47.76293" lon="7.11866">
        <ele>341</ele>
        <time>2021-02-26T09:50:46Z</time>
      </trkpt>
      <trkpt lat="47.76307" lon="7.11883">
        <ele>340</ele>
        <time>2021-02-26T09:50:46Z</time>
      </trkpt>
      <trkpt lat="47.76323" lon="7.11898">
        <ele>339</ele>
        <time>2021-02-26T09:50:46Z</time>
      </trkpt>
      <trkpt lat="47.7634" lon="7.1191">
        <ele>338</ele>
        <time>2021-02-26T09:50:46Z</time>
      </trkpt>
      <trkpt lat="47.76357" lon="7.11922">
        <ele>339</ele>
        <time>2021-02-26T09:50:46Z</time>
      </trkpt>
      <trkpt lat="47.76372" lon="7.11933">
        <ele>339</ele>
        <time>2021-02-26T09:50:46Z</time>
      </trkpt>
      <trkpt lat="47.76387" lon="7.11943">
        <ele>339</ele>
        <time>2021-02-26T09:50:46Z</time>
      </trkpt>
      <trkpt lat="47.76401" lon="7.11953">
        <ele>339</ele>
        <time>2021-02-26T09:50:46Z</time>
      </trkpt>
      <trkpt lat="47.76415" lon="7.11962">
        <ele>339</ele>
        <time>2021-02-26T09:50:46Z</time>
      </trkpt>
      <trkpt lat="47.76428" lon="7.11971">
        <ele>339</ele>
        <time>2021-02-26T09:50:46Z</time>
      </trkpt>
      <trkpt lat="47.76442" lon="7.11981">
        <ele>338</ele>
        <time>2021-02-26T09:50:46Z</time>
      </trkpt>
      <trkpt lat="47.76453" lon="7.1199">
        <ele>338</ele>
        <time>2021-02-26T09:50:46Z</time>
      </trkpt>
      <trkpt lat="47.76466" lon="7.11999">
        <ele>338</ele>
        <time>2021-02-26T09:50:46Z</time>
      </trkpt>
      <trkpt lat="47.76477" lon="7.12009">
        <ele>337</ele>
        <time>2021-02-26T09:50:46Z</time>
      </trkpt>
      <trkpt lat="47.76489" lon="7.12018">
        <ele>337</ele>
        <time>2021-02-26T09:50:46Z</time>
      </trkpt>
      <trkpt lat="47.76501" lon="7.12028">
        <ele>337</ele>
        <time>2021-02-26T09:50:46Z</time>
      </trkpt>
      <trkpt lat="47.76513" lon="7.12041">
        <ele>336</ele>
        <time>2021-02-26T09:50:46Z</time>
      </trkpt>
      <trkpt lat="47.76524" lon="7.12051">
        <ele>336</ele>
        <time>2021-02-26T09:50:46Z</time>
      </trkpt>
      <trkpt lat="47.76536" lon="7.12061">
        <ele>336</ele>
        <time>2021-02-26T09:50:46Z</time>
      </trkpt>
      <trkpt lat="47.76548" lon="7.12072">
        <ele>336</ele>
        <time>2021-02-26T09:50:46Z</time>
      </trkpt>
      <trkpt lat="47.7656" lon="7.12084">
        <ele>336</ele>
        <time>2021-02-26T09:50:46Z</time>
      </trkpt>
      <trkpt lat="47.76573" lon="7.12096">
        <ele>336</ele>
        <time>2021-02-26T09:50:46Z</time>
      </trkpt>
      <trkpt lat="47.76585" lon="7.12106">
        <ele>335</ele>
        <time>2021-02-26T09:50:46Z</time>
      </trkpt>
      <trkpt lat="47.76597" lon="7.12116">
        <ele>335</ele>
        <time>2021-02-26T09:50:46Z</time>
      </trkpt>
      <trkpt lat="47.76611" lon="7.12128">
        <ele>335</ele>
        <time>2021-02-26T09:50:46Z</time>
      </trkpt>
      <trkpt lat="47.76625" lon="7.12142">
        <ele>335</ele>
        <time>2021-02-26T09:50:46Z</time>
      </trkpt>
      <trkpt lat="47.7664" lon="7.12155">
        <ele>335</ele>
        <time>2021-02-26T09:50:46Z</time>
      </trkpt>
      <trkpt lat="47.76654" lon="7.12171">
        <ele>335</ele>
        <time>2021-02-26T09:50:46Z</time>
      </trkpt>
      <trkpt lat="47.76669" lon="7.12184">
        <ele>334</ele>
        <time>2021-02-26T09:50:46Z</time>
      </trkpt>
      <trkpt lat="47.76686" lon="7.12198">
        <ele>333</ele>
        <time>2021-02-26T09:50:46Z</time>
      </trkpt>
      <trkpt lat="47.76702" lon="7.12213">
        <ele>331</ele>
        <time>2021-02-26T09:50:46Z</time>
      </trkpt>
      <trkpt lat="47.76719" lon="7.12229">
        <ele>330</ele>
        <time>2021-02-26T09:50:46Z</time>
      </trkpt>
      <trkpt lat="47.76736" lon="7.12243">
        <ele>329</ele>
        <time>2021-02-26T09:50:46Z</time>
      </trkpt>
      <trkpt lat="47.76752" lon="7.12259">
        <ele>328</ele>
        <time>2021-02-26T09:50:46Z</time>
      </trkpt>
      <trkpt lat="47.76769" lon="7.12275">
        <ele>326</ele>
        <time>2021-02-26T09:50:46Z</time>
      </trkpt>
      <trkpt lat="47.76786" lon="7.12288">
        <ele>325</ele>
        <time>2021-02-26T09:50:46Z</time>
      </trkpt>
      <trkpt lat="47.76804" lon="7.12297">
        <ele>323</ele>
        <time>2021-02-26T09:50:46Z</time>
      </trkpt>
      <trkpt lat="47.76823" lon="7.12297">
        <ele>323</ele>
        <time>2021-02-26T09:50:46Z</time>
      </trkpt>
      <trkpt lat="47.76841" lon="7.12291">
        <ele>323</ele>
        <time>2021-02-26T09:50:46Z</time>
      </trkpt>
      <trkpt lat="47.76859" lon="7.12284">
        <ele>323</ele>
        <time>2021-02-26T09:50:46Z</time>
      </trkpt>
      <trkpt lat="47.76875" lon="7.12276">
        <ele>322</ele>
        <time>2021-02-26T09:50:46Z</time>
      </trkpt>
      <trkpt lat="47.76893" lon="7.12272">
        <ele>320</ele>
        <time>2021-02-26T09:50:46Z</time>
      </trkpt>
      <trkpt lat="47.76912" lon="7.12277">
        <ele>318</ele>
        <time>2021-02-26T09:50:46Z</time>
      </trkpt>
      <trkpt lat="47.76929" lon="7.12289">
        <ele>315</ele>
        <time>2021-02-26T09:50:46Z</time>
      </trkpt>
      <trkpt lat="47.76947" lon="7.12304">
        <ele>313</ele>
        <time>2021-02-26T09:50:46Z</time>
      </trkpt>
      <trkpt lat="47.76964" lon="7.12318">
        <ele>312</ele>
        <time>2021-02-26T09:50:46Z</time>
      </trkpt>
      <trkpt lat="47.76982" lon="7.12332">
        <ele>311</ele>
        <time>2021-02-26T09:50:46Z</time>
      </trkpt>
      <trkpt lat="47.76999" lon="7.12347">
        <ele>310</ele>
        <time>2021-02-26T09:50:46Z</time>
      </trkpt>
      <trkpt lat="47.77016" lon="7.1236">
        <ele>311</ele>
        <time>2021-02-26T09:50:46Z</time>
      </trkpt>
      <trkpt lat="47.77032" lon="7.12374">
        <ele>311</ele>
        <time>2021-02-26T09:50:46Z</time>
      </trkpt>
      <trkpt lat="47.77047" lon="7.12386">
        <ele>312</ele>
        <time>2021-02-26T09:50:46Z</time>
      </trkpt>
      <trkpt lat="47.77062" lon="7.12399">
        <ele>312</ele>
        <time>2021-02-26T09:50:46Z</time>
      </trkpt>
      <trkpt lat="47.77076" lon="7.12412">
        <ele>313</ele>
        <time>2021-02-26T09:50:46Z</time>
      </trkpt>
      <trkpt lat="47.77089" lon="7.12429">
        <ele>313</ele>
        <time>2021-02-26T09:50:46Z</time>
      </trkpt>
      <trkpt lat="47.77102" lon="7.12444">
        <ele>312</ele>
        <time>2021-02-26T09:50:46Z</time>
      </trkpt>
      <trkpt lat="47.77115" lon="7.12458">
        <ele>312</ele>
        <time>2021-02-26T09:50:46Z</time>
      </trkpt>
      <trkpt lat="47.77128" lon="7.12473">
        <ele>312</ele>
        <time>2021-02-26T09:50:46Z</time>
      </trkpt>
      <trkpt lat="47.7714" lon="7.12487">
        <ele>312</ele>
        <time>2021-02-26T09:50:46Z</time>
      </trkpt>
      <trkpt lat="47.77153" lon="7.12501">
        <ele>313</ele>
        <time>2021-02-26T09:50:46Z</time>
      </trkpt>
      <trkpt lat="47.77165" lon="7.12514">
        <ele>313</ele>
        <time>2021-02-26T09:50:46Z</time>
      </trkpt>
      <trkpt lat="47.77177" lon="7.12527">
        <ele>313</ele>
        <time>2021-02-26T09:50:46Z</time>
      </trkpt>
      <trkpt lat="47.77188" lon="7.12541">
        <ele>313</ele>
        <time>2021-02-26T09:50:46Z</time>
      </trkpt>
      <trkpt lat="47.772" lon="7.12553">
        <ele>314</ele>
        <time>2021-02-26T09:50:46Z</time>
      </trkpt>
      <trkpt lat="47.7721" lon="7.12565">
        <ele>314</ele>
        <time>2021-02-26T09:50:46Z</time>
      </trkpt>
      <trkpt lat="47.77222" lon="7.12577">
        <ele>314</ele>
        <time>2021-02-26T09:50:46Z</time>
      </trkpt>
      <trkpt lat="47.77232" lon="7.12588">
        <ele>314</ele>
        <time>2021-02-26T09:50:46Z</time>
      </trkpt>
      <trkpt lat="47.77242" lon="7.12599">
        <ele>315</ele>
        <time>2021-02-26T09:50:46Z</time>
      </trkpt>
      <trkpt lat="47.77251" lon="7.1261">
        <ele>315</ele>
        <time>2021-02-26T09:50:46Z</time>
      </trkpt>
      <trkpt lat="47.77261" lon="7.12621">
        <ele>316</ele>
        <time>2021-02-26T09:50:46Z</time>
      </trkpt>
      <trkpt lat="47.7727" lon="7.12631">
        <ele>316</ele>
        <time>2021-02-26T09:50:46Z</time>
      </trkpt>
      <trkpt lat="47.77279" lon="7.12641">
        <ele>316</ele>
        <time>2021-02-26T09:50:46Z</time>
      </trkpt>
      <trkpt lat="47.77288" lon="7.12651">
        <ele>317</ele>
        <time>2021-02-26T09:50:46Z</time>
      </trkpt>
      <trkpt lat="47.77297" lon="7.12661">
        <ele>317</ele>
        <time>2021-02-26T09:50:46Z</time>
      </trkpt>
      <trkpt lat="47.77307" lon="7.1267">
        <ele>317</ele>
        <time>2021-02-26T09:50:46Z</time>
      </trkpt>
      <trkpt lat="47.77316" lon="7.12678">
        <ele>317</ele>
        <time>2021-02-26T09:50:46Z</time>
      </trkpt>
      <trkpt lat="47.77325" lon="7.12689">
        <ele>317</ele>
        <time>2021-02-26T09:50:46Z</time>
      </trkpt>
      <trkpt lat="47.77335" lon="7.12699">
        <ele>318</ele>
        <time>2021-02-26T09:50:46Z</time>
      </trkpt>
      <trkpt lat="47.77344" lon="7.12712">
        <ele>317</ele>
        <time>2021-02-26T09:50:46Z</time>
      </trkpt>
      <trkpt lat="47.77354" lon="7.12727">
        <ele>317</ele>
        <time>2021-02-26T09:50:46Z</time>
      </trkpt>
      <trkpt lat="47.77364" lon="7.12743">
        <ele>316</ele>
        <time>2021-02-26T09:50:46Z</time>
      </trkpt>
      <trkpt lat="47.77374" lon="7.12761">
        <ele>315</ele>
        <time>2021-02-26T09:50:46Z</time>
      </trkpt>
      <trkpt lat="47.77385" lon="7.1278">
        <ele>315</ele>
        <time>2021-02-26T09:50:46Z</time>
      </trkpt>
      <trkpt lat="47.77394" lon="7.128">
        <ele>314</ele>
        <time>2021-02-26T09:50:46Z</time>
      </trkpt>
      <trkpt lat="47.77403" lon="7.12822">
        <ele>313</ele>
        <time>2021-02-26T09:50:46Z</time>
      </trkpt>
      <trkpt lat="47.77411" lon="7.12843">
        <ele>313</ele>
        <time>2021-02-26T09:50:46Z</time>
      </trkpt>
      <trkpt lat="47.77421" lon="7.12864">
        <ele>312</ele>
        <time>2021-02-26T09:50:46Z</time>
      </trkpt>
      <trkpt lat="47.77431" lon="7.12883">
        <ele>312</ele>
        <time>2021-02-26T09:50:46Z</time>
      </trkpt>
      <trkpt lat="47.77442" lon="7.12902">
        <ele>311</ele>
        <time>2021-02-26T09:50:46Z</time>
      </trkpt>
      <trkpt lat="47.77452" lon="7.1292">
        <ele>311</ele>
        <time>2021-02-26T09:50:46Z</time>
      </trkpt>
      <trkpt lat="47.7746" lon="7.12936">
        <ele>310</ele>
        <time>2021-02-26T09:50:46Z</time>
      </trkpt>
      <trkpt lat="47.7747" lon="7.1295">
        <ele>310</ele>
        <time>2021-02-26T09:50:46Z</time>
      </trkpt>
      <trkpt lat="47.77479" lon="7.12966">
        <ele>310</ele>
        <time>2021-02-26T09:50:46Z</time>
      </trkpt>
      <trkpt lat="47.77489" lon="7.1298">
        <ele>310</ele>
        <time>2021-02-26T09:50:46Z</time>
      </trkpt>
      <trkpt lat="47.77501" lon="7.12993">
        <ele>310</ele>
        <time>2021-02-26T09:50:46Z</time>
      </trkpt>
      <trkpt lat="47.77513" lon="7.13005">
        <ele>310</ele>
        <time>2021-02-26T09:50:46Z</time>
      </trkpt>
      <trkpt lat="47.77525" lon="7.13015">
        <ele>310</ele>
        <time>2021-02-26T09:50:46Z</time>
      </trkpt>
      <trkpt lat="47.77537" lon="7.13028">
        <ele>310</ele>
        <time>2021-02-26T09:50:46Z</time>
      </trkpt>
      <trkpt lat="47.77548" lon="7.13039">
        <ele>310</ele>
        <time>2021-02-26T09:50:46Z</time>
      </trkpt>
      <trkpt lat="47.7756" lon="7.1305">
        <ele>310</ele>
        <time>2021-02-26T09:50:46Z</time>
      </trkpt>
      <trkpt lat="47.77571" lon="7.13061">
        <ele>310</ele>
        <time>2021-02-26T09:50:46Z</time>
      </trkpt>
      <trkpt lat="47.77583" lon="7.13071">
        <ele>309</ele>
        <time>2021-02-26T09:50:46Z</time>
      </trkpt>
      <trkpt lat="47.77594" lon="7.13082">
        <ele>309</ele>
        <time>2021-02-26T09:50:46Z</time>
      </trkpt>
      <trkpt lat="47.77605" lon="7.13092">
        <ele>310</ele>
        <time>2021-02-26T09:50:46Z</time>
      </trkpt>
      <trkpt lat="47.77616" lon="7.13103">
        <ele>310</ele>
        <time>2021-02-26T09:50:46Z</time>
      </trkpt>
      <trkpt lat="47.77626" lon="7.13114">
        <ele>310</ele>
        <time>2021-02-26T09:50:46Z</time>
      </trkpt>
      <trkpt lat="47.77636" lon="7.13127">
        <ele>311</ele>
        <time>2021-02-26T09:50:46Z</time>
      </trkpt>
      <trkpt lat="47.77645" lon="7.13138">
        <ele>311</ele>
        <time>2021-02-26T09:50:46Z</time>
      </trkpt>
      <trkpt lat="47.77654" lon="7.13152">
        <ele>311</ele>
        <time>2021-02-26T09:50:46Z</time>
      </trkpt>
      <trkpt lat="47.77662" lon="7.13166">
        <ele>311</ele>
        <time>2021-02-26T09:50:46Z</time>
      </trkpt>
      <trkpt lat="47.7767" lon="7.1318">
        <ele>311</ele>
        <time>2021-02-26T09:50:46Z</time>
      </trkpt>
      <trkpt lat="47.77678" lon="7.13194">
        <ele>312</ele>
        <time>2021-02-26T09:50:46Z</time>
      </trkpt>
      <trkpt lat="47.77685" lon="7.13208">
        <ele>312</ele>
        <time>2021-02-26T09:50:46Z</time>
      </trkpt>
      <trkpt lat="47.77693" lon="7.13221">
        <ele>312</ele>
        <time>2021-02-26T09:50:46Z</time>
      </trkpt>
      <trkpt lat="47.77702" lon="7.13235">
        <ele>313</ele>
        <time>2021-02-26T09:50:46Z</time>
      </trkpt>
      <trkpt lat="47.77708" lon="7.1325">
        <ele>313</ele>
        <time>2021-02-26T09:50:46Z</time>
      </trkpt>
      <trkpt lat="47.77713" lon="7.13265">
        <ele>313</ele>
        <time>2021-02-26T09:50:46Z</time>
      </trkpt>
      <trkpt lat="47.77718" lon="7.1328">
        <ele>313</ele>
        <time>2021-02-26T09:50:46Z</time>
      </trkpt>
      <trkpt lat="47.7772" lon="7.13296">
        <ele>313</ele>
        <time>2021-02-26T09:50:46Z</time>
      </trkpt>
      <trkpt lat="47.77722" lon="7.13311">
        <ele>313</ele>
        <time>2021-02-26T09:50:46Z</time>
      </trkpt>
      <trkpt lat="47.77721" lon="7.13325">
        <ele>313</ele>
        <time>2021-02-26T09:50:46Z</time>
      </trkpt>
      <trkpt lat="47.77712" lon="7.13335">
        <ele>313</ele>
        <time>2021-02-26T09:50:46Z</time>
      </trkpt>
      <trkpt lat="47.77703" lon="7.13341">
        <ele>312</ele>
        <time>2021-02-26T09:50:46Z</time>
      </trkpt>
      <trkpt lat="47.77693" lon="7.13348">
        <ele>312</ele>
        <time>2021-02-26T09:50:46Z</time>
      </trkpt>
      <trkpt lat="47.77682" lon="7.13356">
        <ele>312</ele>
        <time>2021-02-26T09:50:46Z</time>
      </trkpt>
      <trkpt lat="47.77672" lon="7.13364">
        <ele>312</ele>
        <time>2021-02-26T09:50:46Z</time>
      </trkpt>
      <trkpt lat="47.77662" lon="7.13372">
        <ele>312</ele>
        <time>2021-02-26T09:50:46Z</time>
      </trkpt>
      <trkpt lat="47.77651" lon="7.13379">
        <ele>311</ele>
        <time>2021-02-26T09:50:46Z</time>
      </trkpt>
      <trkpt lat="47.7764" lon="7.13387">
        <ele>311</ele>
        <time>2021-02-26T09:50:46Z</time>
      </trkpt>
      <trkpt lat="47.77629" lon="7.13395">
        <ele>311</ele>
        <time>2021-02-26T09:50:46Z</time>
      </trkpt>
      <trkpt lat="47.77618" lon="7.13403">
        <ele>311</ele>
        <time>2021-02-26T09:50:46Z</time>
      </trkpt>
      <trkpt lat="47.77607" lon="7.13411">
        <ele>311</ele>
        <time>2021-02-26T09:50:46Z</time>
      </trkpt>
      <trkpt lat="47.77596" lon="7.13419">
        <ele>311</ele>
        <time>2021-02-26T09:50:46Z</time>
      </trkpt>
      <trkpt lat="47.77584" lon="7.13427">
        <ele>311</ele>
        <time>2021-02-26T09:50:46Z</time>
      </trkpt>
      <trkpt lat="47.77573" lon="7.13436">
        <ele>311</ele>
        <time>2021-02-26T09:50:46Z</time>
      </trkpt>
      <trkpt lat="47.77562" lon="7.13444">
        <ele>311</ele>
        <time>2021-02-26T09:50:46Z</time>
      </trkpt>
      <trkpt lat="47.7755" lon="7.13452">
        <ele>311</ele>
        <time>2021-02-26T09:50:46Z</time>
      </trkpt>
      <trkpt lat="47.77539" lon="7.13461">
        <ele>310</ele>
        <time>2021-02-26T09:50:46Z</time>
      </trkpt>
      <trkpt lat="47.77527" lon="7.13469">
        <ele>310</ele>
        <time>2021-02-26T09:50:46Z</time>
      </trkpt>
      <trkpt lat="47.77516" lon="7.13477">
        <ele>310</ele>
        <time>2021-02-26T09:50:46Z</time>
      </trkpt>
      <trkpt lat="47.77504" lon="7.13485">
        <ele>310</ele>
        <time>2021-02-26T09:50:46Z</time>
      </trkpt>
      <trkpt lat="47.77492" lon="7.13494">
        <ele>310</ele>
        <time>2021-02-26T09:50:46Z</time>
      </trkpt>
      <trkpt lat="47.7748" lon="7.13502">
        <ele>310</ele>
        <time>2021-02-26T09:50:46Z</time>
      </trkpt>
      <trkpt lat="47.77468" lon="7.13512">
        <ele>310</ele>
        <time>2021-02-26T09:50:46Z</time>
      </trkpt>
      <trkpt lat="47.77456" lon="7.13521">
        <ele>311</ele>
        <time>2021-02-26T09:50:46Z</time>
      </trkpt>
      <trkpt lat="47.77443" lon="7.13529">
        <ele>311</ele>
        <time>2021-02-26T09:50:46Z</time>
      </trkpt>
      <trkpt lat="47.7743" lon="7.13539">
        <ele>311</ele>
        <time>2021-02-26T09:50:46Z</time>
      </trkpt>
      <trkpt lat="47.77418" lon="7.13547">
        <ele>311</ele>
        <time>2021-02-26T09:50:46Z</time>
      </trkpt>
      <trkpt lat="47.77406" lon="7.13556">
        <ele>311</ele>
        <time>2021-02-26T09:50:46Z</time>
      </trkpt>
      <trkpt lat="47.77394" lon="7.13565">
        <ele>310</ele>
        <time>2021-02-26T09:50:46Z</time>
      </trkpt>
      <trkpt lat="47.77382" lon="7.13574">
        <ele>310</ele>
        <time>2021-02-26T09:50:46Z</time>
      </trkpt>
      <trkpt lat="47.7737" lon="7.13585">
        <ele>310</ele>
        <time>2021-02-26T09:50:46Z</time>
      </trkpt>
      <trkpt lat="47.77359" lon="7.13596">
        <ele>310</ele>
        <time>2021-02-26T09:50:46Z</time>
      </trkpt>
      <trkpt lat="47.77348" lon="7.13607">
        <ele>310</ele>
        <time>2021-02-26T09:50:46Z</time>
      </trkpt>
      <trkpt lat="47.77338" lon="7.1362">
        <ele>310</ele>
        <time>2021-02-26T09:50:46Z</time>
      </trkpt>
      <trkpt lat="47.77328" lon="7.13632">
        <ele>309</ele>
        <time>2021-02-26T09:50:46Z</time>
      </trkpt>
      <trkpt lat="47.77317" lon="7.13643">
        <ele>309</ele>
        <time>2021-02-26T09:50:46Z</time>
      </trkpt>
      <trkpt lat="47.77306" lon="7.13655">
        <ele>309</ele>
        <time>2021-02-26T09:50:46Z</time>
      </trkpt>
      <trkpt lat="47.77297" lon="7.13667">
        <ele>309</ele>
        <time>2021-02-26T09:50:46Z</time>
      </trkpt>
      <trkpt lat="47.77287" lon="7.13679">
        <ele>308</ele>
        <time>2021-02-26T09:50:46Z</time>
      </trkpt>
      <trkpt lat="47.77276" lon="7.1369">
        <ele>308</ele>
        <time>2021-02-26T09:50:46Z</time>
      </trkpt>
      <trkpt lat="47.77266" lon="7.13702">
        <ele>308</ele>
        <time>2021-02-26T09:50:46Z</time>
      </trkpt>
      <trkpt lat="47.77256" lon="7.13714">
        <ele>307</ele>
        <time>2021-02-26T09:50:46Z</time>
      </trkpt>
      <trkpt lat="47.77246" lon="7.13726">
        <ele>307</ele>
        <time>2021-02-26T09:50:46Z</time>
      </trkpt>
      <trkpt lat="47.77237" lon="7.13737">
        <ele>307</ele>
        <time>2021-02-26T09:50:46Z</time>
      </trkpt>
      <trkpt lat="47.77226" lon="7.13749">
        <ele>307</ele>
        <time>2021-02-26T09:50:46Z</time>
      </trkpt>
      <trkpt lat="47.77216" lon="7.13761">
        <ele>307</ele>
        <time>2021-02-26T09:50:46Z</time>
      </trkpt>
      <trkpt lat="47.77206" lon="7.13773">
        <ele>307</ele>
        <time>2021-02-26T09:50:46Z</time>
      </trkpt>
      <trkpt lat="47.77196" lon="7.13785">
        <ele>307</ele>
        <time>2021-02-26T09:50:46Z</time>
      </trkpt>
      <trkpt lat="47.77185" lon="7.13796">
        <ele>307</ele>
        <time>2021-02-26T09:50:46Z</time>
      </trkpt>
      <trkpt lat="47.77175" lon="7.13808">
        <ele>307</ele>
        <time>2021-02-26T09:50:46Z</time>
      </trkpt>
      <trkpt lat="47.77165" lon="7.1382">
        <ele>307</ele>
        <time>2021-02-26T09:50:46Z</time>
      </trkpt>
      <trkpt lat="47.77155" lon="7.13832">
        <ele>307</ele>
        <time>2021-02-26T09:50:46Z</time>
      </trkpt>
      <trkpt lat="47.77145" lon="7.13843">
        <ele>307</ele>
        <time>2021-02-26T09:50:46Z</time>
      </trkpt>
      <trkpt lat="47.77136" lon="7.13855">
        <ele>307</ele>
        <time>2021-02-26T09:50:46Z</time>
      </trkpt>
      <trkpt lat="47.77126" lon="7.13866">
        <ele>306</ele>
        <time>2021-02-26T09:50:46Z</time>
      </trkpt>
      <trkpt lat="47.77116" lon="7.13877">
        <ele>306</ele>
        <time>2021-02-26T09:50:46Z</time>
      </trkpt>
      <trkpt lat="47.77106" lon="7.13889">
        <ele>306</ele>
        <time>2021-02-26T09:50:46Z</time>
      </trkpt>
      <trkpt lat="47.77095" lon="7.13901">
        <ele>305</ele>
        <time>2021-02-26T09:50:46Z</time>
      </trkpt>
      <trkpt lat="47.77085" lon="7.13913">
        <ele>305</ele>
        <time>2021-02-26T09:50:46Z</time>
      </trkpt>
      <trkpt lat="47.77074" lon="7.13926">
        <ele>305</ele>
        <time>2021-02-26T09:50:46Z</time>
      </trkpt>
      <trkpt lat="47.77064" lon="7.13937">
        <ele>305</ele>
        <time>2021-02-26T09:50:46Z</time>
      </trkpt>
      <trkpt lat="47.77054" lon="7.1395">
        <ele>305</ele>
        <time>2021-02-26T09:50:46Z</time>
      </trkpt>
      <trkpt lat="47.77043" lon="7.13962">
        <ele>305</ele>
        <time>2021-02-26T09:50:46Z</time>
      </trkpt>
      <trkpt lat="47.77033" lon="7.13974">
        <ele>305</ele>
        <time>2021-02-26T09:50:46Z</time>
      </trkpt>
      <trkpt lat="47.77023" lon="7.13986">
        <ele>305</ele>
        <time>2021-02-26T09:50:46Z</time>
      </trkpt>
      <trkpt lat="47.77013" lon="7.13998">
        <ele>305</ele>
        <time>2021-02-26T09:50:46Z</time>
      </trkpt>
      <trkpt lat="47.77002" lon="7.14011">
        <ele>305</ele>
        <time>2021-02-26T09:50:46Z</time>
      </trkpt>
      <trkpt lat="47.76993" lon="7.14024">
        <ele>305</ele>
        <time>2021-02-26T09:50:46Z</time>
      </trkpt>
      <trkpt lat="47.76982" lon="7.14036">
        <ele>305</ele>
        <time>2021-02-26T09:50:46Z</time>
      </trkpt>
      <trkpt lat="47.76972" lon="7.14048">
        <ele>305</ele>
        <time>2021-02-26T09:50:46Z</time>
      </trkpt>
      <trkpt lat="47.76962" lon="7.14061">
        <ele>305</ele>
        <time>2021-02-26T09:50:46Z</time>
      </trkpt>
      <trkpt lat="47.76953" lon="7.14074">
        <ele>305</ele>
        <time>2021-02-26T09:50:46Z</time>
      </trkpt>
      <trkpt lat="47.76944" lon="7.14088">
        <ele>305</ele>
        <time>2021-02-26T09:50:46Z</time>
      </trkpt>
      <trkpt lat="47.76934" lon="7.14103">
        <ele>305</ele>
        <time>2021-02-26T09:50:46Z</time>
      </trkpt>
      <trkpt lat="47.76925" lon="7.14117">
        <ele>305</ele>
        <time>2021-02-26T09:50:46Z</time>
      </trkpt>
      <trkpt lat="47.76916" lon="7.14131">
        <ele>305</ele>
        <time>2021-02-26T09:50:46Z</time>
      </trkpt>
      <trkpt lat="47.76907" lon="7.14145">
        <ele>305</ele>
        <time>2021-02-26T09:50:46Z</time>
      </trkpt>
      <trkpt lat="47.76898" lon="7.14159">
        <ele>305</ele>
        <time>2021-02-26T09:50:46Z</time>
      </trkpt>
      <trkpt lat="47.76889" lon="7.14173">
        <ele>305</ele>
        <time>2021-02-26T09:50:46Z</time>
      </trkpt>
      <trkpt lat="47.7688" lon="7.14187">
        <ele>305</ele>
        <time>2021-02-26T09:50:46Z</time>
      </trkpt>
      <trkpt lat="47.76871" lon="7.14202">
        <ele>305</ele>
        <time>2021-02-26T09:50:46Z</time>
      </trkpt>
      <trkpt lat="47.76862" lon="7.14216">
        <ele>305</ele>
        <time>2021-02-26T09:50:46Z</time>
      </trkpt>
      <trkpt lat="47.76853" lon="7.1423">
        <ele>305</ele>
        <time>2021-02-26T09:50:46Z</time>
      </trkpt>
      <trkpt lat="47.76844" lon="7.14244">
        <ele>305</ele>
        <time>2021-02-26T09:50:46Z</time>
      </trkpt>
      <trkpt lat="47.76835" lon="7.14256">
        <ele>305</ele>
        <time>2021-02-26T09:50:46Z</time>
      </trkpt>
      <trkpt lat="47.76826" lon="7.1427">
        <ele>304</ele>
        <time>2021-02-26T09:50:46Z</time>
      </trkpt>
      <trkpt lat="47.76817" lon="7.14284">
        <ele>304</ele>
        <time>2021-02-26T09:50:46Z</time>
      </trkpt>
      <trkpt lat="47.76807" lon="7.14298">
        <ele>303</ele>
        <time>2021-02-26T09:50:46Z</time>
      </trkpt>
      <trkpt lat="47.76797" lon="7.14312">
        <ele>303</ele>
        <time>2021-02-26T09:50:46Z</time>
      </trkpt>
      <trkpt lat="47.76788" lon="7.14326">
        <ele>302</ele>
        <time>2021-02-26T09:50:46Z</time>
      </trkpt>
      <trkpt lat="47.76778" lon="7.14341">
        <ele>302</ele>
        <time>2021-02-26T09:50:46Z</time>
      </trkpt>
      <trkpt lat="47.76767" lon="7.14354">
        <ele>302</ele>
        <time>2021-02-26T09:50:46Z</time>
      </trkpt>
      <trkpt lat="47.76756" lon="7.14367">
        <ele>301</ele>
        <time>2021-02-26T09:50:46Z</time>
      </trkpt>
      <trkpt lat="47.76744" lon="7.1438">
        <ele>301</ele>
        <time>2021-02-26T09:50:46Z</time>
      </trkpt>
      <trkpt lat="47.76733" lon="7.14392">
        <ele>301</ele>
        <time>2021-02-26T09:50:46Z</time>
      </trkpt>
      <trkpt lat="47.76722" lon="7.14404">
        <ele>301</ele>
        <time>2021-02-26T09:50:46Z</time>
      </trkpt>
      <trkpt lat="47.76709" lon="7.14416">
        <ele>301</ele>
        <time>2021-02-26T09:50:46Z</time>
      </trkpt>
      <trkpt lat="47.76697" lon="7.14429">
        <ele>301</ele>
        <time>2021-02-26T09:50:46Z</time>
      </trkpt>
      <trkpt lat="47.76685" lon="7.14442">
        <ele>301</ele>
        <time>2021-02-26T09:50:46Z</time>
      </trkpt>
      <trkpt lat="47.76673" lon="7.14455">
        <ele>301</ele>
        <time>2021-02-26T09:50:46Z</time>
      </trkpt>
      <trkpt lat="47.76661" lon="7.14468">
        <ele>300</ele>
        <time>2021-02-26T09:50:46Z</time>
      </trkpt>
      <trkpt lat="47.76649" lon="7.14481">
        <ele>300</ele>
        <time>2021-02-26T09:50:46Z</time>
      </trkpt>
      <trkpt lat="47.76638" lon="7.14495">
        <ele>300</ele>
        <time>2021-02-26T09:50:46Z</time>
      </trkpt>
      <trkpt lat="47.76626" lon="7.14508">
        <ele>300</ele>
        <time>2021-02-26T09:50:46Z</time>
      </trkpt>
      <trkpt lat="47.76615" lon="7.14521">
        <ele>300</ele>
        <time>2021-02-26T09:50:46Z</time>
      </trkpt>
      <trkpt lat="47.76603" lon="7.14534">
        <ele>299</ele>
        <time>2021-02-26T09:50:46Z</time>
      </trkpt>
      <trkpt lat="47.76593" lon="7.14547">
        <ele>299</ele>
        <time>2021-02-26T09:50:46Z</time>
      </trkpt>
      <trkpt lat="47.76582" lon="7.14562">
        <ele>299</ele>
        <time>2021-02-26T09:50:46Z</time>
      </trkpt>
      <trkpt lat="47.76572" lon="7.14576">
        <ele>299</ele>
        <time>2021-02-26T09:50:46Z</time>
      </trkpt>
      <trkpt lat="47.76563" lon="7.1459">
        <ele>299</ele>
        <time>2021-02-26T09:50:46Z</time>
      </trkpt>
      <trkpt lat="47.76554" lon="7.14605">
        <ele>298</ele>
        <time>2021-02-26T09:50:46Z</time>
      </trkpt>
      <trkpt lat="47.76544" lon="7.14618">
        <ele>298</ele>
        <time>2021-02-26T09:50:46Z</time>
      </trkpt>
      <trkpt lat="47.76535" lon="7.14633">
        <ele>298</ele>
        <time>2021-02-26T09:50:46Z</time>
      </trkpt>
      <trkpt lat="47.76525" lon="7.14647">
        <ele>298</ele>
        <time>2021-02-26T09:50:46Z</time>
      </trkpt>
      <trkpt lat="47.76516" lon="7.14662">
        <ele>297</ele>
        <time>2021-02-26T09:50:46Z</time>
      </trkpt>
      <trkpt lat="47.76506" lon="7.14675">
        <ele>297</ele>
        <time>2021-02-26T09:50:46Z</time>
      </trkpt>
      <trkpt lat="47.76497" lon="7.14688">
        <ele>297</ele>
        <time>2021-02-26T09:50:46Z</time>
      </trkpt>
      <trkpt lat="47.76487" lon="7.14701">
        <ele>298</ele>
        <time>2021-02-26T09:50:46Z</time>
      </trkpt>
      <trkpt lat="47.76477" lon="7.14714">
        <ele>298</ele>
        <time>2021-02-26T09:50:46Z</time>
      </trkpt>
      <trkpt lat="47.76468" lon="7.14727">
        <ele>298</ele>
        <time>2021-02-26T09:50:46Z</time>
      </trkpt>
      <trkpt lat="47.76459" lon="7.14741">
        <ele>298</ele>
        <time>2021-02-26T09:50:46Z</time>
      </trkpt>
      <trkpt lat="47.76449" lon="7.14754">
        <ele>298</ele>
        <time>2021-02-26T09:50:46Z</time>
      </trkpt>
      <trkpt lat="47.7644" lon="7.14768">
        <ele>298</ele>
        <time>2021-02-26T09:50:46Z</time>
      </trkpt>
      <trkpt lat="47.76431" lon="7.14781">
        <ele>298</ele>
        <time>2021-02-26T09:50:46Z</time>
      </trkpt>
      <trkpt lat="47.76423" lon="7.14794">
        <ele>298</ele>
        <time>2021-02-26T09:50:46Z</time>
      </trkpt>
      <trkpt lat="47.76415" lon="7.14808">
        <ele>298</ele>
        <time>2021-02-26T09:50:46Z</time>
      </trkpt>
      <trkpt lat="47.76406" lon="7.14821">
        <ele>298</ele>
        <time>2021-02-26T09:50:46Z</time>
      </trkpt>
      <trkpt lat="47.76399" lon="7.14834">
        <ele>297</ele>
        <time>2021-02-26T09:50:46Z</time>
      </trkpt>
      <trkpt lat="47.76389" lon="7.14846">
        <ele>297</ele>
        <time>2021-02-26T09:50:46Z</time>
      </trkpt>
      <trkpt lat="47.76379" lon="7.14859">
        <ele>297</ele>
        <time>2021-02-26T09:50:46Z</time>
      </trkpt>
      <trkpt lat="47.76369" lon="7.1487">
        <ele>296</ele>
        <time>2021-02-26T09:50:46Z</time>
      </trkpt>
      <trkpt lat="47.76359" lon="7.14882">
        <ele>296</ele>
        <time>2021-02-26T09:50:46Z</time>
      </trkpt>
      <trkpt lat="47.76348" lon="7.14895">
        <ele>296</ele>
        <time>2021-02-26T09:50:46Z</time>
      </trkpt>
      <trkpt lat="47.76336" lon="7.14908">
        <ele>295</ele>
        <time>2021-02-26T09:50:46Z</time>
      </trkpt>
      <trkpt lat="47.76324" lon="7.14922">
        <ele>295</ele>
        <time>2021-02-26T09:50:46Z</time>
      </trkpt>
      <trkpt lat="47.76311" lon="7.14936">
        <ele>295</ele>
        <time>2021-02-26T09:50:46Z</time>
      </trkpt>
      <trkpt lat="47.76301" lon="7.14951">
        <ele>295</ele>
        <time>2021-02-26T09:50:46Z</time>
      </trkpt>
      <trkpt lat="47.76289" lon="7.14965">
        <ele>294</ele>
        <time>2021-02-26T09:50:46Z</time>
      </trkpt>
      <trkpt lat="47.76277" lon="7.14979">
        <ele>294</ele>
        <time>2021-02-26T09:50:46Z</time>
      </trkpt>
      <trkpt lat="47.76265" lon="7.14992">
        <ele>294</ele>
        <time>2021-02-26T09:50:46Z</time>
      </trkpt>
      <trkpt lat="47.76252" lon="7.15003">
        <ele>294</ele>
        <time>2021-02-26T09:50:46Z</time>
      </trkpt>
      <trkpt lat="47.76239" lon="7.1501">
        <ele>294</ele>
        <time>2021-02-26T09:50:46Z</time>
      </trkpt>
      <trkpt lat="47.76226" lon="7.15017">
        <ele>294</ele>
        <time>2021-02-26T09:50:46Z</time>
      </trkpt>
      <trkpt lat="47.76213" lon="7.15027">
        <ele>294</ele>
        <time>2021-02-26T09:50:46Z</time>
      </trkpt>
      <trkpt lat="47.762" lon="7.15036">
        <ele>294</ele>
        <time>2021-02-26T09:50:46Z</time>
      </trkpt>
      <trkpt lat="47.76189" lon="7.1505">
        <ele>294</ele>
        <time>2021-02-26T09:50:46Z</time>
      </trkpt>
      <trkpt lat="47.76179" lon="7.15066">
        <ele>294</ele>
        <time>2021-02-26T09:50:46Z</time>
      </trkpt>
      <trkpt lat="47.7617" lon="7.15083">
        <ele>293</ele>
        <time>2021-02-26T09:50:46Z</time>
      </trkpt>
      <trkpt lat="47.76163" lon="7.15101">
        <ele>293</ele>
        <time>2021-02-26T09:50:46Z</time>
      </trkpt>
      <trkpt lat="47.76157" lon="7.1512">
        <ele>293</ele>
        <time>2021-02-26T09:50:46Z</time>
      </trkpt>
      <trkpt lat="47.76151" lon="7.15139">
        <ele>293</ele>
        <time>2021-02-26T09:50:46Z</time>
      </trkpt>
      <trkpt lat="47.76146" lon="7.15159">
        <ele>293</ele>
        <time>2021-02-26T09:50:46Z</time>
      </trkpt>
      <trkpt lat="47.76142" lon="7.15179">
        <ele>293</ele>
        <time>2021-02-26T09:50:46Z</time>
      </trkpt>
      <trkpt lat="47.76138" lon="7.15199">
        <ele>293</ele>
        <time>2021-02-26T09:50:46Z</time>
      </trkpt>
      <trkpt lat="47.76133" lon="7.1522">
        <ele>293</ele>
        <time>2021-02-26T09:50:46Z</time>
      </trkpt>
      <trkpt lat="47.76126" lon="7.1524">
        <ele>294</ele>
        <time>2021-02-26T09:50:46Z</time>
      </trkpt>
      <trkpt lat="47.7612" lon="7.15259">
        <ele>294</ele>
        <time>2021-02-26T09:50:46Z</time>
      </trkpt>
      <trkpt lat="47.76113" lon="7.15276">
        <ele>294</ele>
        <time>2021-02-26T09:50:46Z</time>
      </trkpt>
      <trkpt lat="47.76106" lon="7.15294">
        <ele>294</ele>
        <time>2021-02-26T09:50:46Z</time>
      </trkpt>
      <trkpt lat="47.76098" lon="7.15311">
        <ele>294</ele>
        <time>2021-02-26T09:50:46Z</time>
      </trkpt>
      <trkpt lat="47.76092" lon="7.15327">
        <ele>294</ele>
        <time>2021-02-26T09:50:46Z</time>
      </trkpt>
      <trkpt lat="47.76087" lon="7.15343">
        <ele>294</ele>
        <time>2021-02-26T09:50:46Z</time>
      </trkpt>
      <trkpt lat="47.76078" lon="7.15354">
        <ele>294</ele>
        <time>2021-02-26T09:50:46Z</time>
      </trkpt>
      <trkpt lat="47.76067" lon="7.15358">
        <ele>294</ele>
        <time>2021-02-26T09:50:46Z</time>
      </trkpt>
      <trkpt lat="47.76056" lon="7.15355">
        <ele>294</ele>
        <time>2021-02-26T09:50:46Z</time>
      </trkpt>
      <trkpt lat="47.76045" lon="7.15352">
        <ele>294</ele>
        <time>2021-02-26T09:50:46Z</time>
      </trkpt>
      <trkpt lat="47.76033" lon="7.15349">
        <ele>294</ele>
        <time>2021-02-26T09:50:46Z</time>
      </trkpt>
      <trkpt lat="47.76022" lon="7.15345">
        <ele>294</ele>
        <time>2021-02-26T09:50:46Z</time>
      </trkpt>
      <trkpt lat="47.7601" lon="7.15339">
        <ele>295</ele>
        <time>2021-02-26T09:50:46Z</time>
      </trkpt>
      <trkpt lat="47.75998" lon="7.15335">
        <ele>295</ele>
        <time>2021-02-26T09:50:46Z</time>
      </trkpt>
      <trkpt lat="47.75986" lon="7.15333">
        <ele>295</ele>
        <time>2021-02-26T09:50:46Z</time>
      </trkpt>
      <trkpt lat="47.75974" lon="7.1533">
        <ele>295</ele>
        <time>2021-02-26T09:50:46Z</time>
      </trkpt>
      <trkpt lat="47.75962" lon="7.15328">
        <ele>295</ele>
        <time>2021-02-26T09:50:46Z</time>
      </trkpt>
      <trkpt lat="47.75949" lon="7.15326">
        <ele>295</ele>
        <time>2021-02-26T09:50:46Z</time>
      </trkpt>
      <trkpt lat="47.75938" lon="7.15325">
        <ele>295</ele>
        <time>2021-02-26T09:50:46Z</time>
      </trkpt>
      <trkpt lat="47.75926" lon="7.15324">
        <ele>295</ele>
        <time>2021-02-26T09:50:46Z</time>
      </trkpt>
      <trkpt lat="47.75914" lon="7.15324">
        <ele>295</ele>
        <time>2021-02-26T09:50:46Z</time>
      </trkpt>
      <trkpt lat="47.75903" lon="7.15324">
        <ele>295</ele>
        <time>2021-02-26T09:50:46Z</time>
      </trkpt>
      <trkpt lat="47.75891" lon="7.15324">
        <ele>295</ele>
        <time>2021-02-26T09:50:46Z</time>
      </trkpt>
      <trkpt lat="47.75879" lon="7.15325">
        <ele>295</ele>
        <time>2021-02-26T09:50:46Z</time>
      </trkpt>
      <trkpt lat="47.75867" lon="7.15327">
        <ele>294</ele>
        <time>2021-02-26T09:50:46Z</time>
      </trkpt>
      <trkpt lat="47.75855" lon="7.15327">
        <ele>294</ele>
        <time>2021-02-26T09:50:46Z</time>
      </trkpt>
      <trkpt lat="47.75842" lon="7.1533">
        <ele>294</ele>
        <time>2021-02-26T09:50:46Z</time>
      </trkpt>
      <trkpt lat="47.7583" lon="7.15334">
        <ele>294</ele>
        <time>2021-02-26T09:50:46Z</time>
      </trkpt>
      <trkpt lat="47.75818" lon="7.15337">
        <ele>294</ele>
        <time>2021-02-26T09:50:46Z</time>
      </trkpt>
      <trkpt lat="47.75807" lon="7.1534">
        <ele>294</ele>
        <time>2021-02-26T09:50:46Z</time>
      </trkpt>
      <trkpt lat="47.75796" lon="7.15345">
        <ele>294</ele>
        <time>2021-02-26T09:50:46Z</time>
      </trkpt>
      <trkpt lat="47.75785" lon="7.15349">
        <ele>295</ele>
        <time>2021-02-26T09:50:46Z</time>
      </trkpt>
      <trkpt lat="47.75775" lon="7.15352">
        <ele>295</ele>
        <time>2021-02-26T09:50:46Z</time>
      </trkpt>
      <trkpt lat="47.75764" lon="7.15355">
        <ele>295</ele>
        <time>2021-02-26T09:50:46Z</time>
      </trkpt>
      <trkpt lat="47.75754" lon="7.15356">
        <ele>295</ele>
        <time>2021-02-26T09:50:46Z</time>
      </trkpt>
      <trkpt lat="47.75743" lon="7.15358">
        <ele>296</ele>
        <time>2021-02-26T09:50:46Z</time>
      </trkpt>
      <trkpt lat="47.75734" lon="7.15359">
        <ele>296</ele>
        <time>2021-02-26T09:50:46Z</time>
      </trkpt>
      <trkpt lat="47.75723" lon="7.1536">
        <ele>296</ele>
        <time>2021-02-26T09:50:46Z</time>
      </trkpt>
      <trkpt lat="47.75714" lon="7.1536">
        <ele>296</ele>
        <time>2021-02-26T09:50:46Z</time>
      </trkpt>
      <trkpt lat="47.75704" lon="7.1536">
        <ele>297</ele>
        <time>2021-02-26T09:50:46Z</time>
      </trkpt>
      <trkpt lat="47.75694" lon="7.15359">
        <ele>297</ele>
        <time>2021-02-26T09:50:46Z</time>
      </trkpt>
      <trkpt lat="47.75685" lon="7.15358">
        <ele>297</ele>
        <time>2021-02-26T09:50:46Z</time>
      </trkpt>
      <trkpt lat="47.75675" lon="7.15356">
        <ele>298</ele>
        <time>2021-02-26T09:50:46Z</time>
      </trkpt>
      <trkpt lat="47.75666" lon="7.15354">
        <ele>298</ele>
        <time>2021-02-26T09:50:46Z</time>
      </trkpt>
      <trkpt lat="47.75657" lon="7.15352">
        <ele>298</ele>
        <time>2021-02-26T09:50:46Z</time>
      </trkpt>
      <trkpt lat="47.75647" lon="7.1535">
        <ele>298</ele>
        <time>2021-02-26T09:50:46Z</time>
      </trkpt>
      <trkpt lat="47.75637" lon="7.15347">
        <ele>298</ele>
        <time>2021-02-26T09:50:46Z</time>
      </trkpt>
      <trkpt lat="47.75629" lon="7.15343">
        <ele>298</ele>
        <time>2021-02-26T09:50:46Z</time>
      </trkpt>
      <trkpt lat="47.7562" lon="7.15339">
        <ele>299</ele>
        <time>2021-02-26T09:50:46Z</time>
      </trkpt>
      <trkpt lat="47.75611" lon="7.15335">
        <ele>299</ele>
        <time>2021-02-26T09:50:46Z</time>
      </trkpt>
      <trkpt lat="47.75603" lon="7.15331">
        <ele>299</ele>
        <time>2021-02-26T09:50:46Z</time>
      </trkpt>
      <trkpt lat="47.75595" lon="7.15327">
        <ele>299</ele>
        <time>2021-02-26T09:50:46Z</time>
      </trkpt>
      <trkpt lat="47.75587" lon="7.15323">
        <ele>299</ele>
        <time>2021-02-26T09:50:46Z</time>
      </trkpt>
      <trkpt lat="47.7558" lon="7.15318">
        <ele>299</ele>
        <time>2021-02-26T09:50:46Z</time>
      </trkpt>
      <trkpt lat="47.75572" lon="7.15313">
        <ele>299</ele>
        <time>2021-02-26T09:50:46Z</time>
      </trkpt>
      <trkpt lat="47.75565" lon="7.15308">
        <ele>300</ele>
        <time>2021-02-26T09:50:46Z</time>
      </trkpt>
      <trkpt lat="47.75557" lon="7.15304">
        <ele>300</ele>
        <time>2021-02-26T09:50:46Z</time>
      </trkpt>
      <trkpt lat="47.75549" lon="7.153">
        <ele>300</ele>
        <time>2021-02-26T09:50:46Z</time>
      </trkpt>
      <trkpt lat="47.75541" lon="7.15296">
        <ele>300</ele>
        <time>2021-02-26T09:50:46Z</time>
      </trkpt>
      <trkpt lat="47.75533" lon="7.15292">
        <ele>300</ele>
        <time>2021-02-26T09:50:46Z</time>
      </trkpt>
      <trkpt lat="47.75526" lon="7.15287">
        <ele>301</ele>
        <time>2021-02-26T09:50:46Z</time>
      </trkpt>
      <trkpt lat="47.75518" lon="7.15283">
        <ele>301</ele>
        <time>2021-02-26T09:50:46Z</time>
      </trkpt>
      <trkpt lat="47.75512" lon="7.1528">
        <ele>301</ele>
        <time>2021-02-26T09:50:46Z</time>
      </trkpt>
      <trkpt lat="47.75505" lon="7.15278">
        <ele>301</ele>
        <time>2021-02-26T09:50:46Z</time>
      </trkpt>
      <trkpt lat="47.75499" lon="7.15274">
        <ele>301</ele>
        <time>2021-02-26T09:50:46Z</time>
      </trkpt>
      <trkpt lat="47.75492" lon="7.15269">
        <ele>302</ele>
        <time>2021-02-26T09:50:46Z</time>
      </trkpt>
      <trkpt lat="47.75486" lon="7.15265">
        <ele>302</ele>
        <time>2021-02-26T09:50:46Z</time>
      </trkpt>
      <trkpt lat="47.75479" lon="7.15262">
        <ele>303</ele>
        <time>2021-02-26T09:50:46Z</time>
      </trkpt>
      <trkpt lat="47.75473" lon="7.15259">
        <ele>303</ele>
        <time>2021-02-26T09:50:46Z</time>
      </trkpt>
      <trkpt lat="47.75466" lon="7.15256">
        <ele>303</ele>
        <time>2021-02-26T09:50:46Z</time>
      </trkpt>
      <trkpt lat="47.75459" lon="7.15254">
        <ele>304</ele>
        <time>2021-02-26T09:50:46Z</time>
      </trkpt>
      <trkpt lat="47.75453" lon="7.15251">
        <ele>304</ele>
        <time>2021-02-26T09:50:46Z</time>
      </trkpt>
      <trkpt lat="47.75446" lon="7.15248">
        <ele>305</ele>
        <time>2021-02-26T09:50:46Z</time>
      </trkpt>
      <trkpt lat="47.75439" lon="7.15246">
        <ele>305</ele>
        <time>2021-02-26T09:50:46Z</time>
      </trkpt>
      <trkpt lat="47.75433" lon="7.15242">
        <ele>306</ele>
        <time>2021-02-26T09:50:46Z</time>
      </trkpt>
      <trkpt lat="47.75426" lon="7.15239">
        <ele>306</ele>
        <time>2021-02-26T09:50:46Z</time>
      </trkpt>
      <trkpt lat="47.75419" lon="7.15237">
        <ele>307</ele>
        <time>2021-02-26T09:50:46Z</time>
      </trkpt>
      <trkpt lat="47.75412" lon="7.15234">
        <ele>307</ele>
        <time>2021-02-26T09:50:46Z</time>
      </trkpt>
      <trkpt lat="47.75404" lon="7.15231">
        <ele>307</ele>
        <time>2021-02-26T09:50:46Z</time>
      </trkpt>
      <trkpt lat="47.75397" lon="7.15229">
        <ele>307</ele>
        <time>2021-02-26T09:50:46Z</time>
      </trkpt>
      <trkpt lat="47.75389" lon="7.15226">
        <ele>308</ele>
        <time>2021-02-26T09:50:46Z</time>
      </trkpt>
      <trkpt lat="47.75382" lon="7.15223">
        <ele>308</ele>
        <time>2021-02-26T09:50:46Z</time>
      </trkpt>
      <trkpt lat="47.75375" lon="7.15219">
        <ele>308</ele>
        <time>2021-02-26T09:50:46Z</time>
      </trkpt>
      <trkpt lat="47.75368" lon="7.15216">
        <ele>308</ele>
        <time>2021-02-26T09:50:46Z</time>
      </trkpt>
      <trkpt lat="47.75361" lon="7.15213">
        <ele>309</ele>
        <time>2021-02-26T09:50:46Z</time>
      </trkpt>
      <trkpt lat="47.75354" lon="7.15211">
        <ele>309</ele>
        <time>2021-02-26T09:50:46Z</time>
      </trkpt>
      <trkpt lat="47.75347" lon="7.15207">
        <ele>309</ele>
        <time>2021-02-26T09:50:46Z</time>
      </trkpt>
      <trkpt lat="47.7534" lon="7.15204">
        <ele>309</ele>
        <time>2021-02-26T09:50:46Z</time>
      </trkpt>
      <trkpt lat="47.75333" lon="7.15202">
        <ele>309</ele>
        <time>2021-02-26T09:50:46Z</time>
      </trkpt>
      <trkpt lat="47.75325" lon="7.15199">
        <ele>310</ele>
        <time>2021-02-26T09:50:46Z</time>
      </trkpt>
      <trkpt lat="47.75318" lon="7.15196">
        <ele>310</ele>
        <time>2021-02-26T09:50:46Z</time>
      </trkpt>
      <trkpt lat="47.75311" lon="7.15193">
        <ele>310</ele>
        <time>2021-02-26T09:50:46Z</time>
      </trkpt>
      <trkpt lat="47.75304" lon="7.15189">
        <ele>311</ele>
        <time>2021-02-26T09:50:46Z</time>
      </trkpt>
      <trkpt lat="47.75297" lon="7.15186">
        <ele>311</ele>
        <time>2021-02-26T09:50:46Z</time>
      </trkpt>
      <trkpt lat="47.7529" lon="7.15183">
        <ele>311</ele>
        <time>2021-02-26T09:50:46Z</time>
      </trkpt>
      <trkpt lat="47.75283" lon="7.1518">
        <ele>312</ele>
        <time>2021-02-26T09:50:46Z</time>
      </trkpt>
      <trkpt lat="47.75276" lon="7.15177">
        <ele>312</ele>
        <time>2021-02-26T09:50:46Z</time>
      </trkpt>
      <trkpt lat="47.75269" lon="7.15174">
        <ele>313</ele>
        <time>2021-02-26T09:50:46Z</time>
      </trkpt>
      <trkpt lat="47.75261" lon="7.15171">
        <ele>313</ele>
        <time>2021-02-26T09:50:46Z</time>
      </trkpt>
      <trkpt lat="47.75254" lon="7.15168">
        <ele>314</ele>
        <time>2021-02-26T09:50:46Z</time>
      </trkpt>
      <trkpt lat="47.75246" lon="7.15164">
        <ele>314</ele>
        <time>2021-02-26T09:50:46Z</time>
      </trkpt>
      <trkpt lat="47.75238" lon="7.1516">
        <ele>314</ele>
        <time>2021-02-26T09:50:46Z</time>
      </trkpt>
      <trkpt lat="47.7523" lon="7.15156">
        <ele>314</ele>
        <time>2021-02-26T09:50:46Z</time>
      </trkpt>
      <trkpt lat="47.75221" lon="7.15152">
        <ele>314</ele>
        <time>2021-02-26T09:50:46Z</time>
      </trkpt>
      <trkpt lat="47.75212" lon="7.15148">
        <ele>314</ele>
        <time>2021-02-26T09:50:46Z</time>
      </trkpt>
      <trkpt lat="47.75202" lon="7.15144">
        <ele>314</ele>
        <time>2021-02-26T09:50:46Z</time>
      </trkpt>
      <trkpt lat="47.75193" lon="7.15139">
        <ele>314</ele>
        <time>2021-02-26T09:50:46Z</time>
      </trkpt>
      <trkpt lat="47.75182" lon="7.15133">
        <ele>314</ele>
        <time>2021-02-26T09:50:46Z</time>
      </trkpt>
      <trkpt lat="47.7517" lon="7.15128">
        <ele>314</ele>
        <time>2021-02-26T09:50:46Z</time>
      </trkpt>
      <trkpt lat="47.75158" lon="7.15121">
        <ele>314</ele>
        <time>2021-02-26T09:50:46Z</time>
      </trkpt>
      <trkpt lat="47.75145" lon="7.15111">
        <ele>313</ele>
        <time>2021-02-26T09:50:46Z</time>
      </trkpt>
      <trkpt lat="47.75131" lon="7.151">
        <ele>313</ele>
        <time>2021-02-26T09:50:46Z</time>
      </trkpt>
      <trkpt lat="47.75117" lon="7.15088">
        <ele>312</ele>
        <time>2021-02-26T09:50:46Z</time>
      </trkpt>
      <trkpt lat="47.75102" lon="7.15076">
        <ele>312</ele>
        <time>2021-02-26T09:50:46Z</time>
      </trkpt>
      <trkpt lat="47.75087" lon="7.15065">
        <ele>312</ele>
        <time>2021-02-26T09:50:46Z</time>
      </trkpt>
      <trkpt lat="47.75071" lon="7.15057">
        <ele>311</ele>
        <time>2021-02-26T09:50:46Z</time>
      </trkpt>
      <trkpt lat="47.75056" lon="7.15051">
        <ele>311</ele>
        <time>2021-02-26T09:50:46Z</time>
      </trkpt>
      <trkpt lat="47.75042" lon="7.15044">
        <ele>311</ele>
        <time>2021-02-26T09:50:46Z</time>
      </trkpt>
      <trkpt lat="47.75029" lon="7.15039">
        <ele>311</ele>
        <time>2021-02-26T09:50:46Z</time>
      </trkpt>
      <trkpt lat="47.75016" lon="7.15035">
        <ele>310</ele>
        <time>2021-02-26T09:50:46Z</time>
      </trkpt>
      <trkpt lat="47.75003" lon="7.15032">
        <ele>310</ele>
        <time>2021-02-26T09:50:46Z</time>
      </trkpt>
      <trkpt lat="47.74992" lon="7.15029">
        <ele>310</ele>
        <time>2021-02-26T09:50:46Z</time>
      </trkpt>
      <trkpt lat="47.74981" lon="7.15027">
        <ele>310</ele>
        <time>2021-02-26T09:50:46Z</time>
      </trkpt>
      <trkpt lat="47.74971" lon="7.15025">
        <ele>310</ele>
        <time>2021-02-26T09:50:46Z</time>
      </trkpt>
      <trkpt lat="47.74961" lon="7.15024">
        <ele>311</ele>
        <time>2021-02-26T09:50:46Z</time>
      </trkpt>
      <trkpt lat="47.74952" lon="7.15023">
        <ele>311</ele>
        <time>2021-02-26T09:50:46Z</time>
      </trkpt>
      <trkpt lat="47.74943" lon="7.15021">
        <ele>311</ele>
        <time>2021-02-26T09:50:46Z</time>
      </trkpt>
      <trkpt lat="47.74934" lon="7.1502">
        <ele>311</ele>
        <time>2021-02-26T09:50:46Z</time>
      </trkpt>
      <trkpt lat="47.74924" lon="7.15017">
        <ele>311</ele>
        <time>2021-02-26T09:50:46Z</time>
      </trkpt>
      <trkpt lat="47.74915" lon="7.15016">
        <ele>312</ele>
        <time>2021-02-26T09:50:46Z</time>
      </trkpt>
      <trkpt lat="47.74905" lon="7.15015">
        <ele>312</ele>
        <time>2021-02-26T09:50:46Z</time>
      </trkpt>
      <trkpt lat="47.74895" lon="7.15013">
        <ele>312</ele>
        <time>2021-02-26T09:50:46Z</time>
      </trkpt>
      <trkpt lat="47.74884" lon="7.1501">
        <ele>311</ele>
        <time>2021-02-26T09:50:46Z</time>
      </trkpt>
      <trkpt lat="47.74872" lon="7.15008">
        <ele>311</ele>
        <time>2021-02-26T09:50:46Z</time>
      </trkpt>
      <trkpt lat="47.7486" lon="7.15004">
        <ele>311</ele>
        <time>2021-02-26T09:50:46Z</time>
      </trkpt>
      <trkpt lat="47.74848" lon="7.14999">
        <ele>311</ele>
        <time>2021-02-26T09:50:46Z</time>
      </trkpt>
      <trkpt lat="47.74835" lon="7.14994">
        <ele>312</ele>
        <time>2021-02-26T09:50:46Z</time>
      </trkpt>
      <trkpt lat="47.74822" lon="7.14987">
        <ele>311</ele>
        <time>2021-02-26T09:50:46Z</time>
      </trkpt>
      <trkpt lat="47.74809" lon="7.14977">
        <ele>310</ele>
        <time>2021-02-26T09:50:46Z</time>
      </trkpt>
      <trkpt lat="47.74795" lon="7.14966">
        <ele>308</ele>
        <time>2021-02-26T09:50:46Z</time>
      </trkpt>
      <trkpt lat="47.74781" lon="7.14955">
        <ele>307</ele>
        <time>2021-02-26T09:50:46Z</time>
      </trkpt>
      <trkpt lat="47.74765" lon="7.14943">
        <ele>304</ele>
        <time>2021-02-26T09:50:46Z</time>
      </trkpt>
      <trkpt lat="47.7475" lon="7.1493">
        <ele>301</ele>
        <time>2021-02-26T09:50:46Z</time>
      </trkpt>
      <trkpt lat="47.74734" lon="7.14916">
        <ele>300</ele>
        <time>2021-02-26T09:50:46Z</time>
      </trkpt>
      <trkpt lat="47.74718" lon="7.14901">
        <ele>299</ele>
        <time>2021-02-26T09:50:46Z</time>
      </trkpt>
      <trkpt lat="47.74702" lon="7.14887">
        <ele>299</ele>
        <time>2021-02-26T09:50:46Z</time>
      </trkpt>
      <trkpt lat="47.74686" lon="7.14872">
        <ele>298</ele>
        <time>2021-02-26T09:50:46Z</time>
      </trkpt>
      <trkpt lat="47.74672" lon="7.14858">
        <ele>297</ele>
        <time>2021-02-26T09:50:46Z</time>
      </trkpt>
      <trkpt lat="47.74657" lon="7.14846">
        <ele>297</ele>
        <time>2021-02-26T09:50:46Z</time>
      </trkpt>
      <trkpt lat="47.74643" lon="7.14834">
        <ele>297</ele>
        <time>2021-02-26T09:50:46Z</time>
      </trkpt>
      <trkpt lat="47.7463" lon="7.14821">
        <ele>297</ele>
        <time>2021-02-26T09:50:46Z</time>
      </trkpt>
      <trkpt lat="47.74616" lon="7.14808">
        <ele>297</ele>
        <time>2021-02-26T09:50:46Z</time>
      </trkpt>
      <trkpt lat="47.74603" lon="7.14796">
        <ele>297</ele>
        <time>2021-02-26T09:50:46Z</time>
      </trkpt>
      <trkpt lat="47.7459" lon="7.14786">
        <ele>297</ele>
        <time>2021-02-26T09:50:46Z</time>
      </trkpt>
      <trkpt lat="47.74577" lon="7.14777">
        <ele>297</ele>
        <time>2021-02-26T09:50:46Z</time>
      </trkpt>
      <trkpt lat="47.74563" lon="7.14769">
        <ele>297</ele>
        <time>2021-02-26T09:50:46Z</time>
      </trkpt>
      <trkpt lat="47.74548" lon="7.14762">
        <ele>297</ele>
        <time>2021-02-26T09:50:46Z</time>
      </trkpt>
      <trkpt lat="47.74534" lon="7.14756">
        <ele>297</ele>
        <time>2021-02-26T09:50:46Z</time>
      </trkpt>
      <trkpt lat="47.7452" lon="7.14752">
        <ele>297</ele>
        <time>2021-02-26T09:50:46Z</time>
      </trkpt>
      <trkpt lat="47.74506" lon="7.14748">
        <ele>297</ele>
        <time>2021-02-26T09:50:46Z</time>
      </trkpt>
      <trkpt lat="47.74493" lon="7.14746">
        <ele>297</ele>
        <time>2021-02-26T09:50:46Z</time>
      </trkpt>
      <trkpt lat="47.74479" lon="7.14746">
        <ele>297</ele>
        <time>2021-02-26T09:50:46Z</time>
      </trkpt>
      <trkpt lat="47.74467" lon="7.14746">
        <ele>297</ele>
        <time>2021-02-26T09:50:46Z</time>
      </trkpt>
      <trkpt lat="47.74454" lon="7.14747">
        <ele>297</ele>
        <time>2021-02-26T09:50:46Z</time>
      </trkpt>
      <trkpt lat="47.74442" lon="7.14749">
        <ele>298</ele>
        <time>2021-02-26T09:50:46Z</time>
      </trkpt>
      <trkpt lat="47.7443" lon="7.1475">
        <ele>298</ele>
        <time>2021-02-26T09:50:46Z</time>
      </trkpt>
      <trkpt lat="47.74419" lon="7.14752">
        <ele>298</ele>
        <time>2021-02-26T09:50:46Z</time>
      </trkpt>
      <trkpt lat="47.74407" lon="7.14754">
        <ele>298</ele>
        <time>2021-02-26T09:50:46Z</time>
      </trkpt>
      <trkpt lat="47.74396" lon="7.14756">
        <ele>298</ele>
        <time>2021-02-26T09:50:46Z</time>
      </trkpt>
      <trkpt lat="47.74384" lon="7.14758">
        <ele>298</ele>
        <time>2021-02-26T09:50:46Z</time>
      </trkpt>
      <trkpt lat="47.74372" lon="7.14761">
        <ele>298</ele>
        <time>2021-02-26T09:50:46Z</time>
      </trkpt>
      <trkpt lat="47.7436" lon="7.14763">
        <ele>298</ele>
        <time>2021-02-26T09:50:46Z</time>
      </trkpt>
      <trkpt lat="47.74348" lon="7.14765">
        <ele>298</ele>
        <time>2021-02-26T09:50:46Z</time>
      </trkpt>
      <trkpt lat="47.74335" lon="7.14767">
        <ele>298</ele>
        <time>2021-02-26T09:50:46Z</time>
      </trkpt>
      <trkpt lat="47.74323" lon="7.14769">
        <ele>298</ele>
        <time>2021-02-26T09:50:46Z</time>
      </trkpt>
      <trkpt lat="47.74311" lon="7.1477">
        <ele>298</ele>
        <time>2021-02-26T09:50:46Z</time>
      </trkpt>
      <trkpt lat="47.74298" lon="7.14771">
        <ele>298</ele>
        <time>2021-02-26T09:50:46Z</time>
      </trkpt>
      <trkpt lat="47.74286" lon="7.14771">
        <ele>298</ele>
        <time>2021-02-26T09:50:46Z</time>
      </trkpt>
      <trkpt lat="47.74273" lon="7.14769">
        <ele>298</ele>
        <time>2021-02-26T09:50:46Z</time>
      </trkpt>
      <trkpt lat="47.74261" lon="7.14764">
        <ele>298</ele>
        <time>2021-02-26T09:50:46Z</time>
      </trkpt>
      <trkpt lat="47.74252" lon="7.14752">
        <ele>298</ele>
        <time>2021-02-26T09:50:46Z</time>
      </trkpt>
      <trkpt lat="47.74243" lon="7.14738">
        <ele>298</ele>
        <time>2021-02-26T09:50:46Z</time>
      </trkpt>
      <trkpt lat="47.74235" lon="7.14723">
        <ele>298</ele>
        <time>2021-02-26T09:50:46Z</time>
      </trkpt>
      <trkpt lat="47.74228" lon="7.14708">
        <ele>298</ele>
        <time>2021-02-26T09:50:46Z</time>
      </trkpt>
      <trkpt lat="47.74221" lon="7.14692">
        <ele>298</ele>
        <time>2021-02-26T09:50:46Z</time>
      </trkpt>
      <trkpt lat="47.74213" lon="7.14676">
        <ele>298</ele>
        <time>2021-02-26T09:50:46Z</time>
      </trkpt>
      <trkpt lat="47.74207" lon="7.1466">
        <ele>299</ele>
        <time>2021-02-26T09:50:46Z</time>
      </trkpt>
      <trkpt lat="47.74199" lon="7.14644">
        <ele>299</ele>
        <time>2021-02-26T09:50:46Z</time>
      </trkpt>
      <trkpt lat="47.74192" lon="7.14628">
        <ele>299</ele>
        <time>2021-02-26T09:50:46Z</time>
      </trkpt>
      <trkpt lat="47.74185" lon="7.14613">
        <ele>299</ele>
        <time>2021-02-26T09:50:46Z</time>
      </trkpt>
      <trkpt lat="47.74179" lon="7.14598">
        <ele>299</ele>
        <time>2021-02-26T09:50:46Z</time>
      </trkpt>
      <trkpt lat="47.74172" lon="7.14582">
        <ele>300</ele>
        <time>2021-02-26T09:50:46Z</time>
      </trkpt>
      <trkpt lat="47.74166" lon="7.14567">
        <ele>300</ele>
        <time>2021-02-26T09:50:46Z</time>
      </trkpt>
      <trkpt lat="47.74159" lon="7.14552">
        <ele>299</ele>
        <time>2021-02-26T09:50:46Z</time>
      </trkpt>
      <trkpt lat="47.74154" lon="7.14537">
        <ele>299</ele>
        <time>2021-02-26T09:50:46Z</time>
      </trkpt>
      <trkpt lat="47.74147" lon="7.14523">
        <ele>299</ele>
        <time>2021-02-26T09:50:46Z</time>
      </trkpt>
      <trkpt lat="47.7414" lon="7.14508">
        <ele>299</ele>
        <time>2021-02-26T09:50:46Z</time>
      </trkpt>
      <trkpt lat="47.74134" lon="7.14494">
        <ele>299</ele>
        <time>2021-02-26T09:50:46Z</time>
      </trkpt>
      <trkpt lat="47.74128" lon="7.14479">
        <ele>299</ele>
        <time>2021-02-26T09:50:46Z</time>
      </trkpt>
      <trkpt lat="47.74122" lon="7.14465">
        <ele>299</ele>
        <time>2021-02-26T09:50:46Z</time>
      </trkpt>
      <trkpt lat="47.74116" lon="7.1445">
        <ele>299</ele>
        <time>2021-02-26T09:50:46Z</time>
      </trkpt>
      <trkpt lat="47.74111" lon="7.14435">
        <ele>299</ele>
        <time>2021-02-26T09:50:46Z</time>
      </trkpt>
      <trkpt lat="47.74105" lon="7.14421">
        <ele>299</ele>
        <time>2021-02-26T09:50:46Z</time>
      </trkpt>
      <trkpt lat="47.74098" lon="7.14407">
        <ele>300</ele>
        <time>2021-02-26T09:50:46Z</time>
      </trkpt>
      <trkpt lat="47.74091" lon="7.14394">
        <ele>300</ele>
        <time>2021-02-26T09:50:46Z</time>
      </trkpt>
      <trkpt lat="47.74087" lon="7.14382">
        <ele>300</ele>
        <time>2021-02-26T09:50:46Z</time>
      </trkpt>
      <trkpt lat="47.74084" lon="7.14369">
        <ele>301</ele>
        <time>2021-02-26T09:50:46Z</time>
      </trkpt>
      <trkpt lat="47.74078" lon="7.14364">
        <ele>301</ele>
        <time>2021-02-26T09:50:46Z</time>
      </trkpt>
      <trkpt lat="47.74078" lon="7.14364">
        <ele>301</ele>
        <time>2021-02-26T09:50:46Z</time>
      </trkpt>
      <trkpt lat="47.74068" lon="7.14365">
        <ele>300</ele>
        <time>2021-02-26T09:50:46Z</time>
      </trkpt>
      <trkpt lat="47.74068" lon="7.14365">
        <ele>300</ele>
        <time>2021-02-26T09:50:46Z</time>
      </trkpt>
      <trkpt lat="47.74058" lon="7.14374">
        <ele>300</ele>
        <time>2021-02-26T09:50:46Z</time>
      </trkpt>
      <trkpt lat="47.74052" lon="7.14376">
        <ele>300</ele>
        <time>2021-02-26T09:50:46Z</time>
      </trkpt>
      <trkpt lat="47.74046" lon="7.14373">
        <ele>300</ele>
        <time>2021-02-26T09:50:46Z</time>
      </trkpt>
      <trkpt lat="47.74041" lon="7.14365">
        <ele>300</ele>
        <time>2021-02-26T09:50:46Z</time>
      </trkpt>
      <trkpt lat="47.74033" lon="7.14362">
        <ele>300</ele>
        <time>2021-02-26T09:50:46Z</time>
      </trkpt>
      <trkpt lat="47.74026" lon="7.14364">
        <ele>300</ele>
        <time>2021-02-26T09:50:46Z</time>
      </trkpt>
      <trkpt lat="47.74022" lon="7.14374">
        <ele>300</ele>
        <time>2021-02-26T09:50:46Z</time>
      </trkpt>
      <trkpt lat="47.7402" lon="7.14384">
        <ele>300</ele>
        <time>2021-02-26T09:50:46Z</time>
      </trkpt>
      <trkpt lat="47.74018" lon="7.14395">
        <ele>300</ele>
        <time>2021-02-26T09:50:46Z</time>
      </trkpt>
      <trkpt lat="47.74014" lon="7.14409">
        <ele>300</ele>
        <time>2021-02-26T09:50:46Z</time>
      </trkpt>
      <trkpt lat="47.74009" lon="7.14423">
        <ele>300</ele>
        <time>2021-02-26T09:50:46Z</time>
      </trkpt>
      <trkpt lat="47.74004" lon="7.14436">
        <ele>300</ele>
        <time>2021-02-26T09:50:46Z</time>
      </trkpt>
      <trkpt lat="47.74001" lon="7.14452">
        <ele>300</ele>
        <time>2021-02-26T09:50:46Z</time>
      </trkpt>
      <trkpt lat="47.73997" lon="7.14468">
        <ele>299</ele>
        <time>2021-02-26T09:50:46Z</time>
      </trkpt>
      <trkpt lat="47.73994" lon="7.14485">
        <ele>299</ele>
        <time>2021-02-26T09:50:46Z</time>
      </trkpt>
      <trkpt lat="47.73993" lon="7.14501">
        <ele>299</ele>
        <time>2021-02-26T09:50:46Z</time>
      </trkpt>
      <trkpt lat="47.7399" lon="7.14519">
        <ele>299</ele>
        <time>2021-02-26T09:50:46Z</time>
      </trkpt>
      <trkpt lat="47.73987" lon="7.14537">
        <ele>299</ele>
        <time>2021-02-26T09:50:46Z</time>
      </trkpt>
      <trkpt lat="47.73985" lon="7.14554">
        <ele>299</ele>
        <time>2021-02-26T09:50:46Z</time>
      </trkpt>
      <trkpt lat="47.73981" lon="7.14571">
        <ele>299</ele>
        <time>2021-02-26T09:50:46Z</time>
      </trkpt>
      <trkpt lat="47.73977" lon="7.14589">
        <ele>299</ele>
        <time>2021-02-26T09:50:46Z</time>
      </trkpt>
      <trkpt lat="47.73975" lon="7.14607">
        <ele>299</ele>
        <time>2021-02-26T09:50:46Z</time>
      </trkpt>
      <trkpt lat="47.73974" lon="7.14625">
        <ele>299</ele>
        <time>2021-02-26T09:50:46Z</time>
      </trkpt>
      <trkpt lat="47.73973" lon="7.14643">
        <ele>299</ele>
        <time>2021-02-26T09:50:46Z</time>
      </trkpt>
      <trkpt lat="47.73972" lon="7.1466">
        <ele>299</ele>
        <time>2021-02-26T09:50:46Z</time>
      </trkpt>
      <trkpt lat="47.7397" lon="7.14677">
        <ele>299</ele>
        <time>2021-02-26T09:50:46Z</time>
      </trkpt>
      <trkpt lat="47.73962" lon="7.14693">
        <ele>299</ele>
        <time>2021-02-26T09:50:46Z</time>
      </trkpt>
      <trkpt lat="47.73951" lon="7.14702">
        <ele>298</ele>
        <time>2021-02-26T09:50:46Z</time>
      </trkpt>
      <trkpt lat="47.73939" lon="7.14706">
        <ele>298</ele>
        <time>2021-02-26T09:50:46Z</time>
      </trkpt>
      <trkpt lat="47.73926" lon="7.14709">
        <ele>298</ele>
        <time>2021-02-26T09:50:46Z</time>
      </trkpt>
      <trkpt lat="47.73912" lon="7.14712">
        <ele>298</ele>
        <time>2021-02-26T09:50:46Z</time>
      </trkpt>
      <trkpt lat="47.73899" lon="7.14715">
        <ele>298</ele>
        <time>2021-02-26T09:50:46Z</time>
      </trkpt>
      <trkpt lat="47.73886" lon="7.14717">
        <ele>298</ele>
        <time>2021-02-26T09:50:46Z</time>
      </trkpt>
      <trkpt lat="47.73873" lon="7.14719">
        <ele>298</ele>
        <time>2021-02-26T09:50:46Z</time>
      </trkpt>
      <trkpt lat="47.7386" lon="7.14723">
        <ele>298</ele>
        <time>2021-02-26T09:50:46Z</time>
      </trkpt>
      <trkpt lat="47.73846" lon="7.14725">
        <ele>298</ele>
        <time>2021-02-26T09:50:46Z</time>
      </trkpt>
      <trkpt lat="47.73834" lon="7.14729">
        <ele>298</ele>
        <time>2021-02-26T09:50:46Z</time>
      </trkpt>
      <trkpt lat="47.73821" lon="7.1473">
        <ele>298</ele>
        <time>2021-02-26T09:50:46Z</time>
      </trkpt>
      <trkpt lat="47.73808" lon="7.14732">
        <ele>298</ele>
        <time>2021-02-26T09:50:46Z</time>
      </trkpt>
      <trkpt lat="47.73795" lon="7.14735">
        <ele>298</ele>
        <time>2021-02-26T09:50:46Z</time>
      </trkpt>
      <trkpt lat="47.73782" lon="7.14738">
        <ele>297</ele>
        <time>2021-02-26T09:50:46Z</time>
      </trkpt>
      <trkpt lat="47.73769" lon="7.1474">
        <ele>297</ele>
        <time>2021-02-26T09:50:46Z</time>
      </trkpt>
      <trkpt lat="47.73756" lon="7.14742">
        <ele>297</ele>
        <time>2021-02-26T09:50:46Z</time>
      </trkpt>
      <trkpt lat="47.73744" lon="7.14745">
        <ele>297</ele>
        <time>2021-02-26T09:50:46Z</time>
      </trkpt>
      <trkpt lat="47.73732" lon="7.14747">
        <ele>297</ele>
        <time>2021-02-26T09:50:46Z</time>
      </trkpt>
      <trkpt lat="47.7372" lon="7.14748">
        <ele>297</ele>
        <time>2021-02-26T09:50:46Z</time>
      </trkpt>
      <trkpt lat="47.73708" lon="7.1475">
        <ele>298</ele>
        <time>2021-02-26T09:50:46Z</time>
      </trkpt>
      <trkpt lat="47.73696" lon="7.14753">
        <ele>298</ele>
        <time>2021-02-26T09:50:46Z</time>
      </trkpt>
      <trkpt lat="47.73683" lon="7.14756">
        <ele>298</ele>
        <time>2021-02-26T09:50:46Z</time>
      </trkpt>
      <trkpt lat="47.73671" lon="7.14758">
        <ele>298</ele>
        <time>2021-02-26T09:50:46Z</time>
      </trkpt>
      <trkpt lat="47.73659" lon="7.1476">
        <ele>298</ele>
        <time>2021-02-26T09:50:46Z</time>
      </trkpt>
      <trkpt lat="47.73647" lon="7.14763">
        <ele>298</ele>
        <time>2021-02-26T09:50:46Z</time>
      </trkpt>
      <trkpt lat="47.73635" lon="7.14765">
        <ele>298</ele>
        <time>2021-02-26T09:50:46Z</time>
      </trkpt>
      <trkpt lat="47.73624" lon="7.14767">
        <ele>298</ele>
        <time>2021-02-26T09:50:46Z</time>
      </trkpt>
      <trkpt lat="47.73612" lon="7.14768">
        <ele>298</ele>
        <time>2021-02-26T09:50:46Z</time>
      </trkpt>
      <trkpt lat="47.73601" lon="7.1477">
        <ele>298</ele>
        <time>2021-02-26T09:50:46Z</time>
      </trkpt>
      <trkpt lat="47.7359" lon="7.14771">
        <ele>298</ele>
        <time>2021-02-26T09:50:46Z</time>
      </trkpt>
      <trkpt lat="47.73579" lon="7.14771">
        <ele>298</ele>
        <time>2021-02-26T09:50:46Z</time>
      </trkpt>
      <trkpt lat="47.73568" lon="7.14772">
        <ele>298</ele>
        <time>2021-02-26T09:50:46Z</time>
      </trkpt>
      <trkpt lat="47.73557" lon="7.14772">
        <ele>298</ele>
        <time>2021-02-26T09:50:46Z</time>
      </trkpt>
      <trkpt lat="47.73546" lon="7.14771">
        <ele>298</ele>
        <time>2021-02-26T09:50:46Z</time>
      </trkpt>
      <trkpt lat="47.73535" lon="7.14769">
        <ele>298</ele>
        <time>2021-02-26T09:50:46Z</time>
      </trkpt>
      <trkpt lat="47.73523" lon="7.14766">
        <ele>298</ele>
        <time>2021-02-26T09:50:46Z</time>
      </trkpt>
      <trkpt lat="47.73512" lon="7.14763">
        <ele>298</ele>
        <time>2021-02-26T09:50:46Z</time>
      </trkpt>
      <trkpt lat="47.73501" lon="7.1476">
        <ele>298</ele>
        <time>2021-02-26T09:50:46Z</time>
      </trkpt>
      <trkpt lat="47.7349" lon="7.14756">
        <ele>298</ele>
        <time>2021-02-26T09:50:46Z</time>
      </trkpt>
      <trkpt lat="47.73479" lon="7.14752">
        <ele>298</ele>
        <time>2021-02-26T09:50:46Z</time>
      </trkpt>
      <trkpt lat="47.73469" lon="7.14748">
        <ele>298</ele>
        <time>2021-02-26T09:50:46Z</time>
      </trkpt>
      <trkpt lat="47.73458" lon="7.14743">
        <ele>299</ele>
        <time>2021-02-26T09:50:46Z</time>
      </trkpt>
      <trkpt lat="47.73447" lon="7.14739">
        <ele>299</ele>
        <time>2021-02-26T09:50:46Z</time>
      </trkpt>
      <trkpt lat="47.73436" lon="7.14736">
        <ele>299</ele>
        <time>2021-02-26T09:50:46Z</time>
      </trkpt>
      <trkpt lat="47.73426" lon="7.14732">
        <ele>299</ele>
        <time>2021-02-26T09:50:46Z</time>
      </trkpt>
      <trkpt lat="47.73416" lon="7.14729">
        <ele>299</ele>
        <time>2021-02-26T09:50:46Z</time>
      </trkpt>
      <trkpt lat="47.73405" lon="7.14726">
        <ele>299</ele>
        <time>2021-02-26T09:50:46Z</time>
      </trkpt>
      <trkpt lat="47.73396" lon="7.14721">
        <ele>300</ele>
        <time>2021-02-26T09:50:46Z</time>
      </trkpt>
      <trkpt lat="47.73386" lon="7.14717">
        <ele>300</ele>
        <time>2021-02-26T09:50:46Z</time>
      </trkpt>
      <trkpt lat="47.73376" lon="7.14714">
        <ele>300</ele>
        <time>2021-02-26T09:50:46Z</time>
      </trkpt>
      <trkpt lat="47.73365" lon="7.14712">
        <ele>300</ele>
        <time>2021-02-26T09:50:46Z</time>
      </trkpt>
      <trkpt lat="47.73355" lon="7.1471">
        <ele>300</ele>
        <time>2021-02-26T09:50:46Z</time>
      </trkpt>
      <trkpt lat="47.73346" lon="7.14709">
        <ele>300</ele>
        <time>2021-02-26T09:50:46Z</time>
      </trkpt>
      <trkpt lat="47.73336" lon="7.14704">
        <ele>301</ele>
        <time>2021-02-26T09:50:46Z</time>
      </trkpt>
      <trkpt lat="47.7333" lon="7.14692">
        <ele>301</ele>
        <time>2021-02-26T09:50:46Z</time>
      </trkpt>
      <trkpt lat="47.73328" lon="7.14678">
        <ele>301</ele>
        <time>2021-02-26T09:50:46Z</time>
      </trkpt>
      <trkpt lat="47.73326" lon="7.14662">
        <ele>301</ele>
        <time>2021-02-26T09:50:46Z</time>
      </trkpt>
      <trkpt lat="47.73324" lon="7.14646">
        <ele>302</ele>
        <time>2021-02-26T09:50:46Z</time>
      </trkpt>
      <trkpt lat="47.73322" lon="7.14632">
        <ele>302</ele>
        <time>2021-02-26T09:50:46Z</time>
      </trkpt>
      <trkpt lat="47.7332" lon="7.14618">
        <ele>302</ele>
        <time>2021-02-26T09:50:46Z</time>
      </trkpt>
      <trkpt lat="47.73318" lon="7.14606">
        <ele>302</ele>
        <time>2021-02-26T09:50:46Z</time>
      </trkpt>
      <trkpt lat="47.73315" lon="7.14594">
        <ele>303</ele>
        <time>2021-02-26T09:50:46Z</time>
      </trkpt>
      <trkpt lat="47.73312" lon="7.14582">
        <ele>303</ele>
        <time>2021-02-26T09:50:46Z</time>
      </trkpt>
      <trkpt lat="47.73311" lon="7.1457">
        <ele>303</ele>
        <time>2021-02-26T09:50:46Z</time>
      </trkpt>
      <trkpt lat="47.73311" lon="7.14557">
        <ele>303</ele>
        <time>2021-02-26T09:50:46Z</time>
      </trkpt>
      <trkpt lat="47.73311" lon="7.14545">
        <ele>303</ele>
        <time>2021-02-26T09:50:46Z</time>
      </trkpt>
      <trkpt lat="47.7331" lon="7.14533">
        <ele>303</ele>
        <time>2021-02-26T09:50:46Z</time>
      </trkpt>
      <trkpt lat="47.73309" lon="7.14521">
        <ele>303</ele>
        <time>2021-02-26T09:50:46Z</time>
      </trkpt>
      <trkpt lat="47.73309" lon="7.14508">
        <ele>303</ele>
        <time>2021-02-26T09:50:46Z</time>
      </trkpt>
      <trkpt lat="47.7331" lon="7.14496">
        <ele>303</ele>
        <time>2021-02-26T09:50:46Z</time>
      </trkpt>
      <trkpt lat="47.7331" lon="7.14496">
        <ele>303</ele>
        <time>2021-02-26T09:50:46Z</time>
      </trkpt>
      <trkpt lat="47.7331" lon="7.14496">
        <ele>303</ele>
        <time>2021-02-26T09:50:46Z</time>
      </trkpt>
      <trkpt lat="47.7331" lon="7.14496">
        <ele>303</ele>
        <time>2021-02-26T09:50:46Z</time>
      </trkpt>
      <trkpt lat="47.7331" lon="7.14496">
        <ele>303</ele>
        <time>2021-02-26T09:50:46Z</time>
      </trkpt>
      <trkpt lat="47.7331" lon="7.14496">
        <ele>303</ele>
        <time>2021-02-26T09:50:46Z</time>
      </trkpt>
      <trkpt lat="47.7331" lon="7.14496">
        <ele>303</ele>
        <time>2021-02-26T09:50:46Z</time>
      </trkpt>
      <trkpt lat="47.7331" lon="7.14496">
        <ele>303</ele>
        <time>2021-02-26T09:50:46Z</time>
      </trkpt>
      <trkpt lat="47.7331" lon="7.14496">
        <ele>303</ele>
        <time>2021-02-26T09:50:46Z</time>
      </trkpt>
    </trkseg>
  </trk>
</gpx>